<?xml version='1.0' encoding='UTF-8'?><gpx version="1.1" creator="JPX - https://github.com/jenetics/jpx" xmlns="http://www.topografix.com/GPX/1/1"><trk><trkseg><trkpt lat="43.653169175508594" lon="2.9412963578654896"><ele>1120.0</ele><time>2026-04-07T15:03:06Z</time></trkpt><trkpt lat="43.653149868312596" lon="2.94138659709437"><ele>1120.0</ele><time>2026-04-07T15:03:07Z</time></trkpt><trkpt lat="43.6531280487638" lon="2.9415094404610307"><ele>1120.0</ele><time>2026-04-07T15:03:07.999Z</time></trkpt><trkpt lat="43.65312317138184" lon="2.9416635608209085"><ele>1120.0</ele><time>2026-04-07T15:03:08.999Z</time></trkpt><trkpt lat="43.65313784330779" lon="2.941837740813021"><ele>1120.0</ele><time>2026-04-07T15:03:09.999Z</time></trkpt><trkpt lat="43.65317068967193" lon="2.942029196753566"><ele>1118.5</ele><time>2026-04-07T15:03:10.999Z</time></trkpt><trkpt lat="43.65319577940797" lon="2.9422153110530624"><ele>1117.0</ele><time>2026-04-07T15:03:11.999Z</time></trkpt><trkpt lat="43.65322589259518" lon="2.9423925091430707"><ele>1115.5</ele><time>2026-04-07T15:03:12.999Z</time></trkpt><trkpt lat="43.653256601763715" lon="2.9425671421965007"><ele>1114.0</ele><time>2026-04-07T15:03:13.999Z</time></trkpt><trkpt lat="43.65329005507671" lon="2.942749667796717"><ele>1113.25</ele><time>2026-04-07T15:03:14.999Z</time></trkpt><trkpt lat="43.653321289789226" lon="2.942944841645981"><ele>1112.5</ele><time>2026-04-07T15:03:15.999Z</time></trkpt><trkpt lat="43.653360538959646" lon="2.9431474390171894"><ele>1111.75</ele><time>2026-04-07T15:03:16.999Z</time></trkpt><trkpt lat="43.65336446406874" lon="2.9433588369292543"><ele>1111.0</ele><time>2026-04-07T15:03:17.999Z</time></trkpt><trkpt lat="43.65335973590692" lon="2.9435845238176683"><ele>1109.3333333333333</ele><time>2026-04-07T15:03:18.999Z</time></trkpt><trkpt lat="43.65333173519955" lon="2.943814832044178"><ele>1107.6666666666667</ele><time>2026-04-07T15:03:19.999Z</time></trkpt><trkpt lat="43.65328620288978" lon="2.9440429299588384"><ele>1106.0</ele><time>2026-04-07T15:03:20.999Z</time></trkpt><trkpt lat="43.65322588372516" lon="2.944275378826934"><ele>1105.6666666666667</ele><time>2026-04-07T15:03:21.999Z</time></trkpt><trkpt lat="43.65315697102293" lon="2.9445084408353623"><ele>1105.3333333333333</ele><time>2026-04-07T15:03:22.999Z</time></trkpt><trkpt lat="43.6530838346671" lon="2.9447448368663345"><ele>1105.0</ele><time>2026-04-07T15:03:23.999Z</time></trkpt><trkpt lat="43.65300966889448" lon="2.9449745089604753"><ele>1105.0</ele><time>2026-04-07T15:03:24.999Z</time></trkpt><trkpt lat="43.65291754227323" lon="2.9451976896095884"><ele>1105.0</ele><time>2026-04-07T15:03:25.999Z</time></trkpt><trkpt lat="43.65281113320534" lon="2.945410803704324"><ele>1105.0</ele><time>2026-04-07T15:03:26.999Z</time></trkpt><trkpt lat="43.65269144878154" lon="2.9456181876405476"><ele>1105.0</ele><time>2026-04-07T15:03:27.999Z</time></trkpt><trkpt lat="43.652559625514634" lon="2.9458191398157925"><ele>1105.0</ele><time>2026-04-07T15:03:28.999Z</time></trkpt><trkpt lat="43.65241628472068" lon="2.9460138151450495"><ele>1105.0</ele><time>2026-04-07T15:03:29.999Z</time></trkpt><trkpt lat="43.65226549474142" lon="2.9461950555247283"><ele>1105.0</ele><time>2026-04-07T15:03:30.999Z</time></trkpt><trkpt lat="43.652106253584805" lon="2.9463786819491116"><ele>1105.0</ele><time>2026-04-07T15:03:31.999Z</time></trkpt><trkpt lat="43.651961869858525" lon="2.9465455756836554"><ele>1105.0</ele><time>2026-04-07T15:03:32.999Z</time></trkpt><trkpt lat="43.651821175153884" lon="2.946706027816111"><ele>1105.3333333333333</ele><time>2026-04-07T15:03:33.999Z</time></trkpt><trkpt lat="43.65168753021522" lon="2.94686020352084"><ele>1105.6666666666667</ele><time>2026-04-07T15:03:34.999Z</time></trkpt><trkpt lat="43.651572879345274" lon="2.947017792014368"><ele>1106.0</ele><time>2026-04-07T15:03:35.999Z</time></trkpt><trkpt lat="43.651434157794945" lon="2.9471585844060715"><ele>1106.0</ele><time>2026-04-07T15:03:36.999Z</time></trkpt><trkpt lat="43.65130892424777" lon="2.9472944916482575"><ele>1106.0</ele><time>2026-04-07T15:03:37.999Z</time></trkpt><trkpt lat="43.65118995832249" lon="2.9474337277154645"><ele>1106.0</ele><time>2026-04-07T15:03:38.999Z</time></trkpt><trkpt lat="43.65107824550432" lon="2.9475649103924755"><ele>1105.25</ele><time>2026-04-07T15:03:39.999Z</time></trkpt><trkpt lat="43.65097168310696" lon="2.94769109686142"><ele>1104.5</ele><time>2026-04-07T15:03:40.999Z</time></trkpt><trkpt lat="43.65086268245789" lon="2.947811699654787"><ele>1103.75</ele><time>2026-04-07T15:03:41.999Z</time></trkpt><trkpt lat="43.650741489721575" lon="2.9479447031812778"><ele>1103.0</ele><time>2026-04-07T15:03:42.999Z</time></trkpt><trkpt lat="43.650622894541776" lon="2.9480872611662017"><ele>1103.0</ele><time>2026-04-07T15:03:43.999Z</time></trkpt><trkpt lat="43.6504987626943" lon="2.9482400802781905"><ele>1103.0</ele><time>2026-04-07T15:03:44.999Z</time></trkpt><trkpt lat="43.65037197701355" lon="2.9484095114713402"><ele>1103.0</ele><time>2026-04-07T15:03:45.999Z</time></trkpt><trkpt lat="43.65025665108936" lon="2.9486004899541025"><ele>1102.3333333333335</ele><time>2026-04-07T15:03:46.999Z</time></trkpt><trkpt lat="43.650146355262734" lon="2.948797234747557"><ele>1101.6666666666667</ele><time>2026-04-07T15:03:47.999Z</time></trkpt><trkpt lat="43.650046843769374" lon="2.949005027301503"><ele>1101.0</ele><time>2026-04-07T15:03:48.999Z</time></trkpt><trkpt lat="43.649932833905126" lon="2.9491787094189648"><ele>1101.0</ele><time>2026-04-07T15:03:49.999Z</time></trkpt><trkpt lat="43.649779151572844" lon="2.949310034654712"><ele>1101.0</ele><time>2026-04-07T15:03:50.999Z</time></trkpt><trkpt lat="43.649621009145335" lon="2.949461057058298"><ele>1101.0</ele><time>2026-04-07T15:03:51.999Z</time></trkpt><trkpt lat="43.64945047400097" lon="2.9495954885138866"><ele>1099.0</ele><time>2026-04-07T15:03:52.999Z</time></trkpt><trkpt lat="43.64928237400397" lon="2.9497390352583177"><ele>1097.0</ele><time>2026-04-07T15:03:53.999Z</time></trkpt><trkpt lat="43.649113681071206" lon="2.949883323306416"><ele>1095.0</ele><time>2026-04-07T15:03:54.998Z</time></trkpt><trkpt lat="43.648934626066726" lon="2.950027360155305"><ele>1094.6666666666667</ele><time>2026-04-07T15:03:55.998Z</time></trkpt><trkpt lat="43.64876396561237" lon="2.9501738972612053"><ele>1094.3333333333335</ele><time>2026-04-07T15:03:56.998Z</time></trkpt><trkpt lat="43.6486033353971" lon="2.9502940377162226"><ele>1094.0</ele><time>2026-04-07T15:03:57.998Z</time></trkpt><trkpt lat="43.648439408886894" lon="2.950436009994555"><ele>1093.0</ele><time>2026-04-07T15:03:58.998Z</time></trkpt><trkpt lat="43.64828534535212" lon="2.950565981973846"><ele>1092.0</ele><time>2026-04-07T15:03:59.998Z</time></trkpt><trkpt lat="43.64813904022433" lon="2.9506933312609975"><ele>1091.0</ele><time>2026-04-07T15:04:00.998Z</time></trkpt><trkpt lat="43.64798264605872" lon="2.9508200599846006"><ele>1090.6666666666667</ele><time>2026-04-07T15:04:01.998Z</time></trkpt><trkpt lat="43.647823567510734" lon="2.9509421269907574"><ele>1090.3333333333333</ele><time>2026-04-07T15:04:02.998Z</time></trkpt><trkpt lat="43.64766040572316" lon="2.951098652027371"><ele>1090.0</ele><time>2026-04-07T15:04:03.998Z</time></trkpt><trkpt lat="43.64750306814518" lon="2.951227199110813"><ele>1088.3333333333333</ele><time>2026-04-07T15:04:04.998Z</time></trkpt><trkpt lat="43.64733407276623" lon="2.951363332404901"><ele>1086.6666666666667</ele><time>2026-04-07T15:04:05.998Z</time></trkpt><trkpt lat="43.647155133324134" lon="2.951520491508434"><ele>1085.0</ele><time>2026-04-07T15:04:06.998Z</time></trkpt><trkpt lat="43.6470059021904" lon="2.9516365750344997"><ele>1085.0</ele><time>2026-04-07T15:04:07.998Z</time></trkpt><trkpt lat="43.64685155159706" lon="2.9517367538577415"><ele>1085.0</ele><time>2026-04-07T15:04:08.998Z</time></trkpt><trkpt lat="43.64670023275331" lon="2.9518450475692917"><ele>1085.0</ele><time>2026-04-07T15:04:09.998Z</time></trkpt><trkpt lat="43.646575181732935" lon="2.951928257173829"><ele>1085.0</ele><time>2026-04-07T15:04:10.998Z</time></trkpt><trkpt lat="43.6464567781198" lon="2.952019772508662"><ele>1085.0</ele><time>2026-04-07T15:04:11.998Z</time></trkpt><trkpt lat="43.64633776896898" lon="2.9520603912642835"><ele>1085.0</ele><time>2026-04-07T15:04:12.998Z</time></trkpt><trkpt lat="43.64621106475422" lon="2.9520521734587346"><ele>1085.0</ele><time>2026-04-07T15:04:13.998Z</time></trkpt><trkpt lat="43.64608951435374" lon="2.952019424489564"><ele>1083.5</ele><time>2026-04-07T15:04:14.998Z</time></trkpt><trkpt lat="43.64597893705869" lon="2.951961032772907"><ele>1082.0</ele><time>2026-04-07T15:04:15.998Z</time></trkpt><trkpt lat="43.64586838312684" lon="2.95188088761617"><ele>1080.5</ele><time>2026-04-07T15:04:16.998Z</time></trkpt><trkpt lat="43.64579690301612" lon="2.9517601139496232"><ele>1079.0</ele><time>2026-04-07T15:04:17.998Z</time></trkpt><trkpt lat="43.64573564344987" lon="2.9516571889409433"><ele>1079.0</ele><time>2026-04-07T15:04:18.998Z</time></trkpt><trkpt lat="43.64566319409517" lon="2.9516131669827974"><ele>1079.0</ele><time>2026-04-07T15:04:19.998Z</time></trkpt><trkpt lat="43.6455891974953" lon="2.951626169760123"><ele>1079.0</ele><time>2026-04-07T15:04:20.998Z</time></trkpt><trkpt lat="43.64552412813461" lon="2.9516789747515624"><ele>1079.0</ele><time>2026-04-07T15:04:21.998Z</time></trkpt><trkpt lat="43.64543065700143" lon="2.951768731218409"><ele>1079.0</ele><time>2026-04-07T15:04:22.998Z</time></trkpt><trkpt lat="43.64535133001585" lon="2.9518782267152615"><ele>1075.5</ele><time>2026-04-07T15:04:23.998Z</time></trkpt><trkpt lat="43.64525044996418" lon="2.952009882203567"><ele>1072.0</ele><time>2026-04-07T15:04:24.998Z</time></trkpt><trkpt lat="43.64513804150762" lon="2.952103491492446"><ele>1068.5</ele><time>2026-04-07T15:04:25.998Z</time></trkpt><trkpt lat="43.64503663475279" lon="2.9521978841248857"><ele>1065.0</ele><time>2026-04-07T15:04:26.998Z</time></trkpt><trkpt lat="43.644925954545215" lon="2.952262000297496"><ele>1065.0</ele><time>2026-04-07T15:04:27.998Z</time></trkpt><trkpt lat="43.64481843308184" lon="2.9523313615023006"><ele>1065.0</ele><time>2026-04-07T15:04:28.998Z</time></trkpt><trkpt lat="43.644722358874354" lon="2.9523700622654934"><ele>1065.0</ele><time>2026-04-07T15:04:29.998Z</time></trkpt><trkpt lat="43.644609542036214" lon="2.9523850424927316"><ele>1065.0</ele><time>2026-04-07T15:04:30.998Z</time></trkpt><trkpt lat="43.64453474886762" lon="2.9524262933054493"><ele>1065.0</ele><time>2026-04-07T15:04:31.998Z</time></trkpt><trkpt lat="43.6444691925618" lon="2.952493467911495"><ele>1064.4</ele><time>2026-04-07T15:04:32.998Z</time></trkpt><trkpt lat="43.64443645029469" lon="2.9525711353444475"><ele>1063.8</ele><time>2026-04-07T15:04:33.998Z</time></trkpt><trkpt lat="43.644420212574886" lon="2.952680884117052"><ele>1063.2</ele><time>2026-04-07T15:04:34.998Z</time></trkpt><trkpt lat="43.64443482402357" lon="2.9528281201483457"><ele>1062.6</ele><time>2026-04-07T15:04:35.998Z</time></trkpt><trkpt lat="43.64448128926583" lon="2.952989934526455"><ele>1062.0</ele><time>2026-04-07T15:04:37Z</time></trkpt><trkpt lat="43.644520477104905" lon="2.9531606220254365"><ele>1062.0</ele><time>2026-04-07T15:04:38Z</time></trkpt><trkpt lat="43.64455675367341" lon="2.9533152744696087"><ele>1062.0</ele><time>2026-04-07T15:04:39Z</time></trkpt><trkpt lat="43.64459104663972" lon="2.953460685486451"><ele>1062.0</ele><time>2026-04-07T15:04:40Z</time></trkpt><trkpt lat="43.644621424521546" lon="2.953572260257523"><ele>1062.0</ele><time>2026-04-07T15:04:41Z</time></trkpt><trkpt lat="43.64466801271303" lon="2.953681269207286"><ele>1062.0</ele><time>2026-04-07T15:04:42Z</time></trkpt><trkpt lat="43.64478334080855" lon="2.9537177088700464"><ele>1058.2</ele><time>2026-04-07T15:04:43Z</time></trkpt><trkpt lat="43.64486044674661" lon="2.9537890882185365"><ele>1054.4</ele><time>2026-04-07T15:04:44Z</time></trkpt><trkpt lat="43.64490360240449" lon="2.953881849035912"><ele>1050.6</ele><time>2026-04-07T15:04:45Z</time></trkpt><trkpt lat="43.64492705577464" lon="2.9540057835330846"><ele>1046.8</ele><time>2026-04-07T15:04:46Z</time></trkpt><trkpt lat="43.64487370133456" lon="2.9541354729413474"><ele>1043.0</ele><time>2026-04-07T15:04:47Z</time></trkpt><trkpt lat="43.644844371796545" lon="2.9542766185029454"><ele>1038.2</ele><time>2026-04-07T15:04:48Z</time></trkpt><trkpt lat="43.6448430207927" lon="2.9544111103382984"><ele>1033.4</ele><time>2026-04-07T15:04:49Z</time></trkpt><trkpt lat="43.64485562097079" lon="2.9545396944309235"><ele>1028.6000000000001</ele><time>2026-04-07T15:04:50Z</time></trkpt><trkpt lat="43.64488519712305" lon="2.9546527059930687"><ele>1023.8000000000001</ele><time>2026-04-07T15:04:51Z</time></trkpt><trkpt lat="43.645001216795535" lon="2.954727696726311"><ele>1019.0</ele><time>2026-04-07T15:04:52Z</time></trkpt><trkpt lat="43.645100634743656" lon="2.9548404606863725"><ele>1019.0</ele><time>2026-04-07T15:04:53Z</time></trkpt><trkpt lat="43.64519895909773" lon="2.954929670999872"><ele>1019.0</ele><time>2026-04-07T15:04:54Z</time></trkpt><trkpt lat="43.64529132115052" lon="2.9550181705701"><ele>1019.0</ele><time>2026-04-07T15:04:55Z</time></trkpt><trkpt lat="43.64537497806779" lon="2.955121417315125"><ele>1019.0</ele><time>2026-04-07T15:04:56Z</time></trkpt><trkpt lat="43.645448603481725" lon="2.955253817421471"><ele>1020.75</ele><time>2026-04-07T15:04:57Z</time></trkpt><trkpt lat="43.64550072181445" lon="2.9553987983549947"><ele>1022.5</ele><time>2026-04-07T15:04:58Z</time></trkpt><trkpt lat="43.64556015494164" lon="2.9555418761743826"><ele>1024.25</ele><time>2026-04-07T15:04:59Z</time></trkpt><trkpt lat="43.64562839276297" lon="2.955658454687775"><ele>1026.0</ele><time>2026-04-07T15:05:00Z</time></trkpt><trkpt lat="43.645727571158986" lon="2.955742266519591"><ele>1026.0</ele><time>2026-04-07T15:05:01Z</time></trkpt><trkpt lat="43.645861786273464" lon="2.9557628711596475"><ele>1026.0</ele><time>2026-04-07T15:05:02Z</time></trkpt><trkpt lat="43.64600207533483" lon="2.9557673796088144"><ele>1026.0</ele><time>2026-04-07T15:05:03Z</time></trkpt><trkpt lat="43.64614577435494" lon="2.9557718031862277"><ele>1026.0</ele><time>2026-04-07T15:05:04Z</time></trkpt><trkpt lat="43.646266371757704" lon="2.955820834567797"><ele>1027.5</ele><time>2026-04-07T15:05:05Z</time></trkpt><trkpt lat="43.64639672182699" lon="2.955846728366037"><ele>1029.0</ele><time>2026-04-07T15:05:06Z</time></trkpt><trkpt lat="43.64652410716048" lon="2.955860675995837"><ele>1030.5</ele><time>2026-04-07T15:05:07Z</time></trkpt><trkpt lat="43.646655350589384" lon="2.955874129349496"><ele>1032.0</ele><time>2026-04-07T15:05:08Z</time></trkpt><trkpt lat="43.64678962083073" lon="2.9558912606066197"><ele>1033.8</ele><time>2026-04-07T15:05:09Z</time></trkpt><trkpt lat="43.646913774097136" lon="2.9559069679674255"><ele>1035.6</ele><time>2026-04-07T15:05:10Z</time></trkpt><trkpt lat="43.64703511196253" lon="2.9558958607452492"><ele>1037.3999999999999</ele><time>2026-04-07T15:05:11Z</time></trkpt><trkpt lat="43.64713626388748" lon="2.955869482319018"><ele>1039.2</ele><time>2026-04-07T15:05:12Z</time></trkpt><trkpt lat="43.64720849216639" lon="2.955839186956856"><ele>1041.0</ele><time>2026-04-07T15:05:13Z</time></trkpt><trkpt lat="43.647295549624694" lon="2.955872140674942"><ele>1023.0</ele><time>2026-04-07T15:05:15Z</time></trkpt><trkpt lat="43.64725975488412" lon="2.9560104343975477"><ele>1005.0</ele><time>2026-04-07T15:05:17Z</time></trkpt><trkpt lat="43.646536046452354" lon="2.956081339587353"><ele>1005.0</ele><time>2026-04-07T15:05:25.999Z</time></trkpt><trkpt lat="43.6464107382262" lon="2.956105739200628"><ele>1005.0</ele><time>2026-04-07T15:05:26.999Z</time></trkpt><trkpt lat="43.64628333681694" lon="2.9561465377019456"><ele>1005.0</ele><time>2026-04-07T15:05:27.999Z</time></trkpt><trkpt lat="43.64616556675562" lon="2.956196290515804"><ele>1005.0</ele><time>2026-04-07T15:05:28.999Z</time></trkpt><trkpt lat="43.64605545948188" lon="2.956249621270681"><ele>1006.0</ele><time>2026-04-07T15:05:29.999Z</time></trkpt><trkpt lat="43.64594836029321" lon="2.956336156810108"><ele>1007.0</ele><time>2026-04-07T15:05:30.999Z</time></trkpt><trkpt lat="43.64585197466097" lon="2.956432099392341"><ele>1008.0</ele><time>2026-04-07T15:05:31.999Z</time></trkpt><trkpt lat="43.645763655174" lon="2.9565216193932597"><ele>1009.0</ele><time>2026-04-07T15:05:32.999Z</time></trkpt><trkpt lat="43.64572682450281" lon="2.956731327496808"><ele>1006.25</ele><time>2026-04-07T15:05:33.999Z</time></trkpt><trkpt lat="43.64569245511664" lon="2.956930781536015"><ele>1003.5</ele><time>2026-04-07T15:05:34.999Z</time></trkpt><trkpt lat="43.64565208313041" lon="2.9571329263431827"><ele>1000.75</ele><time>2026-04-07T15:05:35.999Z</time></trkpt><trkpt lat="43.64561106120822" lon="2.957324536979641"><ele>998.0</ele><time>2026-04-07T15:05:36.999Z</time></trkpt><trkpt lat="43.64560888485567" lon="2.9575226952540525"><ele>996.0</ele><time>2026-04-07T15:05:37.999Z</time></trkpt><trkpt lat="43.64557793807449" lon="2.9577070608729077"><ele>994.0</ele><time>2026-04-07T15:05:38.999Z</time></trkpt><trkpt lat="43.645559432129865" lon="2.9578937390643403"><ele>992.0</ele><time>2026-04-07T15:05:39.999Z</time></trkpt><trkpt lat="43.6455563517469" lon="2.958095845066836"><ele>990.0</ele><time>2026-04-07T15:05:40.999Z</time></trkpt><trkpt lat="43.6455725961077" lon="2.9583080883541886"><ele>987.6666666666667</ele><time>2026-04-07T15:05:41.999Z</time></trkpt><trkpt lat="43.64555635174006" lon="2.958533380245113"><ele>985.3333333333334</ele><time>2026-04-07T15:05:42.999Z</time></trkpt><trkpt lat="43.64555793052351" lon="2.9587668658105133"><ele>983.0</ele><time>2026-04-07T15:05:43.999Z</time></trkpt><trkpt lat="43.645593489179284" lon="2.959009569662409"><ele>981.5</ele><time>2026-04-07T15:05:44.999Z</time></trkpt><trkpt lat="43.64560767666305" lon="2.9592384487256225"><ele>980.0</ele><time>2026-04-07T15:05:45.999Z</time></trkpt><trkpt lat="43.6456052286289" lon="2.95942332008403"><ele>978.5</ele><time>2026-04-07T15:05:46.999Z</time></trkpt><trkpt lat="43.645570531825335" lon="2.959608147459286"><ele>977.0</ele><time>2026-04-07T15:05:47.999Z</time></trkpt><trkpt lat="43.645533782767764" lon="2.9598149015130986"><ele>977.0</ele><time>2026-04-07T15:05:48.999Z</time></trkpt><trkpt lat="43.645495572384455" lon="2.960025782552286"><ele>977.0</ele><time>2026-04-07T15:05:49.999Z</time></trkpt><trkpt lat="43.645456450111716" lon="2.9602416961075693"><ele>977.0</ele><time>2026-04-07T15:05:50.999Z</time></trkpt><trkpt lat="43.645416631933585" lon="2.96045158035643"><ele>974.6666666666667</ele><time>2026-04-07T15:05:51.999Z</time></trkpt><trkpt lat="43.64536252746133" lon="2.9606703016198477"><ele>972.3333333333333</ele><time>2026-04-07T15:05:52.999Z</time></trkpt><trkpt lat="43.64530283096158" lon="2.960893062921209"><ele>970.0</ele><time>2026-04-07T15:05:53.999Z</time></trkpt><trkpt lat="43.645246139496564" lon="2.9611167100967735"><ele>970.0</ele><time>2026-04-07T15:05:54.999Z</time></trkpt><trkpt lat="43.645210120492685" lon="2.9613256514690107"><ele>970.0</ele><time>2026-04-07T15:05:55.999Z</time></trkpt><trkpt lat="43.645216777869074" lon="2.9615552664278826"><ele>970.0</ele><time>2026-04-07T15:05:56.999Z</time></trkpt><trkpt lat="43.64523079394465" lon="2.9617978820562483"><ele>970.3333333333333</ele><time>2026-04-07T15:05:57.999Z</time></trkpt><trkpt lat="43.64522435169855" lon="2.962042673374879"><ele>970.6666666666667</ele><time>2026-04-07T15:05:58.999Z</time></trkpt><trkpt lat="43.64521937897159" lon="2.962281548629398"><ele>971.0</ele><time>2026-04-07T15:05:59.999Z</time></trkpt><trkpt lat="43.64517972956577" lon="2.962503149970386"><ele>975.3333333333334</ele><time>2026-04-07T15:06:00.999Z</time></trkpt><trkpt lat="43.64510085127007" lon="2.9627086745417657"><ele>979.6666666666667</ele><time>2026-04-07T15:06:01.999Z</time></trkpt><trkpt lat="43.645017770886845" lon="2.9629240722629464"><ele>984.0</ele><time>2026-04-07T15:06:02.999Z</time></trkpt><trkpt lat="43.64494276607396" lon="2.9631404545830815"><ele>984.0</ele><time>2026-04-07T15:06:03.998Z</time></trkpt><trkpt lat="43.64488225531654" lon="2.963346006704147"><ele>984.0</ele><time>2026-04-07T15:06:04.998Z</time></trkpt><trkpt lat="43.64484020824729" lon="2.9635260251794517"><ele>984.0</ele><time>2026-04-07T15:06:05.998Z</time></trkpt><trkpt lat="43.644797437064206" lon="2.9636721150004193"><ele>984.0</ele><time>2026-04-07T15:06:06.998Z</time></trkpt><trkpt lat="43.64476975431219" lon="2.963815060241734"><ele>986.75</ele><time>2026-04-07T15:06:07.998Z</time></trkpt><trkpt lat="43.64471403304875" lon="2.963951563418174"><ele>989.5</ele><time>2026-04-07T15:06:08.998Z</time></trkpt><trkpt lat="43.64467560967246" lon="2.9641070100519507"><ele>992.25</ele><time>2026-04-07T15:06:09.998Z</time></trkpt><trkpt lat="43.64463231760135" lon="2.9642547038852607"><ele>995.0</ele><time>2026-04-07T15:06:10.998Z</time></trkpt><trkpt lat="43.64458331726157" lon="2.9643843735035023"><ele>996.4</ele><time>2026-04-07T15:06:11.998Z</time></trkpt><trkpt lat="43.64455754977376" lon="2.9645023670725896"><ele>997.8</ele><time>2026-04-07T15:06:12.998Z</time></trkpt><trkpt lat="43.64455396351538" lon="2.9646177530949496"><ele>999.2</ele><time>2026-04-07T15:06:13.998Z</time></trkpt><trkpt lat="43.64458081646098" lon="2.9647293325703328"><ele>1000.6</ele><time>2026-04-07T15:06:14.998Z</time></trkpt><trkpt lat="43.64465797318433" lon="2.9648070099982506"><ele>1002.0</ele><time>2026-04-07T15:06:15.998Z</time></trkpt><trkpt lat="43.64477013172362" lon="2.964799241285207"><ele>1002.0</ele><time>2026-04-07T15:06:16.998Z</time></trkpt><trkpt lat="43.64486240425432" lon="2.9648274624049726"><ele>1002.0</ele><time>2026-04-07T15:06:17.998Z</time></trkpt><trkpt lat="43.644905790791675" lon="2.9649114747524288"><ele>1002.0</ele><time>2026-04-07T15:06:18.998Z</time></trkpt><trkpt lat="43.644905139934934" lon="2.9650371817979733"><ele>1002.0</ele><time>2026-04-07T15:06:19.998Z</time></trkpt><trkpt lat="43.64483619459804" lon="2.9651590641464463"><ele>1002.0</ele><time>2026-04-07T15:06:20.998Z</time></trkpt><trkpt lat="43.6447690999528" lon="2.9652696045540137"><ele>1004.4000000000001</ele><time>2026-04-07T15:06:21.998Z</time></trkpt><trkpt lat="43.644706253214224" lon="2.965379595568553"><ele>1006.8000000000001</ele><time>2026-04-07T15:06:22.998Z</time></trkpt><trkpt lat="43.64465267155734" lon="2.965496021164964"><ele>1009.2</ele><time>2026-04-07T15:06:23.998Z</time></trkpt><trkpt lat="43.644598306941624" lon="2.9655922074945695"><ele>1011.6</ele><time>2026-04-07T15:06:24.998Z</time></trkpt><trkpt lat="43.64455149381986" lon="2.9656931192119553"><ele>1014.0</ele><time>2026-04-07T15:06:25.998Z</time></trkpt><trkpt lat="43.64450527883042" lon="2.965796842396278"><ele>1009.8000000000001</ele><time>2026-04-07T15:06:26.998Z</time></trkpt><trkpt lat="43.64445589216222" lon="2.96589689438042"><ele>1005.6000000000001</ele><time>2026-04-07T15:06:27.998Z</time></trkpt><trkpt lat="43.64440274707114" lon="2.965995674467286"><ele>1001.4</ele><time>2026-04-07T15:06:28.998Z</time></trkpt><trkpt lat="43.64437603123713" lon="2.9661113614268664"><ele>997.2</ele><time>2026-04-07T15:06:29.998Z</time></trkpt><trkpt lat="43.64435995233171" lon="2.9662485634744282"><ele>993.0</ele><time>2026-04-07T15:06:30.998Z</time></trkpt><trkpt lat="43.6443513855926" lon="2.9663774974645922"><ele>993.0</ele><time>2026-04-07T15:06:31.998Z</time></trkpt><trkpt lat="43.64433632685268" lon="2.9665008290339823"><ele>993.0</ele><time>2026-04-07T15:06:32.998Z</time></trkpt><trkpt lat="43.64431983310361" lon="2.966625169047845"><ele>993.0</ele><time>2026-04-07T15:06:33.998Z</time></trkpt><trkpt lat="43.6443065239693" lon="2.966734391282567"><ele>993.0</ele><time>2026-04-07T15:06:34.998Z</time></trkpt><trkpt lat="43.64430584383416" lon="2.9668315113231807"><ele>993.0</ele><time>2026-04-07T15:06:35.998Z</time></trkpt><trkpt lat="43.644335732141634" lon="2.966925832520912"><ele>993.0</ele><time>2026-04-07T15:06:36.998Z</time></trkpt><trkpt lat="43.64444315139417" lon="2.9669546969110416"><ele>997.8</ele><time>2026-04-07T15:06:37.998Z</time></trkpt><trkpt lat="43.64453670687547" lon="2.966982868217593"><ele>1002.5999999999999</ele><time>2026-04-07T15:06:38.998Z</time></trkpt><trkpt lat="43.644634735316025" lon="2.967025693521423"><ele>1007.4000000000001</ele><time>2026-04-07T15:06:39.998Z</time></trkpt><trkpt lat="43.64472720797272" lon="2.9671002848494012"><ele>1012.2</ele><time>2026-04-07T15:06:40.998Z</time></trkpt><trkpt lat="43.64482703487496" lon="2.9671641511485993"><ele>1017.0</ele><time>2026-04-07T15:06:41.998Z</time></trkpt><trkpt lat="43.6449201231486" lon="2.967243988734248"><ele>1017.0</ele><time>2026-04-07T15:06:43Z</time></trkpt><trkpt lat="43.64500175217926" lon="2.967343833494561"><ele>1017.0</ele><time>2026-04-07T15:06:44Z</time></trkpt><trkpt lat="43.64507016302509" lon="2.9674685514045143"><ele>1017.0</ele><time>2026-04-07T15:06:45Z</time></trkpt><trkpt lat="43.64512565535631" lon="2.967606184610401"><ele>1017.0</ele><time>2026-04-07T15:06:46Z</time></trkpt><trkpt lat="43.645160701134344" lon="2.9677246886751267"><ele>1017.0</ele><time>2026-04-07T15:06:47Z</time></trkpt><trkpt lat="43.645191537249744" lon="2.967864917241718"><ele>1017.5</ele><time>2026-04-07T15:06:48Z</time></trkpt><trkpt lat="43.64522181559102" lon="2.9680433849467587"><ele>1018.0</ele><time>2026-04-07T15:06:49Z</time></trkpt><trkpt lat="43.64524736760926" lon="2.9682061130773403"><ele>1018.5</ele><time>2026-04-07T15:06:50Z</time></trkpt><trkpt lat="43.64530348043301" lon="2.9683719996677795"><ele>1019.0</ele><time>2026-04-07T15:06:51Z</time></trkpt><trkpt lat="43.645380361217" lon="2.96849427559008"><ele>1021.4000000000001</ele><time>2026-04-07T15:06:52Z</time></trkpt><trkpt lat="43.64543752382174" lon="2.9686328129167525"><ele>1023.8000000000001</ele><time>2026-04-07T15:06:53Z</time></trkpt><trkpt lat="43.6455020950255" lon="2.968756320925852"><ele>1026.1999999999998</ele><time>2026-04-07T15:06:54Z</time></trkpt><trkpt lat="43.64556569309844" lon="2.9688679670469655"><ele>1028.6</ele><time>2026-04-07T15:06:55Z</time></trkpt><trkpt lat="43.64560384360126" lon="2.9689679835971985"><ele>1031.0</ele><time>2026-04-07T15:06:56Z</time></trkpt><trkpt lat="43.645609004543445" lon="2.96906437796146"><ele>1031.0</ele><time>2026-04-07T15:06:57Z</time></trkpt><trkpt lat="43.64556814908226" lon="2.9691324744929286"><ele>1031.0</ele><time>2026-04-07T15:06:58Z</time></trkpt><trkpt lat="43.645442009856346" lon="2.969152559438103"><ele>1031.0</ele><time>2026-04-07T15:07:00Z</time></trkpt><trkpt lat="43.64538705459531" lon="2.9690696098902967"><ele>1031.0</ele><time>2026-04-07T15:07:01Z</time></trkpt><trkpt lat="43.64530176185624" lon="2.9690188175543555"><ele>1031.0</ele><time>2026-04-07T15:07:02Z</time></trkpt><trkpt lat="43.64519101168093" lon="2.9689422485742933"><ele>1030.5</ele><time>2026-04-07T15:07:03Z</time></trkpt><trkpt lat="43.64507011873311" lon="2.96889332320928"><ele>1030.0</ele><time>2026-04-07T15:07:04Z</time></trkpt><trkpt lat="43.644946336347374" lon="2.968865177247394"><ele>1029.5</ele><time>2026-04-07T15:07:05Z</time></trkpt><trkpt lat="43.64483279531492" lon="2.9688643990982198"><ele>1029.0</ele><time>2026-04-07T15:07:06Z</time></trkpt><trkpt lat="43.64473694064813" lon="2.96885048966444"><ele>1029.0</ele><time>2026-04-07T15:07:07Z</time></trkpt><trkpt lat="43.64463647142777" lon="2.9687532324424"><ele>1029.0</ele><time>2026-04-07T15:07:08Z</time></trkpt><trkpt lat="43.6445640544345" lon="2.9686173170958385"><ele>1029.0</ele><time>2026-04-07T15:07:09Z</time></trkpt><trkpt lat="43.64443639110635" lon="2.9685115161264406"><ele>1029.0</ele><time>2026-04-07T15:07:10Z</time></trkpt><trkpt lat="43.64432294642949" lon="2.9684380789313933"><ele>1031.5</ele><time>2026-04-07T15:07:11Z</time></trkpt><trkpt lat="43.6441911557407" lon="2.9684235019081395"><ele>1034.0</ele><time>2026-04-07T15:07:12Z</time></trkpt><trkpt lat="43.644079177368425" lon="2.968417331017745"><ele>1036.5</ele><time>2026-04-07T15:07:13Z</time></trkpt><trkpt lat="43.64395472392465" lon="2.9683986557411335"><ele>1039.0</ele><time>2026-04-07T15:07:14Z</time></trkpt><trkpt lat="43.64383972668465" lon="2.9683699643717056"><ele>1038.0</ele><time>2026-04-07T15:07:15Z</time></trkpt><trkpt lat="43.64373417341302" lon="2.9683238902507205"><ele>1037.0</ele><time>2026-04-07T15:07:16Z</time></trkpt><trkpt lat="43.64365054301785" lon="2.9682657412059026"><ele>1036.0</ele><time>2026-04-07T15:07:17Z</time></trkpt><trkpt lat="43.64357891233956" lon="2.9681804902499436"><ele>1035.0</ele><time>2026-04-07T15:07:18Z</time></trkpt><trkpt lat="43.64348962639683" lon="2.9680801507808843"><ele>1034.0</ele><time>2026-04-07T15:07:19Z</time></trkpt><trkpt lat="43.64341636534474" lon="2.9679432130257952"><ele>1034.0</ele><time>2026-04-07T15:07:20Z</time></trkpt><trkpt lat="43.6433443606515" lon="2.9678047856037804"><ele>1034.0</ele><time>2026-04-07T15:07:21Z</time></trkpt><trkpt lat="43.643295736030005" lon="2.967669847733903"><ele>1034.0</ele><time>2026-04-07T15:07:22Z</time></trkpt><trkpt lat="43.64322080784174" lon="2.9676003047685473"><ele>1034.0</ele><time>2026-04-07T15:07:22.999Z</time></trkpt><trkpt lat="43.64315747038961" lon="2.967553615422214"><ele>1034.0</ele><time>2026-04-07T15:07:23.999Z</time></trkpt><trkpt lat="43.643067120377694" lon="2.9675430967386087"><ele>1029.8333333333335</ele><time>2026-04-07T15:07:25.999Z</time></trkpt><trkpt lat="43.643000029915164" lon="2.9675138021211036"><ele>1025.6666666666667</ele><time>2026-04-07T15:07:28.999Z</time></trkpt><trkpt lat="43.6429231502118" lon="2.9675048635219254"><ele>1021.5</ele><time>2026-04-07T15:07:49.999Z</time></trkpt><trkpt lat="43.642848292826045" lon="2.967495677497186"><ele>1017.3333333333333</ele><time>2026-04-07T15:07:50.999Z</time></trkpt><trkpt lat="43.642776656006134" lon="2.9674934126592407"><ele>1013.1666666666666</ele><time>2026-04-07T15:07:51.999Z</time></trkpt><trkpt lat="43.6426987150162" lon="2.9674953456707183"><ele>1009.0</ele><time>2026-04-07T15:07:52.999Z</time></trkpt><trkpt lat="43.642612891363044" lon="2.967513515591643"><ele>1015.5</ele><time>2026-04-07T15:07:53.999Z</time></trkpt><trkpt lat="43.64251500430734" lon="2.967556640996954"><ele>1022.0</ele><time>2026-04-07T15:07:54.999Z</time></trkpt><trkpt lat="43.64241287517878" lon="2.9676041840019876"><ele>1028.5</ele><time>2026-04-07T15:07:55.999Z</time></trkpt><trkpt lat="43.64230063005742" lon="2.9676723487837458"><ele>1035.0</ele><time>2026-04-07T15:07:56.999Z</time></trkpt><trkpt lat="43.64217267782656" lon="2.9676968817288416"><ele>1035.0</ele><time>2026-04-07T15:07:57.999Z</time></trkpt><trkpt lat="43.64202805234807" lon="2.967708374163906"><ele>1035.0</ele><time>2026-04-07T15:07:58.999Z</time></trkpt><trkpt lat="43.64189175318285" lon="2.9676822656526616"><ele>1035.0</ele><time>2026-04-07T15:07:59.999Z</time></trkpt><trkpt lat="43.64173629556247" lon="2.9676912595119447"><ele>1035.0</ele><time>2026-04-07T15:08:00.999Z</time></trkpt><trkpt lat="43.641639151486544" lon="2.967730132197664"><ele>1032.25</ele><time>2026-04-07T15:08:01.999Z</time></trkpt><trkpt lat="43.64157144006398" lon="2.967849779322209"><ele>1029.5</ele><time>2026-04-07T15:08:02.999Z</time></trkpt><trkpt lat="43.641487073861796" lon="2.967969830127677"><ele>1026.75</ele><time>2026-04-07T15:08:03.999Z</time></trkpt><trkpt lat="43.64139432701842" lon="2.968102408390256"><ele>1024.0</ele><time>2026-04-07T15:08:04.999Z</time></trkpt><trkpt lat="43.64130965237183" lon="2.9682324473691755"><ele>1024.0</ele><time>2026-04-07T15:08:05.999Z</time></trkpt><trkpt lat="43.6412180800938" lon="2.9683261533184075"><ele>1024.0</ele><time>2026-04-07T15:08:06.998Z</time></trkpt><trkpt lat="43.64108644067735" lon="2.9683501767041536"><ele>1024.0</ele><time>2026-04-07T15:08:07.998Z</time></trkpt><trkpt lat="43.64094034863974" lon="2.9684145549669925"><ele>1024.0</ele><time>2026-04-07T15:08:08.998Z</time></trkpt><trkpt lat="43.64078731289206" lon="2.968464168105985"><ele>1023.5</ele><time>2026-04-07T15:08:09.998Z</time></trkpt><trkpt lat="43.6406549396209" lon="2.968536911053294"><ele>1023.0</ele><time>2026-04-07T15:08:10.998Z</time></trkpt><trkpt lat="43.64052657629508" lon="2.9686256775792983"><ele>1022.5</ele><time>2026-04-07T15:08:11.998Z</time></trkpt><trkpt lat="43.6403972350598" lon="2.968717133339609"><ele>1022.0</ele><time>2026-04-07T15:08:12.998Z</time></trkpt><trkpt lat="43.640265815115164" lon="2.9688138772512707"><ele>1017.4000000000001</ele><time>2026-04-07T15:08:13.998Z</time></trkpt><trkpt lat="43.64014035152092" lon="2.9689072803095393"><ele>1012.8000000000001</ele><time>2026-04-07T15:08:14.998Z</time></trkpt><trkpt lat="43.640026926101704" lon="2.968988079895669"><ele>1008.2</ele><time>2026-04-07T15:08:15.998Z</time></trkpt><trkpt lat="43.639940328098604" lon="2.969040314943594"><ele>1003.6</ele><time>2026-04-07T15:08:16.998Z</time></trkpt><trkpt lat="43.639873078314324" lon="2.969083987897035"><ele>999.0</ele><time>2026-04-07T15:08:17.998Z</time></trkpt><trkpt lat="43.639827145404105" lon="2.9691503975416236"><ele>997.2</ele><time>2026-04-07T15:08:20.998Z</time></trkpt><trkpt lat="43.6398053671636" lon="2.9692786240714235"><ele>995.4000000000001</ele><time>2026-04-07T15:08:28.998Z</time></trkpt><trkpt lat="43.63978646137922" lon="2.9694409634639753"><ele>993.6</ele><time>2026-04-07T15:08:30.998Z</time></trkpt><trkpt lat="43.63976410534941" lon="2.9695810086951138"><ele>991.8</ele><time>2026-04-07T15:08:32.998Z</time></trkpt><trkpt lat="43.63970897178811" lon="2.969703041602817"><ele>990.0</ele><time>2026-04-07T15:08:34.998Z</time></trkpt><trkpt lat="43.639651335048995" lon="2.969751709489274"><ele>990.0</ele><time>2026-04-07T15:08:35.998Z</time></trkpt><trkpt lat="43.63960320147939" lon="2.9698288517907976"><ele>990.0</ele><time>2026-04-07T15:08:36.998Z</time></trkpt><trkpt lat="43.63953760255922" lon="2.9698815682547957"><ele>990.0</ele><time>2026-04-07T15:08:37.998Z</time></trkpt><trkpt lat="43.63946680212999" lon="2.96993833056618"><ele>990.0</ele><time>2026-04-07T15:08:38.998Z</time></trkpt><trkpt lat="43.639395529325" lon="2.969998713708321"><ele>990.0</ele><time>2026-04-07T15:08:39.998Z</time></trkpt><trkpt lat="43.6393080001612" lon="2.970077410389179"><ele>990.0</ele><time>2026-04-07T15:08:40.998Z</time></trkpt><trkpt lat="43.639222727727095" lon="2.970166429172999"><ele>984.75</ele><time>2026-04-07T15:08:41.998Z</time></trkpt><trkpt lat="43.63912417854188" lon="2.970286534715498"><ele>979.5</ele><time>2026-04-07T15:08:42.998Z</time></trkpt><trkpt lat="43.63902256131116" lon="2.97039846413172"><ele>974.25</ele><time>2026-04-07T15:08:43.998Z</time></trkpt><trkpt lat="43.63892620794671" lon="2.9705343896052083"><ele>969.0</ele><time>2026-04-07T15:08:44.998Z</time></trkpt><trkpt lat="43.638833304930344" lon="2.9706993866530422"><ele>969.0</ele><time>2026-04-07T15:08:45.998Z</time></trkpt><trkpt lat="43.638732177521284" lon="2.9708485781017644"><ele>969.0</ele><time>2026-04-07T15:08:46.998Z</time></trkpt><trkpt lat="43.63864595789861" lon="2.971005479762637"><ele>969.0</ele><time>2026-04-07T15:08:47.998Z</time></trkpt><trkpt lat="43.63855544143922" lon="2.971157972244527"><ele>969.0</ele><time>2026-04-07T15:08:49Z</time></trkpt><trkpt lat="43.63847983603789" lon="2.971299021047503"><ele>969.0</ele><time>2026-04-07T15:08:50Z</time></trkpt><trkpt lat="43.63841043620397" lon="2.9714253291332344"><ele>969.0</ele><time>2026-04-07T15:08:51Z</time></trkpt><trkpt lat="43.638331174354356" lon="2.971535587436914"><ele>969.0</ele><time>2026-04-07T15:08:52Z</time></trkpt><trkpt lat="43.63823007154942" lon="2.971605678974083"><ele>969.0</ele><time>2026-04-07T15:08:53Z</time></trkpt><trkpt lat="43.63811603940006" lon="2.9716819466170277"><ele>968.3333333333333</ele><time>2026-04-07T15:08:54Z</time></trkpt><trkpt lat="43.63798693453678" lon="2.9717529812043755"><ele>967.6666666666666</ele><time>2026-04-07T15:08:55Z</time></trkpt><trkpt lat="43.637870706766705" lon="2.971886966388301"><ele>967.0</ele><time>2026-04-07T15:08:56Z</time></trkpt><trkpt lat="43.63776169388736" lon="2.9720506078093907"><ele>967.0</ele><time>2026-04-07T15:08:57Z</time></trkpt><trkpt lat="43.63765041948445" lon="2.9722206879928654"><ele>967.0</ele><time>2026-04-07T15:08:58Z</time></trkpt><trkpt lat="43.63752705889533" lon="2.97237080536008"><ele>967.0</ele><time>2026-04-07T15:08:59Z</time></trkpt><trkpt lat="43.6374304075615" lon="2.9725333587670235"><ele>960.6666666666666</ele><time>2026-04-07T15:09:00Z</time></trkpt><trkpt lat="43.6373147694482" lon="2.9726917479147663"><ele>954.3333333333333</ele><time>2026-04-07T15:09:01Z</time></trkpt><trkpt lat="43.637200524120765" lon="2.972828093984461"><ele>948.0</ele><time>2026-04-07T15:09:02Z</time></trkpt><trkpt lat="43.63708975985551" lon="2.9729682258785073"><ele>953.0</ele><time>2026-04-07T15:09:03Z</time></trkpt><trkpt lat="43.63696594095915" lon="2.973076660859531"><ele>958.0</ele><time>2026-04-07T15:09:04Z</time></trkpt><trkpt lat="43.6368519069202" lon="2.973192687996141"><ele>963.0</ele><time>2026-04-07T15:09:05Z</time></trkpt><trkpt lat="43.63674146861813" lon="2.973305056540685"><ele>968.0</ele><time>2026-04-07T15:09:06Z</time></trkpt><trkpt lat="43.636650674904104" lon="2.9734052602718486"><ele>968.0</ele><time>2026-04-07T15:09:07Z</time></trkpt><trkpt lat="43.636571796238215" lon="2.9734670251086137"><ele>968.0</ele><time>2026-04-07T15:09:08Z</time></trkpt><trkpt lat="43.63652208870222" lon="2.9735546336564673"><ele>968.0</ele><time>2026-04-07T15:09:09Z</time></trkpt><trkpt lat="43.636512670265134" lon="2.9736751133199797"><ele>968.0</ele><time>2026-04-07T15:09:10Z</time></trkpt><trkpt lat="43.63654448341858" lon="2.9738142030214174"><ele>968.0</ele><time>2026-04-07T15:09:11Z</time></trkpt><trkpt lat="43.63660842197929" lon="2.9739607154225474"><ele>968.0</ele><time>2026-04-07T15:09:12Z</time></trkpt><trkpt lat="43.63666612342998" lon="2.974138158611192"><ele>968.0</ele><time>2026-04-07T15:09:13Z</time></trkpt><trkpt lat="43.63670477171529" lon="2.9742877928157987"><ele>968.0</ele><time>2026-04-07T15:09:14Z</time></trkpt><trkpt lat="43.636730794105716" lon="2.974442821390815"><ele>968.0</ele><time>2026-04-07T15:09:15Z</time></trkpt><trkpt lat="43.636726144180074" lon="2.9745765213960214"><ele>967.75</ele><time>2026-04-07T15:09:16Z</time></trkpt><trkpt lat="43.63671438439829" lon="2.9747307011093844"><ele>967.5</ele><time>2026-04-07T15:09:17Z</time></trkpt><trkpt lat="43.6367000288474" lon="2.974902649724244"><ele>967.25</ele><time>2026-04-07T15:09:18Z</time></trkpt><trkpt lat="43.63668378600504" lon="2.9750918012705667"><ele>967.0</ele><time>2026-04-07T15:09:19Z</time></trkpt><trkpt lat="43.6366670178084" lon="2.9752810052230614"><ele>964.25</ele><time>2026-04-07T15:09:20Z</time></trkpt><trkpt lat="43.63666533476754" lon="2.975474828105517"><ele>961.5</ele><time>2026-04-07T15:09:21Z</time></trkpt><trkpt lat="43.636643971028086" lon="2.9756456666280835"><ele>958.75</ele><time>2026-04-07T15:09:22Z</time></trkpt><trkpt lat="43.63663112159933" lon="2.9758203138123682"><ele>956.0</ele><time>2026-04-07T15:09:23Z</time></trkpt><trkpt lat="43.636619693586645" lon="2.9759795301937166"><ele>953.5</ele><time>2026-04-07T15:09:24Z</time></trkpt><trkpt lat="43.63657675872891" lon="2.9760935371464567"><ele>951.0</ele><time>2026-04-07T15:09:25Z</time></trkpt><trkpt lat="43.63654100083555" lon="2.976182136290346"><ele>948.5</ele><time>2026-04-07T15:09:26Z</time></trkpt><trkpt lat="43.636473175284166" lon="2.976280451048717"><ele>946.0</ele><time>2026-04-07T15:09:27.999Z</time></trkpt><trkpt lat="43.63587104301251" lon="2.9763993800246835"><ele>946.0</ele><time>2026-04-07T15:14:53.999Z</time></trkpt><trkpt lat="43.63579123755149" lon="2.9764124637001124"><ele>945.9999999999999</ele><time>2026-04-07T15:14:54.999Z</time></trkpt><trkpt lat="43.63568720787182" lon="2.976432396450946"><ele>945.9999999999999</ele><time>2026-04-07T15:14:55.999Z</time></trkpt><trkpt lat="43.63557755023669" lon="2.9764536745082415"><ele>946.0</ele><time>2026-04-07T15:14:56.999Z</time></trkpt><trkpt lat="43.63546303948966" lon="2.9765380386843945"><ele>946.0</ele><time>2026-04-07T15:14:57.999Z</time></trkpt><trkpt lat="43.635350539077365" lon="2.9766575377966706"><ele>945.1999999999999</ele><time>2026-04-07T15:14:58.999Z</time></trkpt><trkpt lat="43.63524531861632" lon="2.9767383196539456"><ele>944.3999999999999</ele><time>2026-04-07T15:14:59.999Z</time></trkpt><trkpt lat="43.63517359798915" lon="2.976750816315607"><ele>943.6</ele><time>2026-04-07T15:15:00.999Z</time></trkpt><trkpt lat="43.63510088558339" lon="2.976704768498281"><ele>942.8</ele><time>2026-04-07T15:15:01.999Z</time></trkpt><trkpt lat="43.63501821989645" lon="2.9766397935807407"><ele>942.0</ele><time>2026-04-07T15:15:02.999Z</time></trkpt><trkpt lat="43.63492462429617" lon="2.9765522720583184"><ele>942.0</ele><time>2026-04-07T15:15:03.999Z</time></trkpt><trkpt lat="43.6348225247474" lon="2.9764596921080866"><ele>942.0</ele><time>2026-04-07T15:15:04.999Z</time></trkpt><trkpt lat="43.634718728503245" lon="2.9763727313488255"><ele>942.0</ele><time>2026-04-07T15:15:05.999Z</time></trkpt><trkpt lat="43.63460156351091" lon="2.9762937001339007"><ele>942.0</ele><time>2026-04-07T15:15:06.999Z</time></trkpt><trkpt lat="43.634498782108345" lon="2.976201882507742"><ele>940.5</ele><time>2026-04-07T15:15:07.999Z</time></trkpt><trkpt lat="43.63441059622939" lon="2.9761389129669005"><ele>939.0</ele><time>2026-04-07T15:15:08.999Z</time></trkpt><trkpt lat="43.63430035251573" lon="2.97613691846969"><ele>937.5</ele><time>2026-04-07T15:15:09.999Z</time></trkpt><trkpt lat="43.634178532671925" lon="2.97618029880221"><ele>936.0</ele><time>2026-04-07T15:15:10.999Z</time></trkpt><trkpt lat="43.63406768310544" lon="2.9762808686555884"><ele>936.0</ele><time>2026-04-07T15:15:11.999Z</time></trkpt><trkpt lat="43.633946782773535" lon="2.9763769628945496"><ele>936.0</ele><time>2026-04-07T15:15:12.999Z</time></trkpt><trkpt lat="43.63384999389886" lon="2.9764988407446626"><ele>936.0</ele><time>2026-04-07T15:15:13.998Z</time></trkpt><trkpt lat="43.63375600665821" lon="2.9766060513500388"><ele>936.0</ele><time>2026-04-07T15:15:14.998Z</time></trkpt><trkpt lat="43.633679215270476" lon="2.9766954475290377"><ele>932.5999999999999</ele><time>2026-04-07T15:15:15.998Z</time></trkpt><trkpt lat="43.63361086838263" lon="2.9767859206546206"><ele>929.1999999999999</ele><time>2026-04-07T15:15:16.998Z</time></trkpt><trkpt lat="43.63351987512948" lon="2.9768440078603793"><ele>925.8000000000001</ele><time>2026-04-07T15:15:17.998Z</time></trkpt><trkpt lat="43.633428698194685" lon="2.976860915394278"><ele>922.4000000000001</ele><time>2026-04-07T15:15:18.998Z</time></trkpt><trkpt lat="43.63335165046082" lon="2.976788629134773"><ele>919.0</ele><time>2026-04-07T15:15:19.998Z</time></trkpt><trkpt lat="43.633250199861784" lon="2.9767422139331803"><ele>919.0</ele><time>2026-04-07T15:15:20.998Z</time></trkpt><trkpt lat="43.63313588355139" lon="2.9766925326647815"><ele>919.0000000000001</ele><time>2026-04-07T15:15:21.998Z</time></trkpt><trkpt lat="43.63303071037717" lon="2.9766343410283467"><ele>919.0000000000001</ele><time>2026-04-07T15:15:22.998Z</time></trkpt><trkpt lat="43.63292621996573" lon="2.976644892750541"><ele>919.0</ele><time>2026-04-07T15:15:23.998Z</time></trkpt><trkpt lat="43.63283117773119" lon="2.9766842917412855"><ele>919.0</ele><time>2026-04-07T15:15:24.998Z</time></trkpt><trkpt lat="43.632730622749314" lon="2.9767630487792784"><ele>921.25</ele><time>2026-04-07T15:15:25.998Z</time></trkpt><trkpt lat="43.632634186897555" lon="2.976875151765539"><ele>923.5</ele><time>2026-04-07T15:15:26.998Z</time></trkpt><trkpt lat="43.63252501965109" lon="2.977008296238759"><ele>925.75</ele><time>2026-04-07T15:15:27.998Z</time></trkpt><trkpt lat="43.63242984541044" lon="2.9771636196990126"><ele>928.0</ele><time>2026-04-07T15:15:28.998Z</time></trkpt><trkpt lat="43.632343828612136" lon="2.977293437150943"><ele>928.0</ele><time>2026-04-07T15:15:29.998Z</time></trkpt><trkpt lat="43.63224947035276" lon="2.9773978401392083"><ele>928.0</ele><time>2026-04-07T15:15:30.998Z</time></trkpt><trkpt lat="43.63214000995727" lon="2.9774753221335866"><ele>928.0</ele><time>2026-04-07T15:15:31.998Z</time></trkpt><trkpt lat="43.6320089173057" lon="2.9775230061055638"><ele>928.0</ele><time>2026-04-07T15:15:32.998Z</time></trkpt><trkpt lat="43.63187191279028" lon="2.977598539749523"><ele>927.0</ele><time>2026-04-07T15:15:33.998Z</time></trkpt><trkpt lat="43.63172014205823" lon="2.9776579787917563"><ele>926.0</ele><time>2026-04-07T15:15:34.998Z</time></trkpt><trkpt lat="43.631566685323975" lon="2.977725769116813"><ele>925.0</ele><time>2026-04-07T15:15:35.998Z</time></trkpt><trkpt lat="43.631403965600704" lon="2.9777960243214165"><ele>925.0</ele><time>2026-04-07T15:15:36.998Z</time></trkpt><trkpt lat="43.63124214371478" lon="2.977869265857565"><ele>925.0</ele><time>2026-04-07T15:15:37.998Z</time></trkpt><trkpt lat="43.63107371894359" lon="2.977964643211119"><ele>925.0</ele><time>2026-04-07T15:15:38.998Z</time></trkpt><trkpt lat="43.63090040717593" lon="2.978062844993591"><ele>925.3333333333333</ele><time>2026-04-07T15:15:39.998Z</time></trkpt><trkpt lat="43.630727659866636" lon="2.978157372100458"><ele>925.6666666666667</ele><time>2026-04-07T15:15:40.998Z</time></trkpt><trkpt lat="43.63055377487243" lon="2.978253173003252"><ele>926.0</ele><time>2026-04-07T15:15:41.998Z</time></trkpt><trkpt lat="43.630378332303266" lon="2.9783641682034583"><ele>924.6666666666667</ele><time>2026-04-07T15:15:42.998Z</time></trkpt><trkpt lat="43.630216898350234" lon="2.978491769393385"><ele>923.3333333333333</ele><time>2026-04-07T15:15:43.998Z</time></trkpt><trkpt lat="43.630064354484254" lon="2.9786143254860495"><ele>922.0</ele><time>2026-04-07T15:15:44.998Z</time></trkpt><trkpt lat="43.629915513720576" lon="2.9787347745298027"><ele>922.0</ele><time>2026-04-07T15:15:45.998Z</time></trkpt><trkpt lat="43.62976970700387" lon="2.9788488524993104"><ele>922.0</ele><time>2026-04-07T15:15:46.998Z</time></trkpt><trkpt lat="43.629627756021826" lon="2.978960766340789"><ele>922.0</ele><time>2026-04-07T15:15:47.998Z</time></trkpt><trkpt lat="43.62949635223509" lon="2.9790661686360966"><ele>917.5</ele><time>2026-04-07T15:15:48.998Z</time></trkpt><trkpt lat="43.62938507193212" lon="2.9791780708365247"><ele>913.0</ele><time>2026-04-07T15:15:49.998Z</time></trkpt><trkpt lat="43.62930167416487" lon="2.9793096547031235"><ele>908.5</ele><time>2026-04-07T15:15:50.998Z</time></trkpt><trkpt lat="43.629238420161705" lon="2.9794180452823933"><ele>904.0</ele><time>2026-04-07T15:15:51.998Z</time></trkpt><trkpt lat="43.629207228322734" lon="2.979552331129527"><ele>904.0</ele><time>2026-04-07T15:15:52.998Z</time></trkpt><trkpt lat="43.62921137143744" lon="2.9796941338397787"><ele>904.0</ele><time>2026-04-07T15:15:53.998Z</time></trkpt><trkpt lat="43.62925549515439" lon="2.979863160309275"><ele>904.0</ele><time>2026-04-07T15:15:54.998Z</time></trkpt><trkpt lat="43.629331836241704" lon="2.9800177852249856"><ele>904.0</ele><time>2026-04-07T15:15:55.998Z</time></trkpt><trkpt lat="43.62938545194465" lon="2.9802033285964646"><ele>909.3333333333333</ele><time>2026-04-07T15:15:56.998Z</time></trkpt><trkpt lat="43.62956698936055" lon="2.980291216179533"><ele>914.6666666666667</ele><time>2026-04-07T15:15:57.997Z</time></trkpt><trkpt lat="43.62959943958941" lon="2.980447429984706"><ele>920.0</ele><time>2026-04-07T15:15:59Z</time></trkpt><trkpt lat="43.629512752809845" lon="2.9806532606683422"><ele>918.0</ele><time>2026-04-07T15:16:00Z</time></trkpt><trkpt lat="43.62946370932052" lon="2.9808335902108927"><ele>916.0</ele><time>2026-04-07T15:16:01Z</time></trkpt><trkpt lat="43.629350599746594" lon="2.980978980868333"><ele>914.0</ele><time>2026-04-07T15:16:02Z</time></trkpt><trkpt lat="43.62928013305386" lon="2.981143810726628"><ele>912.0</ele><time>2026-04-07T15:16:03Z</time></trkpt><trkpt lat="43.62921972446161" lon="2.981230265342731"><ele>912.0</ele><time>2026-04-07T15:16:04Z</time></trkpt><trkpt lat="43.62915054060956" lon="2.981282320778045"><ele>912.0</ele><time>2026-04-07T15:16:05Z</time></trkpt><trkpt lat="43.629057770173944" lon="2.981308986124795"><ele>912.0</ele><time>2026-04-07T15:16:06Z</time></trkpt><trkpt lat="43.62895754144414" lon="2.9812763534390623"><ele>912.0</ele><time>2026-04-07T15:16:07Z</time></trkpt><trkpt lat="43.62885834045577" lon="2.9811766542646416"><ele>912.0</ele><time>2026-04-07T15:16:08Z</time></trkpt><trkpt lat="43.62874127511487" lon="2.98110441082315"><ele>913.0</ele><time>2026-04-07T15:16:09Z</time></trkpt><trkpt lat="43.62863269651116" lon="2.9810037980331194"><ele>914.0</ele><time>2026-04-07T15:16:10Z</time></trkpt><trkpt lat="43.62852011236221" lon="2.980924581466977"><ele>915.0</ele><time>2026-04-07T15:16:11Z</time></trkpt><trkpt lat="43.628398026464275" lon="2.980848068314674"><ele>916.0</ele><time>2026-04-07T15:16:12Z</time></trkpt><trkpt lat="43.628273106550566" lon="2.980771353130606"><ele>912.75</ele><time>2026-04-07T15:16:13Z</time></trkpt><trkpt lat="43.628142005899264" lon="2.9806902897246474"><ele>909.5</ele><time>2026-04-07T15:16:14Z</time></trkpt><trkpt lat="43.628005822981414" lon="2.9806139240668257"><ele>906.25</ele><time>2026-04-07T15:16:15Z</time></trkpt><trkpt lat="43.627864397458374" lon="2.980535575657634"><ele>903.0</ele><time>2026-04-07T15:16:16Z</time></trkpt><trkpt lat="43.627712819962674" lon="2.980469738318072"><ele>903.0</ele><time>2026-04-07T15:16:17Z</time></trkpt><trkpt lat="43.627549587721774" lon="2.9804203682486343"><ele>903.0</ele><time>2026-04-07T15:16:18Z</time></trkpt><trkpt lat="43.62738377328196" lon="2.980372508999333"><ele>903.0</ele><time>2026-04-07T15:16:19Z</time></trkpt><trkpt lat="43.627211308467366" lon="2.9803280672516594"><ele>903.0</ele><time>2026-04-07T15:16:20Z</time></trkpt><trkpt lat="43.62704329667837" lon="2.9802660816524127"><ele>903.0</ele><time>2026-04-07T15:16:21Z</time></trkpt><trkpt lat="43.626879356880295" lon="2.980194720851684"><ele>903.0</ele><time>2026-04-07T15:16:22Z</time></trkpt><trkpt lat="43.62672252221194" lon="2.9801238204847604"><ele>903.3333333333333</ele><time>2026-04-07T15:16:23Z</time></trkpt><trkpt lat="43.626564633578056" lon="2.9800562303448195"><ele>903.6666666666666</ele><time>2026-04-07T15:16:24Z</time></trkpt><trkpt lat="43.62639756256585" lon="2.980002877354493"><ele>904.0</ele><time>2026-04-07T15:16:25Z</time></trkpt><trkpt lat="43.62622243856385" lon="2.979995023103214"><ele>901.6666666666666</ele><time>2026-04-07T15:16:26Z</time></trkpt><trkpt lat="43.626041471586504" lon="2.9800177002357517"><ele>899.3333333333333</ele><time>2026-04-07T15:16:27Z</time></trkpt><trkpt lat="43.62587359308333" lon="2.9800588860737154"><ele>897.0</ele><time>2026-04-07T15:16:28Z</time></trkpt><trkpt lat="43.62572639437118" lon="2.980107669600685"><ele>897.0</ele><time>2026-04-07T15:16:29Z</time></trkpt><trkpt lat="43.62560809256511" lon="2.980159019115233"><ele>897.0</ele><time>2026-04-07T15:16:30Z</time></trkpt><trkpt lat="43.62551202262946" lon="2.980244698266004"><ele>897.0</ele><time>2026-04-07T15:16:31Z</time></trkpt><trkpt lat="43.62543454377483" lon="2.980370858351553"><ele>897.0</ele><time>2026-04-07T15:16:32Z</time></trkpt><trkpt lat="43.62537601835725" lon="2.980535046937684"><ele>897.0</ele><time>2026-04-07T15:16:33Z</time></trkpt><trkpt lat="43.625345033066694" lon="2.9806978669833692"><ele>897.0</ele><time>2026-04-07T15:16:34Z</time></trkpt><trkpt lat="43.62530647423106" lon="2.9808147398111577"><ele>897.0</ele><time>2026-04-07T15:16:34.999Z</time></trkpt><trkpt lat="43.62523834708646" lon="2.9808595177207344"><ele>897.0</ele><time>2026-04-07T15:16:35.999Z</time></trkpt><trkpt lat="43.6251678098643" lon="2.980849022372109"><ele>897.0</ele><time>2026-04-07T15:16:36.999Z</time></trkpt><trkpt lat="43.625073085550845" lon="2.980733369610539"><ele>895.6</ele><time>2026-04-07T15:16:38.999Z</time></trkpt><trkpt lat="43.6250699938163" lon="2.9805836820287834"><ele>894.2</ele><time>2026-04-07T15:16:39.999Z</time></trkpt><trkpt lat="43.62500414523378" lon="2.9804679092280835"><ele>892.8</ele><time>2026-04-07T15:16:40.999Z</time></trkpt><trkpt lat="43.62494819269847" lon="2.9803588292841376"><ele>891.4</ele><time>2026-04-07T15:16:41.999Z</time></trkpt><trkpt lat="43.62487722241528" lon="2.9802681085207863"><ele>890.0</ele><time>2026-04-07T15:16:42.999Z</time></trkpt><trkpt lat="43.62479419704105" lon="2.980196082414259"><ele>890.0</ele><time>2026-04-07T15:16:43.999Z</time></trkpt><trkpt lat="43.62469036062892" lon="2.980156265572342"><ele>890.0</ele><time>2026-04-07T15:16:44.999Z</time></trkpt><trkpt lat="43.62457075013693" lon="2.980140721392152"><ele>890.0</ele><time>2026-04-07T15:16:45.999Z</time></trkpt><trkpt lat="43.6244405439692" lon="2.980145661211506"><ele>890.0</ele><time>2026-04-07T15:16:46.999Z</time></trkpt><trkpt lat="43.62430640349787" lon="2.9801762322977865"><ele>891.0</ele><time>2026-04-07T15:16:47.999Z</time></trkpt><trkpt lat="43.6241788423985" lon="2.9802274522686742"><ele>892.0</ele><time>2026-04-07T15:16:48.999Z</time></trkpt><trkpt lat="43.62405685637369" lon="2.9802911219457733"><ele>893.0</ele><time>2026-04-07T15:16:49.999Z</time></trkpt><trkpt lat="43.62393246882131" lon="2.9803542690772398"><ele>894.0</ele><time>2026-04-07T15:16:50.999Z</time></trkpt><trkpt lat="43.62380289703531" lon="2.980405668749266"><ele>894.0</ele><time>2026-04-07T15:16:51.999Z</time></trkpt><trkpt lat="43.62367437515846" lon="2.9804697759280447"><ele>894.0</ele><time>2026-04-07T15:16:52.999Z</time></trkpt><trkpt lat="43.62354001502109" lon="2.9805162760785264"><ele>894.0</ele><time>2026-04-07T15:16:53.999Z</time></trkpt><trkpt lat="43.623399831104955" lon="2.980549453811908"><ele>894.0</ele><time>2026-04-07T15:16:54.999Z</time></trkpt><trkpt lat="43.62326754289568" lon="2.9805747890019676"><ele>892.4000000000001</ele><time>2026-04-07T15:16:55.999Z</time></trkpt><trkpt lat="43.623152986987165" lon="2.9805889056954515"><ele>890.8000000000001</ele><time>2026-04-07T15:16:56.999Z</time></trkpt><trkpt lat="43.62308632690783" lon="2.980594241048477"><ele>889.1999999999999</ele><time>2026-04-07T15:16:58.999Z</time></trkpt><trkpt lat="43.622984783457994" lon="2.9806308403390878"><ele>887.5999999999999</ele><time>2026-04-07T15:18:26.999Z</time></trkpt><trkpt lat="43.62289907546028" lon="2.9806461872674643"><ele>886.0</ele><time>2026-04-07T15:18:27.999Z</time></trkpt><trkpt lat="43.62279122966522" lon="2.9806739532452844"><ele>884.5</ele><time>2026-04-07T15:18:28.999Z</time></trkpt><trkpt lat="43.62265856888716" lon="2.9806899602649066"><ele>883.0</ele><time>2026-04-07T15:18:29.999Z</time></trkpt><trkpt lat="43.62251774627404" lon="2.9807174213642607"><ele>881.5</ele><time>2026-04-07T15:18:30.999Z</time></trkpt><trkpt lat="43.622365318359044" lon="2.980767784634947"><ele>880.0</ele><time>2026-04-07T15:18:31.999Z</time></trkpt><trkpt lat="43.62220402836199" lon="2.980818708424144"><ele>883.6666666666666</ele><time>2026-04-07T15:18:32.999Z</time></trkpt><trkpt lat="43.62203307372221" lon="2.9808780419924292"><ele>887.3333333333333</ele><time>2026-04-07T15:18:33.999Z</time></trkpt><trkpt lat="43.62185707411857" lon="2.9809354888123534"><ele>891.0</ele><time>2026-04-07T15:18:34.999Z</time></trkpt><trkpt lat="43.62167969960025" lon="2.980993521285162"><ele>891.0</ele><time>2026-04-07T15:18:35.999Z</time></trkpt><trkpt lat="43.62149416719445" lon="2.981072725676617"><ele>891.0</ele><time>2026-04-07T15:18:36.999Z</time></trkpt><trkpt lat="43.62130685275786" lon="2.981148319728983"><ele>891.0</ele><time>2026-04-07T15:18:37.999Z</time></trkpt><trkpt lat="43.62111835360278" lon="2.9812285723920473"><ele>887.0</ele><time>2026-04-07T15:18:38.999Z</time></trkpt><trkpt lat="43.62092749944845" lon="2.981297367665666"><ele>883.0</ele><time>2026-04-07T15:18:39.999Z</time></trkpt><trkpt lat="43.62073366067883" lon="2.981369852858569"><ele>879.0</ele><time>2026-04-07T15:18:40.999Z</time></trkpt><trkpt lat="43.62053826094848" lon="2.981436623227242"><ele>879.0</ele><time>2026-04-07T15:18:41.999Z</time></trkpt><trkpt lat="43.62034043739285" lon="2.9815154809765407"><ele>879.0</ele><time>2026-04-07T15:18:42.999Z</time></trkpt><trkpt lat="43.62015108822968" lon="2.981602851798666"><ele>879.0</ele><time>2026-04-07T15:18:43.999Z</time></trkpt><trkpt lat="43.619961783942486" lon="2.9817128258694496"><ele>877.6666666666667</ele><time>2026-04-07T15:18:44.999Z</time></trkpt><trkpt lat="43.61977205458005" lon="2.9818358702634984"><ele>876.3333333333334</ele><time>2026-04-07T15:18:45.999Z</time></trkpt><trkpt lat="43.61958284422214" lon="2.9819663140798376"><ele>875.0</ele><time>2026-04-07T15:18:46.999Z</time></trkpt><trkpt lat="43.619401769652676" lon="2.9820874478397035"><ele>875.0</ele><time>2026-04-07T15:18:47.999Z</time></trkpt><trkpt lat="43.61922042524201" lon="2.9822053435030287"><ele>875.0</ele><time>2026-04-07T15:18:48.999Z</time></trkpt><trkpt lat="43.61905501259207" lon="2.98231376723838"><ele>875.0</ele><time>2026-04-07T15:18:49.999Z</time></trkpt><trkpt lat="43.61893218078808" lon="2.9823912643355066"><ele>875.0</ele><time>2026-04-07T15:18:50.999Z</time></trkpt><trkpt lat="43.61886589363314" lon="2.9824316542368985"><ele>875.0</ele><time>2026-04-07T15:18:51.999Z</time></trkpt><trkpt lat="43.6189776434781" lon="2.9823605390380425"><ele>875.0</ele><time>2026-04-07T15:19:16.998Z</time></trkpt><trkpt lat="43.61904723433489" lon="2.9823143786036814"><ele>875.0</ele><time>2026-04-07T15:19:17.998Z</time></trkpt><trkpt lat="43.61913341771419" lon="2.9822574886389397"><ele>875.0</ele><time>2026-04-07T15:19:18.998Z</time></trkpt><trkpt lat="43.61923819193012" lon="2.982188327180435"><ele>875.0</ele><time>2026-04-07T15:19:19.998Z</time></trkpt><trkpt lat="43.61935419716023" lon="2.982118423562257"><ele>875.0</ele><time>2026-04-07T15:19:20.998Z</time></trkpt><trkpt lat="43.619474307225936" lon="2.9820424737759894"><ele>875.0</ele><time>2026-04-07T15:19:21.998Z</time></trkpt><trkpt lat="43.61960302053671" lon="2.9819610841669104"><ele>875.0</ele><time>2026-04-07T15:19:22.998Z</time></trkpt><trkpt lat="43.61972066264101" lon="2.9818866946706826"><ele>874.3333333333334</ele><time>2026-04-07T15:19:23.998Z</time></trkpt><trkpt lat="43.619826419984506" lon="2.981834612173187"><ele>873.6666666666667</ele><time>2026-04-07T15:19:24.998Z</time></trkpt><trkpt lat="43.61990846691001" lon="2.981761573586431"><ele>873.0</ele><time>2026-04-07T15:19:25.998Z</time></trkpt><trkpt lat="43.61998749460186" lon="2.9817105592522037"><ele>872.3333333333333</ele><time>2026-04-07T15:19:26.998Z</time></trkpt><trkpt lat="43.6200528719098" lon="2.981661954158396"><ele>871.6666666666666</ele><time>2026-04-07T15:19:27.998Z</time></trkpt><trkpt lat="43.62011221743604" lon="2.9816227072336083"><ele>871.0</ele><time>2026-04-07T15:19:28.998Z</time></trkpt><trkpt lat="43.62017971803239" lon="2.9815780669469265"><ele>871.0</ele><time>2026-04-07T15:19:29.998Z</time></trkpt><trkpt lat="43.620260835135895" lon="2.9815244218734587"><ele>870.9999999999999</ele><time>2026-04-07T15:19:30.998Z</time></trkpt><trkpt lat="43.62035182348913" lon="2.9814642489050267"><ele>870.9999999999999</ele><time>2026-04-07T15:19:31.998Z</time></trkpt><trkpt lat="43.620452383922014" lon="2.981397745419719"><ele>871.0</ele><time>2026-04-07T15:19:32.998Z</time></trkpt><trkpt lat="43.62057883801813" lon="2.9813674318647427"><ele>871.0</ele><time>2026-04-07T15:19:33.998Z</time></trkpt><trkpt lat="43.62069846925028" lon="2.9813224544299013"><ele>873.0</ele><time>2026-04-07T15:19:34.998Z</time></trkpt><trkpt lat="43.620815110276915" lon="2.98128476267117"><ele>875.0</ele><time>2026-04-07T15:19:35.998Z</time></trkpt><trkpt lat="43.620927569730284" lon="2.9812492744124452"><ele>877.0</ele><time>2026-04-07T15:19:36.998Z</time></trkpt><trkpt lat="43.6210479445735" lon="2.981221776689274"><ele>879.0</ele><time>2026-04-07T15:19:37.998Z</time></trkpt><trkpt lat="43.62117361356852" lon="2.9811979176681804"><ele>882.0</ele><time>2026-04-07T15:19:38.998Z</time></trkpt><trkpt lat="43.62130263523513" lon="2.9811521210405836"><ele>885.0</ele><time>2026-04-07T15:19:39.998Z</time></trkpt><trkpt lat="43.621427512311115" lon="2.9811075115720245"><ele>888.0</ele><time>2026-04-07T15:19:40.998Z</time></trkpt><trkpt lat="43.621551529293384" lon="2.9810812339480384"><ele>891.0</ele><time>2026-04-07T15:19:41.998Z</time></trkpt><trkpt lat="43.62165347463504" lon="2.9810368339426216"><ele>891.0</ele><time>2026-04-07T15:19:42.998Z</time></trkpt><trkpt lat="43.62174750661744" lon="2.9809974745585928"><ele>890.9999999999999</ele><time>2026-04-07T15:19:43.998Z</time></trkpt><trkpt lat="43.62183761977362" lon="2.9809602128286365"><ele>890.9999999999999</ele><time>2026-04-07T15:19:44.998Z</time></trkpt><trkpt lat="43.62193560555523" lon="2.980923720687787"><ele>891.0</ele><time>2026-04-07T15:19:45.998Z</time></trkpt><trkpt lat="43.62204148849889" lon="2.9808826860570354"><ele>891.0</ele><time>2026-04-07T15:19:46.998Z</time></trkpt><trkpt lat="43.62214383486256" lon="2.9808434772633845"><ele>888.8</ele><time>2026-04-07T15:19:47.997Z</time></trkpt><trkpt lat="43.622241373937776" lon="2.980815627995249"><ele>886.5999999999999</ele><time>2026-04-07T15:19:49Z</time></trkpt><trkpt lat="43.622336623804664" lon="2.9807911772167324"><ele>884.4</ele><time>2026-04-07T15:19:50Z</time></trkpt><trkpt lat="43.62243091132643" lon="2.980761532517146"><ele>882.2</ele><time>2026-04-07T15:19:51Z</time></trkpt><trkpt lat="43.62252323040441" lon="2.9807356644411525"><ele>880.0</ele><time>2026-04-07T15:19:52Z</time></trkpt><trkpt lat="43.62260477849577" lon="2.980715364882978"><ele>879.9999999999999</ele><time>2026-04-07T15:19:53Z</time></trkpt><trkpt lat="43.622674766469764" lon="2.9807009190753386"><ele>880.0</ele><time>2026-04-07T15:19:54Z</time></trkpt><trkpt lat="43.622783384855076" lon="2.9806883067914987"><ele>880.0</ele><time>2026-04-07T15:19:56Z</time></trkpt><trkpt lat="43.62286392721209" lon="2.980683122006833"><ele>880.0</ele><time>2026-04-07T15:19:58Z</time></trkpt><trkpt lat="43.622941806876895" lon="2.9806642239441583"><ele>879.9999999999999</ele><time>2026-04-07T15:20:01Z</time></trkpt><trkpt lat="43.623006881837846" lon="2.980657607257068"><ele>880.0</ele><time>2026-04-07T15:20:04Z</time></trkpt><trkpt lat="43.62307734807961" lon="2.980650646335612"><ele>880.0</ele><time>2026-04-07T15:20:06Z</time></trkpt><trkpt lat="43.62300349884583" lon="2.980659233889973"><ele>880.0</ele><time>2026-04-07T15:21:56Z</time></trkpt><trkpt lat="43.622890853986114" lon="2.9806819915457536"><ele>880.0</ele><time>2026-04-07T15:21:58Z</time></trkpt><trkpt lat="43.622721907527605" lon="2.9807130360922116"><ele>880.0</ele><time>2026-04-07T15:22:00Z</time></trkpt><trkpt lat="43.62263866069503" lon="2.9807278067432965"><ele>880.0</ele><time>2026-04-07T15:22:01Z</time></trkpt><trkpt lat="43.62256709600378" lon="2.9807186167590727"><ele>880.0</ele><time>2026-04-07T15:22:02Z</time></trkpt><trkpt lat="43.62247947714071" lon="2.980738423073701"><ele>880.0</ele><time>2026-04-07T15:22:03Z</time></trkpt><trkpt lat="43.62238948416894" lon="2.9807641498247643"><ele>880.0</ele><time>2026-04-07T15:22:04Z</time></trkpt><trkpt lat="43.62228332927715" lon="2.980774201682358"><ele>880.0</ele><time>2026-04-07T15:22:05Z</time></trkpt><trkpt lat="43.62217297198428" lon="2.980832344719446"><ele>880.0</ele><time>2026-04-07T15:22:06Z</time></trkpt><trkpt lat="43.62206271976386" lon="2.9808545837779277"><ele>882.75</ele><time>2026-04-07T15:22:07Z</time></trkpt><trkpt lat="43.62195836746239" lon="2.98089479526914"><ele>885.5</ele><time>2026-04-07T15:22:08Z</time></trkpt><trkpt lat="43.62184035681359" lon="2.9809398521849704"><ele>888.25</ele><time>2026-04-07T15:22:09Z</time></trkpt><trkpt lat="43.62171554727374" lon="2.980993200409843"><ele>891.0</ele><time>2026-04-07T15:22:10Z</time></trkpt><trkpt lat="43.62158490648183" lon="2.9810503375529076"><ele>891.0</ele><time>2026-04-07T15:22:11Z</time></trkpt><trkpt lat="43.62145176073621" lon="2.9811053038495148"><ele>891.0</ele><time>2026-04-07T15:22:12Z</time></trkpt><trkpt lat="43.62131634304922" lon="2.9811618176467745"><ele>891.0</ele><time>2026-04-07T15:22:13Z</time></trkpt><trkpt lat="43.621174768196404" lon="2.9812175845606372"><ele>891.0</ele><time>2026-04-07T15:22:14Z</time></trkpt><trkpt lat="43.62103369591191" lon="2.981271066876056"><ele>888.0</ele><time>2026-04-07T15:22:15Z</time></trkpt><trkpt lat="43.6208879726842" lon="2.9813187376923462"><ele>885.0</ele><time>2026-04-07T15:22:16Z</time></trkpt><trkpt lat="43.62075777608956" lon="2.9813654461718975"><ele>882.0</ele><time>2026-04-07T15:22:17Z</time></trkpt><trkpt lat="43.620629873925395" lon="2.981413618198134"><ele>879.0</ele><time>2026-04-07T15:22:18Z</time></trkpt><trkpt lat="43.620502374962754" lon="2.98144557155769"><ele>879.0</ele><time>2026-04-07T15:22:19Z</time></trkpt><trkpt lat="43.620386934122166" lon="2.981497757320633"><ele>879.0</ele><time>2026-04-07T15:22:20Z</time></trkpt><trkpt lat="43.62027020744589" lon="2.9815544104747778"><ele>879.0</ele><time>2026-04-07T15:22:21Z</time></trkpt><trkpt lat="43.62015385440744" lon="2.9816200363285517"><ele>879.0</ele><time>2026-04-07T15:22:22Z</time></trkpt><trkpt lat="43.62003924126607" lon="2.9816907694693726"><ele>881.25</ele><time>2026-04-07T15:22:23Z</time></trkpt><trkpt lat="43.61991888549971" lon="2.9817536564891913"><ele>883.5</ele><time>2026-04-07T15:22:24Z</time></trkpt><trkpt lat="43.619801347329755" lon="2.9818341976789733"><ele>885.75</ele><time>2026-04-07T15:22:25Z</time></trkpt><trkpt lat="43.619682717724565" lon="2.981912306295643"><ele>888.0</ele><time>2026-04-07T15:22:26Z</time></trkpt><trkpt lat="43.61957056971489" lon="2.9819840557874184"><ele>884.75</ele><time>2026-04-07T15:22:27Z</time></trkpt><trkpt lat="43.619453716561715" lon="2.982060866475324"><ele>881.5</ele><time>2026-04-07T15:22:28Z</time></trkpt><trkpt lat="43.61933060927714" lon="2.982144517497616"><ele>878.25</ele><time>2026-04-07T15:22:29Z</time></trkpt><trkpt lat="43.619196846600346" lon="2.9822305429554943"><ele>875.0</ele><time>2026-04-07T15:22:29.999Z</time></trkpt><trkpt lat="43.61905622889294" lon="2.9823130834283886"><ele>875.0</ele><time>2026-04-07T15:22:30.999Z</time></trkpt><trkpt lat="43.618913228370886" lon="2.9824077764905415"><ele>875.0</ele><time>2026-04-07T15:22:31.999Z</time></trkpt><trkpt lat="43.61876966773247" lon="2.9825292941115027"><ele>875.0</ele><time>2026-04-07T15:22:32.999Z</time></trkpt><trkpt lat="43.618634300181085" lon="2.982670697682977"><ele>874.0</ele><time>2026-04-07T15:22:33.999Z</time></trkpt><trkpt lat="43.618516831212666" lon="2.9828309990442703"><ele>873.0</ele><time>2026-04-07T15:22:34.999Z</time></trkpt><trkpt lat="43.61840430778412" lon="2.982966574185067"><ele>872.0</ele><time>2026-04-07T15:22:35.999Z</time></trkpt><trkpt lat="43.61825585584096" lon="2.9830441337085523"><ele>872.0</ele><time>2026-04-07T15:22:36.999Z</time></trkpt><trkpt lat="43.61808755366481" lon="2.983112513971406"><ele>872.0</ele><time>2026-04-07T15:22:37.999Z</time></trkpt><trkpt lat="43.61792040054063" lon="2.983203343830344"><ele>872.0</ele><time>2026-04-07T15:22:38.999Z</time></trkpt><trkpt lat="43.617759419488294" lon="2.983270193992174"><ele>874.75</ele><time>2026-04-07T15:22:39.999Z</time></trkpt><trkpt lat="43.61761053901311" lon="2.9833404604018305"><ele>877.5</ele><time>2026-04-07T15:22:40.999Z</time></trkpt><trkpt lat="43.61747780201189" lon="2.983409640820515"><ele>880.25</ele><time>2026-04-07T15:22:41.999Z</time></trkpt><trkpt lat="43.61734149169522" lon="2.983468716074026"><ele>883.0</ele><time>2026-04-07T15:22:42.999Z</time></trkpt><trkpt lat="43.617184739279324" lon="2.983450577792601"><ele>883.0</ele><time>2026-04-07T15:22:43.999Z</time></trkpt><trkpt lat="43.61702049794196" lon="2.983409095611916"><ele>883.0</ele><time>2026-04-07T15:22:44.999Z</time></trkpt><trkpt lat="43.616847587083775" lon="2.9833868121796656"><ele>883.0</ele><time>2026-04-07T15:22:45.999Z</time></trkpt><trkpt lat="43.61668331384454" lon="2.9833458475847507"><ele>880.5</ele><time>2026-04-07T15:22:46.999Z</time></trkpt><trkpt lat="43.616537937479244" lon="2.9833282210266527"><ele>878.0</ele><time>2026-04-07T15:22:47.999Z</time></trkpt><trkpt lat="43.6164067508091" lon="2.9833282662763994"><ele>875.5</ele><time>2026-04-07T15:22:48.999Z</time></trkpt><trkpt lat="43.616272091102694" lon="2.98335602954096"><ele>873.0</ele><time>2026-04-07T15:22:49.999Z</time></trkpt><trkpt lat="43.616129221362264" lon="2.9834138328153075"><ele>869.25</ele><time>2026-04-07T15:22:50.999Z</time></trkpt><trkpt lat="43.61599222266198" lon="2.9834751214481696"><ele>865.5</ele><time>2026-04-07T15:22:51.999Z</time></trkpt><trkpt lat="43.615850930459025" lon="2.983533637383259"><ele>861.75</ele><time>2026-04-07T15:22:52.999Z</time></trkpt><trkpt lat="43.61570680854194" lon="2.983612352131775"><ele>858.0</ele><time>2026-04-07T15:22:53.999Z</time></trkpt><trkpt lat="43.615564108767536" lon="2.983720512095622"><ele>858.0</ele><time>2026-04-07T15:22:54.999Z</time></trkpt><trkpt lat="43.615433364885966" lon="2.9838520610175374"><ele>858.0</ele><time>2026-04-07T15:22:55.999Z</time></trkpt><trkpt lat="43.61532146753423" lon="2.984029284078133"><ele>858.0</ele><time>2026-04-07T15:22:56.999Z</time></trkpt><trkpt lat="43.6152204265037" lon="2.984246736695665"><ele>852.0</ele><time>2026-04-07T15:22:57.999Z</time></trkpt><trkpt lat="43.61513050179232" lon="2.984476011194841"><ele>846.0</ele><time>2026-04-07T15:22:58.999Z</time></trkpt><trkpt lat="43.61504209616693" lon="2.984711461370346"><ele>840.0</ele><time>2026-04-07T15:22:59.999Z</time></trkpt><trkpt lat="43.61497380027675" lon="2.984935181732904"><ele>840.0</ele><time>2026-04-07T15:23:00.999Z</time></trkpt><trkpt lat="43.61492727818857" lon="2.9851524640990217"><ele>840.0</ele><time>2026-04-07T15:23:01.999Z</time></trkpt><trkpt lat="43.61489485029996" lon="2.9853709811628537"><ele>840.0</ele><time>2026-04-07T15:23:02.999Z</time></trkpt><trkpt lat="43.61489027127318" lon="2.9856020149704077"><ele>836.3333333333333</ele><time>2026-04-07T15:23:03.999Z</time></trkpt><trkpt lat="43.61491379824217" lon="2.985848119625694"><ele>832.6666666666666</ele><time>2026-04-07T15:23:04.999Z</time></trkpt><trkpt lat="43.61495164080778" lon="2.9860793447911123"><ele>829.0</ele><time>2026-04-07T15:23:05.999Z</time></trkpt><trkpt lat="43.61500394499539" lon="2.9862712621153564"><ele>829.0</ele><time>2026-04-07T15:23:06.999Z</time></trkpt><trkpt lat="43.61507823964819" lon="2.98642869181376"><ele>829.0</ele><time>2026-04-07T15:23:07.999Z</time></trkpt><trkpt lat="43.615183865765" lon="2.9865863214045585"><ele>829.0</ele><time>2026-04-07T15:23:08.999Z</time></trkpt><trkpt lat="43.615307212788565" lon="2.9867196514367165"><ele>829.0</ele><time>2026-04-07T15:23:09.999Z</time></trkpt><trkpt lat="43.61540919949129" lon="2.986863984833716"><ele>832.0</ele><time>2026-04-07T15:23:10.999Z</time></trkpt><trkpt lat="43.61551215475227" lon="2.9870150514372407"><ele>835.0</ele><time>2026-04-07T15:23:11.999Z</time></trkpt><trkpt lat="43.61558948681745" lon="2.9871944714947722"><ele>838.0</ele><time>2026-04-07T15:23:12.999Z</time></trkpt><trkpt lat="43.61566908136055" lon="2.9873999199671264"><ele>835.3333333333333</ele><time>2026-04-07T15:23:13.998Z</time></trkpt><trkpt lat="43.61572840735166" lon="2.9876129729727703"><ele>832.6666666666667</ele><time>2026-04-07T15:23:14.998Z</time></trkpt><trkpt lat="43.615772893233945" lon="2.9878411571626655"><ele>830.0</ele><time>2026-04-07T15:23:15.998Z</time></trkpt><trkpt lat="43.615793281065294" lon="2.988079933775709"><ele>830.0</ele><time>2026-04-07T15:23:16.998Z</time></trkpt><trkpt lat="43.61580168128299" lon="2.9883295168716595"><ele>830.0</ele><time>2026-04-07T15:23:17.998Z</time></trkpt><trkpt lat="43.61581167680371" lon="2.9885667145100254"><ele>830.0</ele><time>2026-04-07T15:23:18.998Z</time></trkpt><trkpt lat="43.6158448049116" lon="2.988798384887276"><ele>829.0</ele><time>2026-04-07T15:23:19.998Z</time></trkpt><trkpt lat="43.61587592544453" lon="2.9890367738000103"><ele>828.0</ele><time>2026-04-07T15:23:20.998Z</time></trkpt><trkpt lat="43.615928245108925" lon="2.9892846295672872"><ele>827.0</ele><time>2026-04-07T15:23:21.998Z</time></trkpt><trkpt lat="43.61599627917579" lon="2.989534094924978"><ele>827.3333333333334</ele><time>2026-04-07T15:23:22.998Z</time></trkpt><trkpt lat="43.61607839751882" lon="2.989777046824281"><ele>827.6666666666667</ele><time>2026-04-07T15:23:23.998Z</time></trkpt><trkpt lat="43.61615453103679" lon="2.9900072581780903"><ele>828.0</ele><time>2026-04-07T15:23:24.998Z</time></trkpt><trkpt lat="43.61622793119024" lon="2.990232158651104"><ele>828.0</ele><time>2026-04-07T15:23:25.998Z</time></trkpt><trkpt lat="43.616294027286585" lon="2.9904599445792837"><ele>828.0</ele><time>2026-04-07T15:23:26.998Z</time></trkpt><trkpt lat="43.61635578159911" lon="2.99069846332835"><ele>828.0</ele><time>2026-04-07T15:23:27.998Z</time></trkpt><trkpt lat="43.6164045139888" lon="2.9909400662268903"><ele>826.3333333333333</ele><time>2026-04-07T15:23:28.998Z</time></trkpt><trkpt lat="43.616447980526885" lon="2.991178265182133"><ele>824.6666666666666</ele><time>2026-04-07T15:23:29.998Z</time></trkpt><trkpt lat="43.61648637158173" lon="2.9914187428522276"><ele>823.0</ele><time>2026-04-07T15:23:30.998Z</time></trkpt><trkpt lat="43.61651837918987" lon="2.9916649581718273"><ele>823.0</ele><time>2026-04-07T15:23:31.998Z</time></trkpt><trkpt lat="43.61653404061801" lon="2.991914263149738"><ele>823.0</ele><time>2026-04-07T15:23:32.998Z</time></trkpt><trkpt lat="43.6165531181589" lon="2.992162723157712"><ele>823.0</ele><time>2026-04-07T15:23:33.998Z</time></trkpt><trkpt lat="43.61657087556282" lon="2.9923932198247916"><ele>822.3333333333333</ele><time>2026-04-07T15:23:34.998Z</time></trkpt><trkpt lat="43.61658852226334" lon="2.9926180572086802"><ele>821.6666666666667</ele><time>2026-04-07T15:23:35.998Z</time></trkpt><trkpt lat="43.61660621230235" lon="2.9928434463052955"><ele>821.0</ele><time>2026-04-07T15:23:36.998Z</time></trkpt><trkpt lat="43.616623847646366" lon="2.9930681396066787"><ele>821.0</ele><time>2026-04-07T15:23:37.998Z</time></trkpt><trkpt lat="43.61663967639754" lon="2.993284862038549"><ele>821.0</ele><time>2026-04-07T15:23:38.998Z</time></trkpt><trkpt lat="43.616638652314464" lon="2.9934977798813853"><ele>821.0</ele><time>2026-04-07T15:23:39.998Z</time></trkpt><trkpt lat="43.616599052442766" lon="2.9937152991825813"><ele>821.6666666666667</ele><time>2026-04-07T15:23:40.998Z</time></trkpt><trkpt lat="43.61655110329004" lon="2.9939398485505397"><ele>822.3333333333333</ele><time>2026-04-07T15:23:41.998Z</time></trkpt><trkpt lat="43.61650352340448" lon="2.994155739231653"><ele>823.0</ele><time>2026-04-07T15:23:42.998Z</time></trkpt><trkpt lat="43.61645778334948" lon="2.9943632827321647"><ele>823.0</ele><time>2026-04-07T15:23:43.998Z</time></trkpt><trkpt lat="43.616414467157135" lon="2.9945598279387955"><ele>823.0</ele><time>2026-04-07T15:23:44.998Z</time></trkpt><trkpt lat="43.616371048288975" lon="2.9947568377375364"><ele>823.0</ele><time>2026-04-07T15:23:45.998Z</time></trkpt><trkpt lat="43.61632885842228" lon="2.9949484663908277"><ele>823.0</ele><time>2026-04-07T15:23:46.998Z</time></trkpt><trkpt lat="43.61630289418373" lon="2.9951471828852174"><ele>822.75</ele><time>2026-04-07T15:23:47.998Z</time></trkpt><trkpt lat="43.61627404193877" lon="2.9953251040990447"><ele>822.5</ele><time>2026-04-07T15:23:48.998Z</time></trkpt><trkpt lat="43.61624259808535" lon="2.9954643212075163"><ele>822.25</ele><time>2026-04-07T15:23:49.998Z</time></trkpt><trkpt lat="43.61617260965141" lon="2.995600247428538"><ele>822.0</ele><time>2026-04-07T15:23:50.998Z</time></trkpt><trkpt lat="43.616133827050476" lon="2.9957900844517047"><ele>816.6666666666667</ele><time>2026-04-07T15:23:51.998Z</time></trkpt><trkpt lat="43.61609919427685" lon="2.9959992453752986"><ele>811.3333333333334</ele><time>2026-04-07T15:23:52.998Z</time></trkpt><trkpt lat="43.61607108993447" lon="2.996217220542243"><ele>806.0</ele><time>2026-04-07T15:23:53.998Z</time></trkpt><trkpt lat="43.616039171165056" lon="2.99644429082983"><ele>806.0</ele><time>2026-04-07T15:23:54.998Z</time></trkpt><trkpt lat="43.61600903269802" lon="2.9966814291976775"><ele>806.0</ele><time>2026-04-07T15:23:55.998Z</time></trkpt><trkpt lat="43.61597927349327" lon="2.9969240688418632"><ele>806.0</ele><time>2026-04-07T15:23:56.998Z</time></trkpt><trkpt lat="43.61594925581207" lon="2.9971773994739164"><ele>806.0</ele><time>2026-04-07T15:23:57.997Z</time></trkpt><trkpt lat="43.61591876261243" lon="2.997436334926573"><ele>806.0</ele><time>2026-04-07T15:23:58.997Z</time></trkpt><trkpt lat="43.615889102459185" lon="2.9977028367708116"><ele>806.0</ele><time>2026-04-07T15:23:59.997Z</time></trkpt><trkpt lat="43.61585283085202" lon="2.9979775866593323"><ele>806.6666666666667</ele><time>2026-04-07T15:24:01Z</time></trkpt><trkpt lat="43.6158179719532" lon="2.99825168748601"><ele>807.3333333333333</ele><time>2026-04-07T15:24:02Z</time></trkpt><trkpt lat="43.61578749229974" lon="2.998531286548144"><ele>808.0</ele><time>2026-04-07T15:24:03Z</time></trkpt><trkpt lat="43.61574697477053" lon="2.9988164752811595"><ele>809.6666666666666</ele><time>2026-04-07T15:24:04Z</time></trkpt><trkpt lat="43.61570183415898" lon="2.999101390054086"><ele>811.3333333333333</ele><time>2026-04-07T15:24:05Z</time></trkpt><trkpt lat="43.61563648855688" lon="2.9993868953962033"><ele>813.0</ele><time>2026-04-07T15:24:06Z</time></trkpt><trkpt lat="43.61559897392076" lon="2.999669809711218"><ele>814.0</ele><time>2026-04-07T15:24:07Z</time></trkpt><trkpt lat="43.6155471735922" lon="2.9999371401575905"><ele>815.0</ele><time>2026-04-07T15:24:08Z</time></trkpt><trkpt lat="43.615506361985005" lon="3.000192670298663"><ele>816.0</ele><time>2026-04-07T15:24:09Z</time></trkpt><trkpt lat="43.615476674404356" lon="3.0004410900610985"><ele>816.0</ele><time>2026-04-07T15:24:10Z</time></trkpt><trkpt lat="43.61546229444712" lon="3.0007015595415525"><ele>816.0</ele><time>2026-04-07T15:24:11Z</time></trkpt><trkpt lat="43.61546277553565" lon="3.000950151879897"><ele>816.0</ele><time>2026-04-07T15:24:12Z</time></trkpt><trkpt lat="43.61545953796954" lon="3.001197085317035"><ele>815.0</ele><time>2026-04-07T15:24:13Z</time></trkpt><trkpt lat="43.6154469397492" lon="3.0014426251258994"><ele>814.0</ele><time>2026-04-07T15:24:14Z</time></trkpt><trkpt lat="43.615439627038455" lon="3.001682880178492"><ele>813.0</ele><time>2026-04-07T15:24:15Z</time></trkpt><trkpt lat="43.61542683766105" lon="3.0019171048445714"><ele>812.25</ele><time>2026-04-07T15:24:16Z</time></trkpt><trkpt lat="43.61542013472766" lon="3.0021345443832903"><ele>811.5</ele><time>2026-04-07T15:24:17Z</time></trkpt><trkpt lat="43.615409958664294" lon="3.0023448273797793"><ele>810.75</ele><time>2026-04-07T15:24:18Z</time></trkpt><trkpt lat="43.61541566166331" lon="3.0025237188740053"><ele>810.0</ele><time>2026-04-07T15:24:19Z</time></trkpt><trkpt lat="43.61544144128145" lon="3.0026437026735966"><ele>809.8</ele><time>2026-04-07T15:24:20Z</time></trkpt><trkpt lat="43.615506882412575" lon="3.0027237243282086"><ele>809.6</ele><time>2026-04-07T15:24:21Z</time></trkpt><trkpt lat="43.61555594540133" lon="3.002779921623285"><ele>809.4000000000001</ele><time>2026-04-07T15:24:22Z</time></trkpt><trkpt lat="43.61566998797952" lon="3.0027232705825915"><ele>809.2</ele><time>2026-04-07T15:24:23Z</time></trkpt><trkpt lat="43.61576655633247" lon="3.002644723006962"><ele>809.0</ele><time>2026-04-07T15:24:24Z</time></trkpt><trkpt lat="43.615878114377445" lon="3.0025839861720693"><ele>809.0</ele><time>2026-04-07T15:24:25Z</time></trkpt><trkpt lat="43.61600058548529" lon="3.0025355685742623"><ele>809.0</ele><time>2026-04-07T15:24:26Z</time></trkpt><trkpt lat="43.616116129331054" lon="3.002484693017846"><ele>809.0</ele><time>2026-04-07T15:24:27Z</time></trkpt><trkpt lat="43.61622547543171" lon="3.0024983222344033"><ele>809.0</ele><time>2026-04-07T15:24:28Z</time></trkpt><trkpt lat="43.616348570196664" lon="3.002545890256823"><ele>808.5</ele><time>2026-04-07T15:24:29Z</time></trkpt><trkpt lat="43.61649295741185" lon="3.0026644291026563"><ele>808.0</ele><time>2026-04-07T15:24:30Z</time></trkpt><trkpt lat="43.61661106405205" lon="3.0027694989316003"><ele>807.5</ele><time>2026-04-07T15:24:31Z</time></trkpt><trkpt lat="43.616729592221745" lon="3.0028662632699086"><ele>807.0</ele><time>2026-04-07T15:24:32Z</time></trkpt><trkpt lat="43.616833695414925" lon="3.0029633907960487"><ele>807.0</ele><time>2026-04-07T15:24:33Z</time></trkpt><trkpt lat="43.616954515271146" lon="3.0030598753754023"><ele>807.0</ele><time>2026-04-07T15:24:34Z</time></trkpt><trkpt lat="43.61708078003319" lon="3.0031578318766536"><ele>807.0</ele><time>2026-04-07T15:24:35Z</time></trkpt><trkpt lat="43.61720085348417" lon="3.0032615926687"><ele>807.0</ele><time>2026-04-07T15:24:36Z</time></trkpt><trkpt lat="43.61732054462648" lon="3.0033786755014287"><ele>806.25</ele><time>2026-04-07T15:24:36.999Z</time></trkpt><trkpt lat="43.617445988414765" lon="3.003471182922805"><ele>805.5</ele><time>2026-04-07T15:24:37.999Z</time></trkpt><trkpt lat="43.61755748882669" lon="3.003554769227626"><ele>804.75</ele><time>2026-04-07T15:24:38.999Z</time></trkpt><trkpt lat="43.6176756730045" lon="3.003616773718566"><ele>804.0</ele><time>2026-04-07T15:24:39.999Z</time></trkpt><trkpt lat="43.6177981190945" lon="3.003662958428976"><ele>802.0</ele><time>2026-04-07T15:24:40.999Z</time></trkpt><trkpt lat="43.61792567356311" lon="3.00371685908506"><ele>800.0</ele><time>2026-04-07T15:24:41.999Z</time></trkpt><trkpt lat="43.61805786869906" lon="3.0037765341644396"><ele>798.0</ele><time>2026-04-07T15:24:42.999Z</time></trkpt><trkpt lat="43.618185520677244" lon="3.0038207556481127"><ele>796.0</ele><time>2026-04-07T15:24:43.999Z</time></trkpt><trkpt lat="43.6183146628168" lon="3.003816618763449"><ele>796.0</ele><time>2026-04-07T15:24:44.999Z</time></trkpt><trkpt lat="43.618448224098586" lon="3.0037325112425544"><ele>796.0</ele><time>2026-04-07T15:24:45.999Z</time></trkpt><trkpt lat="43.618560169396424" lon="3.003603145316067"><ele>796.0</ele><time>2026-04-07T15:24:46.999Z</time></trkpt><trkpt lat="43.618655895472756" lon="3.0034404462566977"><ele>796.0</ele><time>2026-04-07T15:24:47.999Z</time></trkpt><trkpt lat="43.61871501541361" lon="3.0032368805853515"><ele>792.3333333333333</ele><time>2026-04-07T15:24:48.999Z</time></trkpt><trkpt lat="43.618737530571686" lon="3.0030076097637064"><ele>788.6666666666667</ele><time>2026-04-07T15:24:49.999Z</time></trkpt><trkpt lat="43.61873243451157" lon="3.002773802453727"><ele>785.0</ele><time>2026-04-07T15:24:50.999Z</time></trkpt><trkpt lat="43.6187171044034" lon="3.0025603362333735"><ele>786.3333333333334</ele><time>2026-04-07T15:24:51.999Z</time></trkpt><trkpt lat="43.61870046748315" lon="3.002357979334927"><ele>787.6666666666667</ele><time>2026-04-07T15:24:52.999Z</time></trkpt><trkpt lat="43.61868927392165" lon="3.002154112230091"><ele>789.0</ele><time>2026-04-07T15:24:53.999Z</time></trkpt><trkpt lat="43.61869966415085" lon="3.0019367893697604"><ele>789.0</ele><time>2026-04-07T15:24:54.999Z</time></trkpt><trkpt lat="43.61869450921902" lon="3.0017213263450016"><ele>789.0</ele><time>2026-04-07T15:24:55.999Z</time></trkpt><trkpt lat="43.61868601353564" lon="3.0015183776432397"><ele>789.0</ele><time>2026-04-07T15:24:56.999Z</time></trkpt><trkpt lat="43.61866262179406" lon="3.0013358027748334"><ele>789.0</ele><time>2026-04-07T15:24:57.999Z</time></trkpt><trkpt lat="43.618671699948436" lon="3.0011764483758374"><ele>790.6666666666666</ele><time>2026-04-07T15:24:58.999Z</time></trkpt><trkpt lat="43.61866688691031" lon="3.001031314035159"><ele>792.3333333333333</ele><time>2026-04-07T15:24:59.999Z</time></trkpt><trkpt lat="43.618663852183644" lon="3.0008900259283458"><ele>794.0</ele><time>2026-04-07T15:25:00.999Z</time></trkpt><trkpt lat="43.61866727595429" lon="3.000774440167125"><ele>795.6666666666666</ele><time>2026-04-07T15:25:01.999Z</time></trkpt><trkpt lat="43.6187031130737" lon="3.0006750081147833"><ele>797.3333333333333</ele><time>2026-04-07T15:25:02.999Z</time></trkpt><trkpt lat="43.61876166259491" lon="3.000613799962143"><ele>799.0</ele><time>2026-04-07T15:25:03.999Z</time></trkpt><trkpt lat="43.61882794938429" lon="3.0006238329365287"><ele>799.0</ele><time>2026-04-07T15:25:04.999Z</time></trkpt><trkpt lat="43.61891120560274" lon="3.000649041571432"><ele>799.0</ele><time>2026-04-07T15:25:05.999Z</time></trkpt><trkpt lat="43.61896319583657" lon="3.0008374466075094"><ele>799.0</ele><time>2026-04-07T15:25:07.999Z</time></trkpt><trkpt lat="43.61903372859394" lon="3.000977851265421"><ele>799.0</ele><time>2026-04-07T15:25:08.999Z</time></trkpt><trkpt lat="43.61908381586778" lon="3.0011355862595352"><ele>799.0</ele><time>2026-04-07T15:25:09.999Z</time></trkpt><trkpt lat="43.61913721025419" lon="3.001385442377213"><ele>799.0</ele><time>2026-04-07T15:25:10.999Z</time></trkpt><trkpt lat="43.619181423242345" lon="3.00155607967897"><ele>799.0</ele><time>2026-04-07T15:25:11.999Z</time></trkpt><trkpt lat="43.61922603725545" lon="3.0016964211950055"><ele>799.0</ele><time>2026-04-07T15:25:12.999Z</time></trkpt><trkpt lat="43.61930928562715" lon="3.0018551579621144"><ele>798.5</ele><time>2026-04-07T15:25:13.999Z</time></trkpt><trkpt lat="43.61939801095035" lon="3.0020059263236187"><ele>798.0</ele><time>2026-04-07T15:25:14.999Z</time></trkpt><trkpt lat="43.61950472538919" lon="3.002124929686294"><ele>797.5</ele><time>2026-04-07T15:25:15.999Z</time></trkpt><trkpt lat="43.619640579302306" lon="3.0022118408423295"><ele>797.0</ele><time>2026-04-07T15:25:16.999Z</time></trkpt><trkpt lat="43.619763776584975" lon="3.00223996072379"><ele>797.0</ele><time>2026-04-07T15:25:17.999Z</time></trkpt><trkpt lat="43.61984489716061" lon="3.00223471271675"><ele>797.0</ele><time>2026-04-07T15:25:18.999Z</time></trkpt><trkpt lat="43.61995214641726" lon="3.0022353792148664"><ele>797.0</ele><time>2026-04-07T15:25:19.999Z</time></trkpt><trkpt lat="43.62008312350473" lon="3.002179218448989"><ele>797.0</ele><time>2026-04-07T15:25:20.998Z</time></trkpt><trkpt lat="43.62017490152555" lon="3.0021417171986107"><ele>797.0</ele><time>2026-04-07T15:25:21.998Z</time></trkpt><trkpt lat="43.62025546345044" lon="3.002159132483362"><ele>799.0</ele><time>2026-04-07T15:25:22.998Z</time></trkpt><trkpt lat="43.62033627148132" lon="3.0022419957849724"><ele>801.0</ele><time>2026-04-07T15:25:23.998Z</time></trkpt><trkpt lat="43.620385218628904" lon="3.0024379954861637"><ele>803.0</ele><time>2026-04-07T15:25:24.998Z</time></trkpt><trkpt lat="43.6204321683778" lon="3.002615954804383"><ele>805.0</ele><time>2026-04-07T15:25:25.998Z</time></trkpt><trkpt lat="43.620494712624726" lon="3.0027510467428087"><ele>798.6666666666666</ele><time>2026-04-07T15:25:26.998Z</time></trkpt><trkpt lat="43.620602196328555" lon="3.0028938640397045"><ele>792.3333333333333</ele><time>2026-04-07T15:25:27.998Z</time></trkpt><trkpt lat="43.620736868262426" lon="3.003010598773942"><ele>786.0</ele><time>2026-04-07T15:25:28.998Z</time></trkpt><trkpt lat="43.62084897741937" lon="3.0031533380562356"><ele>786.0</ele><time>2026-04-07T15:25:29.998Z</time></trkpt><trkpt lat="43.62095885683189" lon="3.003293830013876"><ele>786.0</ele><time>2026-04-07T15:25:30.998Z</time></trkpt><trkpt lat="43.621049157035785" lon="3.003396720567136"><ele>786.0</ele><time>2026-04-07T15:25:31.998Z</time></trkpt><trkpt lat="43.621164797210206" lon="3.0035048903910258"><ele>786.0</ele><time>2026-04-07T15:25:32.998Z</time></trkpt><trkpt lat="43.621302052444996" lon="3.003613988402467"><ele>782.5</ele><time>2026-04-07T15:25:33.998Z</time></trkpt><trkpt lat="43.621422014177035" lon="3.003737767066034"><ele>779.0</ele><time>2026-04-07T15:25:34.998Z</time></trkpt><trkpt lat="43.621526687253706" lon="3.003839841737073"><ele>775.5</ele><time>2026-04-07T15:25:35.998Z</time></trkpt><trkpt lat="43.621654461292756" lon="3.003907248259419"><ele>772.0</ele><time>2026-04-07T15:25:36.998Z</time></trkpt><trkpt lat="43.62183114506308" lon="3.003854475602733"><ele>772.0</ele><time>2026-04-07T15:25:37.998Z</time></trkpt><trkpt lat="43.62195729918656" lon="3.003806979893522"><ele>772.0</ele><time>2026-04-07T15:25:38.998Z</time></trkpt><trkpt lat="43.622061409753414" lon="3.003751758154048"><ele>772.0</ele><time>2026-04-07T15:25:39.998Z</time></trkpt><trkpt lat="43.622128984694804" lon="3.00368779386929"><ele>772.0</ele><time>2026-04-07T15:25:40.998Z</time></trkpt><trkpt lat="43.62220293053262" lon="3.003711162859308"><ele>772.0</ele><time>2026-04-07T15:25:41.998Z</time></trkpt><trkpt lat="43.622260580313515" lon="3.0038430054599448"><ele>771.6666666666666</ele><time>2026-04-07T15:25:43.998Z</time></trkpt><trkpt lat="43.622264611079935" lon="3.0039392865107084"><ele>771.3333333333333</ele><time>2026-04-07T15:25:44.998Z</time></trkpt><trkpt lat="43.62222985802962" lon="3.004053531820055"><ele>771.0</ele><time>2026-04-07T15:25:45.998Z</time></trkpt><trkpt lat="43.62216193172302" lon="3.004131822860204"><ele>770.6666666666667</ele><time>2026-04-07T15:25:46.998Z</time></trkpt><trkpt lat="43.622106259525374" lon="3.0042281410542935"><ele>770.3333333333334</ele><time>2026-04-07T15:25:47.998Z</time></trkpt><trkpt lat="43.62208045423944" lon="3.004355390881318"><ele>770.0</ele><time>2026-04-07T15:25:48.998Z</time></trkpt><trkpt lat="43.6220759385399" lon="3.004515382476705"><ele>770.0</ele><time>2026-04-07T15:25:49.998Z</time></trkpt><trkpt lat="43.62205336947414" lon="3.0046365586133845"><ele>770.0</ele><time>2026-04-07T15:25:50.998Z</time></trkpt><trkpt lat="43.62200405182291" lon="3.004754851939389"><ele>770.0</ele><time>2026-04-07T15:25:51.998Z</time></trkpt><trkpt lat="43.62192736484251" lon="3.0048777817269476"><ele>770.0</ele><time>2026-04-07T15:25:52.998Z</time></trkpt><trkpt lat="43.62185150484524" lon="3.005003448398356"><ele>770.0</ele><time>2026-04-07T15:25:53.998Z</time></trkpt><trkpt lat="43.62176922802594" lon="3.0051335535940495"><ele>767.0</ele><time>2026-04-07T15:25:54.998Z</time></trkpt><trkpt lat="43.62168996799193" lon="3.005262948715707"><ele>764.0</ele><time>2026-04-07T15:25:55.998Z</time></trkpt><trkpt lat="43.62161154241455" lon="3.0053861937459447"><ele>761.0</ele><time>2026-04-07T15:25:56.998Z</time></trkpt><trkpt lat="43.62153209717967" lon="3.0055240938986065"><ele>758.0</ele><time>2026-04-07T15:25:57.998Z</time></trkpt><trkpt lat="43.621477339419464" lon="3.0056779535469427"><ele>760.6666666666666</ele><time>2026-04-07T15:25:58.998Z</time></trkpt><trkpt lat="43.62143990317587" lon="3.0058708240472547"><ele>763.3333333333334</ele><time>2026-04-07T15:25:59.998Z</time></trkpt><trkpt lat="43.62142313033464" lon="3.006079521958541"><ele>766.0</ele><time>2026-04-07T15:26:00.998Z</time></trkpt><trkpt lat="43.621438070852356" lon="3.0062917416450645"><ele>766.0</ele><time>2026-04-07T15:26:01.998Z</time></trkpt><trkpt lat="43.621441579336945" lon="3.006488971511759"><ele>766.0</ele><time>2026-04-07T15:26:02.998Z</time></trkpt><trkpt lat="43.62143469643665" lon="3.0066779113460202"><ele>766.0</ele><time>2026-04-07T15:26:03.998Z</time></trkpt><trkpt lat="43.62142138386534" lon="3.0068651878566763"><ele>766.0</ele><time>2026-04-07T15:26:04.997Z</time></trkpt><trkpt lat="43.62139981241511" lon="3.007047721684432"><ele>766.5</ele><time>2026-04-07T15:26:05.997Z</time></trkpt><trkpt lat="43.62137175427396" lon="3.0072377047597487"><ele>767.0</ele><time>2026-04-07T15:26:07Z</time></trkpt><trkpt lat="43.62134596738755" lon="3.0074229857440087"><ele>767.5</ele><time>2026-04-07T15:26:08Z</time></trkpt><trkpt lat="43.62132790258658" lon="3.0076079344461246"><ele>768.0</ele><time>2026-04-07T15:26:09Z</time></trkpt><trkpt lat="43.62130155386831" lon="3.0077860887994765"><ele>768.0</ele><time>2026-04-07T15:26:10Z</time></trkpt><trkpt lat="43.621279699941994" lon="3.0079629333745372"><ele>768.0</ele><time>2026-04-07T15:26:11Z</time></trkpt><trkpt lat="43.6212797405488" lon="3.008144555087015"><ele>768.0</ele><time>2026-04-07T15:26:12Z</time></trkpt><trkpt lat="43.62131465182068" lon="3.0083265233776713"><ele>768.0</ele><time>2026-04-07T15:26:13Z</time></trkpt><trkpt lat="43.62140455297086" lon="3.0084951696981985"><ele>768.0</ele><time>2026-04-07T15:26:14Z</time></trkpt><trkpt lat="43.621466650845036" lon="3.008670017717807"><ele>768.0</ele><time>2026-04-07T15:26:15Z</time></trkpt><trkpt lat="43.62152143770141" lon="3.0088421651518242"><ele>768.0</ele><time>2026-04-07T15:26:16Z</time></trkpt><trkpt lat="43.62155940018753" lon="3.0090039986772465"><ele>768.0</ele><time>2026-04-07T15:26:17Z</time></trkpt><trkpt lat="43.62156485010642" lon="3.0091635960482006"><ele>767.0</ele><time>2026-04-07T15:26:18Z</time></trkpt><trkpt lat="43.62149722810929" lon="3.0092960972357585"><ele>766.0</ele><time>2026-04-07T15:26:19Z</time></trkpt><trkpt lat="43.621409577678534" lon="3.00940810677266"><ele>765.0</ele><time>2026-04-07T15:26:20Z</time></trkpt><trkpt lat="43.62131339981261" lon="3.0095690157442605"><ele>764.0</ele><time>2026-04-07T15:26:21Z</time></trkpt><trkpt lat="43.62122483238523" lon="3.009719542528994"><ele>759.75</ele><time>2026-04-07T15:26:22Z</time></trkpt><trkpt lat="43.621139196688794" lon="3.009865086550359"><ele>755.5</ele><time>2026-04-07T15:26:23Z</time></trkpt><trkpt lat="43.621055314404096" lon="3.0100114542377012"><ele>751.25</ele><time>2026-04-07T15:26:24Z</time></trkpt><trkpt lat="43.62097821304999" lon="3.010157262350136"><ele>747.0</ele><time>2026-04-07T15:26:25Z</time></trkpt><trkpt lat="43.62092005624937" lon="3.010289461642523"><ele>747.0</ele><time>2026-04-07T15:26:26Z</time></trkpt><trkpt lat="43.620856561572595" lon="3.0104098170252866"><ele>747.0</ele><time>2026-04-07T15:26:27Z</time></trkpt><trkpt lat="43.62079996786618" lon="3.0105783464872875"><ele>747.0</ele><time>2026-04-07T15:26:28Z</time></trkpt><trkpt lat="43.62078777700361" lon="3.010762431643737"><ele>747.0</ele><time>2026-04-07T15:26:29Z</time></trkpt><trkpt lat="43.62077495321049" lon="3.010948797890896"><ele>747.25</ele><time>2026-04-07T15:26:30Z</time></trkpt><trkpt lat="43.62075692363142" lon="3.0111381294998933"><ele>747.5</ele><time>2026-04-07T15:26:31Z</time></trkpt><trkpt lat="43.620753852941306" lon="3.0113130797288292"><ele>747.75</ele><time>2026-04-07T15:26:32Z</time></trkpt><trkpt lat="43.62073715905179" lon="3.0115009041360308"><ele>748.0</ele><time>2026-04-07T15:26:33Z</time></trkpt><trkpt lat="43.620719470411814" lon="3.0117155957422974"><ele>747.5</ele><time>2026-04-07T15:26:34Z</time></trkpt><trkpt lat="43.62072833909155" lon="3.0119119687127247"><ele>747.0</ele><time>2026-04-07T15:26:35Z</time></trkpt><trkpt lat="43.620745534013196" lon="3.0120894883914957"><ele>746.5</ele><time>2026-04-07T15:26:36Z</time></trkpt><trkpt lat="43.62073744441868" lon="3.0122559039505283"><ele>746.0</ele><time>2026-04-07T15:26:37Z</time></trkpt><trkpt lat="43.62070694600555" lon="3.0124164071015667"><ele>745.0</ele><time>2026-04-07T15:26:38Z</time></trkpt><trkpt lat="43.62064854667124" lon="3.0125759336583027"><ele>744.0</ele><time>2026-04-07T15:26:39Z</time></trkpt><trkpt lat="43.62057875187106" lon="3.012755412372928"><ele>743.0</ele><time>2026-04-07T15:26:40Z</time></trkpt><trkpt lat="43.62047143736653" lon="3.0129227148430533"><ele>742.0</ele><time>2026-04-07T15:26:41Z</time></trkpt><trkpt lat="43.62038447294052" lon="3.0130896736391652"><ele>739.0</ele><time>2026-04-07T15:26:41.999Z</time></trkpt><trkpt lat="43.62029985919831" lon="3.0132060174962056"><ele>736.0</ele><time>2026-04-07T15:26:42.999Z</time></trkpt><trkpt lat="43.62019589645515" lon="3.0133733437820247"><ele>733.0</ele><time>2026-04-07T15:26:43.999Z</time></trkpt><trkpt lat="43.62010190993239" lon="3.0135378955025063"><ele>730.0</ele><time>2026-04-07T15:26:44.999Z</time></trkpt><trkpt lat="43.61999576967265" lon="3.0136793026433266"><ele>730.0</ele><time>2026-04-07T15:26:45.999Z</time></trkpt><trkpt lat="43.61989389871394" lon="3.013803891110009"><ele>730.0</ele><time>2026-04-07T15:26:46.999Z</time></trkpt><trkpt lat="43.61980964638012" lon="3.0139297075839004"><ele>730.0</ele><time>2026-04-07T15:26:47.999Z</time></trkpt><trkpt lat="43.619753877091895" lon="3.0140818716959545"><ele>730.0</ele><time>2026-04-07T15:26:48.999Z</time></trkpt><trkpt lat="43.619715986837186" lon="3.014266814580674"><ele>729.75</ele><time>2026-04-07T15:26:49.999Z</time></trkpt><trkpt lat="43.619675242842234" lon="3.014463335139102"><ele>729.5</ele><time>2026-04-07T15:26:50.999Z</time></trkpt><trkpt lat="43.61962987656103" lon="3.014652276340548"><ele>729.25</ele><time>2026-04-07T15:26:51.999Z</time></trkpt><trkpt lat="43.61958338586963" lon="3.014843835797136"><ele>729.0</ele><time>2026-04-07T15:26:52.999Z</time></trkpt><trkpt lat="43.61953249823498" lon="3.015036177494834"><ele>729.0</ele><time>2026-04-07T15:26:53.999Z</time></trkpt><trkpt lat="43.6194920451658" lon="3.0152293586255405"><ele>729.0</ele><time>2026-04-07T15:26:54.999Z</time></trkpt><trkpt lat="43.61945023101682" lon="3.0154179710443962"><ele>729.0</ele><time>2026-04-07T15:26:55.999Z</time></trkpt><trkpt lat="43.61941347829093" lon="3.0155999608854027"><ele>729.0</ele><time>2026-04-07T15:26:56.999Z</time></trkpt><trkpt lat="43.61938036776486" lon="3.0157629028862347"><ele>727.75</ele><time>2026-04-07T15:26:57.999Z</time></trkpt><trkpt lat="43.61938115262966" lon="3.015883938345764"><ele>726.5</ele><time>2026-04-07T15:26:58.999Z</time></trkpt><trkpt lat="43.619417714199926" lon="3.016011375606167"><ele>725.25</ele><time>2026-04-07T15:26:59.999Z</time></trkpt><trkpt lat="43.61951589554316" lon="3.0161423935199507"><ele>724.0</ele><time>2026-04-07T15:27:00.999Z</time></trkpt><trkpt lat="43.6196242572681" lon="3.016275429495502"><ele>724.0</ele><time>2026-04-07T15:27:01.999Z</time></trkpt><trkpt lat="43.61972168550166" lon="3.0164237200790533"><ele>724.0</ele><time>2026-04-07T15:27:02.999Z</time></trkpt><trkpt lat="43.619807985385755" lon="3.016567137456624"><ele>724.0</ele><time>2026-04-07T15:27:03.999Z</time></trkpt><trkpt lat="43.619876523963555" lon="3.016717763374762"><ele>724.0</ele><time>2026-04-07T15:27:04.999Z</time></trkpt><trkpt lat="43.61993901501193" lon="3.0168458622783887"><ele>722.2</ele><time>2026-04-07T15:27:05.999Z</time></trkpt><trkpt lat="43.619976512412784" lon="3.0169813837571584"><ele>720.4000000000001</ele><time>2026-04-07T15:27:06.999Z</time></trkpt><trkpt lat="43.61997831158021" lon="3.0171096136088478"><ele>718.6</ele><time>2026-04-07T15:27:07.999Z</time></trkpt><trkpt lat="43.61989566786261" lon="3.0172064293515866"><ele>716.8</ele><time>2026-04-07T15:27:08.999Z</time></trkpt><trkpt lat="43.61978980315113" lon="3.0172689094055727"><ele>715.0</ele><time>2026-04-07T15:27:09.999Z</time></trkpt><trkpt lat="43.61966724182646" lon="3.0172898844108236"><ele>715.0</ele><time>2026-04-07T15:27:10.999Z</time></trkpt><trkpt lat="43.619546637911945" lon="3.0173255054388655"><ele>715.0</ele><time>2026-04-07T15:27:11.999Z</time></trkpt><trkpt lat="43.61942388641365" lon="3.0173772884574563"><ele>715.0</ele><time>2026-04-07T15:27:12.999Z</time></trkpt><trkpt lat="43.619312716692804" lon="3.01743779804832"><ele>715.0</ele><time>2026-04-07T15:27:13.999Z</time></trkpt><trkpt lat="43.61920335317402" lon="3.0174888342081876"><ele>712.75</ele><time>2026-04-07T15:27:14.999Z</time></trkpt><trkpt lat="43.61909288694142" lon="3.017548453371639"><ele>710.5</ele><time>2026-04-07T15:27:15.999Z</time></trkpt><trkpt lat="43.61898231269702" lon="3.017613446978512"><ele>708.25</ele><time>2026-04-07T15:27:16.999Z</time></trkpt><trkpt lat="43.61887262339512" lon="3.0176729409202276"><ele>706.0</ele><time>2026-04-07T15:27:17.999Z</time></trkpt><trkpt lat="43.61875925496827" lon="3.0177495405975145"><ele>706.0</ele><time>2026-04-07T15:27:18.999Z</time></trkpt><trkpt lat="43.618652093052084" lon="3.01784080274156"><ele>706.0</ele><time>2026-04-07T15:27:19.999Z</time></trkpt><trkpt lat="43.61856255972384" lon="3.0179634676368954"><ele>706.0</ele><time>2026-04-07T15:27:20.999Z</time></trkpt><trkpt lat="43.61849460629696" lon="3.0181225965616894"><ele>706.0</ele><time>2026-04-07T15:27:21.999Z</time></trkpt><trkpt lat="43.61847460645167" lon="3.018269633230627"><ele>705.25</ele><time>2026-04-07T15:27:22.999Z</time></trkpt><trkpt lat="43.618487988247644" lon="3.0184265738092866"><ele>704.5</ele><time>2026-04-07T15:27:23.999Z</time></trkpt><trkpt lat="43.61851793278147" lon="3.0186093703919155"><ele>703.75</ele><time>2026-04-07T15:27:24.999Z</time></trkpt><trkpt lat="43.61861122661403" lon="3.018747651792259"><ele>703.0</ele><time>2026-04-07T15:27:25.998Z</time></trkpt><trkpt lat="43.61870045819051" lon="3.018874405990726"><ele>703.0</ele><time>2026-04-07T15:27:26.998Z</time></trkpt><trkpt lat="43.618703929210994" lon="3.0190514266441864"><ele>703.0</ele><time>2026-04-07T15:27:27.998Z</time></trkpt><trkpt lat="43.618693038601045" lon="3.019240231671032"><ele>703.0</ele><time>2026-04-07T15:27:28.998Z</time></trkpt><trkpt lat="43.61870948769899" lon="3.0194233930303866"><ele>703.0</ele><time>2026-04-07T15:27:29.998Z</time></trkpt><trkpt lat="43.61870316031355" lon="3.019589040191728"><ele>702.0</ele><time>2026-04-07T15:27:30.998Z</time></trkpt><trkpt lat="43.618706555579855" lon="3.0197536050173612"><ele>701.0</ele><time>2026-04-07T15:27:31.998Z</time></trkpt><trkpt lat="43.61870113774251" lon="3.0199072458586094"><ele>700.0</ele><time>2026-04-07T15:27:32.998Z</time></trkpt><trkpt lat="43.618687835448746" lon="3.0200501367742216"><ele>699.0</ele><time>2026-04-07T15:27:33.998Z</time></trkpt><trkpt lat="43.618672264860834" lon="3.020154449688465"><ele>698.0</ele><time>2026-04-07T15:27:34.998Z</time></trkpt><trkpt lat="43.61865559243419" lon="3.020254484906885"><ele>696.2</ele><time>2026-04-07T15:27:35.998Z</time></trkpt><trkpt lat="43.618661869218066" lon="3.020385984982825"><ele>694.4</ele><time>2026-04-07T15:27:37.998Z</time></trkpt><trkpt lat="43.61877662756803" lon="3.020381386674918"><ele>692.6</ele><time>2026-04-07T15:27:41.998Z</time></trkpt><trkpt lat="43.61884114233086" lon="3.020288216093758"><ele>690.8000000000001</ele><time>2026-04-07T15:27:43.998Z</time></trkpt><trkpt lat="43.61890014869825" lon="3.0202113597711104"><ele>689.0</ele><time>2026-04-07T15:27:44.998Z</time></trkpt><trkpt lat="43.61895923057637" lon="3.020137236003379"><ele>689.0</ele><time>2026-04-07T15:27:45.998Z</time></trkpt><trkpt lat="43.619031543307024" lon="3.020070702460016"><ele>689.0</ele><time>2026-04-07T15:27:46.998Z</time></trkpt><trkpt lat="43.61911565856607" lon="3.0200092415136512"><ele>689.0</ele><time>2026-04-07T15:27:47.998Z</time></trkpt><trkpt lat="43.61921775877498" lon="3.0199542529668832"><ele>689.0</ele><time>2026-04-07T15:27:48.998Z</time></trkpt><trkpt lat="43.61934269326904" lon="3.019947095340957"><ele>689.0</ele><time>2026-04-07T15:27:49.998Z</time></trkpt><trkpt lat="43.6194696417229" lon="3.0199835606116583"><ele>691.25</ele><time>2026-04-07T15:27:50.998Z</time></trkpt><trkpt lat="43.61959293601548" lon="3.0200429631551393"><ele>693.5</ele><time>2026-04-07T15:27:51.998Z</time></trkpt><trkpt lat="43.61969813180681" lon="3.0201586705304213"><ele>695.75</ele><time>2026-04-07T15:27:52.998Z</time></trkpt><trkpt lat="43.61981526641213" lon="3.020275096217593"><ele>698.0</ele><time>2026-04-07T15:27:53.998Z</time></trkpt><trkpt lat="43.61992390357212" lon="3.0203728551861526"><ele>698.0</ele><time>2026-04-07T15:27:54.998Z</time></trkpt><trkpt lat="43.620013089110955" lon="3.0204880173735265"><ele>698.0</ele><time>2026-04-07T15:27:55.998Z</time></trkpt><trkpt lat="43.620091163770056" lon="3.0205841174793098"><ele>698.0</ele><time>2026-04-07T15:27:56.998Z</time></trkpt><trkpt lat="43.620166722989524" lon="3.020672334175013"><ele>698.0</ele><time>2026-04-07T15:27:57.998Z</time></trkpt><trkpt lat="43.62024588829038" lon="3.020721293043245"><ele>698.0</ele><time>2026-04-07T15:27:58.998Z</time></trkpt><trkpt lat="43.620311772966964" lon="3.0207979521756223"><ele>697.25</ele><time>2026-04-07T15:27:59.998Z</time></trkpt><trkpt lat="43.62041010383812" lon="3.020876152237779"><ele>696.5</ele><time>2026-04-07T15:28:00.998Z</time></trkpt><trkpt lat="43.62053069226239" lon="3.0209737208529366"><ele>695.75</ele><time>2026-04-07T15:28:01.998Z</time></trkpt><trkpt lat="43.62063361535171" lon="3.021108713113638"><ele>695.0</ele><time>2026-04-07T15:28:02.998Z</time></trkpt><trkpt lat="43.6207338161954" lon="3.0212804085088645"><ele>695.0</ele><time>2026-04-07T15:28:03.998Z</time></trkpt><trkpt lat="43.62091630302906" lon="3.0216412222806923"><ele>695.0</ele><time>2026-04-07T15:28:04.998Z</time></trkpt><trkpt lat="43.62100200414582" lon="3.0217845390242086"><ele>697.6666666666666</ele><time>2026-04-07T15:28:05.998Z</time></trkpt><trkpt lat="43.62109837956683" lon="3.021915088590221"><ele>700.3333333333334</ele><time>2026-04-07T15:28:06.998Z</time></trkpt><trkpt lat="43.62123555265797" lon="3.022020034803303"><ele>703.0</ele><time>2026-04-07T15:28:07.998Z</time></trkpt><trkpt lat="43.621388191158275" lon="3.0221011131452915"><ele>703.0</ele><time>2026-04-07T15:28:08.998Z</time></trkpt><trkpt lat="43.62150129321244" lon="3.022224322224826"><ele>703.0</ele><time>2026-04-07T15:28:09.998Z</time></trkpt><trkpt lat="43.62161822689614" lon="3.0223858099333825"><ele>703.0</ele><time>2026-04-07T15:28:10.997Z</time></trkpt><trkpt lat="43.621731720212345" lon="3.0225425465154605"><ele>698.3333333333334</ele><time>2026-04-07T15:28:11.997Z</time></trkpt><trkpt lat="43.6218419529336" lon="3.022685476932064"><ele>693.6666666666666</ele><time>2026-04-07T15:28:13Z</time></trkpt><trkpt lat="43.62196127097423" lon="3.022842598472455"><ele>689.0</ele><time>2026-04-07T15:28:14Z</time></trkpt><trkpt lat="43.62209082204747" lon="3.022968068169114"><ele>689.0</ele><time>2026-04-07T15:28:15Z</time></trkpt><trkpt lat="43.62222625714523" lon="3.023040406025789"><ele>689.0</ele><time>2026-04-07T15:28:16Z</time></trkpt><trkpt lat="43.622357924683655" lon="3.0230204036305506"><ele>689.0</ele><time>2026-04-07T15:28:17Z</time></trkpt><trkpt lat="43.622499187427444" lon="3.0230088625598683"><ele>689.0</ele><time>2026-04-07T15:28:18Z</time></trkpt><trkpt lat="43.62262282390747" lon="3.0229832777295025"><ele>689.0</ele><time>2026-04-07T15:28:19Z</time></trkpt><trkpt lat="43.62274573554541" lon="3.0230343630943897"><ele>689.0</ele><time>2026-04-07T15:28:20Z</time></trkpt><trkpt lat="43.62280979861886" lon="3.0232227538999212"><ele>689.0</ele><time>2026-04-07T15:28:21Z</time></trkpt><trkpt lat="43.622948232976356" lon="3.023335577047344"><ele>689.0</ele><time>2026-04-07T15:28:22Z</time></trkpt><trkpt lat="43.62304213087405" lon="3.023466318296705"><ele>686.3333333333333</ele><time>2026-04-07T15:28:23Z</time></trkpt><trkpt lat="43.62315169886522" lon="3.023558291426244"><ele>683.6666666666666</ele><time>2026-04-07T15:28:24Z</time></trkpt><trkpt lat="43.62323993830185" lon="3.02361939579847"><ele>681.0</ele><time>2026-04-07T15:28:25Z</time></trkpt><trkpt lat="43.62331184329109" lon="3.0236737521834254"><ele>678.3333333333334</ele><time>2026-04-07T15:28:26Z</time></trkpt><trkpt lat="43.62333828528634" lon="3.0237537282665943"><ele>675.6666666666667</ele><time>2026-04-07T15:28:27Z</time></trkpt><trkpt lat="43.62327865520082" lon="3.0238205712532746"><ele>673.0</ele><time>2026-04-07T15:28:28Z</time></trkpt><trkpt lat="43.62314525977124" lon="3.0238336539293456"><ele>673.0</ele><time>2026-04-07T15:28:30Z</time></trkpt><trkpt lat="43.623055186459446" lon="3.0237539780744838"><ele>673.0</ele><time>2026-04-07T15:28:31Z</time></trkpt><trkpt lat="43.62296839025653" lon="3.0236239772789077"><ele>673.0</ele><time>2026-04-07T15:28:32Z</time></trkpt><trkpt lat="43.62287343278783" lon="3.023515416428068"><ele>673.0</ele><time>2026-04-07T15:28:33Z</time></trkpt><trkpt lat="43.62277496379791" lon="3.023435484145949"><ele>677.0</ele><time>2026-04-07T15:28:34Z</time></trkpt><trkpt lat="43.62268528255053" lon="3.023349830999907"><ele>681.0</ele><time>2026-04-07T15:28:35Z</time></trkpt><trkpt lat="43.62259446581876" lon="3.0232681137048174"><ele>685.0</ele><time>2026-04-07T15:28:36Z</time></trkpt><trkpt lat="43.622480400826966" lon="3.023226955613521"><ele>689.0</ele><time>2026-04-07T15:28:37Z</time></trkpt><trkpt lat="43.622341152158754" lon="3.0232713534317583"><ele>685.25</ele><time>2026-04-07T15:28:38Z</time></trkpt><trkpt lat="43.62220847308718" lon="3.023336986341249"><ele>681.5</ele><time>2026-04-07T15:28:39Z</time></trkpt><trkpt lat="43.62207417958707" lon="3.0233794725940206"><ele>677.75</ele><time>2026-04-07T15:28:40Z</time></trkpt><trkpt lat="43.62193357015155" lon="3.0233688260358633"><ele>674.0</ele><time>2026-04-07T15:28:41Z</time></trkpt><trkpt lat="43.621814225081714" lon="3.023301849205372"><ele>674.0</ele><time>2026-04-07T15:28:42Z</time></trkpt><trkpt lat="43.62173069189343" lon="3.0232008134450292"><ele>674.0</ele><time>2026-04-07T15:28:43Z</time></trkpt><trkpt lat="43.62168199618424" lon="3.0230800005721337"><ele>674.0</ele><time>2026-04-07T15:28:44Z</time></trkpt><trkpt lat="43.62164022489085" lon="3.0229648071835546"><ele>674.0</ele><time>2026-04-07T15:28:45Z</time></trkpt><trkpt lat="43.621583804643" lon="3.022898218740378"><ele>674.0</ele><time>2026-04-07T15:28:46Z</time></trkpt><trkpt lat="43.62148049079737" lon="3.0229873499810007"><ele>674.0</ele><time>2026-04-07T15:28:48Z</time></trkpt><trkpt lat="43.62150615006493" lon="3.0231847895826145"><ele>674.0</ele><time>2026-04-07T15:28:49.999Z</time></trkpt><trkpt lat="43.621595012103164" lon="3.0232903296166627"><ele>674.0</ele><time>2026-04-07T15:28:50.999Z</time></trkpt><trkpt lat="43.62172622600558" lon="3.023381359354313"><ele>674.0</ele><time>2026-04-07T15:28:51.999Z</time></trkpt><trkpt lat="43.6218312215865" lon="3.023455357766096"><ele>668.5</ele><time>2026-04-07T15:28:52.999Z</time></trkpt><trkpt lat="43.621917543751884" lon="3.0235593000768115"><ele>663.0</ele><time>2026-04-07T15:28:53.999Z</time></trkpt><trkpt lat="43.62201722914893" lon="3.0236348157655084"><ele>657.5</ele><time>2026-04-07T15:28:54.999Z</time></trkpt><trkpt lat="43.62213484905589" lon="3.0236765712428277"><ele>652.0</ele><time>2026-04-07T15:28:55.999Z</time></trkpt><trkpt lat="43.62227421100038" lon="3.023656384837614"><ele>652.0</ele><time>2026-04-07T15:28:56.999Z</time></trkpt><trkpt lat="43.62239452093064" lon="3.0236342332294512"><ele>652.0</ele><time>2026-04-07T15:28:57.999Z</time></trkpt><trkpt lat="43.62250185068236" lon="3.023674249633089"><ele>652.0</ele><time>2026-04-07T15:28:58.999Z</time></trkpt><trkpt lat="43.622591287248646" lon="3.0238269331167387"><ele>652.0</ele><time>2026-04-07T15:28:59.999Z</time></trkpt><trkpt lat="43.62268364356991" lon="3.023991337214927"><ele>652.0</ele><time>2026-04-07T15:29:00.999Z</time></trkpt><trkpt lat="43.62277557750727" lon="3.0241230400206587"><ele>652.0</ele><time>2026-04-07T15:29:01.999Z</time></trkpt><trkpt lat="43.62286155486855" lon="3.0242159158360544"><ele>652.0</ele><time>2026-04-07T15:29:02.999Z</time></trkpt><trkpt lat="43.622883206892176" lon="3.0243375750820993"><ele>652.0</ele><time>2026-04-07T15:29:03.999Z</time></trkpt><trkpt lat="43.622865733836406" lon="3.0245003454714623"><ele>644.25</ele><time>2026-04-07T15:29:04.999Z</time></trkpt><trkpt lat="43.622813639019455" lon="3.0246854682927746"><ele>636.5</ele><time>2026-04-07T15:29:05.999Z</time></trkpt><trkpt lat="43.62278507582649" lon="3.0248874704143827"><ele>628.75</ele><time>2026-04-07T15:29:06.999Z</time></trkpt><trkpt lat="43.62276565034571" lon="3.0250885022842855"><ele>621.0</ele><time>2026-04-07T15:29:07.999Z</time></trkpt><trkpt lat="43.622751696530656" lon="3.0252851940333723"><ele>617.5</ele><time>2026-04-07T15:29:08.999Z</time></trkpt><trkpt lat="43.62274553270662" lon="3.0254862117185612"><ele>614.0</ele><time>2026-04-07T15:29:09.999Z</time></trkpt><trkpt lat="43.62275412408269" lon="3.025691403423107"><ele>610.5</ele><time>2026-04-07T15:29:10.999Z</time></trkpt><trkpt lat="43.622779156691706" lon="3.0258853632387033"><ele>607.0</ele><time>2026-04-07T15:29:11.999Z</time></trkpt><trkpt lat="43.62280764444676" lon="3.026065880982369"><ele>616.6666666666667</ele><time>2026-04-07T15:29:12.999Z</time></trkpt><trkpt lat="43.622881265526104" lon="3.0262292674710474"><ele>626.3333333333334</ele><time>2026-04-07T15:29:13.999Z</time></trkpt><trkpt lat="43.62299559623462" lon="3.026384493922099"><ele>636.0</ele><time>2026-04-07T15:29:14.999Z</time></trkpt><trkpt lat="43.6231102165824" lon="3.0265516446944343"><ele>628.3333333333334</ele><time>2026-04-07T15:29:15.999Z</time></trkpt><trkpt lat="43.62325227457795" lon="3.026646100256416"><ele>620.6666666666667</ele><time>2026-04-07T15:29:16.999Z</time></trkpt><trkpt lat="43.62339752188442" lon="3.0267503891969807"><ele>613.0</ele><time>2026-04-07T15:29:17.999Z</time></trkpt><trkpt lat="43.62352924336896" lon="3.0268912051145356"><ele>616.3333333333334</ele><time>2026-04-07T15:29:18.999Z</time></trkpt><trkpt lat="43.623650858662515" lon="3.0270131427156923"><ele>619.6666666666666</ele><time>2026-04-07T15:29:19.999Z</time></trkpt><trkpt lat="43.623790220191054" lon="3.027099605785691"><ele>623.0</ele><time>2026-04-07T15:29:20.999Z</time></trkpt><trkpt lat="43.62394127166058" lon="3.027146796352742"><ele>623.0</ele><time>2026-04-07T15:29:21.999Z</time></trkpt><trkpt lat="43.624107801726645" lon="3.0271648696212514"><ele>623.0</ele><time>2026-04-07T15:29:22.999Z</time></trkpt><trkpt lat="43.62425420834475" lon="3.0272020777721207"><ele>623.0</ele><time>2026-04-07T15:29:23.999Z</time></trkpt><trkpt lat="43.62437144633827" lon="3.027232530877536"><ele>623.0</ele><time>2026-04-07T15:29:24.999Z</time></trkpt><trkpt lat="43.62447958752005" lon="3.027304828197379"><ele>621.0</ele><time>2026-04-07T15:29:25.999Z</time></trkpt><trkpt lat="43.62456125658168" lon="3.0274583763713445"><ele>619.0</ele><time>2026-04-07T15:29:26.999Z</time></trkpt><trkpt lat="43.624609259332736" lon="3.0276610474043424"><ele>617.0</ele><time>2026-04-07T15:29:27.999Z</time></trkpt><trkpt lat="43.6246149376668" lon="3.027881279757334"><ele>617.0</ele><time>2026-04-07T15:29:28.999Z</time></trkpt><trkpt lat="43.62461806516674" lon="3.0280935783706493"><ele>617.0</ele><time>2026-04-07T15:29:29.999Z</time></trkpt><trkpt lat="43.62462338226433" lon="3.0282967590874827"><ele>617.0</ele><time>2026-04-07T15:29:30.999Z</time></trkpt><trkpt lat="43.62456424952223" lon="3.028481565344494"><ele>617.0</ele><time>2026-04-07T15:29:31.999Z</time></trkpt><trkpt lat="43.624463913548695" lon="3.028657402212973"><ele>607.0</ele><time>2026-04-07T15:29:32.998Z</time></trkpt><trkpt lat="43.62435673842941" lon="3.028827644838927"><ele>597.0</ele><time>2026-04-07T15:29:33.998Z</time></trkpt><trkpt lat="43.6242658165661" lon="3.0289989635866554"><ele>587.0</ele><time>2026-04-07T15:29:34.998Z</time></trkpt><trkpt lat="43.624181866342056" lon="3.0291788878569856"><ele>587.0</ele><time>2026-04-07T15:29:35.998Z</time></trkpt><trkpt lat="43.624131669635695" lon="3.0293828579697473"><ele>587.0</ele><time>2026-04-07T15:29:36.998Z</time></trkpt><trkpt lat="43.62411636539476" lon="3.029595526158986"><ele>587.0</ele><time>2026-04-07T15:29:37.998Z</time></trkpt><trkpt lat="43.62411012163863" lon="3.02980542483661"><ele>585.5</ele><time>2026-04-07T15:29:38.998Z</time></trkpt><trkpt lat="43.62412047013938" lon="3.0299950699130878"><ele>584.0</ele><time>2026-04-07T15:29:39.998Z</time></trkpt><trkpt lat="43.6241632533032" lon="3.030166745137571"><ele>582.5</ele><time>2026-04-07T15:29:40.998Z</time></trkpt><trkpt lat="43.62423570793165" lon="3.030306326485467"><ele>581.0</ele><time>2026-04-07T15:29:41.998Z</time></trkpt><trkpt lat="43.62432977768797" lon="3.030421535262242"><ele>581.0</ele><time>2026-04-07T15:29:42.998Z</time></trkpt><trkpt lat="43.62444179317089" lon="3.030526469728731"><ele>581.0</ele><time>2026-04-07T15:29:43.998Z</time></trkpt><trkpt lat="43.62455438361546" lon="3.0306333319144176"><ele>581.0</ele><time>2026-04-07T15:29:44.998Z</time></trkpt><trkpt lat="43.624679868815974" lon="3.030738158607967"><ele>581.0</ele><time>2026-04-07T15:29:45.998Z</time></trkpt><trkpt lat="43.62480494315925" lon="3.03081727080371"><ele>583.25</ele><time>2026-04-07T15:29:46.998Z</time></trkpt><trkpt lat="43.62493473382766" lon="3.0308786949177438"><ele>585.5</ele><time>2026-04-07T15:29:47.998Z</time></trkpt><trkpt lat="43.625058434405915" lon="3.030949893088752"><ele>587.75</ele><time>2026-04-07T15:29:48.998Z</time></trkpt><trkpt lat="43.62515295000714" lon="3.03108961342754"><ele>590.0</ele><time>2026-04-07T15:29:49.998Z</time></trkpt><trkpt lat="43.62521193269791" lon="3.0313011478922185"><ele>590.0</ele><time>2026-04-07T15:29:50.998Z</time></trkpt><trkpt lat="43.62524943234411" lon="3.0315323532177594"><ele>590.0</ele><time>2026-04-07T15:29:51.998Z</time></trkpt><trkpt lat="43.6253261288081" lon="3.031754229374029"><ele>590.0</ele><time>2026-04-07T15:29:52.998Z</time></trkpt><trkpt lat="43.625422454464136" lon="3.0319586556950098"><ele>591.6666666666666</ele><time>2026-04-07T15:29:53.998Z</time></trkpt><trkpt lat="43.62551695979111" lon="3.032145365371427"><ele>593.3333333333334</ele><time>2026-04-07T15:29:54.998Z</time></trkpt><trkpt lat="43.62558285673931" lon="3.032359025777916"><ele>595.0</ele><time>2026-04-07T15:29:55.998Z</time></trkpt><trkpt lat="43.625638125772525" lon="3.032576563958883"><ele>589.25</ele><time>2026-04-07T15:29:56.998Z</time></trkpt><trkpt lat="43.62569024672652" lon="3.0327881276580686"><ele>583.5</ele><time>2026-04-07T15:29:57.998Z</time></trkpt><trkpt lat="43.6257449324612" lon="3.032981931873064"><ele>577.75</ele><time>2026-04-07T15:29:58.998Z</time></trkpt><trkpt lat="43.6257969930232" lon="3.0331456655489153"><ele>572.0</ele><time>2026-04-07T15:29:59.998Z</time></trkpt><trkpt lat="43.625846482406075" lon="3.033273475546039"><ele>572.75</ele><time>2026-04-07T15:30:00.998Z</time></trkpt><trkpt lat="43.625931094942814" lon="3.0333669003422346"><ele>573.5</ele><time>2026-04-07T15:30:01.998Z</time></trkpt><trkpt lat="43.626050509194684" lon="3.033409554661827"><ele>574.25</ele><time>2026-04-07T15:30:02.998Z</time></trkpt><trkpt lat="43.62618007819864" lon="3.033391857062949"><ele>575.0</ele><time>2026-04-07T15:30:03.998Z</time></trkpt><trkpt lat="43.62630188120008" lon="3.0333028198141765"><ele>575.0</ele><time>2026-04-07T15:30:04.998Z</time></trkpt><trkpt lat="43.62641271867257" lon="3.0331840473296086"><ele>575.0</ele><time>2026-04-07T15:30:05.998Z</time></trkpt><trkpt lat="43.626528663302075" lon="3.0330725048667397"><ele>575.0</ele><time>2026-04-07T15:30:06.998Z</time></trkpt><trkpt lat="43.62665650044277" lon="3.0329541130639646"><ele>575.0</ele><time>2026-04-07T15:30:07.998Z</time></trkpt><trkpt lat="43.62678011323798" lon="3.0328250334386246"><ele>575.0</ele><time>2026-04-07T15:30:08.998Z</time></trkpt><trkpt lat="43.62690139725246" lon="3.0326813146673466"><ele>575.0</ele><time>2026-04-07T15:30:09.998Z</time></trkpt><trkpt lat="43.62699350844459" lon="3.0325266297482756"><ele>575.0</ele><time>2026-04-07T15:30:10.998Z</time></trkpt><trkpt lat="43.62710052208776" lon="3.032413385389989"><ele>575.0</ele><time>2026-04-07T15:30:11.998Z</time></trkpt><trkpt lat="43.62721111987737" lon="3.0323767376862922"><ele>572.0</ele><time>2026-04-07T15:30:12.998Z</time></trkpt><trkpt lat="43.627327160952994" lon="3.0324135730085198"><ele>569.0</ele><time>2026-04-07T15:30:13.998Z</time></trkpt><trkpt lat="43.62744982247167" lon="3.0325257772654495"><ele>566.0</ele><time>2026-04-07T15:30:14.998Z</time></trkpt><trkpt lat="43.627574242921256" lon="3.032621793902719"><ele>563.0</ele><time>2026-04-07T15:30:15.998Z</time></trkpt><trkpt lat="43.627695337302285" lon="3.032703159041316"><ele>563.0</ele><time>2026-04-07T15:30:16.997Z</time></trkpt><trkpt lat="43.6278039578138" lon="3.0328088798752106"><ele>563.0</ele><time>2026-04-07T15:30:17.997Z</time></trkpt><trkpt lat="43.62789215827976" lon="3.032967690928146"><ele>563.0</ele><time>2026-04-07T15:30:19Z</time></trkpt><trkpt lat="43.62794707691893" lon="3.033166376104085"><ele>563.0</ele><time>2026-04-07T15:30:20Z</time></trkpt><trkpt lat="43.6280088892346" lon="3.0333713742299757"><ele>562.6666666666666</ele><time>2026-04-07T15:30:21Z</time></trkpt><trkpt lat="43.62805816715195" lon="3.033577796665961"><ele>562.3333333333334</ele><time>2026-04-07T15:30:22Z</time></trkpt><trkpt lat="43.62811303563802" lon="3.0337787660635036"><ele>562.0</ele><time>2026-04-07T15:30:23Z</time></trkpt><trkpt lat="43.628155656088786" lon="3.0339887799567165"><ele>556.3333333333334</ele><time>2026-04-07T15:30:24Z</time></trkpt><trkpt lat="43.62820786839826" lon="3.034191905946112"><ele>550.6666666666666</ele><time>2026-04-07T15:30:25Z</time></trkpt><trkpt lat="43.62824505851789" lon="3.03439597861658"><ele>545.0</ele><time>2026-04-07T15:30:26Z</time></trkpt><trkpt lat="43.62829096633575" lon="3.0346044327956827"><ele>545.0</ele><time>2026-04-07T15:30:27Z</time></trkpt><trkpt lat="43.6283400230686" lon="3.03481016699564"><ele>545.0</ele><time>2026-04-07T15:30:28Z</time></trkpt><trkpt lat="43.6283945036793" lon="3.035015256254422"><ele>545.0</ele><time>2026-04-07T15:30:29Z</time></trkpt><trkpt lat="43.628488843829324" lon="3.0352082530193996"><ele>547.6666666666666</ele><time>2026-04-07T15:30:30Z</time></trkpt><trkpt lat="43.628556655307925" lon="3.0354333141683107"><ele>550.3333333333334</ele><time>2026-04-07T15:30:31Z</time></trkpt><trkpt lat="43.62861177167753" lon="3.0356627856849294"><ele>553.0</ele><time>2026-04-07T15:30:32Z</time></trkpt><trkpt lat="43.628679316699795" lon="3.03590112601932"><ele>553.0</ele><time>2026-04-07T15:30:33Z</time></trkpt><trkpt lat="43.62873461941269" lon="3.0361314581338608"><ele>553.0</ele><time>2026-04-07T15:30:34Z</time></trkpt><trkpt lat="43.62875267531363" lon="3.036350380589394"><ele>553.0</ele><time>2026-04-07T15:30:35Z</time></trkpt><trkpt lat="43.628740891048004" lon="3.036570409853882"><ele>551.6666666666667</ele><time>2026-04-07T15:30:36Z</time></trkpt><trkpt lat="43.62873051633057" lon="3.036825822053139"><ele>550.3333333333334</ele><time>2026-04-07T15:30:37Z</time></trkpt><trkpt lat="43.628723860042165" lon="3.0370847371360337"><ele>549.0</ele><time>2026-04-07T15:30:38Z</time></trkpt><trkpt lat="43.628761357800244" lon="3.037305760874665"><ele>546.0</ele><time>2026-04-07T15:30:39Z</time></trkpt><trkpt lat="43.62879067756732" lon="3.0375468694404932"><ele>543.0</ele><time>2026-04-07T15:30:40Z</time></trkpt><trkpt lat="43.62884597059142" lon="3.037765510983984"><ele>540.0</ele><time>2026-04-07T15:30:41Z</time></trkpt><trkpt lat="43.62887851900629" lon="3.0379736147009595"><ele>540.0</ele><time>2026-04-07T15:30:42Z</time></trkpt><trkpt lat="43.62888578579859" lon="3.0381336921688242"><ele>540.0</ele><time>2026-04-07T15:30:43Z</time></trkpt><trkpt lat="43.62883742193445" lon="3.0382839221022304"><ele>540.0</ele><time>2026-04-07T15:30:44Z</time></trkpt><trkpt lat="43.62875989482332" lon="3.0384355054112167"><ele>540.0</ele><time>2026-04-07T15:30:45Z</time></trkpt><trkpt lat="43.62871023808558" lon="3.038582846667368"><ele>538.25</ele><time>2026-04-07T15:30:46Z</time></trkpt><trkpt lat="43.62873806316733" lon="3.038778177991471"><ele>536.5</ele><time>2026-04-07T15:30:47Z</time></trkpt><trkpt lat="43.62876171925949" lon="3.0389701595291423"><ele>534.75</ele><time>2026-04-07T15:30:48Z</time></trkpt><trkpt lat="43.628742960168296" lon="3.0391623931549323"><ele>533.0</ele><time>2026-04-07T15:30:49Z</time></trkpt><trkpt lat="43.62873082404238" lon="3.039354490935924"><ele>531.0</ele><time>2026-04-07T15:30:50Z</time></trkpt><trkpt lat="43.628751152493315" lon="3.0395191427066215"><ele>529.0</ele><time>2026-04-07T15:30:51Z</time></trkpt><trkpt lat="43.628785927061394" lon="3.039671553750008"><ele>527.0</ele><time>2026-04-07T15:30:52Z</time></trkpt><trkpt lat="43.62887801118866" lon="3.0397786257112225"><ele>525.0</ele><time>2026-04-07T15:30:53Z</time></trkpt><trkpt lat="43.62898039236063" lon="3.0398295124085557"><ele>525.0</ele><time>2026-04-07T15:30:53.999Z</time></trkpt><trkpt lat="43.62911686047613" lon="3.039805715602512"><ele>525.0</ele><time>2026-04-07T15:30:54.999Z</time></trkpt><trkpt lat="43.629253659047826" lon="3.0397404482893178"><ele>525.0</ele><time>2026-04-07T15:30:55.999Z</time></trkpt><trkpt lat="43.62938930370768" lon="3.0396928109608305"><ele>525.0</ele><time>2026-04-07T15:30:56.999Z</time></trkpt><trkpt lat="43.62951063055153" lon="3.0396460406473564"><ele>523.5</ele><time>2026-04-07T15:30:57.999Z</time></trkpt><trkpt lat="43.62963859974359" lon="3.039602368110292"><ele>522.0</ele><time>2026-04-07T15:30:58.999Z</time></trkpt><trkpt lat="43.6297694583868" lon="3.039564400698045"><ele>520.5</ele><time>2026-04-07T15:30:59.999Z</time></trkpt><trkpt lat="43.62990684362021" lon="3.039529450533526"><ele>519.0</ele><time>2026-04-07T15:31:00.999Z</time></trkpt><trkpt lat="43.63004893426099" lon="3.0394969183927207"><ele>519.0</ele><time>2026-04-07T15:31:01.999Z</time></trkpt><trkpt lat="43.630172689695385" lon="3.039457083343791"><ele>519.0</ele><time>2026-04-07T15:31:02.999Z</time></trkpt><trkpt lat="43.63030616816384" lon="3.039427177848055"><ele>519.0</ele><time>2026-04-07T15:31:03.999Z</time></trkpt><trkpt lat="43.63043817662944" lon="3.039431755930172"><ele>519.0</ele><time>2026-04-07T15:31:04.999Z</time></trkpt><trkpt lat="43.63052878888901" lon="3.0394989170344227"><ele>516.6</ele><time>2026-04-07T15:31:05.999Z</time></trkpt><trkpt lat="43.63059461797783" lon="3.039572961579667"><ele>514.2</ele><time>2026-04-07T15:31:07.999Z</time></trkpt><trkpt lat="43.63056600116428" lon="3.0396832346687335"><ele>511.80000000000007</ele><time>2026-04-07T15:32:18.998Z</time></trkpt><trkpt lat="43.63055656713468" lon="3.039810497870594"><ele>509.40000000000003</ele><time>2026-04-07T15:32:19.998Z</time></trkpt><trkpt lat="43.630569072563084" lon="3.0399721477781068"><ele>507.0</ele><time>2026-04-07T15:32:20.998Z</time></trkpt><trkpt lat="43.63060972244211" lon="3.0401301297592283"><ele>507.0</ele><time>2026-04-07T15:32:21.998Z</time></trkpt><trkpt lat="43.630673866542544" lon="3.0402604806742866"><ele>507.0</ele><time>2026-04-07T15:32:22.997Z</time></trkpt><trkpt lat="43.63074425591878" lon="3.0403821310808965"><ele>507.0</ele><time>2026-04-07T15:32:23.997Z</time></trkpt><trkpt lat="43.630795554850835" lon="3.040536375542992"><ele>507.0</ele><time>2026-04-07T15:32:25Z</time></trkpt><trkpt lat="43.63080664092637" lon="3.0407253834995767"><ele>507.33333333333337</ele><time>2026-04-07T15:32:26Z</time></trkpt><trkpt lat="43.63075213778066" lon="3.0409188151764917"><ele>507.6666666666667</ele><time>2026-04-07T15:32:27Z</time></trkpt><trkpt lat="43.63071663209939" lon="3.041135750728142"><ele>508.0</ele><time>2026-04-07T15:32:28Z</time></trkpt><trkpt lat="43.63066226456525" lon="3.0413505786481876"><ele>508.0</ele><time>2026-04-07T15:32:29Z</time></trkpt><trkpt lat="43.63060153910565" lon="3.041537524827799"><ele>508.0</ele><time>2026-04-07T15:32:30Z</time></trkpt><trkpt lat="43.63054682039725" lon="3.041727270772166"><ele>508.0</ele><time>2026-04-07T15:32:31Z</time></trkpt><trkpt lat="43.63049055670159" lon="3.0419157260242087"><ele>508.0</ele><time>2026-04-07T15:32:32Z</time></trkpt><trkpt lat="43.63044416461677" lon="3.0421223965515853"><ele>509.6666666666667</ele><time>2026-04-07T15:32:33Z</time></trkpt><trkpt lat="43.630408135953104" lon="3.0423423686093094"><ele>511.33333333333337</ele><time>2026-04-07T15:32:34Z</time></trkpt><trkpt lat="43.63038158606448" lon="3.042554322026866"><ele>513.0</ele><time>2026-04-07T15:32:35Z</time></trkpt><trkpt lat="43.630359176055386" lon="3.042761439061675"><ele>513.5</ele><time>2026-04-07T15:32:36Z</time></trkpt><trkpt lat="43.63035802873956" lon="3.0429515207705604"><ele>514.0</ele><time>2026-04-07T15:32:37Z</time></trkpt><trkpt lat="43.63039394733424" lon="3.0431201281453992"><ele>514.5</ele><time>2026-04-07T15:32:38Z</time></trkpt><trkpt lat="43.63045055523518" lon="3.0432565700996803"><ele>515.0</ele><time>2026-04-07T15:32:39Z</time></trkpt><trkpt lat="43.63056266376815" lon="3.0433786876236804"><ele>512.5</ele><time>2026-04-07T15:32:40Z</time></trkpt><trkpt lat="43.630663067142734" lon="3.0434953106388205"><ele>510.0</ele><time>2026-04-07T15:32:41Z</time></trkpt><trkpt lat="43.630768263231246" lon="3.043582661276417"><ele>507.5</ele><time>2026-04-07T15:32:42Z</time></trkpt><trkpt lat="43.63086958710676" lon="3.043651331486643"><ele>505.0</ele><time>2026-04-07T15:32:43Z</time></trkpt><trkpt lat="43.63090786485906" lon="3.0437815867096765"><ele>505.0</ele><time>2026-04-07T15:32:44Z</time></trkpt><trkpt lat="43.63088772527475" lon="3.043937813509289"><ele>505.0</ele><time>2026-04-07T15:32:45Z</time></trkpt><trkpt lat="43.6308383924746" lon="3.0441125647191467"><ele>505.0</ele><time>2026-04-07T15:32:46Z</time></trkpt><trkpt lat="43.630793268533594" lon="3.044285954640691"><ele>505.0</ele><time>2026-04-07T15:32:47Z</time></trkpt><trkpt lat="43.630726831967294" lon="3.0444435790065563"><ele>503.0</ele><time>2026-04-07T15:32:48Z</time></trkpt><trkpt lat="43.63063786399166" lon="3.044583842834647"><ele>501.0</ele><time>2026-04-07T15:32:49Z</time></trkpt><trkpt lat="43.630510839589654" lon="3.0446997210415683"><ele>499.0</ele><time>2026-04-07T15:32:50Z</time></trkpt><trkpt lat="43.63038129570095" lon="3.0448141989883095"><ele>497.0</ele><time>2026-04-07T15:32:51Z</time></trkpt><trkpt lat="43.630256533323404" lon="3.0449312868671945"><ele>491.25</ele><time>2026-04-07T15:32:52Z</time></trkpt><trkpt lat="43.63013003420352" lon="3.045039189284935"><ele>485.5</ele><time>2026-04-07T15:32:53Z</time></trkpt><trkpt lat="43.630023997725964" lon="3.0451492821686057"><ele>479.75</ele><time>2026-04-07T15:32:54Z</time></trkpt><trkpt lat="43.629975215161544" lon="3.045299994530974"><ele>474.0</ele><time>2026-04-07T15:32:55Z</time></trkpt><trkpt lat="43.62992524200155" lon="3.045496762697928"><ele>474.0</ele><time>2026-04-07T15:32:56Z</time></trkpt><trkpt lat="43.6298774907738" lon="3.0456864542697106"><ele>474.0</ele><time>2026-04-07T15:32:57Z</time></trkpt><trkpt lat="43.62981897488541" lon="3.0459154807654194"><ele>474.0</ele><time>2026-04-07T15:32:58Z</time></trkpt><trkpt lat="43.62979337313505" lon="3.0461137872365818"><ele>477.5</ele><time>2026-04-07T15:32:59Z</time></trkpt><trkpt lat="43.629798075163485" lon="3.0463046626765227"><ele>481.0</ele><time>2026-04-07T15:32:59.999Z</time></trkpt><trkpt lat="43.629799702299536" lon="3.0464829009601475"><ele>484.5</ele><time>2026-04-07T15:33:00.999Z</time></trkpt><trkpt lat="43.62974406676608" lon="3.046632730044376"><ele>488.0</ele><time>2026-04-07T15:33:01.999Z</time></trkpt><trkpt lat="43.62963500674079" lon="3.0467602262850053"><ele>492.3333333333333</ele><time>2026-04-07T15:33:02.999Z</time></trkpt><trkpt lat="43.629488111814716" lon="3.046865123740601"><ele>496.66666666666663</ele><time>2026-04-07T15:33:03.999Z</time></trkpt><trkpt lat="43.629355314778266" lon="3.0469884472628617"><ele>501.0</ele><time>2026-04-07T15:33:04.999Z</time></trkpt><trkpt lat="43.62924255948186" lon="3.047117199981398"><ele>489.33333333333337</ele><time>2026-04-07T15:33:05.999Z</time></trkpt><trkpt lat="43.62910096204948" lon="3.0472112000330904"><ele>477.6666666666667</ele><time>2026-04-07T15:33:06.999Z</time></trkpt><trkpt lat="43.6289331565605" lon="3.047246148446488"><ele>466.0</ele><time>2026-04-07T15:33:07.999Z</time></trkpt><trkpt lat="43.62877465534077" lon="3.0472603534084692"><ele>460.6666666666667</ele><time>2026-04-07T15:33:08.999Z</time></trkpt><trkpt lat="43.62862243690403" lon="3.0472753545173688"><ele>455.33333333333337</ele><time>2026-04-07T15:33:09.999Z</time></trkpt><trkpt lat="43.62847499455869" lon="3.047313332761523"><ele>450.0</ele><time>2026-04-07T15:33:10.999Z</time></trkpt><trkpt lat="43.628332898767134" lon="3.0474075521659256"><ele>457.66666666666663</ele><time>2026-04-07T15:33:11.999Z</time></trkpt><trkpt lat="43.62820202577077" lon="3.047542825352405"><ele>465.3333333333333</ele><time>2026-04-07T15:33:12.999Z</time></trkpt><trkpt lat="43.62809311828689" lon="3.047709597647208"><ele>473.0</ele><time>2026-04-07T15:33:13.999Z</time></trkpt><trkpt lat="43.6280068684684" lon="3.047915490862897"><ele>473.0</ele><time>2026-04-07T15:33:14.999Z</time></trkpt><trkpt lat="43.627928202435854" lon="3.0481034668492906"><ele>473.0</ele><time>2026-04-07T15:33:15.999Z</time></trkpt><trkpt lat="43.627856282546276" lon="3.0482991844847422"><ele>473.0</ele><time>2026-04-07T15:33:16.999Z</time></trkpt><trkpt lat="43.627760229663345" lon="3.048485995224124"><ele>467.66666666666663</ele><time>2026-04-07T15:33:17.999Z</time></trkpt><trkpt lat="43.62762135770675" lon="3.048622973563936"><ele>462.33333333333337</ele><time>2026-04-07T15:33:18.999Z</time></trkpt><trkpt lat="43.62748557218821" lon="3.0487547934749406"><ele>457.0</ele><time>2026-04-07T15:33:19.999Z</time></trkpt><trkpt lat="43.62735581400107" lon="3.048889419929198"><ele>457.0</ele><time>2026-04-07T15:33:20.999Z</time></trkpt><trkpt lat="43.62724274668411" lon="3.0490418591130397"><ele>457.0</ele><time>2026-04-07T15:33:21.999Z</time></trkpt><trkpt lat="43.62716852677649" lon="3.049218691127182"><ele>457.0</ele><time>2026-04-07T15:33:22.999Z</time></trkpt><trkpt lat="43.627110481922024" lon="3.049402449869565"><ele>460.0</ele><time>2026-04-07T15:33:23.999Z</time></trkpt><trkpt lat="43.627099370788365" lon="3.0496044297521876"><ele>463.0</ele><time>2026-04-07T15:33:24.999Z</time></trkpt><trkpt lat="43.62710424043488" lon="3.0498199732419176"><ele>466.0</ele><time>2026-04-07T15:33:25.999Z</time></trkpt><trkpt lat="43.62714257363961" lon="3.0500157962731604"><ele>466.0</ele><time>2026-04-07T15:33:26.999Z</time></trkpt><trkpt lat="43.62720956380982" lon="3.0502079023051465"><ele>466.0</ele><time>2026-04-07T15:33:27.999Z</time></trkpt><trkpt lat="43.62731128823246" lon="3.050398693574408"><ele>466.0</ele><time>2026-04-07T15:33:28.999Z</time></trkpt><trkpt lat="43.62743075189539" lon="3.0505736943969826"><ele>466.0</ele><time>2026-04-07T15:33:29.999Z</time></trkpt><trkpt lat="43.627538601731295" lon="3.0507501193830127"><ele>466.0</ele><time>2026-04-07T15:33:30.999Z</time></trkpt><trkpt lat="43.627635246037244" lon="3.050921429513536"><ele>466.0</ele><time>2026-04-07T15:33:31.999Z</time></trkpt><trkpt lat="43.627723056156796" lon="3.0510954798002383"><ele>467.0</ele><time>2026-04-07T15:33:32.999Z</time></trkpt><trkpt lat="43.62781178289433" lon="3.051285430107389"><ele>468.0</ele><time>2026-04-07T15:33:33.999Z</time></trkpt><trkpt lat="43.62790152774709" lon="3.051486505571678"><ele>469.0</ele><time>2026-04-07T15:33:34.999Z</time></trkpt><trkpt lat="43.62800082432504" lon="3.051679159073873"><ele>465.33333333333337</ele><time>2026-04-07T15:33:35.999Z</time></trkpt><trkpt lat="43.628102179733176" lon="3.0518551740302655"><ele>461.66666666666663</ele><time>2026-04-07T15:33:36.999Z</time></trkpt><trkpt lat="43.62820454753813" lon="3.052030858784835"><ele>458.0</ele><time>2026-04-07T15:33:37.999Z</time></trkpt><trkpt lat="43.62831569318511" lon="3.052183058651208"><ele>458.0</ele><time>2026-04-07T15:33:38.999Z</time></trkpt><trkpt lat="43.62841170678636" lon="3.052332682876847"><ele>458.0</ele><time>2026-04-07T15:33:39.999Z</time></trkpt><trkpt lat="43.62855371966824" lon="3.0523744686536927"><ele>458.0</ele><time>2026-04-07T15:33:40.999Z</time></trkpt><trkpt lat="43.62869184789899" lon="3.0523729853133035"><ele>458.0</ele><time>2026-04-07T15:33:41.999Z</time></trkpt><trkpt lat="43.62882486750703" lon="3.0523068654032794"><ele>456.0</ele><time>2026-04-07T15:33:42.999Z</time></trkpt><trkpt lat="43.62895060047962" lon="3.0521879514705703"><ele>454.0</ele><time>2026-04-07T15:33:43.998Z</time></trkpt><trkpt lat="43.6290681017296" lon="3.052049558004566"><ele>452.0</ele><time>2026-04-07T15:33:44.998Z</time></trkpt><trkpt lat="43.62920422430184" lon="3.0519645981654917"><ele>452.0</ele><time>2026-04-07T15:33:45.998Z</time></trkpt><trkpt lat="43.62934033649551" lon="3.051902428096802"><ele>452.0</ele><time>2026-04-07T15:33:46.998Z</time></trkpt><trkpt lat="43.62947360471711" lon="3.051840759492009"><ele>452.0</ele><time>2026-04-07T15:33:47.998Z</time></trkpt><trkpt lat="43.629583896826034" lon="3.0517674968053274"><ele>452.0</ele><time>2026-04-07T15:33:48.998Z</time></trkpt><trkpt lat="43.629693842518655" lon="3.0516633128440973"><ele>454.5</ele><time>2026-04-07T15:33:49.998Z</time></trkpt><trkpt lat="43.62978646203986" lon="3.0515177369701068"><ele>457.0</ele><time>2026-04-07T15:33:50.998Z</time></trkpt><trkpt lat="43.62985069574277" lon="3.0513518526361167"><ele>459.5</ele><time>2026-04-07T15:33:51.998Z</time></trkpt><trkpt lat="43.629968774005036" lon="3.051269066790333"><ele>462.0</ele><time>2026-04-07T15:33:52.998Z</time></trkpt><trkpt lat="43.63009679627019" lon="3.0511991869687454"><ele>462.0</ele><time>2026-04-07T15:33:53.998Z</time></trkpt><trkpt lat="43.63025160371358" lon="3.0511526295318436"><ele>462.0</ele><time>2026-04-07T15:33:54.998Z</time></trkpt><trkpt lat="43.630407484022044" lon="3.0511466218711782"><ele>462.0</ele><time>2026-04-07T15:33:55.998Z</time></trkpt><trkpt lat="43.6305716611312" lon="3.0511286142881358"><ele>458.0</ele><time>2026-04-07T15:33:56.998Z</time></trkpt><trkpt lat="43.63072020418614" lon="3.051147111605943"><ele>454.0</ele><time>2026-04-07T15:33:57.998Z</time></trkpt><trkpt lat="43.63086547614741" lon="3.0511270315838273"><ele>450.0</ele><time>2026-04-07T15:33:58.998Z</time></trkpt><trkpt lat="43.631010126615664" lon="3.0510847542828627"><ele>446.0</ele><time>2026-04-07T15:33:59.998Z</time></trkpt><trkpt lat="43.63113807524849" lon="3.0509789608293127"><ele>450.0</ele><time>2026-04-07T15:34:00.998Z</time></trkpt><trkpt lat="43.63127484648773" lon="3.0508598044604787"><ele>454.0</ele><time>2026-04-07T15:34:01.998Z</time></trkpt><trkpt lat="43.63141710426987" lon="3.050742321032402"><ele>458.0</ele><time>2026-04-07T15:34:02.998Z</time></trkpt><trkpt lat="43.631572820019386" lon="3.050662162638853"><ele>458.0</ele><time>2026-04-07T15:34:03.998Z</time></trkpt><trkpt lat="43.631737899099505" lon="3.0506015542877605"><ele>458.0</ele><time>2026-04-07T15:34:04.998Z</time></trkpt><trkpt lat="43.63189458989086" lon="3.0505289936918905"><ele>458.0</ele><time>2026-04-07T15:34:05.998Z</time></trkpt><trkpt lat="43.63204156711502" lon="3.050412672266377"><ele>450.3333333333333</ele><time>2026-04-07T15:34:06.998Z</time></trkpt><trkpt lat="43.632179182054784" lon="3.0502630487916664"><ele>442.66666666666663</ele><time>2026-04-07T15:34:07.998Z</time></trkpt><trkpt lat="43.632315900584175" lon="3.0501058667789565"><ele>435.0</ele><time>2026-04-07T15:34:08.998Z</time></trkpt><trkpt lat="43.63245101065154" lon="3.050009811058293"><ele>444.0</ele><time>2026-04-07T15:34:09.998Z</time></trkpt><trkpt lat="43.63259992594929" lon="3.0499386421882164"><ele>453.0</ele><time>2026-04-07T15:34:10.998Z</time></trkpt><trkpt lat="43.6327511314795" lon="3.049905066227611"><ele>462.0</ele><time>2026-04-07T15:34:11.998Z</time></trkpt><trkpt lat="43.632894997549" lon="3.0498822575651827"><ele>462.0</ele><time>2026-04-07T15:34:12.998Z</time></trkpt><trkpt lat="43.63302604577987" lon="3.049877214160623"><ele>462.00000000000006</ele><time>2026-04-07T15:34:13.998Z</time></trkpt><trkpt lat="43.633135248616696" lon="3.049874301812157"><ele>462.00000000000006</ele><time>2026-04-07T15:34:14.998Z</time></trkpt><trkpt lat="43.63322492452334" lon="3.0499243524695436"><ele>462.0</ele><time>2026-04-07T15:34:15.998Z</time></trkpt><trkpt lat="43.63328097033385" lon="3.0500235926165074"><ele>462.0</ele><time>2026-04-07T15:34:16.998Z</time></trkpt><trkpt lat="43.633323965331435" lon="3.0501792965972903"><ele>455.75</ele><time>2026-04-07T15:34:17.998Z</time></trkpt><trkpt lat="43.633350750563984" lon="3.0503519478439345"><ele>449.5</ele><time>2026-04-07T15:34:18.998Z</time></trkpt><trkpt lat="43.63337832713268" lon="3.05053823256135"><ele>443.25</ele><time>2026-04-07T15:34:19.998Z</time></trkpt><trkpt lat="43.6333798240533" lon="3.0507245129686926"><ele>437.0</ele><time>2026-04-07T15:34:20.998Z</time></trkpt><trkpt lat="43.63337149931795" lon="3.0508925714108184"><ele>433.6</ele><time>2026-04-07T15:34:21.998Z</time></trkpt><trkpt lat="43.63334234410284" lon="3.051054566008048"><ele>430.20000000000005</ele><time>2026-04-07T15:34:22.998Z</time></trkpt><trkpt lat="43.63332381305135" lon="3.051206413322275"><ele>426.8</ele><time>2026-04-07T15:34:23.998Z</time></trkpt><trkpt lat="43.63334674904539" lon="3.0513433753091195"><ele>423.4</ele><time>2026-04-07T15:34:24.998Z</time></trkpt><trkpt lat="43.63342856707575" lon="3.0514353782393666"><ele>420.0</ele><time>2026-04-07T15:34:25.998Z</time></trkpt><trkpt lat="43.63353950301238" lon="3.0514611676137746"><ele>424.5</ele><time>2026-04-07T15:34:26.998Z</time></trkpt><trkpt lat="43.63365325353918" lon="3.051403326232869"><ele>429.0</ele><time>2026-04-07T15:34:27.997Z</time></trkpt><trkpt lat="43.63374513001907" lon="3.05128337296575"><ele>433.5</ele><time>2026-04-07T15:34:28.997Z</time></trkpt><trkpt lat="43.633834899969294" lon="3.0511415327867937"><ele>438.0</ele><time>2026-04-07T15:34:29.997Z</time></trkpt><trkpt lat="43.633957332037305" lon="3.051090949188582"><ele>438.0</ele><time>2026-04-07T15:34:31Z</time></trkpt><trkpt lat="43.63405855620369" lon="3.0511088746678525"><ele>437.99999999999994</ele><time>2026-04-07T15:34:32Z</time></trkpt><trkpt lat="43.63413295628258" lon="3.0511691309282303"><ele>437.99999999999994</ele><time>2026-04-07T15:34:33Z</time></trkpt><trkpt lat="43.6341817975752" lon="3.0513009504586464"><ele>438.0</ele><time>2026-04-07T15:34:34Z</time></trkpt><trkpt lat="43.63420088059904" lon="3.0514754810481777"><ele>438.0</ele><time>2026-04-07T15:34:35Z</time></trkpt><trkpt lat="43.634192393759314" lon="3.0516610467198406"><ele>433.25</ele><time>2026-04-07T15:34:36Z</time></trkpt><trkpt lat="43.63420022061301" lon="3.05182855678531"><ele>428.5</ele><time>2026-04-07T15:34:37Z</time></trkpt><trkpt lat="43.63423219312733" lon="3.0519856633319407"><ele>423.75</ele><time>2026-04-07T15:34:38Z</time></trkpt><trkpt lat="43.63427269775153" lon="3.0521446856584142"><ele>419.0</ele><time>2026-04-07T15:34:39Z</time></trkpt><trkpt lat="43.63430397509649" lon="3.052310624381046"><ele>415.5</ele><time>2026-04-07T15:34:40Z</time></trkpt><trkpt lat="43.63430509428987" lon="3.052490029996576"><ele>412.0</ele><time>2026-04-07T15:34:41Z</time></trkpt><trkpt lat="43.63433448111436" lon="3.0526518462861327"><ele>408.5</ele><time>2026-04-07T15:34:42Z</time></trkpt><trkpt lat="43.63435630789731" lon="3.052798326399965"><ele>405.0</ele><time>2026-04-07T15:34:43Z</time></trkpt><trkpt lat="43.63442361145993" lon="3.052926329927924"><ele>414.0</ele><time>2026-04-07T15:34:44Z</time></trkpt><trkpt lat="43.634535457184306" lon="3.053013745983944"><ele>423.0</ele><time>2026-04-07T15:34:45Z</time></trkpt><trkpt lat="43.63466908167445" lon="3.053054808607621"><ele>432.0</ele><time>2026-04-07T15:34:46Z</time></trkpt><trkpt lat="43.63478082147188" lon="3.0530722987885492"><ele>441.0</ele><time>2026-04-07T15:34:47Z</time></trkpt><trkpt lat="43.6348963232196" lon="3.053076015403409"><ele>441.0</ele><time>2026-04-07T15:34:48Z</time></trkpt><trkpt lat="43.634977731614136" lon="3.0531063157789946"><ele>441.0</ele><time>2026-04-07T15:34:49Z</time></trkpt><trkpt lat="43.635026825504085" lon="3.053203710034466"><ele>441.0</ele><time>2026-04-07T15:34:50Z</time></trkpt><trkpt lat="43.635029450345826" lon="3.0533559123468352"><ele>441.0</ele><time>2026-04-07T15:34:51Z</time></trkpt><trkpt lat="43.634997172392154" lon="3.05351854201629"><ele>441.0</ele><time>2026-04-07T15:34:52Z</time></trkpt><trkpt lat="43.63491167695722" lon="3.0536502386617013"><ele>434.5</ele><time>2026-04-07T15:34:53Z</time></trkpt><trkpt lat="43.63478343934664" lon="3.053748469158041"><ele>428.0</ele><time>2026-04-07T15:34:54Z</time></trkpt><trkpt lat="43.63465854986739" lon="3.0538546350429736"><ele>421.5</ele><time>2026-04-07T15:34:55Z</time></trkpt><trkpt lat="43.6345628209855" lon="3.0539763007871352"><ele>415.0</ele><time>2026-04-07T15:34:56Z</time></trkpt><trkpt lat="43.634457551390916" lon="3.054087626601655"><ele>410.33333333333337</ele><time>2026-04-07T15:34:57Z</time></trkpt><trkpt lat="43.63434577793598" lon="3.05420488048078"><ele>405.66666666666663</ele><time>2026-04-07T15:34:58Z</time></trkpt><trkpt lat="43.634194533069994" lon="3.0542633019708703"><ele>401.0</ele><time>2026-04-07T15:34:59Z</time></trkpt><trkpt lat="43.634027795495506" lon="3.0542890434645864"><ele>401.0</ele><time>2026-04-07T15:35:00Z</time></trkpt><trkpt lat="43.63386325573372" lon="3.054356896574387"><ele>401.0</ele><time>2026-04-07T15:35:01Z</time></trkpt><trkpt lat="43.63370683275826" lon="3.054479773715147"><ele>401.0</ele><time>2026-04-07T15:35:02Z</time></trkpt><trkpt lat="43.63356189604639" lon="3.0546261122256015"><ele>393.3333333333333</ele><time>2026-04-07T15:35:03Z</time></trkpt><trkpt lat="43.63340324140244" lon="3.0547351823441895"><ele>385.66666666666663</ele><time>2026-04-07T15:35:03.999Z</time></trkpt><trkpt lat="43.633234516908736" lon="3.0548286001762057"><ele>378.0</ele><time>2026-04-07T15:35:04.999Z</time></trkpt><trkpt lat="43.63309186888967" lon="3.0549360272736417"><ele>376.0</ele><time>2026-04-07T15:35:05.999Z</time></trkpt><trkpt lat="43.632980846753796" lon="3.055051411854591"><ele>374.0</ele><time>2026-04-07T15:35:06.999Z</time></trkpt><trkpt lat="43.63289331240738" lon="3.0552149949661325"><ele>372.0</ele><time>2026-04-07T15:35:07.999Z</time></trkpt><trkpt lat="43.632830166036314" lon="3.0554060696411702"><ele>370.0</ele><time>2026-04-07T15:35:08.999Z</time></trkpt><trkpt lat="43.63276948747909" lon="3.0555974781216286"><ele>370.0</ele><time>2026-04-07T15:35:09.999Z</time></trkpt><trkpt lat="43.63269869839568" lon="3.0557506851132477"><ele>370.0</ele><time>2026-04-07T15:35:10.999Z</time></trkpt><trkpt lat="43.632594382235865" lon="3.0558719424472285"><ele>370.0</ele><time>2026-04-07T15:35:11.999Z</time></trkpt><trkpt lat="43.632461244251736" lon="3.055921573570475"><ele>370.0</ele><time>2026-04-07T15:35:12.999Z</time></trkpt><trkpt lat="43.63231343558362" lon="3.0559186305737254"><ele>368.66666666666663</ele><time>2026-04-07T15:35:13.999Z</time></trkpt><trkpt lat="43.6321620285347" lon="3.0559399152576985"><ele>367.3333333333333</ele><time>2026-04-07T15:35:14.999Z</time></trkpt><trkpt lat="43.632029344569496" lon="3.056057919739291"><ele>366.0</ele><time>2026-04-07T15:35:15.999Z</time></trkpt><trkpt lat="43.63189774801825" lon="3.0561770915692374"><ele>366.0</ele><time>2026-04-07T15:35:16.999Z</time></trkpt><trkpt lat="43.631774180474515" lon="3.056293807714693"><ele>366.0</ele><time>2026-04-07T15:35:17.999Z</time></trkpt><trkpt lat="43.63166305781262" lon="3.0564217310508806"><ele>366.0</ele><time>2026-04-07T15:35:18.999Z</time></trkpt><trkpt lat="43.63155637908072" lon="3.0565690242216457"><ele>366.0</ele><time>2026-04-07T15:35:19.999Z</time></trkpt><trkpt lat="43.631450595379874" lon="3.0567287872534274"><ele>374.0</ele><time>2026-04-07T15:35:20.999Z</time></trkpt><trkpt lat="43.63134848833037" lon="3.056895585629129"><ele>382.0</ele><time>2026-04-07T15:35:21.999Z</time></trkpt><trkpt lat="43.63124252010866" lon="3.057065452911505"><ele>390.0</ele><time>2026-04-07T15:35:22.999Z</time></trkpt><trkpt lat="43.63115755854737" lon="3.0572620648525577"><ele>381.0</ele><time>2026-04-07T15:35:23.999Z</time></trkpt><trkpt lat="43.63108456474499" lon="3.0574762459292275"><ele>372.0</ele><time>2026-04-07T15:35:24.999Z</time></trkpt><trkpt lat="43.63102869796365" lon="3.0576947331314885"><ele>363.0</ele><time>2026-04-07T15:35:25.999Z</time></trkpt><trkpt lat="43.630979872487316" lon="3.0579303201769212"><ele>363.0</ele><time>2026-04-07T15:35:26.999Z</time></trkpt><trkpt lat="43.63093899122085" lon="3.0581574305460983"><ele>363.0</ele><time>2026-04-07T15:35:27.999Z</time></trkpt><trkpt lat="43.63089501429458" lon="3.0583888330051487"><ele>363.0</ele><time>2026-04-07T15:35:28.999Z</time></trkpt><trkpt lat="43.63082904793826" lon="3.0586060874376146"><ele>367.0</ele><time>2026-04-07T15:35:29.999Z</time></trkpt><trkpt lat="43.630739129265635" lon="3.058821506698679"><ele>371.0</ele><time>2026-04-07T15:35:30.999Z</time></trkpt><trkpt lat="43.63063682469915" lon="3.0590214328911216"><ele>375.0</ele><time>2026-04-07T15:35:31.999Z</time></trkpt><trkpt lat="43.63053463503044" lon="3.0592210351383753"><ele>378.33333333333337</ele><time>2026-04-07T15:35:32.999Z</time></trkpt><trkpt lat="43.630452395314066" lon="3.0594238038943566"><ele>381.6666666666667</ele><time>2026-04-07T15:35:33.999Z</time></trkpt><trkpt lat="43.63038635792191" lon="3.0596338546319193"><ele>385.0</ele><time>2026-04-07T15:35:34.999Z</time></trkpt><trkpt lat="43.630348218776135" lon="3.0598218572602494"><ele>385.0</ele><time>2026-04-07T15:35:35.999Z</time></trkpt><trkpt lat="43.630350031452075" lon="3.0599865751161266"><ele>385.0</ele><time>2026-04-07T15:35:36.999Z</time></trkpt><trkpt lat="43.6303869117868" lon="3.0601618256038394"><ele>385.0</ele><time>2026-04-07T15:35:37.999Z</time></trkpt><trkpt lat="43.63046396840775" lon="3.0603204464081055"><ele>385.0</ele><time>2026-04-07T15:35:38.999Z</time></trkpt><trkpt lat="43.6305847931244" lon="3.0604349004575715"><ele>385.0</ele><time>2026-04-07T15:35:39.999Z</time></trkpt><trkpt lat="43.630710837199054" lon="3.060551603537732"><ele>385.0</ele><time>2026-04-07T15:35:40.999Z</time></trkpt><trkpt lat="43.63082496456017" lon="3.0606665838628153"><ele>385.0</ele><time>2026-04-07T15:35:41.999Z</time></trkpt><trkpt lat="43.6309420317367" lon="3.0607890786199734"><ele>385.0</ele><time>2026-04-07T15:35:42.999Z</time></trkpt><trkpt lat="43.631035379569035" lon="3.0609389668950095"><ele>388.2</ele><time>2026-04-07T15:35:43.999Z</time></trkpt><trkpt lat="43.63110125930785" lon="3.0610917303616816"><ele>391.4</ele><time>2026-04-07T15:35:44.999Z</time></trkpt><trkpt lat="43.63114749346347" lon="3.0612250006817807"><ele>394.6</ele><time>2026-04-07T15:35:45.999Z</time></trkpt><trkpt lat="43.63116636219455" lon="3.0613636759145186"><ele>397.8</ele><time>2026-04-07T15:35:46.999Z</time></trkpt><trkpt lat="43.63113403911924" lon="3.061507107559917"><ele>401.0</ele><time>2026-04-07T15:35:47.999Z</time></trkpt><trkpt lat="43.63105710795731" lon="3.0616292363654645"><ele>390.75</ele><time>2026-04-07T15:35:48.998Z</time></trkpt><trkpt lat="43.630927185800665" lon="3.0616987601069656"><ele>380.5</ele><time>2026-04-07T15:35:49.998Z</time></trkpt><trkpt lat="43.63078624800125" lon="3.061750646120532"><ele>370.25</ele><time>2026-04-07T15:35:50.998Z</time></trkpt><trkpt lat="43.630660133400234" lon="3.0618426887031593"><ele>360.0</ele><time>2026-04-07T15:35:51.998Z</time></trkpt><trkpt lat="43.63056543722377" lon="3.0619806763199806"><ele>360.0</ele><time>2026-04-07T15:35:52.998Z</time></trkpt><trkpt lat="43.63048778005371" lon="3.0621322550968033"><ele>360.0</ele><time>2026-04-07T15:35:53.998Z</time></trkpt><trkpt lat="43.630443712728265" lon="3.0623080257553825"><ele>360.0</ele><time>2026-04-07T15:35:54.998Z</time></trkpt><trkpt lat="43.63043297121192" lon="3.062487025255159"><ele>360.0</ele><time>2026-04-07T15:35:55.998Z</time></trkpt><trkpt lat="43.6304213541004" lon="3.062658397206413"><ele>358.0</ele><time>2026-04-07T15:35:56.998Z</time></trkpt><trkpt lat="43.630377714053466" lon="3.0627948289783506"><ele>356.0</ele><time>2026-04-07T15:35:57.998Z</time></trkpt><trkpt lat="43.63029506774973" lon="3.062889688919234"><ele>354.0</ele><time>2026-04-07T15:35:58.998Z</time></trkpt><trkpt lat="43.63017175054649" lon="3.0629229318103643"><ele>352.0</ele><time>2026-04-07T15:35:59.998Z</time></trkpt><trkpt lat="43.63004741038277" lon="3.0628621590749914"><ele>352.0</ele><time>2026-04-07T15:36:00.998Z</time></trkpt><trkpt lat="43.629929199919786" lon="3.0627494567079316"><ele>352.0</ele><time>2026-04-07T15:36:01.998Z</time></trkpt><trkpt lat="43.6298115729549" lon="3.062655775400037"><ele>352.0</ele><time>2026-04-07T15:36:02.998Z</time></trkpt><trkpt lat="43.62968567797319" lon="3.062600592957264"><ele>352.0</ele><time>2026-04-07T15:36:03.998Z</time></trkpt><trkpt lat="43.629560747098424" lon="3.0625504396703245"><ele>355.5</ele><time>2026-04-07T15:36:04.998Z</time></trkpt><trkpt lat="43.62943651979379" lon="3.0624727751607357"><ele>359.0</ele><time>2026-04-07T15:36:05.998Z</time></trkpt><trkpt lat="43.629318564655655" lon="3.062366203682591"><ele>362.5</ele><time>2026-04-07T15:36:06.998Z</time></trkpt><trkpt lat="43.62919042443913" lon="3.062271553430293"><ele>366.0</ele><time>2026-04-07T15:36:07.998Z</time></trkpt><trkpt lat="43.629041018427664" lon="3.0622350912499274"><ele>355.25</ele><time>2026-04-07T15:36:08.998Z</time></trkpt><trkpt lat="43.62889017902532" lon="3.0622044474103913"><ele>344.5</ele><time>2026-04-07T15:36:09.998Z</time></trkpt><trkpt lat="43.62874452951575" lon="3.062178310958029"><ele>333.75</ele><time>2026-04-07T15:36:10.998Z</time></trkpt><trkpt lat="43.62860205772828" lon="3.0621295748475648"><ele>323.0</ele><time>2026-04-07T15:36:11.998Z</time></trkpt><trkpt lat="43.62846957949676" lon="3.062053795192198"><ele>323.0</ele><time>2026-04-07T15:36:12.998Z</time></trkpt><trkpt lat="43.62832784519614" lon="3.0620228674307306"><ele>323.0</ele><time>2026-04-07T15:36:13.998Z</time></trkpt><trkpt lat="43.62817542690835" lon="3.0620502706355723"><ele>323.0</ele><time>2026-04-07T15:36:14.998Z</time></trkpt><trkpt lat="43.628027630916506" lon="3.06209287357996"><ele>323.0</ele><time>2026-04-07T15:36:15.998Z</time></trkpt><trkpt lat="43.627872116887154" lon="3.0621058642192684"><ele>321.0</ele><time>2026-04-07T15:36:16.998Z</time></trkpt><trkpt lat="43.62770825578625" lon="3.062126373926608"><ele>319.0</ele><time>2026-04-07T15:36:17.998Z</time></trkpt><trkpt lat="43.627546302341884" lon="3.062183862977622"><ele>317.0</ele><time>2026-04-07T15:36:18.998Z</time></trkpt><trkpt lat="43.62739117105637" lon="3.0622818915378187"><ele>317.0</ele><time>2026-04-07T15:36:19.998Z</time></trkpt><trkpt lat="43.627242611209574" lon="3.062402699186318"><ele>317.0</ele><time>2026-04-07T15:36:20.998Z</time></trkpt><trkpt lat="43.627108259174335" lon="3.062515868568"><ele>317.0</ele><time>2026-04-07T15:36:21.998Z</time></trkpt><trkpt lat="43.62696964702212" lon="3.0626382331143054"><ele>318.6666666666667</ele><time>2026-04-07T15:36:22.998Z</time></trkpt><trkpt lat="43.62684578701381" lon="3.0627682970121692"><ele>320.3333333333333</ele><time>2026-04-07T15:36:23.998Z</time></trkpt><trkpt lat="43.62673523050062" lon="3.062929967716386"><ele>322.0</ele><time>2026-04-07T15:36:24.998Z</time></trkpt><trkpt lat="43.62664825771664" lon="3.0631100795912265"><ele>322.0</ele><time>2026-04-07T15:36:25.998Z</time></trkpt><trkpt lat="43.62655499192755" lon="3.0632741673189408"><ele>322.0</ele><time>2026-04-07T15:36:26.998Z</time></trkpt><trkpt lat="43.62647707899139" lon="3.063439317636368"><ele>322.0</ele><time>2026-04-07T15:36:27.998Z</time></trkpt><trkpt lat="43.626433443443894" lon="3.063618818607169"><ele>322.0</ele><time>2026-04-07T15:36:28.998Z</time></trkpt><trkpt lat="43.62645056380708" lon="3.063813529217218"><ele>325.75</ele><time>2026-04-07T15:36:29.998Z</time></trkpt><trkpt lat="43.62649355288257" lon="3.0640047052331356"><ele>329.5</ele><time>2026-04-07T15:36:30.998Z</time></trkpt><trkpt lat="43.6265424044227" lon="3.064183961665601"><ele>333.25</ele><time>2026-04-07T15:36:31.998Z</time></trkpt><trkpt lat="43.62659133666988" lon="3.064362019519793"><ele>337.0</ele><time>2026-04-07T15:36:32.998Z</time></trkpt><trkpt lat="43.626653676758245" lon="3.064548299097518"><ele>337.0</ele><time>2026-04-07T15:36:33.997Z</time></trkpt><trkpt lat="43.62671894383598" lon="3.064731938787515"><ele>337.0</ele><time>2026-04-07T15:36:34.997Z</time></trkpt><trkpt lat="43.62679348677586" lon="3.0649119185093654"><ele>337.0</ele><time>2026-04-07T15:36:35.997Z</time></trkpt><trkpt lat="43.626860355224075" lon="3.0650929148268604"><ele>337.0</ele><time>2026-04-07T15:36:37Z</time></trkpt><trkpt lat="43.62691293529311" lon="3.065267864644093"><ele>335.6</ele><time>2026-04-07T15:36:38Z</time></trkpt><trkpt lat="43.626952881661026" lon="3.0654259529246883"><ele>334.20000000000005</ele><time>2026-04-07T15:36:39Z</time></trkpt><trkpt lat="43.626973925692205" lon="3.0655718319706953"><ele>332.8</ele><time>2026-04-07T15:36:40Z</time></trkpt><trkpt lat="43.62695472820112" lon="3.0657127142484817"><ele>331.4</ele><time>2026-04-07T15:36:41Z</time></trkpt><trkpt lat="43.626940383903055" lon="3.0658256584297163"><ele>330.0</ele><time>2026-04-07T15:36:42Z</time></trkpt><trkpt lat="43.626855310728956" lon="3.0659335144827944"><ele>330.0</ele><time>2026-04-07T15:36:43Z</time></trkpt><trkpt lat="43.62675078296648" lon="3.0659949841648366"><ele>330.0</ele><time>2026-04-07T15:36:44Z</time></trkpt><trkpt lat="43.62664503959323" lon="3.066017903319333"><ele>330.0</ele><time>2026-04-07T15:36:45Z</time></trkpt><trkpt lat="43.62653113799961" lon="3.065935475639288"><ele>330.0</ele><time>2026-04-07T15:36:46Z</time></trkpt><trkpt lat="43.62642725694673" lon="3.0658017455147073"><ele>329.3333333333333</ele><time>2026-04-07T15:36:47Z</time></trkpt><trkpt lat="43.626297089651196" lon="3.065687060664506"><ele>328.66666666666663</ele><time>2026-04-07T15:36:48Z</time></trkpt><trkpt lat="43.62615683443535" lon="3.0655940531453343"><ele>328.0</ele><time>2026-04-07T15:36:49Z</time></trkpt><trkpt lat="43.62600176322522" lon="3.065536793142949"><ele>320.66666666666663</ele><time>2026-04-07T15:36:50Z</time></trkpt><trkpt lat="43.62582836657462" lon="3.065511085251586"><ele>313.3333333333333</ele><time>2026-04-07T15:36:51Z</time></trkpt><trkpt lat="43.62567048404158" lon="3.065493810929813"><ele>306.0</ele><time>2026-04-07T15:36:52Z</time></trkpt><trkpt lat="43.62551892882161" lon="3.0654361077063754"><ele>306.0</ele><time>2026-04-07T15:36:53Z</time></trkpt><trkpt lat="43.62539649629151" lon="3.065259331764193"><ele>306.0</ele><time>2026-04-07T15:36:54Z</time></trkpt><trkpt lat="43.62525468219634" lon="3.0650836447827188"><ele>306.0</ele><time>2026-04-07T15:36:55Z</time></trkpt><trkpt lat="43.62512531428158" lon="3.064910995292614"><ele>304.0</ele><time>2026-04-07T15:36:56Z</time></trkpt><trkpt lat="43.6250008523775" lon="3.064724581193763"><ele>302.0</ele><time>2026-04-07T15:36:57Z</time></trkpt><trkpt lat="43.62488274107668" lon="3.064537148261245"><ele>300.0</ele><time>2026-04-07T15:36:58Z</time></trkpt><trkpt lat="43.62474794932706" lon="3.0643523558134937"><ele>300.0</ele><time>2026-04-07T15:36:59Z</time></trkpt><trkpt lat="43.62462359310852" lon="3.064172694717729"><ele>300.0</ele><time>2026-04-07T15:37:00Z</time></trkpt><trkpt lat="43.624498775133915" lon="3.063992008209134"><ele>300.0</ele><time>2026-04-07T15:37:01Z</time></trkpt><trkpt lat="43.62437252683218" lon="3.0638178747961953"><ele>299.3333333333333</ele><time>2026-04-07T15:37:02Z</time></trkpt><trkpt lat="43.624239302080674" lon="3.0636584537389844"><ele>298.66666666666663</ele><time>2026-04-07T15:37:03Z</time></trkpt><trkpt lat="43.62410128010884" lon="3.063511387744527"><ele>298.0</ele><time>2026-04-07T15:37:04Z</time></trkpt><trkpt lat="43.62397792647177" lon="3.0633866668053136"><ele>298.0</ele><time>2026-04-07T15:37:05Z</time></trkpt><trkpt lat="43.623839396721806" lon="3.0633223253390494"><ele>298.0</ele><time>2026-04-07T15:37:06Z</time></trkpt><trkpt lat="43.62371256903897" lon="3.0633136791236923"><ele>298.0</ele><time>2026-04-07T15:37:07Z</time></trkpt><trkpt lat="43.62360521278527" lon="3.0633793769011373"><ele>298.0</ele><time>2026-04-07T15:37:08Z</time></trkpt><trkpt lat="43.62351178445934" lon="3.063495676509894"><ele>298.0</ele><time>2026-04-07T15:37:09Z</time></trkpt><trkpt lat="43.62339444601487" lon="3.0635806477116554"><ele>298.0</ele><time>2026-04-07T15:37:10Z</time></trkpt><trkpt lat="43.62327832474589" lon="3.063646183577469"><ele>298.0</ele><time>2026-04-07T15:37:10.999Z</time></trkpt><trkpt lat="43.623167516239526" lon="3.063637527559748"><ele>298.0</ele><time>2026-04-07T15:37:11.999Z</time></trkpt><trkpt lat="43.62306776764554" lon="3.06353232738735"><ele>298.0</ele><time>2026-04-07T15:37:12.999Z</time></trkpt><trkpt lat="43.62293377277399" lon="3.063438567131715"><ele>298.0</ele><time>2026-04-07T15:37:13.999Z</time></trkpt><trkpt lat="43.622816233399" lon="3.0633543804088963"><ele>298.0</ele><time>2026-04-07T15:37:14.999Z</time></trkpt><trkpt lat="43.62267589175247" lon="3.0633432481153764"><ele>298.0</ele><time>2026-04-07T15:37:15.999Z</time></trkpt><trkpt lat="43.62254161100993" lon="3.0633744047274685"><ele>295.66666666666663</ele><time>2026-04-07T15:37:16.999Z</time></trkpt><trkpt lat="43.62239482483068" lon="3.0633816351518774"><ele>293.3333333333333</ele><time>2026-04-07T15:37:17.999Z</time></trkpt><trkpt lat="43.622241410876754" lon="3.0634380664327137"><ele>291.0</ele><time>2026-04-07T15:37:18.999Z</time></trkpt><trkpt lat="43.622098862015946" lon="3.0634978250347755"><ele>284.6666666666667</ele><time>2026-04-07T15:37:19.999Z</time></trkpt><trkpt lat="43.62196217183861" lon="3.063587444681356"><ele>278.33333333333337</ele><time>2026-04-07T15:37:20.999Z</time></trkpt><trkpt lat="43.62183698543254" lon="3.0637451563721605"><ele>272.0</ele><time>2026-04-07T15:37:21.999Z</time></trkpt><trkpt lat="43.62173233126001" lon="3.0639380402255423"><ele>276.6666666666667</ele><time>2026-04-07T15:37:22.999Z</time></trkpt><trkpt lat="43.621667413624934" lon="3.0641226654640596"><ele>281.3333333333333</ele><time>2026-04-07T15:37:23.999Z</time></trkpt><trkpt lat="43.62165122201077" lon="3.064326973282447"><ele>286.0</ele><time>2026-04-07T15:37:24.999Z</time></trkpt><trkpt lat="43.6216741496217" lon="3.0645521142734062"><ele>286.0</ele><time>2026-04-07T15:37:25.999Z</time></trkpt><trkpt lat="43.62167887582122" lon="3.064752242597628"><ele>286.0</ele><time>2026-04-07T15:37:26.999Z</time></trkpt><trkpt lat="43.62170472814592" lon="3.064935977139322"><ele>286.0</ele><time>2026-04-07T15:37:27.999Z</time></trkpt><trkpt lat="43.62171555289581" lon="3.065081129119026"><ele>286.0</ele><time>2026-04-07T15:37:28.999Z</time></trkpt><trkpt lat="43.621731136189695" lon="3.0652195294074662"><ele>285.5</ele><time>2026-04-07T15:37:29.999Z</time></trkpt><trkpt lat="43.62172794024903" lon="3.065364580605682"><ele>285.0</ele><time>2026-04-07T15:37:30.999Z</time></trkpt><trkpt lat="43.6217179413645" lon="3.0655362245303626"><ele>284.5</ele><time>2026-04-07T15:37:31.999Z</time></trkpt><trkpt lat="43.62172218009591" lon="3.06569829477632"><ele>284.0</ele><time>2026-04-07T15:37:32.999Z</time></trkpt><trkpt lat="43.62171258949483" lon="3.065848861284602"><ele>283.25</ele><time>2026-04-07T15:37:33.999Z</time></trkpt><trkpt lat="43.62173261061208" lon="3.065991322928981"><ele>282.5</ele><time>2026-04-07T15:37:34.999Z</time></trkpt><trkpt lat="43.62179475202819" lon="3.0661220849135997"><ele>281.75</ele><time>2026-04-07T15:37:35.999Z</time></trkpt><trkpt lat="43.621889802768756" lon="3.0662376717936235"><ele>281.0</ele><time>2026-04-07T15:37:36.999Z</time></trkpt><trkpt lat="43.622007514472664" lon="3.0663078373630035"><ele>283.40000000000003</ele><time>2026-04-07T15:37:37.999Z</time></trkpt><trkpt lat="43.62210269663756" lon="3.066406106538159"><ele>285.8</ele><time>2026-04-07T15:37:38.999Z</time></trkpt><trkpt lat="43.622200265390234" lon="3.066482486276468"><ele>288.20000000000005</ele><time>2026-04-07T15:37:39.999Z</time></trkpt><trkpt lat="43.62228871799365" lon="3.0665631265669284"><ele>290.6</ele><time>2026-04-07T15:37:40.999Z</time></trkpt><trkpt lat="43.62236569297755" lon="3.0666569020729506"><ele>293.0</ele><time>2026-04-07T15:37:41.999Z</time></trkpt><trkpt lat="43.622407495499885" lon="3.066764893975378"><ele>293.0</ele><time>2026-04-07T15:37:42.999Z</time></trkpt><trkpt lat="43.62244115864768" lon="3.0668653742987715"><ele>293.0</ele><time>2026-04-07T15:37:43.999Z</time></trkpt><trkpt lat="43.6224025359551" lon="3.0669708839201726"><ele>293.0</ele><time>2026-04-07T15:37:44.999Z</time></trkpt><trkpt lat="43.62235448970205" lon="3.067049554996262"><ele>293.0</ele><time>2026-04-07T15:37:45.999Z</time></trkpt><trkpt lat="43.62227604928269" lon="3.067078173321195"><ele>293.0</ele><time>2026-04-07T15:37:46.999Z</time></trkpt><trkpt lat="43.6221810137213" lon="3.067098808516798"><ele>293.0</ele><time>2026-04-07T15:37:47.999Z</time></trkpt><trkpt lat="43.62208948268294" lon="3.0671351181852295"><ele>293.0</ele><time>2026-04-07T15:37:48.999Z</time></trkpt><trkpt lat="43.621994742698725" lon="3.0671908448047707"><ele>293.0</ele><time>2026-04-07T15:37:49.999Z</time></trkpt><trkpt lat="43.62188299299643" lon="3.0672663876313573"><ele>293.0</ele><time>2026-04-07T15:37:50.999Z</time></trkpt><trkpt lat="43.62175371929495" lon="3.067355267178683"><ele>293.0</ele><time>2026-04-07T15:37:51.999Z</time></trkpt><trkpt lat="43.621600102681704" lon="3.067448922869755"><ele>290.0</ele><time>2026-04-07T15:37:52.999Z</time></trkpt><trkpt lat="43.62144754313249" lon="3.0674866646665397"><ele>287.0</ele><time>2026-04-07T15:37:53.999Z</time></trkpt><trkpt lat="43.62130483677264" lon="3.067544364677038"><ele>284.0</ele><time>2026-04-07T15:37:54.999Z</time></trkpt><trkpt lat="43.62121917380758" lon="3.0675884410505714"><ele>281.0</ele><time>2026-04-07T15:37:55.999Z</time></trkpt><trkpt lat="43.62107559683657" lon="3.067704005001137"><ele>275.8</ele><time>2026-04-07T15:37:56.998Z</time></trkpt><trkpt lat="43.621135062223715" lon="3.0676582986802456"><ele>270.6</ele><time>2026-04-07T15:37:57.998Z</time></trkpt><trkpt lat="43.62105062858455" lon="3.067760000584704"><ele>265.4</ele><time>2026-04-07T15:37:58.998Z</time></trkpt><trkpt lat="43.620982659294164" lon="3.067920173209915"><ele>260.2</ele><time>2026-04-07T15:37:59.998Z</time></trkpt><trkpt lat="43.62092363805265" lon="3.0680741239295157"><ele>255.0</ele><time>2026-04-07T15:38:00.998Z</time></trkpt><trkpt lat="43.620814208108264" lon="3.0681596590839133"><ele>255.0</ele><time>2026-04-07T15:38:01.998Z</time></trkpt><trkpt lat="43.62066922806066" lon="3.068218858792438"><ele>255.0</ele><time>2026-04-07T15:38:02.998Z</time></trkpt><trkpt lat="43.62056362693257" lon="3.0683403176299215"><ele>255.0</ele><time>2026-04-07T15:38:03.998Z</time></trkpt><trkpt lat="43.620473604431886" lon="3.0684902887250436"><ele>255.0</ele><time>2026-04-07T15:38:04.998Z</time></trkpt><trkpt lat="43.62037362116151" lon="3.0685922610636127"><ele>254.6</ele><time>2026-04-07T15:38:05.998Z</time></trkpt><trkpt lat="43.62028135295326" lon="3.0686826929327404"><ele>254.2</ele><time>2026-04-07T15:38:06.998Z</time></trkpt><trkpt lat="43.62020501558148" lon="3.0687840463081235"><ele>253.8</ele><time>2026-04-07T15:38:07.998Z</time></trkpt><trkpt lat="43.62015512906194" lon="3.0688849075817393"><ele>253.4</ele><time>2026-04-07T15:38:08.998Z</time></trkpt><trkpt lat="43.62015585200867" lon="3.069006148897387"><ele>253.0</ele><time>2026-04-07T15:38:09.998Z</time></trkpt><trkpt lat="43.62018511305741" lon="3.0691172477840065"><ele>253.0</ele><time>2026-04-07T15:38:10.998Z</time></trkpt><trkpt lat="43.620246030045614" lon="3.0692151121033184"><ele>253.0</ele><time>2026-04-07T15:38:11.998Z</time></trkpt><trkpt lat="43.6203292609286" lon="3.0692896610517777"><ele>253.0</ele><time>2026-04-07T15:38:12.998Z</time></trkpt><trkpt lat="43.62041293143353" lon="3.0693707289813648"><ele>253.0</ele><time>2026-04-07T15:38:13.998Z</time></trkpt><trkpt lat="43.62048235557975" lon="3.0694669003909842"><ele>253.0</ele><time>2026-04-07T15:38:14.998Z</time></trkpt><trkpt lat="43.6205568235342" lon="3.069549969829163"><ele>254.60000000000002</ele><time>2026-04-07T15:38:15.998Z</time></trkpt><trkpt lat="43.620625599646516" lon="3.0696453958304923"><ele>256.20000000000005</ele><time>2026-04-07T15:38:16.998Z</time></trkpt><trkpt lat="43.62069858816748" lon="3.0697588916069822"><ele>257.8</ele><time>2026-04-07T15:38:17.998Z</time></trkpt><trkpt lat="43.62077348718526" lon="3.0698816273697935"><ele>259.40000000000003</ele><time>2026-04-07T15:38:18.998Z</time></trkpt><trkpt lat="43.62084961185654" lon="3.070005145750976"><ele>261.0</ele><time>2026-04-07T15:38:19.998Z</time></trkpt><trkpt lat="43.620921907472834" lon="3.0701187756690986"><ele>261.0</ele><time>2026-04-07T15:38:20.998Z</time></trkpt><trkpt lat="43.62099356652436" lon="3.0702275932856375"><ele>261.0</ele><time>2026-04-07T15:38:21.998Z</time></trkpt><trkpt lat="43.62107645379897" lon="3.070309055282915"><ele>261.0</ele><time>2026-04-07T15:38:22.998Z</time></trkpt><trkpt lat="43.62116965350987" lon="3.070317258125741"><ele>261.0</ele><time>2026-04-07T15:38:23.998Z</time></trkpt><trkpt lat="43.62127546257595" lon="3.0703201558476763"><ele>261.0</ele><time>2026-04-07T15:38:24.998Z</time></trkpt><trkpt lat="43.62137167637481" lon="3.070297770569481"><ele>263.40000000000003</ele><time>2026-04-07T15:38:25.998Z</time></trkpt><trkpt lat="43.621470035509944" lon="3.070309267010938"><ele>265.8</ele><time>2026-04-07T15:38:26.998Z</time></trkpt><trkpt lat="43.621576209453934" lon="3.070371480839079"><ele>268.20000000000005</ele><time>2026-04-07T15:38:27.998Z</time></trkpt><trkpt lat="43.62166626075816" lon="3.0704558366429593"><ele>270.6</ele><time>2026-04-07T15:38:28.998Z</time></trkpt><trkpt lat="43.62175003752359" lon="3.07052652141271"><ele>273.0</ele><time>2026-04-07T15:38:29.998Z</time></trkpt><trkpt lat="43.621837383547316" lon="3.0705867059552974"><ele>273.0</ele><time>2026-04-07T15:38:30.998Z</time></trkpt><trkpt lat="43.62193528628014" lon="3.070628617408193"><ele>273.0</ele><time>2026-04-07T15:38:31.998Z</time></trkpt><trkpt lat="43.62202944079792" lon="3.0706588129043038"><ele>273.0</ele><time>2026-04-07T15:38:32.998Z</time></trkpt><trkpt lat="43.62212153051358" lon="3.070703041992191"><ele>273.0</ele><time>2026-04-07T15:38:33.998Z</time></trkpt><trkpt lat="43.62220922350198" lon="3.070751661203999"><ele>273.0</ele><time>2026-04-07T15:38:34.998Z</time></trkpt><trkpt lat="43.62228375349996" lon="3.070840439892661"><ele>270.8</ele><time>2026-04-07T15:38:35.998Z</time></trkpt><trkpt lat="43.62230394340753" lon="3.0709758166326204"><ele>268.6</ele><time>2026-04-07T15:38:36.998Z</time></trkpt><trkpt lat="43.62230210380853" lon="3.0711300142972284"><ele>266.4</ele><time>2026-04-07T15:38:37.998Z</time></trkpt><trkpt lat="43.6222585141713" lon="3.071252390869498"><ele>264.2</ele><time>2026-04-07T15:38:38.998Z</time></trkpt><trkpt lat="43.62215548406366" lon="3.0712994907104276"><ele>262.0</ele><time>2026-04-07T15:38:39.998Z</time></trkpt><trkpt lat="43.622043619076884" lon="3.0713179421541588"><ele>261.0</ele><time>2026-04-07T15:38:40.998Z</time></trkpt><trkpt lat="43.62191882872944" lon="3.0713443127341327"><ele>260.0</ele><time>2026-04-07T15:38:41.997Z</time></trkpt><trkpt lat="43.621809018527614" lon="3.0713476892289493"><ele>259.0</ele><time>2026-04-07T15:38:43Z</time></trkpt><trkpt lat="43.62170885271974" lon="3.0713661405567327"><ele>258.0</ele><time>2026-04-07T15:38:44Z</time></trkpt><trkpt lat="43.62161240218619" lon="3.0713911250500634"><ele>257.0</ele><time>2026-04-07T15:38:45Z</time></trkpt><trkpt lat="43.62151492135083" lon="3.071430879932929"><ele>257.0</ele><time>2026-04-07T15:38:46Z</time></trkpt><trkpt lat="43.62142890837294" lon="3.0714663216598876"><ele>257.0</ele><time>2026-04-07T15:38:47Z</time></trkpt><trkpt lat="43.62136366058625" lon="3.071517391105548"><ele>257.0</ele><time>2026-04-07T15:38:48Z</time></trkpt><trkpt lat="43.621279360342825" lon="3.071602202957216"><ele>257.0</ele><time>2026-04-07T15:38:49Z</time></trkpt><trkpt lat="43.62123113529248" lon="3.0717135477027724"><ele>257.0</ele><time>2026-04-07T15:38:50Z</time></trkpt><trkpt lat="43.621195978425085" lon="3.0718459728955096"><ele>257.0</ele><time>2026-04-07T15:38:51Z</time></trkpt><trkpt lat="43.62118401657544" lon="3.071992361225147"><ele>257.0</ele><time>2026-04-07T15:38:52Z</time></trkpt><trkpt lat="43.621144277075935" lon="3.0721059428105457"><ele>257.0</ele><time>2026-04-07T15:38:53Z</time></trkpt><trkpt lat="43.62110158829747" lon="3.0722021106215593"><ele>257.0</ele><time>2026-04-07T15:38:54Z</time></trkpt><trkpt lat="43.621044575499965" lon="3.072284750542225"><ele>257.0</ele><time>2026-04-07T15:38:55Z</time></trkpt><trkpt lat="43.62098097137611" lon="3.0723495499371825"><ele>257.0</ele><time>2026-04-07T15:38:56Z</time></trkpt><trkpt lat="43.62090675177672" lon="3.072398963599214"><ele>255.39999999999998</ele><time>2026-04-07T15:38:57Z</time></trkpt><trkpt lat="43.62082254006018" lon="3.0724180923715734"><ele>253.79999999999998</ele><time>2026-04-07T15:38:58Z</time></trkpt><trkpt lat="43.62073936585606" lon="3.072384267227925"><ele>252.2</ele><time>2026-04-07T15:38:59Z</time></trkpt><trkpt lat="43.620642878491694" lon="3.0723588842532488"><ele>250.6</ele><time>2026-04-07T15:39:00Z</time></trkpt><trkpt lat="43.62051736887817" lon="3.072337300337854"><ele>249.0</ele><time>2026-04-07T15:39:01Z</time></trkpt><trkpt lat="43.620378115836395" lon="3.072302249101266"><ele>246.66666666666669</ele><time>2026-04-07T15:39:02Z</time></trkpt><trkpt lat="43.6202207276153" lon="3.0722746953587556"><ele>244.33333333333334</ele><time>2026-04-07T15:39:03Z</time></trkpt><trkpt lat="43.62005038274202" lon="3.072240726346936"><ele>242.0</ele><time>2026-04-07T15:39:04Z</time></trkpt><trkpt lat="43.61988443680427" lon="3.0722261658229977"><ele>242.0</ele><time>2026-04-07T15:39:05Z</time></trkpt><trkpt lat="43.619726497483896" lon="3.0722417320380466"><ele>242.0</ele><time>2026-04-07T15:39:06Z</time></trkpt><trkpt lat="43.619585078338105" lon="3.0722458426432673"><ele>242.0</ele><time>2026-04-07T15:39:07Z</time></trkpt><trkpt lat="43.619463514571024" lon="3.0722677853519866"><ele>242.0</ele><time>2026-04-07T15:39:08Z</time></trkpt><trkpt lat="43.61934070076538" lon="3.0722861145235343"><ele>240.75</ele><time>2026-04-07T15:39:09Z</time></trkpt><trkpt lat="43.61922990597341" lon="3.0723466914855453"><ele>239.5</ele><time>2026-04-07T15:39:10Z</time></trkpt><trkpt lat="43.61913794298392" lon="3.0724679797702317"><ele>238.25</ele><time>2026-04-07T15:39:11Z</time></trkpt><trkpt lat="43.619062034241864" lon="3.0726237025334395"><ele>237.0</ele><time>2026-04-07T15:39:12Z</time></trkpt><trkpt lat="43.61900286442398" lon="3.0727610883883414"><ele>237.0</ele><time>2026-04-07T15:39:13Z</time></trkpt><trkpt lat="43.61893626320201" lon="3.072889721992136"><ele>237.0</ele><time>2026-04-07T15:39:14Z</time></trkpt><trkpt lat="43.618880803526274" lon="3.073036467965657"><ele>237.0</ele><time>2026-04-07T15:39:15Z</time></trkpt><trkpt lat="43.6188671807069" lon="3.0732206899643066"><ele>237.0</ele><time>2026-04-07T15:39:16Z</time></trkpt><trkpt lat="43.618883521620745" lon="3.0733930434000025"><ele>239.0</ele><time>2026-04-07T15:39:17Z</time></trkpt><trkpt lat="43.61889911020156" lon="3.073536609597196"><ele>241.0</ele><time>2026-04-07T15:39:18Z</time></trkpt><trkpt lat="43.61889848055275" lon="3.073669425484146"><ele>243.0</ele><time>2026-04-07T15:39:18.999Z</time></trkpt><trkpt lat="43.61888482166689" lon="3.073778840874419"><ele>245.0</ele><time>2026-04-07T15:39:19.999Z</time></trkpt><trkpt lat="43.61882109328218" lon="3.073882936959681"><ele>247.0</ele><time>2026-04-07T15:39:21.999Z</time></trkpt><trkpt lat="43.6187383134036" lon="3.073933736027542"><ele>245.16666666666666</ele><time>2026-04-07T15:39:24.999Z</time></trkpt><trkpt lat="43.61864700064945" lon="3.0739624317555676"><ele>243.33333333333331</ele><time>2026-04-07T15:39:26.999Z</time></trkpt><trkpt lat="43.61857285569962" lon="3.0739554759846595"><ele>241.5</ele><time>2026-04-07T15:39:27.999Z</time></trkpt><trkpt lat="43.6184873185078" lon="3.0739017061854783"><ele>239.66666666666669</ele><time>2026-04-07T15:39:28.999Z</time></trkpt><trkpt lat="43.618427371638056" lon="3.073813194862436"><ele>237.83333333333334</ele><time>2026-04-07T15:39:29.999Z</time></trkpt><trkpt lat="43.61839209899363" lon="3.0736970842526588"><ele>236.0</ele><time>2026-04-07T15:39:30.999Z</time></trkpt><trkpt lat="43.61832483341352" lon="3.0735892794819915"><ele>236.0</ele><time>2026-04-07T15:39:31.999Z</time></trkpt><trkpt lat="43.61826594120598" lon="3.0734711515607365"><ele>236.00000000000003</ele><time>2026-04-07T15:39:32.999Z</time></trkpt><trkpt lat="43.618202833723714" lon="3.0733770905122544"><ele>236.00000000000003</ele><time>2026-04-07T15:39:33.999Z</time></trkpt><trkpt lat="43.61811574481846" lon="3.073325476687065"><ele>236.0</ele><time>2026-04-07T15:39:34.999Z</time></trkpt><trkpt lat="43.618005422818314" lon="3.0733165384558547"><ele>236.0</ele><time>2026-04-07T15:39:35.999Z</time></trkpt><trkpt lat="43.61790467448992" lon="3.0733659253239596"><ele>236.0</ele><time>2026-04-07T15:39:36.999Z</time></trkpt><trkpt lat="43.617798310031155" lon="3.0734542034556873"><ele>236.0</ele><time>2026-04-07T15:39:37.999Z</time></trkpt><trkpt lat="43.61768972196037" lon="3.073490184671545"><ele>236.0</ele><time>2026-04-07T15:39:38.999Z</time></trkpt><trkpt lat="43.617581982916604" lon="3.073544440032858"><ele>236.0</ele><time>2026-04-07T15:39:39.999Z</time></trkpt><trkpt lat="43.61746657136798" lon="3.0735729087534143"><ele>236.0</ele><time>2026-04-07T15:39:40.999Z</time></trkpt><trkpt lat="43.617345469115264" lon="3.073593897135492"><ele>236.0</ele><time>2026-04-07T15:39:41.999Z</time></trkpt><trkpt lat="43.61721552982696" lon="3.073595851157495"><ele>236.0</ele><time>2026-04-07T15:39:42.999Z</time></trkpt><trkpt lat="43.61708927805028" lon="3.073616225015868"><ele>236.0</ele><time>2026-04-07T15:39:43.999Z</time></trkpt><trkpt lat="43.616952143594304" lon="3.0736255169637667"><ele>235.25</ele><time>2026-04-07T15:39:44.999Z</time></trkpt><trkpt lat="43.61681587927734" lon="3.073634327262183"><ele>234.5</ele><time>2026-04-07T15:39:45.999Z</time></trkpt><trkpt lat="43.61667593978421" lon="3.073641567973217"><ele>233.75</ele><time>2026-04-07T15:39:46.999Z</time></trkpt><trkpt lat="43.61654202991455" lon="3.0736445256716656"><ele>233.0</ele><time>2026-04-07T15:39:47.999Z</time></trkpt><trkpt lat="43.616408982775305" lon="3.0736508251321357"><ele>233.0</ele><time>2026-04-07T15:39:48.999Z</time></trkpt><trkpt lat="43.61627423695173" lon="3.0736730067312723"><ele>233.0</ele><time>2026-04-07T15:39:49.999Z</time></trkpt><trkpt lat="43.616132664037664" lon="3.0736957307107433"><ele>233.0</ele><time>2026-04-07T15:39:50.999Z</time></trkpt><trkpt lat="43.615988397607126" lon="3.073717896236044"><ele>233.0</ele><time>2026-04-07T15:39:51.999Z</time></trkpt><trkpt lat="43.615846092381446" lon="3.0737362433714064"><ele>231.5</ele><time>2026-04-07T15:39:52.999Z</time></trkpt><trkpt lat="43.615719312889055" lon="3.073756536580308"><ele>230.0</ele><time>2026-04-07T15:39:53.999Z</time></trkpt><trkpt lat="43.61559979138981" lon="3.073772374887993"><ele>228.5</ele><time>2026-04-07T15:39:54.999Z</time></trkpt><trkpt lat="43.61548624221053" lon="3.0738257040654617"><ele>227.0</ele><time>2026-04-07T15:39:55.999Z</time></trkpt><trkpt lat="43.615346111956434" lon="3.073903359412312"><ele>224.0</ele><time>2026-04-07T15:39:56.999Z</time></trkpt><trkpt lat="43.615176726434576" lon="3.073990426567056"><ele>221.0</ele><time>2026-04-07T15:39:57.999Z</time></trkpt><trkpt lat="43.615062622022464" lon="3.074070837954359"><ele>218.0</ele><time>2026-04-07T15:39:58.999Z</time></trkpt><trkpt lat="43.614905173294865" lon="3.0741480256265223"><ele>221.0</ele><time>2026-04-07T15:39:59.999Z</time></trkpt><trkpt lat="43.614741114955" lon="3.0741710280389376"><ele>224.0</ele><time>2026-04-07T15:40:00.999Z</time></trkpt><trkpt lat="43.61457187617433" lon="3.0742051754411825"><ele>227.0</ele><time>2026-04-07T15:40:01.999Z</time></trkpt><trkpt lat="43.61441448842445" lon="3.0742335642329612"><ele>227.0</ele><time>2026-04-07T15:40:02.999Z</time></trkpt><trkpt lat="43.61429311718169" lon="3.074288738398932"><ele>227.0</ele><time>2026-04-07T15:40:03.999Z</time></trkpt><trkpt lat="43.61418166037194" lon="3.074349733550542"><ele>227.0</ele><time>2026-04-07T15:40:04.998Z</time></trkpt><trkpt lat="43.61409352555601" lon="3.074409545044535"><ele>227.0</ele><time>2026-04-07T15:40:05.998Z</time></trkpt><trkpt lat="43.614029684873906" lon="3.074467732585084"><ele>227.0</ele><time>2026-04-07T15:40:07.998Z</time></trkpt><trkpt lat="43.6139502733089" lon="3.074571315036523"><ele>227.0</ele><time>2026-04-07T15:40:11.998Z</time></trkpt><trkpt lat="43.61386347539342" lon="3.0746891046199596"><ele>227.0</ele><time>2026-04-07T15:40:13.998Z</time></trkpt><trkpt lat="43.61378876250636" lon="3.074755653602442"><ele>227.0</ele><time>2026-04-07T15:40:14.998Z</time></trkpt><trkpt lat="43.61371799207968" lon="3.074838472208707"><ele>227.0</ele><time>2026-04-07T15:40:15.998Z</time></trkpt><trkpt lat="43.61364961419699" lon="3.074916973446554"><ele>227.0</ele><time>2026-04-07T15:40:16.998Z</time></trkpt><trkpt lat="43.6135705308629" lon="3.075006311749419"><ele>227.5</ele><time>2026-04-07T15:40:17.998Z</time></trkpt><trkpt lat="43.61347286691497" lon="3.0750985878894954"><ele>228.0</ele><time>2026-04-07T15:40:18.998Z</time></trkpt><trkpt lat="43.61336125361687" lon="3.0751734936968442"><ele>228.5</ele><time>2026-04-07T15:40:19.998Z</time></trkpt><trkpt lat="43.61323029257793" lon="3.075236882060562"><ele>229.0</ele><time>2026-04-07T15:40:20.998Z</time></trkpt><trkpt lat="43.61310597891083" lon="3.075298975929709"><ele>229.0</ele><time>2026-04-07T15:40:21.998Z</time></trkpt><trkpt lat="43.612992460371686" lon="3.075379217466362"><ele>229.0</ele><time>2026-04-07T15:40:22.998Z</time></trkpt><trkpt lat="43.612879448957806" lon="3.0754205123228733"><ele>229.0</ele><time>2026-04-07T15:40:23.998Z</time></trkpt><trkpt lat="43.61277879227979" lon="3.075480543824078"><ele>229.0</ele><time>2026-04-07T15:40:24.998Z</time></trkpt><trkpt lat="43.61267523310064" lon="3.0755248423533468"><ele>229.66666666666666</ele><time>2026-04-07T15:40:25.998Z</time></trkpt><trkpt lat="43.6126140442433" lon="3.0755662675247724"><ele>230.33333333333331</ele><time>2026-04-07T15:40:26.998Z</time></trkpt><trkpt lat="43.61250910740824" lon="3.07561273325315"><ele>231.0</ele><time>2026-04-07T15:40:28.998Z</time></trkpt><trkpt lat="43.61244712819019" lon="3.0756513247362975"><ele>231.66666666666669</ele><time>2026-04-07T15:40:29.998Z</time></trkpt><trkpt lat="43.61234239490827" lon="3.075703936150545"><ele>232.33333333333334</ele><time>2026-04-07T15:40:31.998Z</time></trkpt><trkpt lat="43.612272482016486" lon="3.0757704260719514"><ele>233.0</ele><time>2026-04-07T15:40:32.998Z</time></trkpt><trkpt lat="43.61216929147372" lon="3.075841653481874"><ele>233.0</ele><time>2026-04-07T15:40:33.998Z</time></trkpt><trkpt lat="43.612057733272344" lon="3.0759203267355812"><ele>233.0</ele><time>2026-04-07T15:40:34.998Z</time></trkpt><trkpt lat="43.61196059045794" lon="3.0759888338197667"><ele>233.0</ele><time>2026-04-07T15:40:35.998Z</time></trkpt><trkpt lat="43.611888599845415" lon="3.076056353924651"><ele>233.0</ele><time>2026-04-07T15:40:36.998Z</time></trkpt><trkpt lat="43.61182685536413" lon="3.07610061600833"><ele>233.0</ele><time>2026-04-07T15:40:37.998Z</time></trkpt><trkpt lat="43.61176462503318" lon="3.076157081629611"><ele>231.42857142857144</ele><time>2026-04-07T15:40:38.998Z</time></trkpt><trkpt lat="43.61169142026007" lon="3.076188709402158"><ele>229.85714285714283</ele><time>2026-04-07T15:40:39.998Z</time></trkpt><trkpt lat="43.6116301002011" lon="3.076249704377489"><ele>228.28571428571428</ele><time>2026-04-07T15:40:40.998Z</time></trkpt><trkpt lat="43.61156770128853" lon="3.0762830130587955"><ele>226.71428571428572</ele><time>2026-04-07T15:40:41.998Z</time></trkpt><trkpt lat="43.61149880321277" lon="3.0763402157133735"><ele>225.14285714285717</ele><time>2026-04-07T15:40:42.998Z</time></trkpt><trkpt lat="43.61143607814965" lon="3.0763841922484962"><ele>223.57142857142856</ele><time>2026-04-07T15:40:43.998Z</time></trkpt><trkpt lat="43.611367934378734" lon="3.0764238401024935"><ele>222.0</ele><time>2026-04-07T15:40:44.998Z</time></trkpt><trkpt lat="43.611303336094785" lon="3.0764811037598156"><ele>222.0</ele><time>2026-04-07T15:40:45.998Z</time></trkpt><trkpt lat="43.61123621690502" lon="3.0765275311542255"><ele>222.0</ele><time>2026-04-07T15:40:46.998Z</time></trkpt><trkpt lat="43.61116080378972" lon="3.076577165301037"><ele>222.0</ele><time>2026-04-07T15:40:47.998Z</time></trkpt><trkpt lat="43.611078851713614" lon="3.0766370026594916"><ele>222.0</ele><time>2026-04-07T15:40:49Z</time></trkpt><trkpt lat="43.61099085659246" lon="3.076710186846937"><ele>222.0</ele><time>2026-04-07T15:40:50Z</time></trkpt><trkpt lat="43.610910408858594" lon="3.07675644856502"><ele>222.0</ele><time>2026-04-07T15:40:51Z</time></trkpt><trkpt lat="43.61082341035439" lon="3.0768074413470936"><ele>221.6</ele><time>2026-04-07T15:40:52Z</time></trkpt><trkpt lat="43.61074642646875" lon="3.0768641327626987"><ele>221.2</ele><time>2026-04-07T15:40:53Z</time></trkpt><trkpt lat="43.6106639764951" lon="3.076909636615554"><ele>220.8</ele><time>2026-04-07T15:40:54Z</time></trkpt><trkpt lat="43.61056855108788" lon="3.076961961952001"><ele>220.4</ele><time>2026-04-07T15:40:55Z</time></trkpt><trkpt lat="43.610465916948655" lon="3.0770241752736993"><ele>220.0</ele><time>2026-04-07T15:40:56Z</time></trkpt><trkpt lat="43.61037149676788" lon="3.0770916019678087"><ele>218.4</ele><time>2026-04-07T15:40:57Z</time></trkpt><trkpt lat="43.61028149019364" lon="3.0771200446826326"><ele>216.8</ele><time>2026-04-07T15:40:58Z</time></trkpt><trkpt lat="43.61020431660113" lon="3.077163958316599"><ele>215.2</ele><time>2026-04-07T15:40:59Z</time></trkpt><trkpt lat="43.61014661326371" lon="3.077204936122359"><ele>213.6</ele><time>2026-04-07T15:41:00Z</time></trkpt><trkpt lat="43.610084269432036" lon="3.077249532987416"><ele>212.0</ele><time>2026-04-07T15:41:01Z</time></trkpt><trkpt lat="43.60992986300832" lon="3.0773397008655228"><ele>212.00000000000003</ele><time>2026-04-07T15:41:03Z</time></trkpt><trkpt lat="43.60986986846865" lon="3.0773861200840336"><ele>212.0</ele><time>2026-04-07T15:41:04Z</time></trkpt><trkpt lat="43.60980420316767" lon="3.077426793669584"><ele>212.0</ele><time>2026-04-07T15:41:05Z</time></trkpt><trkpt lat="43.609719662126025" lon="3.077479178996282"><ele>212.0</ele><time>2026-04-07T15:41:06Z</time></trkpt><trkpt lat="43.6096196945072" lon="3.0775355874690202"><ele>212.00000000000003</ele><time>2026-04-07T15:41:07Z</time></trkpt><trkpt lat="43.60952613819592" lon="3.077595875118964"><ele>212.0</ele><time>2026-04-07T15:41:08Z</time></trkpt><trkpt lat="43.60943691098645" lon="3.077656066404494"><ele>211.75</ele><time>2026-04-07T15:41:09Z</time></trkpt><trkpt lat="43.60932489379906" lon="3.077686063673431"><ele>211.5</ele><time>2026-04-07T15:41:10Z</time></trkpt><trkpt lat="43.60920681716597" lon="3.077691938188294"><ele>211.25</ele><time>2026-04-07T15:41:11Z</time></trkpt><trkpt lat="43.609086621004515" lon="3.077678504329819"><ele>211.0</ele><time>2026-04-07T15:41:12Z</time></trkpt><trkpt lat="43.6089656629758" lon="3.077661624336611"><ele>211.0</ele><time>2026-04-07T15:41:13Z</time></trkpt><trkpt lat="43.60885241893775" lon="3.077639377103104"><ele>211.0</ele><time>2026-04-07T15:41:14Z</time></trkpt><trkpt lat="43.608749624294106" lon="3.0776079969844212"><ele>211.0</ele><time>2026-04-07T15:41:15Z</time></trkpt><trkpt lat="43.608671468772364" lon="3.077555599278699"><ele>211.0</ele><time>2026-04-07T15:41:16Z</time></trkpt><trkpt lat="43.60859988056367" lon="3.077482164514353"><ele>211.0</ele><time>2026-04-07T15:41:17Z</time></trkpt><trkpt lat="43.608541483216484" lon="3.077398919706281"><ele>210.20000000000002</ele><time>2026-04-07T15:41:18Z</time></trkpt><trkpt lat="43.60846944042844" lon="3.0773062285850448"><ele>209.4</ele><time>2026-04-07T15:41:19Z</time></trkpt><trkpt lat="43.60838474651454" lon="3.077203189877819"><ele>208.6</ele><time>2026-04-07T15:41:20Z</time></trkpt><trkpt lat="43.608298209318534" lon="3.077137713068411"><ele>207.8</ele><time>2026-04-07T15:41:21Z</time></trkpt><trkpt lat="43.60823723900529" lon="3.0771013446136406"><ele>207.0</ele><time>2026-04-07T15:41:22Z</time></trkpt><trkpt lat="43.60814769042051" lon="3.0770847193247817"><ele>207.0</ele><time>2026-04-07T15:41:23Z</time></trkpt><trkpt lat="43.60803812543921" lon="3.0770860245767264"><ele>207.0</ele><time>2026-04-07T15:41:24Z</time></trkpt><trkpt lat="43.60792913942876" lon="3.0770976207334595"><ele>207.0</ele><time>2026-04-07T15:41:25Z</time></trkpt><trkpt lat="43.607825741279264" lon="3.0771012900666426"><ele>207.0</ele><time>2026-04-07T15:41:25.999Z</time></trkpt><trkpt lat="43.60771362260801" lon="3.0771078519922512"><ele>207.0</ele><time>2026-04-07T15:41:26.999Z</time></trkpt><trkpt lat="43.60760608009726" lon="3.077112177474316"><ele>207.8</ele><time>2026-04-07T15:41:27.999Z</time></trkpt><trkpt lat="43.60750005469116" lon="3.0771176269651046"><ele>208.6</ele><time>2026-04-07T15:41:28.999Z</time></trkpt><trkpt lat="43.607390791840764" lon="3.0771238864089887"><ele>209.4</ele><time>2026-04-07T15:41:29.999Z</time></trkpt><trkpt lat="43.60728006172231" lon="3.077122255683805"><ele>210.20000000000002</ele><time>2026-04-07T15:41:30.999Z</time></trkpt><trkpt lat="43.607168741777244" lon="3.077122964767752"><ele>211.0</ele><time>2026-04-07T15:41:31.999Z</time></trkpt><trkpt lat="43.60705268113346" lon="3.077124766613977"><ele>211.20000000000002</ele><time>2026-04-07T15:41:32.999Z</time></trkpt><trkpt lat="43.60693888383173" lon="3.077131353451911"><ele>211.4</ele><time>2026-04-07T15:41:33.999Z</time></trkpt><trkpt lat="43.60682445050087" lon="3.0771241101072437"><ele>211.6</ele><time>2026-04-07T15:41:34.999Z</time></trkpt><trkpt lat="43.606716880276714" lon="3.077131891794255"><ele>211.8</ele><time>2026-04-07T15:41:35.999Z</time></trkpt><trkpt lat="43.60660859557665" lon="3.0771323967387434"><ele>212.0</ele><time>2026-04-07T15:41:36.999Z</time></trkpt><trkpt lat="43.60649816882407" lon="3.0771326031045145"><ele>212.0</ele><time>2026-04-07T15:41:37.999Z</time></trkpt><trkpt lat="43.60638602843986" lon="3.077146511513648"><ele>212.0</ele><time>2026-04-07T15:41:38.999Z</time></trkpt><trkpt lat="43.606285368679615" lon="3.0771646786930917"><ele>212.0</ele><time>2026-04-07T15:41:39.999Z</time></trkpt><trkpt lat="43.60619597316226" lon="3.0771921336594343"><ele>212.0</ele><time>2026-04-07T15:41:40.999Z</time></trkpt><trkpt lat="43.60609716745528" lon="3.0772240456285327"><ele>212.0</ele><time>2026-04-07T15:41:41.999Z</time></trkpt><trkpt lat="43.606000644830374" lon="3.0772804268824254"><ele>211.8</ele><time>2026-04-07T15:41:42.999Z</time></trkpt><trkpt lat="43.60591953374411" lon="3.0773467393526666"><ele>211.6</ele><time>2026-04-07T15:41:43.999Z</time></trkpt><trkpt lat="43.60583207518707" lon="3.0774198148185583"><ele>211.4</ele><time>2026-04-07T15:41:44.999Z</time></trkpt><trkpt lat="43.605745531353996" lon="3.0774711974217976"><ele>211.20000000000002</ele><time>2026-04-07T15:41:45.999Z</time></trkpt><trkpt lat="43.60565786313944" lon="3.0775340385493464"><ele>211.0</ele><time>2026-04-07T15:41:46.999Z</time></trkpt><trkpt lat="43.60559329289816" lon="3.0775998434038465"><ele>210.99999999999997</ele><time>2026-04-07T15:41:47.999Z</time></trkpt><trkpt lat="43.60552307837116" lon="3.0776456595892814"><ele>211.0</ele><time>2026-04-07T15:41:48.999Z</time></trkpt><trkpt lat="43.60544691316216" lon="3.0776927852680918"><ele>211.0</ele><time>2026-04-07T15:41:49.999Z</time></trkpt><trkpt lat="43.6053748693193" lon="3.077746603268998"><ele>211.0</ele><time>2026-04-07T15:41:50.999Z</time></trkpt><trkpt lat="43.60529975892554" lon="3.0777794279194186"><ele>210.99999999999997</ele><time>2026-04-07T15:41:51.999Z</time></trkpt><trkpt lat="43.6052350079451" lon="3.0778169258864128"><ele>211.0</ele><time>2026-04-07T15:41:52.999Z</time></trkpt><trkpt lat="43.605163011450166" lon="3.0778554119761914"><ele>211.66666666666666</ele><time>2026-04-07T15:41:53.999Z</time></trkpt><trkpt lat="43.605088160404435" lon="3.077897782749094"><ele>212.33333333333331</ele><time>2026-04-07T15:41:54.999Z</time></trkpt><trkpt lat="43.60502193464327" lon="3.07793103691704"><ele>213.0</ele><time>2026-04-07T15:41:55.999Z</time></trkpt><trkpt lat="43.60492426782532" lon="3.0779651008709212"><ele>213.66666666666669</ele><time>2026-04-07T15:41:57.999Z</time></trkpt><trkpt lat="43.60482088444779" lon="3.077997380747483"><ele>214.33333333333334</ele><time>2026-04-07T15:41:59.999Z</time></trkpt><trkpt lat="43.6047578128901" lon="3.078003804001302"><ele>215.0</ele><time>2026-04-07T15:42:00.999Z</time></trkpt><trkpt lat="43.60463613487249" lon="3.078060785280913"><ele>215.00000000000003</ele><time>2026-04-07T15:42:02.999Z</time></trkpt><trkpt lat="43.604564594580474" lon="3.078094287160629"><ele>215.0</ele><time>2026-04-07T15:42:03.999Z</time></trkpt><trkpt lat="43.60449622668425" lon="3.078126706771015"><ele>215.0</ele><time>2026-04-07T15:42:04.999Z</time></trkpt><trkpt lat="43.6044347082942" lon="3.078155760630901"><ele>215.0</ele><time>2026-04-07T15:42:05.999Z</time></trkpt><trkpt lat="43.604334750673125" lon="3.0782088340456704"><ele>215.00000000000003</ele><time>2026-04-07T15:42:07.999Z</time></trkpt><trkpt lat="43.60425341197676" lon="3.0782505158267828"><ele>215.0</ele><time>2026-04-07T15:42:09.999Z</time></trkpt><trkpt lat="43.604184419529965" lon="3.078272954129226"><ele>214.5</ele><time>2026-04-07T15:42:11.998Z</time></trkpt><trkpt lat="43.60420813324719" lon="3.0783787595279817"><ele>214.0</ele><time>2026-04-07T15:42:12.998Z</time></trkpt><trkpt lat="43.60421881563839" lon="3.0785116408491784"><ele>213.5</ele><time>2026-04-07T15:42:13.998Z</time></trkpt><trkpt lat="43.60423917179576" lon="3.0786972618437196"><ele>213.0</ele><time>2026-04-07T15:42:14.998Z</time></trkpt><trkpt lat="43.60425620894848" lon="3.0788954265273074"><ele>213.0</ele><time>2026-04-07T15:42:15.998Z</time></trkpt><trkpt lat="43.604260740945556" lon="3.0791004558618638"><ele>213.0</ele><time>2026-04-07T15:42:16.998Z</time></trkpt><trkpt lat="43.60426415096763" lon="3.0792902906999124"><ele>213.0</ele><time>2026-04-07T15:42:17.998Z</time></trkpt><trkpt lat="43.604266672621286" lon="3.079473145879727"><ele>213.0</ele><time>2026-04-07T15:42:18.998Z</time></trkpt><trkpt lat="43.604272649690614" lon="3.079646870476172"><ele>211.0</ele><time>2026-04-07T15:42:19.998Z</time></trkpt><trkpt lat="43.60427800689123" lon="3.079805537828996"><ele>209.0</ele><time>2026-04-07T15:42:20.998Z</time></trkpt><trkpt lat="43.60425324713875" lon="3.0799411802678986"><ele>207.0</ele><time>2026-04-07T15:42:21.998Z</time></trkpt><trkpt lat="43.60421131700867" lon="3.080072494477395"><ele>205.0</ele><time>2026-04-07T15:42:22.998Z</time></trkpt><trkpt lat="43.604154233476336" lon="3.080210847567604"><ele>203.0</ele><time>2026-04-07T15:42:23.998Z</time></trkpt><trkpt lat="43.60409558792622" lon="3.0803778612861"><ele>202.0</ele><time>2026-04-07T15:42:24.998Z</time></trkpt><trkpt lat="43.60404872810558" lon="3.080528310448266"><ele>201.0</ele><time>2026-04-07T15:42:25.998Z</time></trkpt><trkpt lat="43.604054697368184" lon="3.080698684895471"><ele>200.0</ele><time>2026-04-07T15:42:26.998Z</time></trkpt><trkpt lat="43.604087489220774" lon="3.0808765126559536"><ele>199.0</ele><time>2026-04-07T15:42:27.998Z</time></trkpt><trkpt lat="43.604136278993984" lon="3.0810390534274266"><ele>198.2</ele><time>2026-04-07T15:42:28.998Z</time></trkpt><trkpt lat="43.6041938830844" lon="3.081188137899216"><ele>197.39999999999998</ele><time>2026-04-07T15:42:29.998Z</time></trkpt><trkpt lat="43.60422314453413" lon="3.0813121351493127"><ele>196.6</ele><time>2026-04-07T15:42:30.998Z</time></trkpt><trkpt lat="43.60425029295293" lon="3.0814298067337655"><ele>195.8</ele><time>2026-04-07T15:42:31.998Z</time></trkpt><trkpt lat="43.604270767174896" lon="3.081551537652629"><ele>195.0</ele><time>2026-04-07T15:42:32.998Z</time></trkpt><trkpt lat="43.60426958783182" lon="3.081679034312257"><ele>195.0</ele><time>2026-04-07T15:42:33.998Z</time></trkpt><trkpt lat="43.60424096759221" lon="3.0818034838039234"><ele>195.0</ele><time>2026-04-07T15:42:34.998Z</time></trkpt><trkpt lat="43.60419541898951" lon="3.081916553017899"><ele>195.0</ele><time>2026-04-07T15:42:35.998Z</time></trkpt><trkpt lat="43.604139139774496" lon="3.0819989672245343"><ele>195.0</ele><time>2026-04-07T15:42:36.998Z</time></trkpt><trkpt lat="43.60408241455131" lon="3.0820552944399466"><ele>195.0</ele><time>2026-04-07T15:42:37.998Z</time></trkpt><trkpt lat="43.60402017559379" lon="3.082078727392252"><ele>195.0</ele><time>2026-04-07T15:42:38.998Z</time></trkpt><trkpt lat="43.603925840779056" lon="3.0821411394839022"><ele>195.0</ele><time>2026-04-07T15:42:40.998Z</time></trkpt><trkpt lat="43.603824009987186" lon="3.082050550420976"><ele>195.0</ele><time>2026-04-07T15:42:41.998Z</time></trkpt><trkpt lat="43.60375448519683" lon="3.082051042790191"><ele>195.0</ele><time>2026-04-07T15:42:42.998Z</time></trkpt><trkpt lat="43.60367391331672" lon="3.0820946534189453"><ele>195.0</ele><time>2026-04-07T15:42:43.998Z</time></trkpt><trkpt lat="43.60360638520238" lon="3.082171112153471"><ele>195.0</ele><time>2026-04-07T15:42:44.998Z</time></trkpt><trkpt lat="43.60353703703206" lon="3.0822819308316007"><ele>194.6</ele><time>2026-04-07T15:42:45.998Z</time></trkpt><trkpt lat="43.60346672875543" lon="3.082388914324102"><ele>194.2</ele><time>2026-04-07T15:42:46.998Z</time></trkpt><trkpt lat="43.603402134339866" lon="3.0824676058905176"><ele>193.8</ele><time>2026-04-07T15:42:47.998Z</time></trkpt><trkpt lat="43.603338537016704" lon="3.0825557656102966"><ele>193.4</ele><time>2026-04-07T15:42:48.998Z</time></trkpt><trkpt lat="43.603274857507174" lon="3.082643017638008"><ele>193.0</ele><time>2026-04-07T15:42:49.998Z</time></trkpt><trkpt lat="43.60320892149009" lon="3.0827262194812746"><ele>193.0</ele><time>2026-04-07T15:42:50.998Z</time></trkpt><trkpt lat="43.603138062219166" lon="3.082829074760095"><ele>193.0</ele><time>2026-04-07T15:42:51.998Z</time></trkpt><trkpt lat="43.60306425871613" lon="3.08292368220555"><ele>193.0</ele><time>2026-04-07T15:42:52.998Z</time></trkpt><trkpt lat="43.60298967702731" lon="3.0830163237845616"><ele>193.0</ele><time>2026-04-07T15:42:53.998Z</time></trkpt><trkpt lat="43.602909627137166" lon="3.0831004390610706"><ele>193.0</ele><time>2026-04-07T15:42:55Z</time></trkpt><trkpt lat="43.60282370480951" lon="3.083187442813859"><ele>192.60000000000002</ele><time>2026-04-07T15:42:56Z</time></trkpt><trkpt lat="43.60273731863127" lon="3.083257436824155"><ele>192.20000000000002</ele><time>2026-04-07T15:42:57Z</time></trkpt><trkpt lat="43.60264421767395" lon="3.083334333874541"><ele>191.8</ele><time>2026-04-07T15:42:58Z</time></trkpt><trkpt lat="43.602555444162526" lon="3.083392772371469"><ele>191.4</ele><time>2026-04-07T15:42:59Z</time></trkpt><trkpt lat="43.60247466089838" lon="3.083453567224676"><ele>191.0</ele><time>2026-04-07T15:43:00Z</time></trkpt><trkpt lat="43.60238357276759" lon="3.0835177441830965"><ele>191.0</ele><time>2026-04-07T15:43:01Z</time></trkpt><trkpt lat="43.60228452431296" lon="3.083573161916315"><ele>191.0</ele><time>2026-04-07T15:43:02Z</time></trkpt><trkpt lat="43.6021810966599" lon="3.0836223078301157"><ele>191.0</ele><time>2026-04-07T15:43:03Z</time></trkpt><trkpt lat="43.602083550657696" lon="3.0836679711343127"><ele>191.0</ele><time>2026-04-07T15:43:04Z</time></trkpt><trkpt lat="43.60198274789267" lon="3.0837073298611255"><ele>191.0</ele><time>2026-04-07T15:43:05Z</time></trkpt><trkpt lat="43.60188166762223" lon="3.0837343969217206"><ele>190.8</ele><time>2026-04-07T15:43:06Z</time></trkpt><trkpt lat="43.60177552219855" lon="3.0837597463847772"><ele>190.60000000000002</ele><time>2026-04-07T15:43:07Z</time></trkpt><trkpt lat="43.60166704095738" lon="3.0837786142800985"><ele>190.4</ele><time>2026-04-07T15:43:08Z</time></trkpt><trkpt lat="43.60155835318641" lon="3.083793598786805"><ele>190.2</ele><time>2026-04-07T15:43:09Z</time></trkpt><trkpt lat="43.6014525870887" lon="3.0837985223248987"><ele>190.0</ele><time>2026-04-07T15:43:10Z</time></trkpt><trkpt lat="43.601351279357665" lon="3.0837963440633622"><ele>190.0</ele><time>2026-04-07T15:43:11Z</time></trkpt><trkpt lat="43.60125857552273" lon="3.083795206534784"><ele>190.0</ele><time>2026-04-07T15:43:12Z</time></trkpt><trkpt lat="43.60117154386108" lon="3.083790956497416"><ele>190.0</ele><time>2026-04-07T15:43:13Z</time></trkpt><trkpt lat="43.60108975797102" lon="3.083784552355565"><ele>190.0</ele><time>2026-04-07T15:43:14Z</time></trkpt><trkpt lat="43.601016796209585" lon="3.0837723257501675"><ele>190.0</ele><time>2026-04-07T15:43:15Z</time></trkpt><trkpt lat="43.60094932805834" lon="3.083754057711699"><ele>190.0</ele><time>2026-04-07T15:43:16Z</time></trkpt><trkpt lat="43.60088182484406" lon="3.0837185300635634"><ele>190.16666666666669</ele><time>2026-04-07T15:43:17Z</time></trkpt><trkpt lat="43.600806706475936" lon="3.0837226192649556"><ele>190.33333333333334</ele><time>2026-04-07T15:43:18Z</time></trkpt><trkpt lat="43.60072412936001" lon="3.083748127360453"><ele>190.5</ele><time>2026-04-07T15:43:19Z</time></trkpt><trkpt lat="43.60063134925249" lon="3.083759317374888"><ele>190.66666666666666</ele><time>2026-04-07T15:43:20Z</time></trkpt><trkpt lat="43.60054047057507" lon="3.08375822618906"><ele>190.83333333333331</ele><time>2026-04-07T15:43:21Z</time></trkpt><trkpt lat="43.60045302874547" lon="3.083760762665104"><ele>191.0</ele><time>2026-04-07T15:43:22Z</time></trkpt><trkpt lat="43.600354404445206" lon="3.0837642235844474"><ele>190.60000000000002</ele><time>2026-04-07T15:43:23Z</time></trkpt><trkpt lat="43.60025971573061" lon="3.083765022262649"><ele>190.2</ele><time>2026-04-07T15:43:24Z</time></trkpt><trkpt lat="43.60015484719527" lon="3.0837793396714988"><ele>189.8</ele><time>2026-04-07T15:43:25Z</time></trkpt><trkpt lat="43.6000633572091" lon="3.0837956334593226"><ele>189.39999999999998</ele><time>2026-04-07T15:43:26Z</time></trkpt><trkpt lat="43.59996183059883" lon="3.0837994417996244"><ele>189.0</ele><time>2026-04-07T15:43:27Z</time></trkpt><trkpt lat="43.599860268189346" lon="3.0838169086389544"><ele>189.0</ele><time>2026-04-07T15:43:28Z</time></trkpt><trkpt lat="43.59975024245776" lon="3.083830136523264"><ele>189.0</ele><time>2026-04-07T15:43:29Z</time></trkpt><trkpt lat="43.599657977041325" lon="3.0838360045144046"><ele>189.0</ele><time>2026-04-07T15:43:30Z</time></trkpt><trkpt lat="43.59955668128976" lon="3.0838540642820615"><ele>189.0</ele><time>2026-04-07T15:43:30.999Z</time></trkpt><trkpt lat="43.59946012178291" lon="3.083865933623626"><ele>189.0</ele><time>2026-04-07T15:43:31.999Z</time></trkpt><trkpt lat="43.599353560748895" lon="3.0838735750320727"><ele>188.79999999999998</ele><time>2026-04-07T15:43:32.999Z</time></trkpt><trkpt lat="43.5992637026325" lon="3.083898077853379"><ele>188.6</ele><time>2026-04-07T15:43:33.999Z</time></trkpt><trkpt lat="43.5991523149745" lon="3.08391292880132"><ele>188.4</ele><time>2026-04-07T15:43:34.999Z</time></trkpt><trkpt lat="43.59904532001185" lon="3.0839250524774515"><ele>188.2</ele><time>2026-04-07T15:43:35.999Z</time></trkpt><trkpt lat="43.598936574894886" lon="3.083938292000041"><ele>188.0</ele><time>2026-04-07T15:43:36.999Z</time></trkpt><trkpt lat="43.59882769666179" lon="3.0839481291411146"><ele>188.0</ele><time>2026-04-07T15:43:37.999Z</time></trkpt><trkpt lat="43.59871205852053" lon="3.0839617122020333"><ele>188.0</ele><time>2026-04-07T15:43:38.999Z</time></trkpt><trkpt lat="43.59860985626051" lon="3.0839793863672393"><ele>188.0</ele><time>2026-04-07T15:43:39.999Z</time></trkpt><trkpt lat="43.59852427142065" lon="3.083985477458294"><ele>188.0</ele><time>2026-04-07T15:43:40.999Z</time></trkpt><trkpt lat="43.59842718714985" lon="3.084009227251872"><ele>188.0</ele><time>2026-04-07T15:43:41.999Z</time></trkpt><trkpt lat="43.59833033896159" lon="3.0840124995353886"><ele>188.2</ele><time>2026-04-07T15:43:42.999Z</time></trkpt><trkpt lat="43.598238481705714" lon="3.084033318937064"><ele>188.4</ele><time>2026-04-07T15:43:43.999Z</time></trkpt><trkpt lat="43.59815299954439" lon="3.0840083608480953"><ele>188.6</ele><time>2026-04-07T15:43:44.999Z</time></trkpt><trkpt lat="43.59805550144539" lon="3.0840234587156496"><ele>188.79999999999998</ele><time>2026-04-07T15:43:45.999Z</time></trkpt><trkpt lat="43.59796576589494" lon="3.084054956175285"><ele>189.0</ele><time>2026-04-07T15:43:46.999Z</time></trkpt><trkpt lat="43.59788393153529" lon="3.0840662161043375"><ele>188.2</ele><time>2026-04-07T15:43:47.999Z</time></trkpt><trkpt lat="43.597785711200444" lon="3.0840696913383914"><ele>187.39999999999998</ele><time>2026-04-07T15:43:48.999Z</time></trkpt><trkpt lat="43.597690904981185" lon="3.084079843935382"><ele>186.6</ele><time>2026-04-07T15:43:49.999Z</time></trkpt><trkpt lat="43.59760541075524" lon="3.0841004633916147"><ele>185.8</ele><time>2026-04-07T15:43:50.999Z</time></trkpt><trkpt lat="43.597511617502164" lon="3.084114154646241"><ele>185.0</ele><time>2026-04-07T15:43:51.999Z</time></trkpt><trkpt lat="43.59740723247741" lon="3.084139077225025"><ele>185.0</ele><time>2026-04-07T15:43:52.999Z</time></trkpt><trkpt lat="43.59729888090037" lon="3.084170757431531"><ele>185.0</ele><time>2026-04-07T15:43:53.999Z</time></trkpt><trkpt lat="43.597190363637175" lon="3.0842041682647614"><ele>185.0</ele><time>2026-04-07T15:43:54.999Z</time></trkpt><trkpt lat="43.597065381876156" lon="3.0842262301036345"><ele>185.0</ele><time>2026-04-07T15:43:55.999Z</time></trkpt><trkpt lat="43.59693250189547" lon="3.0842708121683193"><ele>185.0</ele><time>2026-04-07T15:43:56.999Z</time></trkpt><trkpt lat="43.59677871558606" lon="3.084313668145248"><ele>185.0</ele><time>2026-04-07T15:43:57.999Z</time></trkpt><trkpt lat="43.596637794154404" lon="3.084366654374076"><ele>185.0</ele><time>2026-04-07T15:43:58.999Z</time></trkpt><trkpt lat="43.59650979932939" lon="3.084408360577127"><ele>185.0</ele><time>2026-04-07T15:43:59.999Z</time></trkpt><trkpt lat="43.59637586935746" lon="3.0844496564503223"><ele>185.0</ele><time>2026-04-07T15:44:00.999Z</time></trkpt><trkpt lat="43.596267540959914" lon="3.0844930455654196"><ele>185.0</ele><time>2026-04-07T15:44:01.999Z</time></trkpt><trkpt lat="43.5961771573525" lon="3.0845261916066895"><ele>185.0</ele><time>2026-04-07T15:44:02.999Z</time></trkpt><trkpt lat="43.596086959320736" lon="3.084548299379179"><ele>185.0</ele><time>2026-04-07T15:44:03.999Z</time></trkpt><trkpt lat="43.59599775929171" lon="3.084575713828309"><ele>185.0</ele><time>2026-04-07T15:44:04.999Z</time></trkpt><trkpt lat="43.59593182772361" lon="3.084598115132602"><ele>184.8</ele><time>2026-04-07T15:44:05.999Z</time></trkpt><trkpt lat="43.59581474745063" lon="3.0846169312697937"><ele>184.6</ele><time>2026-04-07T15:44:07.999Z</time></trkpt><trkpt lat="43.595744447153066" lon="3.084602167117472"><ele>184.39999999999998</ele><time>2026-04-07T15:44:09.999Z</time></trkpt><trkpt lat="43.59576695053452" lon="3.084440008593681"><ele>184.2</ele><time>2026-04-07T15:44:10.999Z</time></trkpt><trkpt lat="43.59576515215606" lon="3.0842647172580424"><ele>184.0</ele><time>2026-04-07T15:44:12.999Z</time></trkpt><trkpt lat="43.595753804547705" lon="3.0841766125954626"><ele>184.0</ele><time>2026-04-07T15:44:13.999Z</time></trkpt><trkpt lat="43.595749352988804" lon="3.0840834614584876"><ele>184.0</ele><time>2026-04-07T15:44:14.999Z</time></trkpt><trkpt lat="43.5957470056214" lon="3.083917478341004"><ele>184.0</ele><time>2026-04-07T15:44:16.998Z</time></trkpt><trkpt lat="43.595750930881096" lon="3.08376065639201"><ele>184.0</ele><time>2026-04-07T15:44:18.998Z</time></trkpt><trkpt lat="43.59574800592425" lon="3.0836719106716983"><ele>184.0</ele><time>2026-04-07T15:44:19.998Z</time></trkpt><trkpt lat="43.59576030737443" lon="3.0835696256476743"><ele>184.0</ele><time>2026-04-07T15:44:20.998Z</time></trkpt><trkpt lat="43.59575983175915" lon="3.0834772417216727"><ele>184.0</ele><time>2026-04-07T15:44:21.998Z</time></trkpt><trkpt lat="43.59575903949407" lon="3.083323351063613"><ele>184.0</ele><time>2026-04-07T15:44:23.998Z</time></trkpt><trkpt lat="43.59575766499077" lon="3.0831684288317627"><ele>184.0</ele><time>2026-04-07T15:44:25.998Z</time></trkpt><trkpt lat="43.59575650250971" lon="3.083030360188068"><ele>184.0</ele><time>2026-04-07T15:44:27.998Z</time></trkpt><trkpt lat="43.595755526003124" lon="3.0829143797605756"><ele>184.0</ele><time>2026-04-07T15:44:29.998Z</time></trkpt><trkpt lat="43.59575377472388" lon="3.082746991351485"><ele>184.83333333333334</ele><time>2026-04-07T15:44:31.998Z</time></trkpt><trkpt lat="43.59575081214642" lon="3.0826050899306927"><ele>185.66666666666669</ele><time>2026-04-07T15:44:33.998Z</time></trkpt><trkpt lat="43.595747581750814" lon="3.0824935000944387"><ele>186.5</ele><time>2026-04-07T15:44:35.998Z</time></trkpt><trkpt lat="43.59572807233231" lon="3.0823680094044685"><ele>187.33333333333334</ele><time>2026-04-07T15:44:37.998Z</time></trkpt><trkpt lat="43.595672015889456" lon="3.082291239587196"><ele>188.16666666666666</ele><time>2026-04-07T15:44:39.998Z</time></trkpt><trkpt lat="43.59561294732762" lon="3.082249144039164"><ele>189.0</ele><time>2026-04-07T15:44:40.998Z</time></trkpt><trkpt lat="43.595530906938514" lon="3.0822319605824027"><ele>189.16666666666666</ele><time>2026-04-07T15:44:42.998Z</time></trkpt><trkpt lat="43.59547911905805" lon="3.082180021587319"><ele>189.33333333333334</ele><time>2026-04-07T15:44:46.998Z</time></trkpt><trkpt lat="43.595436816859184" lon="3.082107080224158"><ele>189.5</ele><time>2026-04-07T15:44:57.998Z</time></trkpt><trkpt lat="43.5955117059201" lon="3.0822224566808263"><ele>189.66666666666669</ele><time>2026-04-07T15:46:32.998Z</time></trkpt><trkpt lat="43.59550203627937" lon="3.082323368547269"><ele>189.83333333333334</ele><time>2026-04-07T15:47:07Z</time></trkpt><trkpt lat="43.59543397809659" lon="3.0822809139222884"><ele>190.0</ele><time>2026-04-07T15:47:46.999Z</time></trkpt><trkpt lat="43.59558645395615" lon="3.08222156859433"><ele>190.0</ele><time>2026-04-07T15:48:53.998Z</time></trkpt><trkpt lat="43.59545501282404" lon="3.082264738817075"><ele>190.0</ele><time>2026-04-07T15:48:58.998Z</time></trkpt></trkseg><trkseg><trkpt lat="43.59541241608398" lon="3.0821656188988356"><ele>190.0</ele><time>2026-04-07T16:10:43.999Z</time></trkpt><trkpt lat="43.59546881211065" lon="3.0822213128316176"><ele>190.0</ele><time>2026-04-07T16:10:57.999Z</time></trkpt><trkpt lat="43.595537500515185" lon="3.0822528892137786"><ele>190.0</ele><time>2026-04-07T16:10:58.999Z</time></trkpt><trkpt lat="43.595630261262194" lon="3.082289719673435"><ele>190.0</ele><time>2026-04-07T16:11:00.999Z</time></trkpt><trkpt lat="43.59567119726363" lon="3.082356760654558"><ele>190.0</ele><time>2026-04-07T16:11:01.999Z</time></trkpt><trkpt lat="43.595731900954995" lon="3.082492567662348"><ele>190.0</ele><time>2026-04-07T16:11:03.999Z</time></trkpt><trkpt lat="43.59572837730525" lon="3.0826697715606186"><ele>189.83333333333334</ele><time>2026-04-07T16:11:05.999Z</time></trkpt><trkpt lat="43.595729768892575" lon="3.0827919118146614"><ele>189.66666666666669</ele><time>2026-04-07T16:11:06.999Z</time></trkpt><trkpt lat="43.595734908997244" lon="3.0829113310778617"><ele>189.5</ele><time>2026-04-07T16:11:07.999Z</time></trkpt><trkpt lat="43.5957232723041" lon="3.0830390396947966"><ele>189.33333333333334</ele><time>2026-04-07T16:11:08.999Z</time></trkpt><trkpt lat="43.59574043657228" lon="3.0831584074814855"><ele>189.16666666666666</ele><time>2026-04-07T16:11:09.999Z</time></trkpt><trkpt lat="43.59573325160294" lon="3.083284782795168"><ele>189.0</ele><time>2026-04-07T16:11:10.999Z</time></trkpt><trkpt lat="43.59573496788465" lon="3.0834015409558466"><ele>188.0</ele><time>2026-04-07T16:11:11.999Z</time></trkpt><trkpt lat="43.59573584893572" lon="3.0835209955753164"><ele>187.0</ele><time>2026-04-07T16:11:12.999Z</time></trkpt><trkpt lat="43.59574128906248" lon="3.0836581842808624"><ele>186.0</ele><time>2026-04-07T16:11:13.999Z</time></trkpt><trkpt lat="43.59572814667882" lon="3.0837912941230687"><ele>185.0</ele><time>2026-04-07T16:11:14.999Z</time></trkpt><trkpt lat="43.59574202843614" lon="3.083912235276958"><ele>184.0</ele><time>2026-04-07T16:11:15.999Z</time></trkpt><trkpt lat="43.595745574497045" lon="3.084050854259278"><ele>184.0</ele><time>2026-04-07T16:11:16.999Z</time></trkpt><trkpt lat="43.5957450569568" lon="3.0842082578424606"><ele>184.0</ele><time>2026-04-07T16:11:17.999Z</time></trkpt><trkpt lat="43.59574185467093" lon="3.084341317692388"><ele>184.0</ele><time>2026-04-07T16:11:18.999Z</time></trkpt><trkpt lat="43.59574265207815" lon="3.0844497991928286"><ele>184.0</ele><time>2026-04-07T16:11:19.999Z</time></trkpt><trkpt lat="43.595721637394" lon="3.084572366142124"><ele>184.0</ele><time>2026-04-07T16:11:21.999Z</time></trkpt><trkpt lat="43.59552492302744" lon="3.084546164756186"><ele>184.0</ele><time>2026-04-07T16:11:24.999Z</time></trkpt><trkpt lat="43.59542225008813" lon="3.0845029540228652"><ele>184.0</ele><time>2026-04-07T16:11:25.999Z</time></trkpt><trkpt lat="43.59532033791114" lon="3.084458770733848"><ele>184.0</ele><time>2026-04-07T16:11:26.999Z</time></trkpt><trkpt lat="43.5952268653917" lon="3.084418044953264"><ele>184.0</ele><time>2026-04-07T16:11:27.999Z</time></trkpt><trkpt lat="43.5950910479995" lon="3.0843549015581364"><ele>183.6</ele><time>2026-04-07T16:11:28.999Z</time></trkpt><trkpt lat="43.59498401601725" lon="3.0843230965026205"><ele>183.2</ele><time>2026-04-07T16:11:29.999Z</time></trkpt><trkpt lat="43.59488084000685" lon="3.0843436008453406"><ele>182.79999999999998</ele><time>2026-04-07T16:11:30.999Z</time></trkpt><trkpt lat="43.594792989410706" lon="3.08438365335703"><ele>182.39999999999998</ele><time>2026-04-07T16:11:31.999Z</time></trkpt><trkpt lat="43.594702983853466" lon="3.084429724781914"><ele>182.0</ele><time>2026-04-07T16:11:32.999Z</time></trkpt><trkpt lat="43.59463544098781" lon="3.084495866814988"><ele>182.0</ele><time>2026-04-07T16:11:33.999Z</time></trkpt><trkpt lat="43.59457411089556" lon="3.0845719826517994"><ele>182.0</ele><time>2026-04-07T16:11:34.999Z</time></trkpt><trkpt lat="43.59447412309721" lon="3.084617297125044"><ele>182.0</ele><time>2026-04-07T16:11:35.999Z</time></trkpt><trkpt lat="43.59441893498867" lon="3.0847596449852244"><ele>182.0</ele><time>2026-04-07T16:11:36.999Z</time></trkpt><trkpt lat="43.594340727724195" lon="3.08483407899858"><ele>182.0</ele><time>2026-04-07T16:11:37.999Z</time></trkpt><trkpt lat="43.59427794404746" lon="3.084899368357951"><ele>182.0</ele><time>2026-04-07T16:11:38.999Z</time></trkpt><trkpt lat="43.59420450637373" lon="3.0849622810435458"><ele>182.0</ele><time>2026-04-07T16:11:39.999Z</time></trkpt><trkpt lat="43.59414326417499" lon="3.0849953133756562"><ele>182.0</ele><time>2026-04-07T16:11:40.999Z</time></trkpt><trkpt lat="43.5940638360795" lon="3.0850319446851926"><ele>182.0</ele><time>2026-04-07T16:11:41.999Z</time></trkpt><trkpt lat="43.593975619496014" lon="3.085053489248101"><ele>182.0</ele><time>2026-04-07T16:11:42.999Z</time></trkpt><trkpt lat="43.593884569871506" lon="3.0850761541043576"><ele>182.0</ele><time>2026-04-07T16:11:43.999Z</time></trkpt><trkpt lat="43.59378189458195" lon="3.085038097850671"><ele>182.0</ele><time>2026-04-07T16:11:44.999Z</time></trkpt><trkpt lat="43.59368894869811" lon="3.085039411288788"><ele>182.0</ele><time>2026-04-07T16:11:45.999Z</time></trkpt><trkpt lat="43.59359860106964" lon="3.0850341927409586"><ele>182.0</ele><time>2026-04-07T16:11:46.999Z</time></trkpt><trkpt lat="43.593519510928154" lon="3.0850317830306606"><ele>182.0</ele><time>2026-04-07T16:11:47.999Z</time></trkpt><trkpt lat="43.59344743384188" lon="3.0850286828059637"><ele>182.0</ele><time>2026-04-07T16:11:48.999Z</time></trkpt><trkpt lat="43.593376796240996" lon="3.0850162347542565"><ele>182.0</ele><time>2026-04-07T16:11:49.999Z</time></trkpt><trkpt lat="43.59330090612606" lon="3.0850035789909636"><ele>182.2</ele><time>2026-04-07T16:11:50.999Z</time></trkpt><trkpt lat="43.5932079977352" lon="3.08498099438119"><ele>182.39999999999998</ele><time>2026-04-07T16:11:51.999Z</time></trkpt><trkpt lat="43.59311748706609" lon="3.0849628799327866"><ele>182.60000000000002</ele><time>2026-04-07T16:11:52.999Z</time></trkpt><trkpt lat="43.59301875441875" lon="3.0849565569987885"><ele>182.8</ele><time>2026-04-07T16:11:53.999Z</time></trkpt><trkpt lat="43.59292100994493" lon="3.084947761823466"><ele>183.0</ele><time>2026-04-07T16:11:54.999Z</time></trkpt><trkpt lat="43.59282199449428" lon="3.084929108873539"><ele>181.60000000000002</ele><time>2026-04-07T16:11:55.999Z</time></trkpt><trkpt lat="43.59272421775563" lon="3.084920897214745"><ele>180.20000000000002</ele><time>2026-04-07T16:11:56.999Z</time></trkpt><trkpt lat="43.592618197086594" lon="3.0849118095466603"><ele>178.8</ele><time>2026-04-07T16:11:57.999Z</time></trkpt><trkpt lat="43.59250816953501" lon="3.0848876732131782"><ele>177.4</ele><time>2026-04-07T16:11:58.999Z</time></trkpt><trkpt lat="43.59240131381794" lon="3.0848608240904345"><ele>176.0</ele><time>2026-04-07T16:11:59.999Z</time></trkpt><trkpt lat="43.5922907505795" lon="3.084841351922015"><ele>176.0</ele><time>2026-04-07T16:12:00.999Z</time></trkpt><trkpt lat="43.59217733789054" lon="3.084817018781178"><ele>176.0</ele><time>2026-04-07T16:12:01.999Z</time></trkpt><trkpt lat="43.592060041359375" lon="3.08479340419698"><ele>176.0</ele><time>2026-04-07T16:12:02.999Z</time></trkpt><trkpt lat="43.591942232063545" lon="3.0847808130147114"><ele>176.0</ele><time>2026-04-07T16:12:03.999Z</time></trkpt><trkpt lat="43.591825010322616" lon="3.084768549740269"><ele>176.4</ele><time>2026-04-07T16:12:04.999Z</time></trkpt><trkpt lat="43.59171659691904" lon="3.0847598234109586"><ele>176.8</ele><time>2026-04-07T16:12:05.999Z</time></trkpt><trkpt lat="43.5916120465194" lon="3.084742281887828"><ele>177.20000000000002</ele><time>2026-04-07T16:12:06.999Z</time></trkpt><trkpt lat="43.59151135301277" lon="3.0847302849896425"><ele>177.60000000000002</ele><time>2026-04-07T16:12:07.999Z</time></trkpt><trkpt lat="43.59142235552482" lon="3.084724554125449"><ele>178.0</ele><time>2026-04-07T16:12:08.999Z</time></trkpt><trkpt lat="43.5913516974484" lon="3.084721642698648"><ele>178.0</ele><time>2026-04-07T16:12:09.999Z</time></trkpt><trkpt lat="43.591286781433766" lon="3.0847005116743267"><ele>178.0</ele><time>2026-04-07T16:12:10.998Z</time></trkpt><trkpt lat="43.59121474862039" lon="3.0846444506464414"><ele>178.0</ele><time>2026-04-07T16:12:11.998Z</time></trkpt><trkpt lat="43.59115800578263" lon="3.084559024246682"><ele>178.0</ele><time>2026-04-07T16:12:12.998Z</time></trkpt><trkpt lat="43.59110984281581" lon="3.0844384922658006"><ele>178.0</ele><time>2026-04-07T16:12:13.998Z</time></trkpt><trkpt lat="43.591083109725304" lon="3.0843162949525333"><ele>178.0</ele><time>2026-04-07T16:12:14.998Z</time></trkpt><trkpt lat="43.59106588647159" lon="3.084227547441256"><ele>178.60000000000002</ele><time>2026-04-07T16:12:15.998Z</time></trkpt><trkpt lat="43.59102703392028" lon="3.0840895540701228"><ele>179.20000000000002</ele><time>2026-04-07T16:12:17.998Z</time></trkpt><trkpt lat="43.59098589200875" lon="3.083904776991536"><ele>179.8</ele><time>2026-04-07T16:12:19.998Z</time></trkpt><trkpt lat="43.590960547037724" lon="3.0837954437156663"><ele>180.4</ele><time>2026-04-07T16:12:20.998Z</time></trkpt><trkpt lat="43.590935064932594" lon="3.0836601242031616"><ele>181.0</ele><time>2026-04-07T16:12:21.998Z</time></trkpt><trkpt lat="43.59090630494982" lon="3.083522256206873"><ele>181.0</ele><time>2026-04-07T16:12:22.998Z</time></trkpt><trkpt lat="43.59089001444021" lon="3.083407410389767"><ele>181.0</ele><time>2026-04-07T16:12:23.998Z</time></trkpt><trkpt lat="43.590880918904816" lon="3.0833109396111964"><ele>181.0</ele><time>2026-04-07T16:12:24.998Z</time></trkpt><trkpt lat="43.59087008914907" lon="3.0831842209117304"><ele>181.0</ele><time>2026-04-07T16:12:26.998Z</time></trkpt><trkpt lat="43.59085850169768" lon="3.0830847915783317"><ele>181.0</ele><time>2026-04-07T16:12:30.998Z</time></trkpt><trkpt lat="43.59085358803449" lon="3.0829801995731074"><ele>181.0</ele><time>2026-04-07T16:12:32.998Z</time></trkpt><trkpt lat="43.59084073796818" lon="3.082864407627178"><ele>183.60000000000002</ele><time>2026-04-07T16:12:36.998Z</time></trkpt><trkpt lat="43.59079564341237" lon="3.082718995564411"><ele>186.2</ele><time>2026-04-07T16:12:38.998Z</time></trkpt><trkpt lat="43.59071287538135" lon="3.0827699610692494"><ele>188.8</ele><time>2026-04-07T16:12:39.998Z</time></trkpt><trkpt lat="43.5906384950078" lon="3.0828465199344777"><ele>191.39999999999998</ele><time>2026-04-07T16:12:40.998Z</time></trkpt><trkpt lat="43.590554545367674" lon="3.0829052220304516"><ele>194.0</ele><time>2026-04-07T16:12:41.998Z</time></trkpt><trkpt lat="43.59047334077931" lon="3.082909631127406"><ele>194.0</ele><time>2026-04-07T16:12:42.998Z</time></trkpt><trkpt lat="43.5904111631167" lon="3.0828923553170635"><ele>194.0</ele><time>2026-04-07T16:12:43.998Z</time></trkpt><trkpt lat="43.590346916064036" lon="3.082910757300418"><ele>194.0</ele><time>2026-04-07T16:12:44.998Z</time></trkpt><trkpt lat="43.59022356815475" lon="3.082934510141881"><ele>194.0</ele><time>2026-04-07T16:12:46.998Z</time></trkpt><trkpt lat="43.590111924708346" lon="3.0829435126506315"><ele>194.0</ele><time>2026-04-07T16:12:49Z</time></trkpt><trkpt lat="43.590011169973124" lon="3.0829585025892707"><ele>194.66666666666669</ele><time>2026-04-07T16:12:51Z</time></trkpt><trkpt lat="43.58994477260593" lon="3.082956725366834"><ele>195.33333333333334</ele><time>2026-04-07T16:12:52Z</time></trkpt><trkpt lat="43.589830945115885" lon="3.082932100841415"><ele>196.0</ele><time>2026-04-07T16:12:54Z</time></trkpt><trkpt lat="43.58975809542845" lon="3.0829050236452686"><ele>196.66666666666669</ele><time>2026-04-07T16:12:55Z</time></trkpt><trkpt lat="43.58967723806085" lon="3.0828970971073377"><ele>197.33333333333334</ele><time>2026-04-07T16:12:56Z</time></trkpt><trkpt lat="43.58958585991979" lon="3.082942270754158"><ele>198.0</ele><time>2026-04-07T16:12:57Z</time></trkpt><trkpt lat="43.58951329100717" lon="3.082984830644386"><ele>197.60000000000002</ele><time>2026-04-07T16:12:58Z</time></trkpt><trkpt lat="43.58947922412469" lon="3.083074227676504"><ele>197.20000000000002</ele><time>2026-04-07T16:12:59Z</time></trkpt><trkpt lat="43.589402048577085" lon="3.083071995094844"><ele>196.8</ele><time>2026-04-07T16:13:00Z</time></trkpt><trkpt lat="43.58928699528409" lon="3.083132833535071"><ele>196.4</ele><time>2026-04-07T16:13:02Z</time></trkpt><trkpt lat="43.589163125517054" lon="3.0831731197480616"><ele>196.0</ele><time>2026-04-07T16:13:04Z</time></trkpt><trkpt lat="43.58909531025306" lon="3.083175868720336"><ele>196.0</ele><time>2026-04-07T16:13:05Z</time></trkpt><trkpt lat="43.589024781117594" lon="3.0831733052449155"><ele>196.0</ele><time>2026-04-07T16:13:06Z</time></trkpt><trkpt lat="43.58894329518142" lon="3.0831530149436417"><ele>196.0</ele><time>2026-04-07T16:13:07Z</time></trkpt><trkpt lat="43.58886071538166" lon="3.0831343248588667"><ele>196.0</ele><time>2026-04-07T16:13:08Z</time></trkpt><trkpt lat="43.588779383039764" lon="3.083102144936018"><ele>196.0</ele><time>2026-04-07T16:13:09Z</time></trkpt><trkpt lat="43.58864104278893" lon="3.0830083262920187"><ele>194.33333333333331</ele><time>2026-04-07T16:13:11Z</time></trkpt><trkpt lat="43.58855016236379" lon="3.082942258319549"><ele>192.66666666666666</ele><time>2026-04-07T16:13:12Z</time></trkpt><trkpt lat="43.588473029909295" lon="3.0828859981048202"><ele>191.0</ele><time>2026-04-07T16:13:13Z</time></trkpt><trkpt lat="43.588388574234315" lon="3.082837597888455"><ele>189.33333333333331</ele><time>2026-04-07T16:13:14Z</time></trkpt><trkpt lat="43.588310904373095" lon="3.0828199428660032"><ele>187.66666666666666</ele><time>2026-04-07T16:13:15Z</time></trkpt><trkpt lat="43.58822781834075" lon="3.0828015634044488"><ele>186.0</ele><time>2026-04-07T16:13:16Z</time></trkpt><trkpt lat="43.588138634228365" lon="3.082795513552165"><ele>186.0</ele><time>2026-04-07T16:13:17Z</time></trkpt><trkpt lat="43.58805833803848" lon="3.082803239682469"><ele>186.0</ele><time>2026-04-07T16:13:18Z</time></trkpt><trkpt lat="43.5879900881894" lon="3.0828087436919485"><ele>186.0</ele><time>2026-04-07T16:13:18.999Z</time></trkpt><trkpt lat="43.58787722383338" lon="3.0828180248467425"><ele>186.0</ele><time>2026-04-07T16:13:20.999Z</time></trkpt><trkpt lat="43.58777956927894" lon="3.082833145790962"><ele>186.0</ele><time>2026-04-07T16:13:22.999Z</time></trkpt><trkpt lat="43.58771386101977" lon="3.0828406437803997"><ele>186.0</ele><time>2026-04-07T16:13:23.999Z</time></trkpt><trkpt lat="43.587646325499286" lon="3.0828537017436615"><ele>185.0</ele><time>2026-04-07T16:13:25.999Z</time></trkpt><trkpt lat="43.58757121472862" lon="3.082872825028182"><ele>184.0</ele><time>2026-04-07T16:13:27.999Z</time></trkpt><trkpt lat="43.587495132951815" lon="3.0828789696084797"><ele>183.0</ele><time>2026-04-07T16:13:31.999Z</time></trkpt><trkpt lat="43.58741984904581" lon="3.0828968358241355"><ele>182.0</ele><time>2026-04-07T16:13:35.999Z</time></trkpt><trkpt lat="43.587353484153894" lon="3.082919715134897"><ele>181.0</ele><time>2026-04-07T16:13:37.999Z</time></trkpt><trkpt lat="43.58728519903882" lon="3.0828971776166236"><ele>180.0</ele><time>2026-04-07T16:13:38.999Z</time></trkpt><trkpt lat="43.587188233010416" lon="3.08282827003459"><ele>180.0</ele><time>2026-04-07T16:13:39.999Z</time></trkpt><trkpt lat="43.587124991457074" lon="3.082708234826534"><ele>180.0</ele><time>2026-04-07T16:13:40.999Z</time></trkpt><trkpt lat="43.58705257351319" lon="3.082581183615368"><ele>180.0</ele><time>2026-04-07T16:13:41.999Z</time></trkpt><trkpt lat="43.58704502112335" lon="3.082381544345725"><ele>180.0</ele><time>2026-04-07T16:13:42.999Z</time></trkpt><trkpt lat="43.58703789999666" lon="3.0821884581929146"><ele>180.5</ele><time>2026-04-07T16:13:43.999Z</time></trkpt><trkpt lat="43.58702660849254" lon="3.081999011156487"><ele>181.0</ele><time>2026-04-07T16:13:44.999Z</time></trkpt><trkpt lat="43.58702060580816" lon="3.0818160033454762"><ele>181.5</ele><time>2026-04-07T16:13:45.999Z</time></trkpt><trkpt lat="43.58701952685063" lon="3.0816271462038696"><ele>182.0</ele><time>2026-04-07T16:13:46.999Z</time></trkpt><trkpt lat="43.58703705616904" lon="3.0814380114065463"><ele>182.33333333333331</ele><time>2026-04-07T16:13:47.999Z</time></trkpt><trkpt lat="43.58706342259887" lon="3.0812414632647296"><ele>182.66666666666666</ele><time>2026-04-07T16:13:48.999Z</time></trkpt><trkpt lat="43.58710162300644" lon="3.0810432812972612"><ele>183.0</ele><time>2026-04-07T16:13:49.999Z</time></trkpt><trkpt lat="43.58713145417956" lon="3.080822563999727"><ele>182.66666666666666</ele><time>2026-04-07T16:13:50.999Z</time></trkpt><trkpt lat="43.58718401750347" lon="3.080575130263608"><ele>182.33333333333331</ele><time>2026-04-07T16:13:51.999Z</time></trkpt><trkpt lat="43.58722481335634" lon="3.0802990832034864"><ele>182.0</ele><time>2026-04-07T16:13:52.999Z</time></trkpt><trkpt lat="43.58725169518592" lon="3.080000084894254"><ele>181.75</ele><time>2026-04-07T16:13:53.999Z</time></trkpt><trkpt lat="43.58725864677521" lon="3.0798437053115095"><ele>181.5</ele><time>2026-04-07T16:13:55.999Z</time></trkpt><trkpt lat="43.587255992960294" lon="3.0796205823852447"><ele>181.25</ele><time>2026-04-07T16:13:56.999Z</time></trkpt><trkpt lat="43.587243325801055" lon="3.0793890288251142"><ele>181.0</ele><time>2026-04-07T16:13:57.999Z</time></trkpt><trkpt lat="43.587233274637214" lon="3.079162646429423"><ele>181.0</ele><time>2026-04-07T16:13:58.999Z</time></trkpt><trkpt lat="43.587212445519356" lon="3.07893234901518"><ele>181.0</ele><time>2026-04-07T16:13:59.999Z</time></trkpt><trkpt lat="43.58720387473956" lon="3.0786974952160016"><ele>181.0</ele><time>2026-04-07T16:14:00.999Z</time></trkpt><trkpt lat="43.58719063628619" lon="3.0784567906683287"><ele>180.0</ele><time>2026-04-07T16:14:01.999Z</time></trkpt><trkpt lat="43.5871713576008" lon="3.07821100687604"><ele>179.0</ele><time>2026-04-07T16:14:02.999Z</time></trkpt><trkpt lat="43.587159107515504" lon="3.0779704003832205"><ele>178.0</ele><time>2026-04-07T16:14:03.999Z</time></trkpt><trkpt lat="43.5871453918582" lon="3.0777224693380205"><ele>178.0</ele><time>2026-04-07T16:14:04.999Z</time></trkpt><trkpt lat="43.58713050872373" lon="3.077470322559045"><ele>178.0</ele><time>2026-04-07T16:14:05.999Z</time></trkpt><trkpt lat="43.58712048371486" lon="3.0772145067127417"><ele>178.0</ele><time>2026-04-07T16:14:06.999Z</time></trkpt><trkpt lat="43.587116110165184" lon="3.07695457946375"><ele>178.0</ele><time>2026-04-07T16:14:07.999Z</time></trkpt><trkpt lat="43.58710248190476" lon="3.076699538929724"><ele>178.0</ele><time>2026-04-07T16:14:08.999Z</time></trkpt><trkpt lat="43.5870873538946" lon="3.0764406818377243"><ele>178.0</ele><time>2026-04-07T16:14:09.999Z</time></trkpt><trkpt lat="43.587064927648996" lon="3.076163650616694"><ele>177.33333333333334</ele><time>2026-04-07T16:14:10.999Z</time></trkpt><trkpt lat="43.58703873822514" lon="3.075936197886437"><ele>176.66666666666666</ele><time>2026-04-07T16:14:11.998Z</time></trkpt><trkpt lat="43.58700723747769" lon="3.075701557900568"><ele>176.0</ele><time>2026-04-07T16:14:12.998Z</time></trkpt><trkpt lat="43.58697014491858" lon="3.075471062568061"><ele>176.0</ele><time>2026-04-07T16:14:13.998Z</time></trkpt><trkpt lat="43.58692046502407" lon="3.075251022302157"><ele>176.0</ele><time>2026-04-07T16:14:14.998Z</time></trkpt><trkpt lat="43.586886029407346" lon="3.075019209174806"><ele>176.0</ele><time>2026-04-07T16:14:15.998Z</time></trkpt><trkpt lat="43.58685340424106" lon="3.074786383206583"><ele>176.66666666666666</ele><time>2026-04-07T16:14:16.998Z</time></trkpt><trkpt lat="43.586806099613675" lon="3.0745506280788186"><ele>177.33333333333334</ele><time>2026-04-07T16:14:17.998Z</time></trkpt><trkpt lat="43.58675764316766" lon="3.074329744815507"><ele>178.0</ele><time>2026-04-07T16:14:18.998Z</time></trkpt><trkpt lat="43.586704300298024" lon="3.0741013365166436"><ele>179.66666666666669</ele><time>2026-04-07T16:14:19.998Z</time></trkpt><trkpt lat="43.58663570345814" lon="3.073891670444668"><ele>181.33333333333334</ele><time>2026-04-07T16:14:20.998Z</time></trkpt><trkpt lat="43.58657927767272" lon="3.0736719375694403"><ele>183.0</ele><time>2026-04-07T16:14:21.998Z</time></trkpt><trkpt lat="43.586512262264435" lon="3.0734453560737798"><ele>185.0</ele><time>2026-04-07T16:14:22.998Z</time></trkpt><trkpt lat="43.58644143116773" lon="3.0732256025689138"><ele>187.0</ele><time>2026-04-07T16:14:23.998Z</time></trkpt><trkpt lat="43.58636661611726" lon="3.0730143866921296"><ele>189.0</ele><time>2026-04-07T16:14:24.998Z</time></trkpt><trkpt lat="43.58630157851286" lon="3.07279451336336"><ele>189.0</ele><time>2026-04-07T16:14:25.998Z</time></trkpt><trkpt lat="43.586229754087285" lon="3.0726078476681034"><ele>189.0</ele><time>2026-04-07T16:14:26.998Z</time></trkpt><trkpt lat="43.58614089687413" lon="3.072423800987535"><ele>189.0</ele><time>2026-04-07T16:14:27.998Z</time></trkpt><trkpt lat="43.58607884833065" lon="3.072241919587609"><ele>186.66666666666666</ele><time>2026-04-07T16:14:28.998Z</time></trkpt><trkpt lat="43.58598027585305" lon="3.0720154852171584"><ele>184.33333333333331</ele><time>2026-04-07T16:14:29.998Z</time></trkpt><trkpt lat="43.58587606981978" lon="3.0718107660517893"><ele>182.0</ele><time>2026-04-07T16:14:30.998Z</time></trkpt><trkpt lat="43.58577946606002" lon="3.0716149922505793"><ele>185.0</ele><time>2026-04-07T16:14:31.998Z</time></trkpt><trkpt lat="43.58569041586929" lon="3.0714098354764783"><ele>188.0</ele><time>2026-04-07T16:14:32.998Z</time></trkpt><trkpt lat="43.58558816995687" lon="3.071215348984362"><ele>191.0</ele><time>2026-04-07T16:14:33.998Z</time></trkpt><trkpt lat="43.58547391152089" lon="3.0710107647478364"><ele>191.0</ele><time>2026-04-07T16:14:34.998Z</time></trkpt><trkpt lat="43.58535998939984" lon="3.0708177929555376"><ele>191.0</ele><time>2026-04-07T16:14:35.998Z</time></trkpt><trkpt lat="43.58525867251199" lon="3.0706529239138987"><ele>191.0</ele><time>2026-04-07T16:14:36.998Z</time></trkpt><trkpt lat="43.58513416572533" lon="3.0704786987637207"><ele>189.0</ele><time>2026-04-07T16:14:37.998Z</time></trkpt><trkpt lat="43.58501799439936" lon="3.0702740782756397"><ele>187.0</ele><time>2026-04-07T16:14:38.998Z</time></trkpt><trkpt lat="43.58488998491988" lon="3.0701118636000264"><ele>185.0</ele><time>2026-04-07T16:14:39.998Z</time></trkpt><trkpt lat="43.58477071328355" lon="3.0699476938681025"><ele>185.0</ele><time>2026-04-07T16:14:40.998Z</time></trkpt><trkpt lat="43.58466730358158" lon="3.069792011310622"><ele>185.0</ele><time>2026-04-07T16:14:41.998Z</time></trkpt><trkpt lat="43.584553343295816" lon="3.0696415068900227"><ele>185.0</ele><time>2026-04-07T16:14:42.998Z</time></trkpt><trkpt lat="43.58443689396655" lon="3.069491335603378"><ele>184.25</ele><time>2026-04-07T16:14:43.998Z</time></trkpt><trkpt lat="43.58433728825827" lon="3.0693553362301116"><ele>183.5</ele><time>2026-04-07T16:14:44.998Z</time></trkpt><trkpt lat="43.58423438269566" lon="3.0692391101286645"><ele>182.75</ele><time>2026-04-07T16:14:45.998Z</time></trkpt><trkpt lat="43.584151320049706" lon="3.0690991986592886"><ele>182.0</ele><time>2026-04-07T16:14:46.998Z</time></trkpt><trkpt lat="43.584084405914005" lon="3.0689649010886275"><ele>182.0</ele><time>2026-04-07T16:14:47.998Z</time></trkpt><trkpt lat="43.58403774902051" lon="3.068836802557868"><ele>182.0</ele><time>2026-04-07T16:14:48.998Z</time></trkpt><trkpt lat="43.58398747125993" lon="3.068722722670963"><ele>182.0</ele><time>2026-04-07T16:14:49.998Z</time></trkpt><trkpt lat="43.583911497977944" lon="3.068649328240538"><ele>182.0</ele><time>2026-04-07T16:14:50.998Z</time></trkpt><trkpt lat="43.58380598434814" lon="3.068623943410302"><ele>182.0</ele><time>2026-04-07T16:14:51.998Z</time></trkpt><trkpt lat="43.58369673752024" lon="3.0685600436909692"><ele>181.5</ele><time>2026-04-07T16:14:52.998Z</time></trkpt><trkpt lat="43.58359434897414" lon="3.068440184261257"><ele>181.0</ele><time>2026-04-07T16:14:53.998Z</time></trkpt><trkpt lat="43.58349451531358" lon="3.0683168488136707"><ele>180.5</ele><time>2026-04-07T16:14:55Z</time></trkpt><trkpt lat="43.58339203686949" lon="3.068189615481767"><ele>180.0</ele><time>2026-04-07T16:14:56Z</time></trkpt><trkpt lat="43.58329737288506" lon="3.0680650847456854"><ele>179.75</ele><time>2026-04-07T16:14:57Z</time></trkpt><trkpt lat="43.58321389248527" lon="3.0679391027555774"><ele>179.5</ele><time>2026-04-07T16:14:58Z</time></trkpt><trkpt lat="43.583137683718306" lon="3.067821903218224"><ele>179.25</ele><time>2026-04-07T16:14:59Z</time></trkpt><trkpt lat="43.583051898552796" lon="3.0677314835254497"><ele>179.0</ele><time>2026-04-07T16:15:00Z</time></trkpt><trkpt lat="43.58297907650532" lon="3.067628261316266"><ele>179.0</ele><time>2026-04-07T16:15:01Z</time></trkpt><trkpt lat="43.582892807256115" lon="3.06752059542451"><ele>179.0</ele><time>2026-04-07T16:15:02Z</time></trkpt><trkpt lat="43.58282012269961" lon="3.0674215126575683"><ele>179.0</ele><time>2026-04-07T16:15:03Z</time></trkpt><trkpt lat="43.5827420119038" lon="3.0673187193985068"><ele>179.0</ele><time>2026-04-07T16:15:04Z</time></trkpt><trkpt lat="43.58265114167861" lon="3.0672171788623914"><ele>179.0</ele><time>2026-04-07T16:15:05Z</time></trkpt><trkpt lat="43.58256936485043" lon="3.0671096530523174"><ele>179.0</ele><time>2026-04-07T16:15:06Z</time></trkpt><trkpt lat="43.5825028705003" lon="3.067016830549071"><ele>179.0</ele><time>2026-04-07T16:15:07Z</time></trkpt><trkpt lat="43.58242311663748" lon="3.0669329994042673"><ele>179.0</ele><time>2026-04-07T16:15:08Z</time></trkpt><trkpt lat="43.58235351228487" lon="3.0668457996129366"><ele>179.0</ele><time>2026-04-07T16:15:09Z</time></trkpt><trkpt lat="43.582279058980326" lon="3.066765899423588"><ele>179.0</ele><time>2026-04-07T16:15:10Z</time></trkpt><trkpt lat="43.58221208457914" lon="3.0666778757620747"><ele>179.0</ele><time>2026-04-07T16:15:11Z</time></trkpt><trkpt lat="43.582151863451536" lon="3.066590937762775"><ele>179.0</ele><time>2026-04-07T16:15:12Z</time></trkpt><trkpt lat="43.58208449656291" lon="3.066516857015002"><ele>179.0</ele><time>2026-04-07T16:15:13Z</time></trkpt><trkpt lat="43.582021553428966" lon="3.0664386407037916"><ele>179.0</ele><time>2026-04-07T16:15:14Z</time></trkpt><trkpt lat="43.58195790624772" lon="3.06635875367589"><ele>179.0</ele><time>2026-04-07T16:15:15Z</time></trkpt><trkpt lat="43.581902260180605" lon="3.0662916899414037"><ele>179.0</ele><time>2026-04-07T16:15:16Z</time></trkpt><trkpt lat="43.58184560649509" lon="3.0662263825886185"><ele>179.0</ele><time>2026-04-07T16:15:17Z</time></trkpt><trkpt lat="43.58179510410167" lon="3.066147302164042"><ele>179.0</ele><time>2026-04-07T16:15:18Z</time></trkpt><trkpt lat="43.58173826938978" lon="3.06608754949708"><ele>179.0</ele><time>2026-04-07T16:15:19Z</time></trkpt><trkpt lat="43.5816869525527" lon="3.06602606045072"><ele>179.0</ele><time>2026-04-07T16:15:20Z</time></trkpt><trkpt lat="43.58163898310865" lon="3.065969715434185"><ele>179.0</ele><time>2026-04-07T16:15:21Z</time></trkpt><trkpt lat="43.581553125796496" lon="3.065867306818394"><ele>179.0</ele><time>2026-04-07T16:15:23Z</time></trkpt><trkpt lat="43.5814825452757" lon="3.0657906468291447"><ele>179.0</ele><time>2026-04-07T16:15:25Z</time></trkpt><trkpt lat="43.581427361430215" lon="3.065706188916246"><ele>179.0</ele><time>2026-04-07T16:15:27Z</time></trkpt><trkpt lat="43.58134402900439" lon="3.0656011022249174"><ele>179.0</ele><time>2026-04-07T16:15:29Z</time></trkpt><trkpt lat="43.58124899337375" lon="3.0654704345036303"><ele>179.0</ele><time>2026-04-07T16:15:31Z</time></trkpt><trkpt lat="43.58118352238681" lon="3.0653853639043747"><ele>179.0</ele><time>2026-04-07T16:15:32Z</time></trkpt><trkpt lat="43.58111705492003" lon="3.0653000637246595"><ele>179.0</ele><time>2026-04-07T16:15:32.999Z</time></trkpt><trkpt lat="43.58105484969545" lon="3.065226473251995"><ele>179.0</ele><time>2026-04-07T16:15:33.999Z</time></trkpt><trkpt lat="43.58098960403708" lon="3.0651439830773777"><ele>179.0</ele><time>2026-04-07T16:15:34.999Z</time></trkpt><trkpt lat="43.58092829120944" lon="3.0650738169970855"><ele>179.0</ele><time>2026-04-07T16:15:35.999Z</time></trkpt><trkpt lat="43.580875503487576" lon="3.064997553067127"><ele>179.0</ele><time>2026-04-07T16:15:36.999Z</time></trkpt><trkpt lat="43.5808216638333" lon="3.0649277961550236"><ele>179.0</ele><time>2026-04-07T16:15:37.999Z</time></trkpt><trkpt lat="43.58076579359632" lon="3.064858170439134"><ele>178.83333333333331</ele><time>2026-04-07T16:15:38.999Z</time></trkpt><trkpt lat="43.58074176927829" lon="3.0647776456032902"><ele>178.66666666666666</ele><time>2026-04-07T16:15:39.999Z</time></trkpt><trkpt lat="43.58066990555823" lon="3.0647154980395155"><ele>178.5</ele><time>2026-04-07T16:15:40.999Z</time></trkpt><trkpt lat="43.580613965625176" lon="3.064656102192222"><ele>178.33333333333334</ele><time>2026-04-07T16:15:41.999Z</time></trkpt><trkpt lat="43.58055905926612" lon="3.064594810096981"><ele>178.16666666666669</ele><time>2026-04-07T16:15:42.999Z</time></trkpt><trkpt lat="43.58046557948765" lon="3.0644824882022963"><ele>178.0</ele><time>2026-04-07T16:15:44.999Z</time></trkpt><trkpt lat="43.58041118654033" lon="3.0644193857414"><ele>178.0</ele><time>2026-04-07T16:15:45.999Z</time></trkpt><trkpt lat="43.580365620804116" lon="3.0643566001427787"><ele>178.0</ele><time>2026-04-07T16:15:46.999Z</time></trkpt><trkpt lat="43.580311937905286" lon="3.0642893520391556"><ele>178.0</ele><time>2026-04-07T16:15:47.999Z</time></trkpt><trkpt lat="43.580257131391875" lon="3.0642274393574045"><ele>178.0</ele><time>2026-04-07T16:15:48.999Z</time></trkpt><trkpt lat="43.580210235163236" lon="3.064150527182343"><ele>178.0</ele><time>2026-04-07T16:15:49.999Z</time></trkpt><trkpt lat="43.58013945640142" lon="3.0640703119165185"><ele>178.0</ele><time>2026-04-07T16:15:50.999Z</time></trkpt><trkpt lat="43.5800660403095" lon="3.063983012978899"><ele>177.4</ele><time>2026-04-07T16:15:51.999Z</time></trkpt><trkpt lat="43.57999311243574" lon="3.0638950124520883"><ele>176.8</ele><time>2026-04-07T16:15:52.999Z</time></trkpt><trkpt lat="43.579910993729435" lon="3.063799194659889"><ele>176.2</ele><time>2026-04-07T16:15:53.999Z</time></trkpt><trkpt lat="43.57984247954107" lon="3.063701559501535"><ele>175.6</ele><time>2026-04-07T16:15:54.999Z</time></trkpt><trkpt lat="43.57977219926689" lon="3.063597256182156"><ele>175.0</ele><time>2026-04-07T16:15:55.999Z</time></trkpt><trkpt lat="43.57968703803194" lon="3.0634912280588553"><ele>175.0</ele><time>2026-04-07T16:15:56.999Z</time></trkpt><trkpt lat="43.579606974626294" lon="3.06339593493985"><ele>175.0</ele><time>2026-04-07T16:15:57.999Z</time></trkpt><trkpt lat="43.57953250796909" lon="3.0632963686294494"><ele>175.0</ele><time>2026-04-07T16:15:58.999Z</time></trkpt><trkpt lat="43.579453568231884" lon="3.0632058683655425"><ele>175.0</ele><time>2026-04-07T16:15:59.999Z</time></trkpt><trkpt lat="43.579393276519504" lon="3.0631008973175797"><ele>175.0</ele><time>2026-04-07T16:16:00.999Z</time></trkpt><trkpt lat="43.57932980046547" lon="3.062994828738772"><ele>174.83333333333334</ele><time>2026-04-07T16:16:01.999Z</time></trkpt><trkpt lat="43.579282363693615" lon="3.0628951155579665"><ele>174.66666666666669</ele><time>2026-04-07T16:16:02.999Z</time></trkpt><trkpt lat="43.579235058271216" lon="3.062785681873904"><ele>174.5</ele><time>2026-04-07T16:16:03.999Z</time></trkpt><trkpt lat="43.57919603289883" lon="3.062687290236307"><ele>174.33333333333334</ele><time>2026-04-07T16:16:04.999Z</time></trkpt><trkpt lat="43.57917077691859" lon="3.062592312758586"><ele>174.16666666666666</ele><time>2026-04-07T16:16:05.999Z</time></trkpt><trkpt lat="43.57915008243585" lon="3.0624993282970654"><ele>174.0</ele><time>2026-04-07T16:16:06.999Z</time></trkpt><trkpt lat="43.57909995291212" lon="3.0623368673145044"><ele>174.0</ele><time>2026-04-07T16:16:08.999Z</time></trkpt><trkpt lat="43.57907898855954" lon="3.062251738361593"><ele>174.0</ele><time>2026-04-07T16:16:09.999Z</time></trkpt><trkpt lat="43.57904452589182" lon="3.062111666174489"><ele>174.0</ele><time>2026-04-07T16:16:11.999Z</time></trkpt><trkpt lat="43.579009431463646" lon="3.0619378097466057"><ele>174.0</ele><time>2026-04-07T16:16:13.999Z</time></trkpt><trkpt lat="43.57899411847277" lon="3.061840774910575"><ele>174.0</ele><time>2026-04-07T16:16:14.999Z</time></trkpt><trkpt lat="43.578980299083646" lon="3.061730500848704"><ele>174.0</ele><time>2026-04-07T16:16:15.999Z</time></trkpt><trkpt lat="43.578962570349574" lon="3.0616248036662537"><ele>174.0</ele><time>2026-04-07T16:16:16.999Z</time></trkpt><trkpt lat="43.57893442859999" lon="3.0614909220790403"><ele>174.0</ele><time>2026-04-07T16:16:17.999Z</time></trkpt><trkpt lat="43.57891255101966" lon="3.0613616338691205"><ele>174.0</ele><time>2026-04-07T16:16:18.999Z</time></trkpt><trkpt lat="43.578880293066106" lon="3.061243535271806"><ele>174.0</ele><time>2026-04-07T16:16:19.999Z</time></trkpt><trkpt lat="43.57884733711042" lon="3.0611118433413638"><ele>176.0</ele><time>2026-04-07T16:16:20.999Z</time></trkpt><trkpt lat="43.57882216169281" lon="3.0609704397588096"><ele>178.0</ele><time>2026-04-07T16:16:21.999Z</time></trkpt><trkpt lat="43.57879179784344" lon="3.060828594358503"><ele>180.0</ele><time>2026-04-07T16:16:22.999Z</time></trkpt><trkpt lat="43.57877734365281" lon="3.0606982230021127"><ele>182.0</ele><time>2026-04-07T16:16:23.999Z</time></trkpt><trkpt lat="43.57877509206596" lon="3.0605528019240373"><ele>184.0</ele><time>2026-04-07T16:16:24.998Z</time></trkpt><trkpt lat="43.578758697562336" lon="3.0604146599879503"><ele>183.79999999999998</ele><time>2026-04-07T16:16:25.998Z</time></trkpt><trkpt lat="43.57873763475619" lon="3.060276381381439"><ele>183.6</ele><time>2026-04-07T16:16:26.998Z</time></trkpt><trkpt lat="43.578724146607136" lon="3.0601356711201073"><ele>183.4</ele><time>2026-04-07T16:16:27.998Z</time></trkpt><trkpt lat="43.57870780263828" lon="3.0599940883913237"><ele>183.2</ele><time>2026-04-07T16:16:28.998Z</time></trkpt><trkpt lat="43.57869161290706" lon="3.0598490988704192"><ele>183.0</ele><time>2026-04-07T16:16:29.998Z</time></trkpt><trkpt lat="43.57867707121172" lon="3.0597060025705054"><ele>180.60000000000002</ele><time>2026-04-07T16:16:30.998Z</time></trkpt><trkpt lat="43.57866699763684" lon="3.059570621405322"><ele>178.20000000000002</ele><time>2026-04-07T16:16:31.998Z</time></trkpt><trkpt lat="43.57864815207735" lon="3.059448139596425"><ele>175.8</ele><time>2026-04-07T16:16:32.998Z</time></trkpt><trkpt lat="43.578637159946716" lon="3.0593286531555295"><ele>173.4</ele><time>2026-04-07T16:16:33.998Z</time></trkpt><trkpt lat="43.57862864994099" lon="3.059195968984116"><ele>171.0</ele><time>2026-04-07T16:16:34.998Z</time></trkpt><trkpt lat="43.578627129822074" lon="3.0590560783224454"><ele>170.8</ele><time>2026-04-07T16:16:35.998Z</time></trkpt><trkpt lat="43.57862985111147" lon="3.0589146664322366"><ele>170.60000000000002</ele><time>2026-04-07T16:16:36.998Z</time></trkpt><trkpt lat="43.57863589653019" lon="3.0587799036767795"><ele>170.4</ele><time>2026-04-07T16:16:37.998Z</time></trkpt><trkpt lat="43.57864990354601" lon="3.0586559818733003"><ele>170.2</ele><time>2026-04-07T16:16:38.998Z</time></trkpt><trkpt lat="43.57868373078189" lon="3.058538917171115"><ele>170.0</ele><time>2026-04-07T16:16:39.998Z</time></trkpt><trkpt lat="43.57871163144436" lon="3.0584168616013603"><ele>171.0</ele><time>2026-04-07T16:16:40.998Z</time></trkpt><trkpt lat="43.578731258142156" lon="3.0582802242624934"><ele>172.0</ele><time>2026-04-07T16:16:41.998Z</time></trkpt><trkpt lat="43.57873538524945" lon="3.058133311599642"><ele>173.0</ele><time>2026-04-07T16:16:42.998Z</time></trkpt><trkpt lat="43.5787123788391" lon="3.057975695784228"><ele>174.0</ele><time>2026-04-07T16:16:43.998Z</time></trkpt><trkpt lat="43.57870159750049" lon="3.0578226671006514"><ele>175.0</ele><time>2026-04-07T16:16:44.998Z</time></trkpt><trkpt lat="43.57868763817673" lon="3.0576675958134953"><ele>173.8</ele><time>2026-04-07T16:16:45.998Z</time></trkpt><trkpt lat="43.57867637859181" lon="3.05752369157489"><ele>172.6</ele><time>2026-04-07T16:16:46.998Z</time></trkpt><trkpt lat="43.578660561933674" lon="3.057394326471922"><ele>171.39999999999998</ele><time>2026-04-07T16:16:47.998Z</time></trkpt><trkpt lat="43.578667796102685" lon="3.057265563318812"><ele>170.2</ele><time>2026-04-07T16:16:48.998Z</time></trkpt><trkpt lat="43.578648150639204" lon="3.0571479181847416"><ele>169.0</ele><time>2026-04-07T16:16:49.998Z</time></trkpt><trkpt lat="43.578636132574886" lon="3.05702135804101"><ele>169.0</ele><time>2026-04-07T16:16:50.998Z</time></trkpt><trkpt lat="43.578638758526424" lon="3.0568850306862787"><ele>169.0</ele><time>2026-04-07T16:16:51.998Z</time></trkpt><trkpt lat="43.57863837963327" lon="3.0567441103624566"><ele>169.0</ele><time>2026-04-07T16:16:52.998Z</time></trkpt><trkpt lat="43.57864301996728" lon="3.0565950988087205"><ele>169.0</ele><time>2026-04-07T16:16:53.998Z</time></trkpt><trkpt lat="43.578648916960034" lon="3.0564416627796303"><ele>169.0</ele><time>2026-04-07T16:16:54.998Z</time></trkpt><trkpt lat="43.57865006449906" lon="3.0562821923502437"><ele>169.0</ele><time>2026-04-07T16:16:55.998Z</time></trkpt><trkpt lat="43.57865781571091" lon="3.0561187781432206"><ele>169.0</ele><time>2026-04-07T16:16:56.998Z</time></trkpt><trkpt lat="43.57865724876557" lon="3.0559538918501454"><ele>169.0</ele><time>2026-04-07T16:16:57.998Z</time></trkpt><trkpt lat="43.57863137476573" lon="3.055783561284561"><ele>169.0</ele><time>2026-04-07T16:16:58.998Z</time></trkpt><trkpt lat="43.57859294967158" lon="3.055614542812608"><ele>170.0</ele><time>2026-04-07T16:16:59.998Z</time></trkpt><trkpt lat="43.578540656966645" lon="3.055439536472606"><ele>171.0</ele><time>2026-04-07T16:17:01Z</time></trkpt><trkpt lat="43.578507473732905" lon="3.0552873671900853"><ele>172.0</ele><time>2026-04-07T16:17:02Z</time></trkpt><trkpt lat="43.578461402375005" lon="3.055130810994399"><ele>173.0</ele><time>2026-04-07T16:17:03Z</time></trkpt><trkpt lat="43.57841527143358" lon="3.054974330966127"><ele>173.75</ele><time>2026-04-07T16:17:04Z</time></trkpt><trkpt lat="43.57836961199212" lon="3.0548149932094413"><ele>174.5</ele><time>2026-04-07T16:17:05Z</time></trkpt><trkpt lat="43.57831741914747" lon="3.0546522197406123"><ele>175.25</ele><time>2026-04-07T16:17:06Z</time></trkpt><trkpt lat="43.57826362319264" lon="3.0544887212269507"><ele>176.0</ele><time>2026-04-07T16:17:07Z</time></trkpt><trkpt lat="43.57821776151032" lon="3.0543233075871212"><ele>176.0</ele><time>2026-04-07T16:17:08Z</time></trkpt><trkpt lat="43.5781629216017" lon="3.054148891258653"><ele>176.0</ele><time>2026-04-07T16:17:09Z</time></trkpt><trkpt lat="43.57811187805589" lon="3.0539759980272128"><ele>176.0</ele><time>2026-04-07T16:17:10Z</time></trkpt><trkpt lat="43.578056234045896" lon="3.053798613854323"><ele>176.0</ele><time>2026-04-07T16:17:11Z</time></trkpt><trkpt lat="43.57799978198554" lon="3.0536233513163897"><ele>176.5</ele><time>2026-04-07T16:17:12Z</time></trkpt><trkpt lat="43.577946096900455" lon="3.0534431005978844"><ele>177.0</ele><time>2026-04-07T16:17:13Z</time></trkpt><trkpt lat="43.577884764062304" lon="3.0532576148718817"><ele>177.5</ele><time>2026-04-07T16:17:14Z</time></trkpt><trkpt lat="43.577825435871034" lon="3.0530727053542535"><ele>178.0</ele><time>2026-04-07T16:17:15Z</time></trkpt><trkpt lat="43.577766846291425" lon="3.052887224527362"><ele>176.33333333333334</ele><time>2026-04-07T16:17:16Z</time></trkpt><trkpt lat="43.57770205349083" lon="3.052700276054823"><ele>174.66666666666666</ele><time>2026-04-07T16:17:17Z</time></trkpt><trkpt lat="43.577642090226654" lon="3.0525156413428145"><ele>173.0</ele><time>2026-04-07T16:17:18Z</time></trkpt><trkpt lat="43.57757753826013" lon="3.0523225414978445"><ele>173.0</ele><time>2026-04-07T16:17:19Z</time></trkpt><trkpt lat="43.577507183214585" lon="3.0521328422590086"><ele>173.0</ele><time>2026-04-07T16:17:20Z</time></trkpt><trkpt lat="43.577435854876725" lon="3.0519390830251965"><ele>173.0</ele><time>2026-04-07T16:17:21Z</time></trkpt><trkpt lat="43.577347587832435" lon="3.051752533891099"><ele>175.33333333333331</ele><time>2026-04-07T16:17:22Z</time></trkpt><trkpt lat="43.57726441153475" lon="3.0515573564191545"><ele>177.66666666666666</ele><time>2026-04-07T16:17:23Z</time></trkpt><trkpt lat="43.577168770664805" lon="3.0513722994000223"><ele>180.0</ele><time>2026-04-07T16:17:24Z</time></trkpt><trkpt lat="43.577055781885036" lon="3.0511945017161373"><ele>178.33333333333334</ele><time>2026-04-07T16:17:25Z</time></trkpt><trkpt lat="43.57692933109973" lon="3.0510373720102777"><ele>176.66666666666669</ele><time>2026-04-07T16:17:26Z</time></trkpt><trkpt lat="43.57679152189529" lon="3.050888152122777"><ele>175.0</ele><time>2026-04-07T16:17:27Z</time></trkpt><trkpt lat="43.576653941426734" lon="3.050741383620503"><ele>175.0</ele><time>2026-04-07T16:17:28Z</time></trkpt><trkpt lat="43.576516992785784" lon="3.0506055188371914"><ele>175.0</ele><time>2026-04-07T16:17:29Z</time></trkpt><trkpt lat="43.576382439914184" lon="3.0504655736124335"><ele>175.0</ele><time>2026-04-07T16:17:30Z</time></trkpt><trkpt lat="43.576250690938075" lon="3.050321024612235"><ele>175.0</ele><time>2026-04-07T16:17:31Z</time></trkpt><trkpt lat="43.57611932207326" lon="3.050176806425613"><ele>175.0</ele><time>2026-04-07T16:17:32Z</time></trkpt><trkpt lat="43.575984714527074" lon="3.050037814149444"><ele>175.0</ele><time>2026-04-07T16:17:33Z</time></trkpt><trkpt lat="43.575850634999654" lon="3.0499036523080627"><ele>175.0</ele><time>2026-04-07T16:17:34Z</time></trkpt><trkpt lat="43.57572205646895" lon="3.049781513020415"><ele>175.0</ele><time>2026-04-07T16:17:35Z</time></trkpt><trkpt lat="43.575601362387154" lon="3.049648403515804"><ele>175.0</ele><time>2026-04-07T16:17:36Z</time></trkpt><trkpt lat="43.57549888410124" lon="3.0494972174219073"><ele>175.0</ele><time>2026-04-07T16:17:37Z</time></trkpt><trkpt lat="43.57540100810972" lon="3.0493364523548236"><ele>175.0</ele><time>2026-04-07T16:17:38Z</time></trkpt><trkpt lat="43.575334818410916" lon="3.0491439039114825"><ele>175.0</ele><time>2026-04-07T16:17:39Z</time></trkpt><trkpt lat="43.575285457296395" lon="3.0489503561369906"><ele>172.33333333333334</ele><time>2026-04-07T16:17:40Z</time></trkpt><trkpt lat="43.57526601505596" lon="3.048733808822342"><ele>169.66666666666666</ele><time>2026-04-07T16:17:41Z</time></trkpt><trkpt lat="43.57526794808039" lon="3.048519677366969"><ele>167.0</ele><time>2026-04-07T16:17:42Z</time></trkpt><trkpt lat="43.575269730020246" lon="3.048306233904229"><ele>166.0</ele><time>2026-04-07T16:17:43Z</time></trkpt><trkpt lat="43.57532601440399" lon="3.0481068772364415"><ele>165.0</ele><time>2026-04-07T16:17:43.999Z</time></trkpt><trkpt lat="43.575395318563615" lon="3.0479199931795553"><ele>164.0</ele><time>2026-04-07T16:17:44.999Z</time></trkpt><trkpt lat="43.575473963292694" lon="3.047738515316639"><ele>166.0</ele><time>2026-04-07T16:17:45.999Z</time></trkpt><trkpt lat="43.57554956343315" lon="3.0475463788530965"><ele>168.0</ele><time>2026-04-07T16:17:46.999Z</time></trkpt><trkpt lat="43.575639206055016" lon="3.0473661038676223"><ele>170.0</ele><time>2026-04-07T16:17:47.999Z</time></trkpt><trkpt lat="43.57571935526559" lon="3.047178721399326"><ele>170.0</ele><time>2026-04-07T16:17:48.999Z</time></trkpt><trkpt lat="43.575801282267086" lon="3.0469920608502155"><ele>170.0</ele><time>2026-04-07T16:17:49.999Z</time></trkpt><trkpt lat="43.575886086968104" lon="3.046802918880575"><ele>170.0</ele><time>2026-04-07T16:17:50.999Z</time></trkpt><trkpt lat="43.57596377769998" lon="3.046618297573465"><ele>168.66666666666666</ele><time>2026-04-07T16:17:51.999Z</time></trkpt><trkpt lat="43.57604367839711" lon="3.046427261659502"><ele>167.33333333333334</ele><time>2026-04-07T16:17:52.999Z</time></trkpt><trkpt lat="43.576127719987674" lon="3.0462342283854684"><ele>166.0</ele><time>2026-04-07T16:17:53.999Z</time></trkpt><trkpt lat="43.576211588852814" lon="3.04604416909552"><ele>168.33333333333334</ele><time>2026-04-07T16:17:54.999Z</time></trkpt><trkpt lat="43.57629950816769" lon="3.0458548261550047"><ele>170.66666666666666</ele><time>2026-04-07T16:17:55.999Z</time></trkpt><trkpt lat="43.57638424700001" lon="3.0456652157949855"><ele>173.0</ele><time>2026-04-07T16:17:56.999Z</time></trkpt><trkpt lat="43.57648211480307" lon="3.045482515110986"><ele>173.0</ele><time>2026-04-07T16:17:57.999Z</time></trkpt><trkpt lat="43.57657030854573" lon="3.045277360891646"><ele>173.0</ele><time>2026-04-07T16:17:58.999Z</time></trkpt><trkpt lat="43.57667172399663" lon="3.045085329638868"><ele>173.0</ele><time>2026-04-07T16:17:59.999Z</time></trkpt><trkpt lat="43.57677517960354" lon="3.044910002099099"><ele>171.66666666666666</ele><time>2026-04-07T16:18:00.999Z</time></trkpt><trkpt lat="43.57688152957482" lon="3.044736806389539"><ele>170.33333333333334</ele><time>2026-04-07T16:18:01.999Z</time></trkpt><trkpt lat="43.57699893828646" lon="3.0445764702492344"><ele>169.0</ele><time>2026-04-07T16:18:02.999Z</time></trkpt><trkpt lat="43.57710049786084" lon="3.0443895545384048"><ele>171.33333333333334</ele><time>2026-04-07T16:18:03.999Z</time></trkpt><trkpt lat="43.5771753263183" lon="3.044187931901186"><ele>173.66666666666666</ele><time>2026-04-07T16:18:04.999Z</time></trkpt><trkpt lat="43.577260285207856" lon="3.0439940871185738"><ele>176.0</ele><time>2026-04-07T16:18:05.999Z</time></trkpt><trkpt lat="43.57733906314323" lon="3.04379495613519"><ele>176.0</ele><time>2026-04-07T16:18:06.999Z</time></trkpt><trkpt lat="43.577413490702774" lon="3.043592964664168"><ele>176.0</ele><time>2026-04-07T16:18:07.999Z</time></trkpt><trkpt lat="43.577502669558434" lon="3.0433996593141948"><ele>176.0</ele><time>2026-04-07T16:18:08.999Z</time></trkpt><trkpt lat="43.57757316763267" lon="3.043201064518529"><ele>175.33333333333331</ele><time>2026-04-07T16:18:09.999Z</time></trkpt><trkpt lat="43.57764043139428" lon="3.0430046871947685"><ele>174.66666666666666</ele><time>2026-04-07T16:18:10.999Z</time></trkpt><trkpt lat="43.57770971815989" lon="3.042802932992205"><ele>174.0</ele><time>2026-04-07T16:18:11.999Z</time></trkpt><trkpt lat="43.57777920030626" lon="3.042601737729114"><ele>172.66666666666666</ele><time>2026-04-07T16:18:12.999Z</time></trkpt><trkpt lat="43.57784639488371" lon="3.0424071653869387"><ele>171.33333333333331</ele><time>2026-04-07T16:18:13.999Z</time></trkpt><trkpt lat="43.5779172748475" lon="3.042203858181672"><ele>170.0</ele><time>2026-04-07T16:18:14.999Z</time></trkpt><trkpt lat="43.57798515102772" lon="3.0420088701686985"><ele>172.33333333333331</ele><time>2026-04-07T16:18:15.999Z</time></trkpt><trkpt lat="43.5780541924987" lon="3.0418105344684694"><ele>174.66666666666666</ele><time>2026-04-07T16:18:16.999Z</time></trkpt><trkpt lat="43.578124471648046" lon="3.0416086433489027"><ele>177.0</ele><time>2026-04-07T16:18:17.999Z</time></trkpt><trkpt lat="43.5781916228292" lon="3.041407318661785"><ele>177.0</ele><time>2026-04-07T16:18:18.999Z</time></trkpt><trkpt lat="43.57823777913567" lon="3.0411968346654237"><ele>177.0</ele><time>2026-04-07T16:18:19.999Z</time></trkpt><trkpt lat="43.57830263250334" lon="3.040993674984887"><ele>177.0</ele><time>2026-04-07T16:18:20.999Z</time></trkpt><trkpt lat="43.57837189022184" lon="3.0407957269665253"><ele>176.0</ele><time>2026-04-07T16:18:21.999Z</time></trkpt><trkpt lat="43.578458181458906" lon="3.040609511384494"><ele>175.0</ele><time>2026-04-07T16:18:22.999Z</time></trkpt><trkpt lat="43.57858200371368" lon="3.0404633707183524"><ele>174.0</ele><time>2026-04-07T16:18:23.999Z</time></trkpt><trkpt lat="43.578707364214885" lon="3.040315102873451"><ele>174.0</ele><time>2026-04-07T16:18:24.999Z</time></trkpt><trkpt lat="43.57881253005704" lon="3.040133941652411"><ele>174.0</ele><time>2026-04-07T16:18:25.999Z</time></trkpt><trkpt lat="43.57890801659047" lon="3.0399304471332345"><ele>174.0</ele><time>2026-04-07T16:18:26.999Z</time></trkpt><trkpt lat="43.578978412471116" lon="3.0397062285360126"><ele>174.33333333333334</ele><time>2026-04-07T16:18:27.999Z</time></trkpt><trkpt lat="43.57903775895005" lon="3.0394729147818174"><ele>174.66666666666669</ele><time>2026-04-07T16:18:28.999Z</time></trkpt><trkpt lat="43.57910212148502" lon="3.0392452481064294"><ele>175.0</ele><time>2026-04-07T16:18:29.999Z</time></trkpt><trkpt lat="43.57916573135922" lon="3.0390204451572793"><ele>175.0</ele><time>2026-04-07T16:18:30.999Z</time></trkpt><trkpt lat="43.579232153099554" lon="3.038790955583168"><ele>175.0</ele><time>2026-04-07T16:18:31.999Z</time></trkpt><trkpt lat="43.579301409404344" lon="3.0385637323890218"><ele>175.0</ele><time>2026-04-07T16:18:32.998Z</time></trkpt><trkpt lat="43.579369891883346" lon="3.0383277438533414"><ele>173.66666666666669</ele><time>2026-04-07T16:18:33.998Z</time></trkpt><trkpt lat="43.57943885974294" lon="3.0381019769974005"><ele>172.33333333333334</ele><time>2026-04-07T16:18:34.998Z</time></trkpt><trkpt lat="43.57950729504947" lon="3.037871192788501"><ele>171.0</ele><time>2026-04-07T16:18:35.998Z</time></trkpt><trkpt lat="43.57957968311151" lon="3.037640874995506"><ele>175.66666666666666</ele><time>2026-04-07T16:18:36.998Z</time></trkpt><trkpt lat="43.57965042726914" lon="3.0374165203196375"><ele>180.33333333333331</ele><time>2026-04-07T16:18:37.998Z</time></trkpt><trkpt lat="43.579721622464646" lon="3.037190637512126"><ele>185.0</ele><time>2026-04-07T16:18:38.998Z</time></trkpt><trkpt lat="43.579791256587626" lon="3.036966184225716"><ele>185.0</ele><time>2026-04-07T16:18:39.998Z</time></trkpt><trkpt lat="43.57986067878628" lon="3.0367401036387913"><ele>185.0</ele><time>2026-04-07T16:18:40.998Z</time></trkpt><trkpt lat="43.57992919687035" lon="3.036505513472104"><ele>185.0</ele><time>2026-04-07T16:18:41.998Z</time></trkpt><trkpt lat="43.57999802352606" lon="3.036280252912672"><ele>183.0</ele><time>2026-04-07T16:18:42.998Z</time></trkpt><trkpt lat="43.58006929954367" lon="3.0360562767340737"><ele>181.0</ele><time>2026-04-07T16:18:43.998Z</time></trkpt><trkpt lat="43.580134945755894" lon="3.035829611017818"><ele>179.0</ele><time>2026-04-07T16:18:44.998Z</time></trkpt><trkpt lat="43.58020050857206" lon="3.0355962852015765"><ele>178.33333333333331</ele><time>2026-04-07T16:18:45.998Z</time></trkpt><trkpt lat="43.58025902806966" lon="3.035364216086867"><ele>177.66666666666666</ele><time>2026-04-07T16:18:46.998Z</time></trkpt><trkpt lat="43.58030857514905" lon="3.0351348741505606"><ele>177.0</ele><time>2026-04-07T16:18:47.998Z</time></trkpt><trkpt lat="43.580354396835624" lon="3.034901202984973"><ele>179.0</ele><time>2026-04-07T16:18:48.998Z</time></trkpt><trkpt lat="43.580393474545346" lon="3.0346644873187807"><ele>181.0</ele><time>2026-04-07T16:18:49.998Z</time></trkpt><trkpt lat="43.58042709791681" lon="3.0344277455373927"><ele>183.0</ele><time>2026-04-07T16:18:50.998Z</time></trkpt><trkpt lat="43.58045415305057" lon="3.034189532615628"><ele>185.66666666666666</ele><time>2026-04-07T16:18:51.998Z</time></trkpt><trkpt lat="43.5804741613418" lon="3.0339552949392647"><ele>188.33333333333331</ele><time>2026-04-07T16:18:52.998Z</time></trkpt><trkpt lat="43.5804902414368" lon="3.0337231831099323"><ele>191.0</ele><time>2026-04-07T16:18:53.998Z</time></trkpt><trkpt lat="43.58049981608587" lon="3.0334927643498633"><ele>195.66666666666666</ele><time>2026-04-07T16:18:54.998Z</time></trkpt><trkpt lat="43.580504540681986" lon="3.033263188743003"><ele>200.33333333333331</ele><time>2026-04-07T16:18:55.998Z</time></trkpt><trkpt lat="43.580502722277004" lon="3.0330366803401305"><ele>205.0</ele><time>2026-04-07T16:18:56.998Z</time></trkpt><trkpt lat="43.58049481257698" lon="3.032810860195953"><ele>205.0</ele><time>2026-04-07T16:18:57.998Z</time></trkpt><trkpt lat="43.580482367798844" lon="3.032587607195571"><ele>205.0</ele><time>2026-04-07T16:18:58.998Z</time></trkpt><trkpt lat="43.58046624061968" lon="3.0323657917043016"><ele>205.0</ele><time>2026-04-07T16:18:59.998Z</time></trkpt><trkpt lat="43.58044622577751" lon="3.032152058985017"><ele>208.25</ele><time>2026-04-07T16:19:00.998Z</time></trkpt><trkpt lat="43.58042044122909" lon="3.0319513790537123"><ele>211.5</ele><time>2026-04-07T16:19:01.998Z</time></trkpt><trkpt lat="43.58039319218861" lon="3.031759766330334"><ele>214.75</ele><time>2026-04-07T16:19:02.998Z</time></trkpt><trkpt lat="43.58036336342924" lon="3.0315673973883057"><ele>218.0</ele><time>2026-04-07T16:19:03.998Z</time></trkpt><trkpt lat="43.58033415320768" lon="3.0313805383297696"><ele>215.0</ele><time>2026-04-07T16:19:04.998Z</time></trkpt><trkpt lat="43.580302004384095" lon="3.0312000023114574"><ele>212.0</ele><time>2026-04-07T16:19:05.998Z</time></trkpt><trkpt lat="43.58026440064815" lon="3.0310182231013187"><ele>209.0</ele><time>2026-04-07T16:19:07Z</time></trkpt><trkpt lat="43.580213920654415" lon="3.0308405586017466"><ele>206.0</ele><time>2026-04-07T16:19:08Z</time></trkpt><trkpt lat="43.58014720370308" lon="3.03064312778104"><ele>206.0</ele><time>2026-04-07T16:19:09Z</time></trkpt><trkpt lat="43.580070618170495" lon="3.030454974709006"><ele>206.0</ele><time>2026-04-07T16:19:10Z</time></trkpt><trkpt lat="43.58001635619526" lon="3.0302792654667816"><ele>206.0</ele><time>2026-04-07T16:19:11Z</time></trkpt><trkpt lat="43.57995590234027" lon="3.0301095842959764"><ele>206.0</ele><time>2026-04-07T16:19:12Z</time></trkpt><trkpt lat="43.57989199788388" lon="3.029939342349454"><ele>210.25</ele><time>2026-04-07T16:19:13Z</time></trkpt><trkpt lat="43.57982613540492" lon="3.0297701489868394"><ele>214.5</ele><time>2026-04-07T16:19:14Z</time></trkpt><trkpt lat="43.57976697914666" lon="3.0296089279870912"><ele>218.75</ele><time>2026-04-07T16:19:15Z</time></trkpt><trkpt lat="43.57969744051815" lon="3.029442408234989"><ele>223.0</ele><time>2026-04-07T16:19:16Z</time></trkpt><trkpt lat="43.579629019780164" lon="3.029272050004159"><ele>226.0</ele><time>2026-04-07T16:19:17Z</time></trkpt><trkpt lat="43.57955955401282" lon="3.029106058602824"><ele>229.0</ele><time>2026-04-07T16:19:18Z</time></trkpt><trkpt lat="43.57948919958903" lon="3.028937269991995"><ele>232.0</ele><time>2026-04-07T16:19:19Z</time></trkpt><trkpt lat="43.57941843556254" lon="3.0287682093302215"><ele>235.0</ele><time>2026-04-07T16:19:20Z</time></trkpt><trkpt lat="43.57934301188319" lon="3.0286025406117054"><ele>232.5</ele><time>2026-04-07T16:19:21Z</time></trkpt><trkpt lat="43.57926496116382" lon="3.0284333897"><ele>230.0</ele><time>2026-04-07T16:19:22Z</time></trkpt><trkpt lat="43.57919484568784" lon="3.02826633999618"><ele>227.5</ele><time>2026-04-07T16:19:23Z</time></trkpt><trkpt lat="43.579115177738004" lon="3.0280921572583486"><ele>225.0</ele><time>2026-04-07T16:19:24Z</time></trkpt><trkpt lat="43.579039703023675" lon="3.027918907979975"><ele>225.0</ele><time>2026-04-07T16:19:25Z</time></trkpt><trkpt lat="43.578962718025345" lon="3.0277443988078003"><ele>225.0</ele><time>2026-04-07T16:19:26Z</time></trkpt><trkpt lat="43.57888625598326" lon="3.0275662023665713"><ele>225.0</ele><time>2026-04-07T16:19:27Z</time></trkpt><trkpt lat="43.578809503245296" lon="3.027392021641107"><ele>225.0</ele><time>2026-04-07T16:19:28Z</time></trkpt><trkpt lat="43.57873021298909" lon="3.0272112623099203"><ele>219.66666666666669</ele><time>2026-04-07T16:19:29Z</time></trkpt><trkpt lat="43.57865097405097" lon="3.0270317306304104"><ele>214.33333333333334</ele><time>2026-04-07T16:19:30Z</time></trkpt><trkpt lat="43.578571129654975" lon="3.0268512197021153"><ele>209.0</ele><time>2026-04-07T16:19:31Z</time></trkpt><trkpt lat="43.5784911801174" lon="3.0266737357488953"><ele>211.66666666666669</ele><time>2026-04-07T16:19:32Z</time></trkpt><trkpt lat="43.57841127800525" lon="3.0264919255376355"><ele>214.33333333333331</ele><time>2026-04-07T16:19:33Z</time></trkpt><trkpt lat="43.578334868345095" lon="3.026310916371147"><ele>217.0</ele><time>2026-04-07T16:19:34Z</time></trkpt><trkpt lat="43.57825791172347" lon="3.0261265245652056"><ele>217.0</ele><time>2026-04-07T16:19:35Z</time></trkpt><trkpt lat="43.57819189412746" lon="3.0259348432695736"><ele>217.0</ele><time>2026-04-07T16:19:36Z</time></trkpt><trkpt lat="43.57815411573277" lon="3.0257253401277597"><ele>217.0</ele><time>2026-04-07T16:19:37Z</time></trkpt><trkpt lat="43.57815360676303" lon="3.0255102584891698"><ele>215.33333333333331</ele><time>2026-04-07T16:19:38Z</time></trkpt><trkpt lat="43.578184079318135" lon="3.025299179083075"><ele>213.66666666666669</ele><time>2026-04-07T16:19:39Z</time></trkpt><trkpt lat="43.578252706601546" lon="3.025103794244145"><ele>212.0</ele><time>2026-04-07T16:19:40Z</time></trkpt><trkpt lat="43.57835513016937" lon="3.0249398774269767"><ele>212.0</ele><time>2026-04-07T16:19:41Z</time></trkpt><trkpt lat="43.578480274278185" lon="3.024806526102926"><ele>212.0</ele><time>2026-04-07T16:19:42Z</time></trkpt><trkpt lat="43.57862489589339" lon="3.0247150166551253"><ele>212.0</ele><time>2026-04-07T16:19:43Z</time></trkpt><trkpt lat="43.57877649629011" lon="3.024643815131701"><ele>212.0</ele><time>2026-04-07T16:19:44Z</time></trkpt><trkpt lat="43.57893018007464" lon="3.024579485427985"><ele>212.0</ele><time>2026-04-07T16:19:45Z</time></trkpt><trkpt lat="43.5790870426972" lon="3.0245153287851427"><ele>212.0</ele><time>2026-04-07T16:19:46Z</time></trkpt><trkpt lat="43.57924325784776" lon="3.0244501732798317"><ele>212.0</ele><time>2026-04-07T16:19:47Z</time></trkpt><trkpt lat="43.57938993231229" lon="3.024385892063951"><ele>212.0</ele><time>2026-04-07T16:19:48Z</time></trkpt><trkpt lat="43.57952967765387" lon="3.024321916827579"><ele>212.0</ele><time>2026-04-07T16:19:49Z</time></trkpt><trkpt lat="43.579665799787584" lon="3.0242382807418537"><ele>212.33333333333334</ele><time>2026-04-07T16:19:50Z</time></trkpt><trkpt lat="43.57979513382268" lon="3.0241127749181813"><ele>212.66666666666669</ele><time>2026-04-07T16:19:50.999Z</time></trkpt><trkpt lat="43.57989457362068" lon="3.0239383501265427"><ele>213.0</ele><time>2026-04-07T16:19:51.999Z</time></trkpt><trkpt lat="43.57996112152535" lon="3.023735679730383"><ele>213.0</ele><time>2026-04-07T16:19:52.999Z</time></trkpt><trkpt lat="43.57996525179166" lon="3.0235663008284988"><ele>213.0</ele><time>2026-04-07T16:19:53.999Z</time></trkpt><trkpt lat="43.5799744116874" lon="3.0234209073048173"><ele>213.0</ele><time>2026-04-07T16:19:54.999Z</time></trkpt><trkpt lat="43.57992012034477" lon="3.0232396471701257"><ele>213.0</ele><time>2026-04-07T16:19:55.999Z</time></trkpt><trkpt lat="43.57983672158192" lon="3.02306273757925"><ele>213.33333333333331</ele><time>2026-04-07T16:19:56.999Z</time></trkpt><trkpt lat="43.57972226682269" lon="3.0229071677925243"><ele>213.66666666666666</ele><time>2026-04-07T16:19:57.999Z</time></trkpt><trkpt lat="43.579592241115094" lon="3.022778368492528"><ele>214.0</ele><time>2026-04-07T16:19:58.999Z</time></trkpt><trkpt lat="43.57945352682112" lon="3.0226921857256226"><ele>214.0</ele><time>2026-04-07T16:19:59.999Z</time></trkpt><trkpt lat="43.57932400717112" lon="3.022596740579247"><ele>214.0</ele><time>2026-04-07T16:20:00.999Z</time></trkpt><trkpt lat="43.579200917948704" lon="3.0224824562893966"><ele>214.0</ele><time>2026-04-07T16:20:01.999Z</time></trkpt><trkpt lat="43.579086099245814" lon="3.0223517232545163"><ele>214.0</ele><time>2026-04-07T16:20:02.999Z</time></trkpt><trkpt lat="43.578975089437286" lon="3.022204953616962"><ele>215.66666666666666</ele><time>2026-04-07T16:20:03.999Z</time></trkpt><trkpt lat="43.57888328204441" lon="3.022031687787383"><ele>217.33333333333331</ele><time>2026-04-07T16:20:04.999Z</time></trkpt><trkpt lat="43.57880767072481" lon="3.0218418591003124"><ele>219.0</ele><time>2026-04-07T16:20:05.999Z</time></trkpt><trkpt lat="43.578766050287534" lon="3.021631038079361"><ele>219.0</ele><time>2026-04-07T16:20:06.999Z</time></trkpt><trkpt lat="43.578728454322736" lon="3.0214170429863865"><ele>219.0</ele><time>2026-04-07T16:20:07.999Z</time></trkpt><trkpt lat="43.578711080766084" lon="3.021193914413628"><ele>219.0</ele><time>2026-04-07T16:20:08.999Z</time></trkpt><trkpt lat="43.57870993129935" lon="3.0209689629778884"><ele>217.66666666666669</ele><time>2026-04-07T16:20:09.999Z</time></trkpt><trkpt lat="43.5787191833043" lon="3.0207403540003046"><ele>216.33333333333334</ele><time>2026-04-07T16:20:10.999Z</time></trkpt><trkpt lat="43.57873916204318" lon="3.0205096322810627"><ele>215.0</ele><time>2026-04-07T16:20:11.999Z</time></trkpt><trkpt lat="43.578757040632034" lon="3.020282376617197"><ele>215.0</ele><time>2026-04-07T16:20:12.999Z</time></trkpt><trkpt lat="43.57877364675825" lon="3.02004860890515"><ele>215.0</ele><time>2026-04-07T16:20:13.999Z</time></trkpt><trkpt lat="43.57878110777947" lon="3.0198213317208196"><ele>215.0</ele><time>2026-04-07T16:20:14.999Z</time></trkpt><trkpt lat="43.578805094632365" lon="3.0195926225601553"><ele>215.66666666666669</ele><time>2026-04-07T16:20:15.999Z</time></trkpt><trkpt lat="43.578830502231625" lon="3.019356781047951"><ele>216.33333333333331</ele><time>2026-04-07T16:20:16.999Z</time></trkpt><trkpt lat="43.57887330464925" lon="3.019124400562966"><ele>217.0</ele><time>2026-04-07T16:20:17.999Z</time></trkpt><trkpt lat="43.57889022139611" lon="3.0188963171409715"><ele>217.0</ele><time>2026-04-07T16:20:18.999Z</time></trkpt><trkpt lat="43.578905832569305" lon="3.018666416883793"><ele>217.0</ele><time>2026-04-07T16:20:19.999Z</time></trkpt><trkpt lat="43.578922768585336" lon="3.0184343944662744"><ele>217.0</ele><time>2026-04-07T16:20:20.999Z</time></trkpt><trkpt lat="43.578938743044176" lon="3.0181976894254663"><ele>218.33333333333331</ele><time>2026-04-07T16:20:21.999Z</time></trkpt><trkpt lat="43.57895273233422" lon="3.0179616173513795"><ele>219.66666666666669</ele><time>2026-04-07T16:20:22.999Z</time></trkpt><trkpt lat="43.578963472864174" lon="3.017725443646386"><ele>221.0</ele><time>2026-04-07T16:20:23.999Z</time></trkpt><trkpt lat="43.57897454106768" lon="3.017489118554329"><ele>221.66666666666669</ele><time>2026-04-07T16:20:24.999Z</time></trkpt><trkpt lat="43.578989473763734" lon="3.0172627825783325"><ele>222.33333333333331</ele><time>2026-04-07T16:20:25.999Z</time></trkpt><trkpt lat="43.579007572734604" lon="3.0170561437391132"><ele>223.0</ele><time>2026-04-07T16:20:26.999Z</time></trkpt><trkpt lat="43.579027824817636" lon="3.016853787977232"><ele>223.0</ele><time>2026-04-07T16:20:27.999Z</time></trkpt><trkpt lat="43.579050143709715" lon="3.0166557922934496"><ele>223.0</ele><time>2026-04-07T16:20:28.999Z</time></trkpt><trkpt lat="43.579088720005174" lon="3.0164671305269617"><ele>223.0</ele><time>2026-04-07T16:20:29.999Z</time></trkpt><trkpt lat="43.579136524776054" lon="3.016286180233638"><ele>223.0</ele><time>2026-04-07T16:20:30.999Z</time></trkpt><trkpt lat="43.57920524192332" lon="3.0161088613259928"><ele>223.0</ele><time>2026-04-07T16:20:31.999Z</time></trkpt><trkpt lat="43.57929339574386" lon="3.0159394902439374"><ele>223.0</ele><time>2026-04-07T16:20:32.999Z</time></trkpt><trkpt lat="43.57938310130863" lon="3.015797514179362"><ele>223.0</ele><time>2026-04-07T16:20:33.999Z</time></trkpt><trkpt lat="43.57949116694551" lon="3.0156521187920333"><ele>223.0</ele><time>2026-04-07T16:20:34.999Z</time></trkpt><trkpt lat="43.57960453325875" lon="3.0155281836111874"><ele>223.0</ele><time>2026-04-07T16:20:35.999Z</time></trkpt><trkpt lat="43.579710325446904" lon="3.015388157962289"><ele>223.0</ele><time>2026-04-07T16:20:36.999Z</time></trkpt><trkpt lat="43.57981103544999" lon="3.015256550155759"><ele>223.0</ele><time>2026-04-07T16:20:37.998Z</time></trkpt><trkpt lat="43.57991657097376" lon="3.0151081808605866"><ele>223.0</ele><time>2026-04-07T16:20:38.998Z</time></trkpt><trkpt lat="43.58002102677455" lon="3.0149839858730085"><ele>221.0</ele><time>2026-04-07T16:20:39.998Z</time></trkpt><trkpt lat="43.580113990486176" lon="3.0148427404590796"><ele>219.0</ele><time>2026-04-07T16:20:40.998Z</time></trkpt><trkpt lat="43.58019582817014" lon="3.0147060439691122"><ele>217.0</ele><time>2026-04-07T16:20:41.998Z</time></trkpt><trkpt lat="43.580256475309426" lon="3.0145644051036204"><ele>215.0</ele><time>2026-04-07T16:20:42.998Z</time></trkpt><trkpt lat="43.580275450048056" lon="3.0144061636583586"><ele>215.0</ele><time>2026-04-07T16:20:43.998Z</time></trkpt><trkpt lat="43.58029577798114" lon="3.014259064201478"><ele>215.0</ele><time>2026-04-07T16:20:44.998Z</time></trkpt><trkpt lat="43.58032186489625" lon="3.0141234828522623"><ele>215.0</ele><time>2026-04-07T16:20:45.998Z</time></trkpt><trkpt lat="43.58035083382302" lon="3.013998055689084"><ele>215.0</ele><time>2026-04-07T16:20:46.998Z</time></trkpt><trkpt lat="43.58038403588218" lon="3.01387950059254"><ele>215.0</ele><time>2026-04-07T16:20:47.998Z</time></trkpt><trkpt lat="43.580447297285716" lon="3.0137743310985283"><ele>215.6</ele><time>2026-04-07T16:20:48.998Z</time></trkpt><trkpt lat="43.5805189592372" lon="3.013684058592454"><ele>216.2</ele><time>2026-04-07T16:20:49.998Z</time></trkpt><trkpt lat="43.580589578124474" lon="3.0135672526544206"><ele>216.8</ele><time>2026-04-07T16:20:50.998Z</time></trkpt><trkpt lat="43.58068019727853" lon="3.013483310109799"><ele>217.4</ele><time>2026-04-07T16:20:51.998Z</time></trkpt><trkpt lat="43.58075638220042" lon="3.013376332955723"><ele>218.0</ele><time>2026-04-07T16:20:52.998Z</time></trkpt><trkpt lat="43.580828121215035" lon="3.013261164309979"><ele>218.0</ele><time>2026-04-07T16:20:53.998Z</time></trkpt><trkpt lat="43.580887365303205" lon="3.013138989846568"><ele>218.0</ele><time>2026-04-07T16:20:54.998Z</time></trkpt><trkpt lat="43.580937206962986" lon="3.0130030618336887"><ele>218.0</ele><time>2026-04-07T16:20:55.998Z</time></trkpt><trkpt lat="43.580964891676395" lon="3.0128624919107563"><ele>218.0</ele><time>2026-04-07T16:20:56.998Z</time></trkpt><trkpt lat="43.58097138011141" lon="3.0127148311102583"><ele>218.0</ele><time>2026-04-07T16:20:57.998Z</time></trkpt><trkpt lat="43.580959608200374" lon="3.0125843000998604"><ele>218.50000000000003</ele><time>2026-04-07T16:20:58.998Z</time></trkpt><trkpt lat="43.580936863242215" lon="3.0124655326767718"><ele>219.0</ele><time>2026-04-07T16:20:59.998Z</time></trkpt><trkpt lat="43.58091004222269" lon="3.0123581367505627"><ele>219.5</ele><time>2026-04-07T16:21:00.998Z</time></trkpt><trkpt lat="43.580882114467386" lon="3.012257838613027"><ele>220.0</ele><time>2026-04-07T16:21:01.998Z</time></trkpt><trkpt lat="43.580854060140055" lon="3.012150353865307"><ele>220.50000000000003</ele><time>2026-04-07T16:21:02.998Z</time></trkpt><trkpt lat="43.58083322637866" lon="3.012063500064097"><ele>221.0</ele><time>2026-04-07T16:21:03.998Z</time></trkpt><trkpt lat="43.580828639603965" lon="3.0119673221343906"><ele>221.0</ele><time>2026-04-07T16:21:05.998Z</time></trkpt><trkpt lat="43.58077389599049" lon="3.0118342749993157"><ele>221.00000000000003</ele><time>2026-04-07T16:22:30.999Z</time></trkpt><trkpt lat="43.58070978551748" lon="3.0117558771965527"><ele>221.00000000000003</ele><time>2026-04-07T16:22:33.999Z</time></trkpt><trkpt lat="43.58065770395509" lon="3.011689493106627"><ele>221.0</ele><time>2026-04-07T16:22:34.999Z</time></trkpt><trkpt lat="43.58058745892947" lon="3.011565103964226"><ele>221.0</ele><time>2026-04-07T16:22:36.999Z</time></trkpt><trkpt lat="43.58055662415405" lon="3.011475070363642"><ele>219.20000000000002</ele><time>2026-04-07T16:22:37.999Z</time></trkpt><trkpt lat="43.58052433902736" lon="3.011395357506855"><ele>217.40000000000003</ele><time>2026-04-07T16:22:38.999Z</time></trkpt><trkpt lat="43.58046112328789" lon="3.0112640116446614"><ele>215.6</ele><time>2026-04-07T16:22:39.999Z</time></trkpt><trkpt lat="43.580401057900694" lon="3.011133617861637"><ele>213.8</ele><time>2026-04-07T16:22:40.998Z</time></trkpt><trkpt lat="43.580341547515154" lon="3.011016189994924"><ele>212.0</ele><time>2026-04-07T16:22:41.998Z</time></trkpt><trkpt lat="43.580264948359705" lon="3.010935923658154"><ele>212.0</ele><time>2026-04-07T16:22:42.998Z</time></trkpt><trkpt lat="43.58018256390577" lon="3.0108767158802565"><ele>212.0</ele><time>2026-04-07T16:22:43.998Z</time></trkpt><trkpt lat="43.5801121116834" lon="3.010810488241427"><ele>212.0</ele><time>2026-04-07T16:22:44.998Z</time></trkpt><trkpt lat="43.58004433308989" lon="3.010721205688037"><ele>212.0</ele><time>2026-04-07T16:22:45.998Z</time></trkpt><trkpt lat="43.57996712771597" lon="3.010630673067484"><ele>212.0</ele><time>2026-04-07T16:22:46.998Z</time></trkpt><trkpt lat="43.579931021428614" lon="3.0105035914275864"><ele>214.2</ele><time>2026-04-07T16:22:47.998Z</time></trkpt><trkpt lat="43.57989261290965" lon="3.010372895654748"><ele>216.39999999999998</ele><time>2026-04-07T16:22:48.998Z</time></trkpt><trkpt lat="43.579839194578014" lon="3.0102564805901673"><ele>218.60000000000002</ele><time>2026-04-07T16:22:49.998Z</time></trkpt><trkpt lat="43.57981377229189" lon="3.0101264755329313"><ele>220.8</ele><time>2026-04-07T16:22:50.998Z</time></trkpt><trkpt lat="43.57977858986507" lon="3.0100073961225364"><ele>223.0</ele><time>2026-04-07T16:22:51.998Z</time></trkpt><trkpt lat="43.57973449945891" lon="3.0098860472622566"><ele>225.60000000000002</ele><time>2026-04-07T16:22:52.998Z</time></trkpt><trkpt lat="43.57968458636923" lon="3.0097730325241154"><ele>228.20000000000002</ele><time>2026-04-07T16:22:53.998Z</time></trkpt><trkpt lat="43.57962849895268" lon="3.0096705923301608"><ele>230.8</ele><time>2026-04-07T16:22:54.998Z</time></trkpt><trkpt lat="43.5795764897064" lon="3.009560137661591"><ele>233.4</ele><time>2026-04-07T16:22:55.998Z</time></trkpt><trkpt lat="43.57951355042481" lon="3.0094494799820373"><ele>236.0</ele><time>2026-04-07T16:22:56.998Z</time></trkpt><trkpt lat="43.579451082208166" lon="3.009329588082742"><ele>230.75</ele><time>2026-04-07T16:22:57.998Z</time></trkpt><trkpt lat="43.57938345662492" lon="3.0092070362968517"><ele>225.5</ele><time>2026-04-07T16:22:58.998Z</time></trkpt><trkpt lat="43.57931817082064" lon="3.009080611381261"><ele>220.25</ele><time>2026-04-07T16:22:59.998Z</time></trkpt><trkpt lat="43.57925301722069" lon="3.0089594499421315"><ele>215.0</ele><time>2026-04-07T16:23:00.998Z</time></trkpt><trkpt lat="43.579182449254105" lon="3.0088312984971237"><ele>215.0</ele><time>2026-04-07T16:23:01.998Z</time></trkpt><trkpt lat="43.579115243005184" lon="3.0086666903232575"><ele>215.0</ele><time>2026-04-07T16:23:02.998Z</time></trkpt><trkpt lat="43.579075147218795" lon="3.0085861931445077"><ele>215.0</ele><time>2026-04-07T16:23:03.998Z</time></trkpt><trkpt lat="43.5790165913273" lon="3.008482130178706"><ele>215.0</ele><time>2026-04-07T16:23:04.998Z</time></trkpt><trkpt lat="43.57895562013167" lon="3.0083823853182294"><ele>215.0</ele><time>2026-04-07T16:23:05.998Z</time></trkpt><trkpt lat="43.5789027547311" lon="3.0082716428492478"><ele>213.2</ele><time>2026-04-07T16:23:06.998Z</time></trkpt><trkpt lat="43.57883763500319" lon="3.0081771260021273"><ele>211.4</ele><time>2026-04-07T16:23:07.998Z</time></trkpt><trkpt lat="43.57876481395664" lon="3.0080974673807095"><ele>209.60000000000002</ele><time>2026-04-07T16:23:08.998Z</time></trkpt><trkpt lat="43.578692087695806" lon="3.0080229215990073"><ele>207.8</ele><time>2026-04-07T16:23:09.998Z</time></trkpt><trkpt lat="43.5786238202394" lon="3.0079414186855833"><ele>206.0</ele><time>2026-04-07T16:23:10.998Z</time></trkpt><trkpt lat="43.57856932389737" lon="3.0078570144414463"><ele>206.0</ele><time>2026-04-07T16:23:11.998Z</time></trkpt><trkpt lat="43.5785037881957" lon="3.007775621998025"><ele>206.0</ele><time>2026-04-07T16:23:12.998Z</time></trkpt><trkpt lat="43.5784191185221" lon="3.0076916623086514"><ele>206.0</ele><time>2026-04-07T16:23:13.998Z</time></trkpt><trkpt lat="43.57833176554265" lon="3.0076005588909926"><ele>206.0</ele><time>2026-04-07T16:23:14.998Z</time></trkpt><trkpt lat="43.57824454927244" lon="3.007491227002146"><ele>206.0</ele><time>2026-04-07T16:23:15.998Z</time></trkpt><trkpt lat="43.57815332991049" lon="3.007379521130184"><ele>207.5</ele><time>2026-04-07T16:23:16.998Z</time></trkpt><trkpt lat="43.57808909782486" lon="3.0072503011134124"><ele>209.0</ele><time>2026-04-07T16:23:17.998Z</time></trkpt><trkpt lat="43.578024558518855" lon="3.0071122481409662"><ele>210.5</ele><time>2026-04-07T16:23:19Z</time></trkpt><trkpt lat="43.57797039481363" lon="3.0069639804156716"><ele>212.0</ele><time>2026-04-07T16:23:20Z</time></trkpt><trkpt lat="43.57792829717413" lon="3.0068168471751897"><ele>212.75</ele><time>2026-04-07T16:23:21Z</time></trkpt><trkpt lat="43.577883676340505" lon="3.006653781694667"><ele>213.5</ele><time>2026-04-07T16:23:22Z</time></trkpt><trkpt lat="43.577843453592884" lon="3.00649556929825"><ele>214.25</ele><time>2026-04-07T16:23:23Z</time></trkpt><trkpt lat="43.57779460396656" lon="3.0063416667528826"><ele>215.0</ele><time>2026-04-07T16:23:24Z</time></trkpt><trkpt lat="43.57774989797432" lon="3.006180346887607"><ele>211.0</ele><time>2026-04-07T16:23:25Z</time></trkpt><trkpt lat="43.57770307078048" lon="3.0060108861356905"><ele>207.0</ele><time>2026-04-07T16:23:26Z</time></trkpt><trkpt lat="43.577650615283396" lon="3.0058458450741554"><ele>203.0</ele><time>2026-04-07T16:23:27Z</time></trkpt><trkpt lat="43.57758942557284" lon="3.0056766950183382"><ele>199.0</ele><time>2026-04-07T16:23:28Z</time></trkpt><trkpt lat="43.57752681544336" lon="3.005479513967313"><ele>199.0</ele><time>2026-04-07T16:23:29Z</time></trkpt><trkpt lat="43.57747626036509" lon="3.0052702051857514"><ele>199.0</ele><time>2026-04-07T16:23:30Z</time></trkpt><trkpt lat="43.57742631731116" lon="3.0050478633965794"><ele>199.0</ele><time>2026-04-07T16:23:31Z</time></trkpt><trkpt lat="43.577369826837455" lon="3.004818616038363"><ele>199.66666666666666</ele><time>2026-04-07T16:23:32Z</time></trkpt><trkpt lat="43.57731000917855" lon="3.004581861767744"><ele>200.33333333333331</ele><time>2026-04-07T16:23:33Z</time></trkpt><trkpt lat="43.577246331034004" lon="3.0043441890094784"><ele>201.0</ele><time>2026-04-07T16:23:34Z</time></trkpt><trkpt lat="43.57718340751841" lon="3.004105072629729"><ele>201.33333333333331</ele><time>2026-04-07T16:23:35Z</time></trkpt><trkpt lat="43.57712297466953" lon="3.003863130239278"><ele>201.66666666666666</ele><time>2026-04-07T16:23:36Z</time></trkpt><trkpt lat="43.57706174355208" lon="3.003621069651277"><ele>202.0</ele><time>2026-04-07T16:23:37Z</time></trkpt><trkpt lat="43.57700240753571" lon="3.003376092529757"><ele>196.33333333333331</ele><time>2026-04-07T16:23:38Z</time></trkpt><trkpt lat="43.57694157250881" lon="3.0031313172675986"><ele>190.66666666666666</ele><time>2026-04-07T16:23:39Z</time></trkpt><trkpt lat="43.57687980822355" lon="3.0028801602075"><ele>185.0</ele><time>2026-04-07T16:23:40Z</time></trkpt><trkpt lat="43.57681839871903" lon="3.002618929270692"><ele>184.66666666666666</ele><time>2026-04-07T16:23:41Z</time></trkpt><trkpt lat="43.57676057023082" lon="3.0023551977002225"><ele>184.33333333333334</ele><time>2026-04-07T16:23:42Z</time></trkpt><trkpt lat="43.57669920118977" lon="3.0020858446559937"><ele>184.0</ele><time>2026-04-07T16:23:43Z</time></trkpt><trkpt lat="43.57664005400557" lon="3.0018084706147183"><ele>185.33333333333334</ele><time>2026-04-07T16:23:44Z</time></trkpt><trkpt lat="43.57657795381715" lon="3.001525698854723"><ele>186.66666666666666</ele><time>2026-04-07T16:23:45Z</time></trkpt><trkpt lat="43.5765122609681" lon="3.001240877583275"><ele>188.0</ele><time>2026-04-07T16:23:46Z</time></trkpt><trkpt lat="43.57644690661297" lon="3.000963510783485"><ele>188.0</ele><time>2026-04-07T16:23:47Z</time></trkpt><trkpt lat="43.57638248693193" lon="3.0006932804108897"><ele>188.0</ele><time>2026-04-07T16:23:48Z</time></trkpt><trkpt lat="43.576315070128985" lon="3.0004180985706657"><ele>188.0</ele><time>2026-04-07T16:23:49Z</time></trkpt><trkpt lat="43.57624317220284" lon="3.0001494825438533"><ele>185.0</ele><time>2026-04-07T16:23:50Z</time></trkpt><trkpt lat="43.57615469629136" lon="2.999877285520388"><ele>182.0</ele><time>2026-04-07T16:23:51Z</time></trkpt><trkpt lat="43.576057102972555" lon="2.9996135258733863"><ele>179.0</ele><time>2026-04-07T16:23:52Z</time></trkpt><trkpt lat="43.57594656540831" lon="2.9993610049339336"><ele>177.66666666666666</ele><time>2026-04-07T16:23:53Z</time></trkpt><trkpt lat="43.575823484833684" lon="2.9991192177634787"><ele>176.33333333333334</ele><time>2026-04-07T16:23:54Z</time></trkpt><trkpt lat="43.57568426840352" lon="2.998895141219544"><ele>175.0</ele><time>2026-04-07T16:23:55Z</time></trkpt><trkpt lat="43.575536007891216" lon="2.9986815318032436"><ele>175.0</ele><time>2026-04-07T16:23:56Z</time></trkpt><trkpt lat="43.575386827821575" lon="2.9984714516824638"><ele>175.0</ele><time>2026-04-07T16:23:57Z</time></trkpt><trkpt lat="43.575234130133246" lon="2.9982597299518603"><ele>175.0</ele><time>2026-04-07T16:23:58Z</time></trkpt><trkpt lat="43.575076653927404" lon="2.998037860588146"><ele>174.33333333333334</ele><time>2026-04-07T16:23:59Z</time></trkpt><trkpt lat="43.574923724050066" lon="2.9978134790326973"><ele>173.66666666666666</ele><time>2026-04-07T16:24:00Z</time></trkpt><trkpt lat="43.574765716874786" lon="2.9975911793148526"><ele>173.0</ele><time>2026-04-07T16:24:00.999Z</time></trkpt><trkpt lat="43.57460905445344" lon="2.997368168766007"><ele>172.33333333333331</ele><time>2026-04-07T16:24:01.999Z</time></trkpt><trkpt lat="43.57445985423243" lon="2.9971394916350738"><ele>171.66666666666666</ele><time>2026-04-07T16:24:02.999Z</time></trkpt><trkpt lat="43.57431571719022" lon="2.99691284813702"><ele>171.0</ele><time>2026-04-07T16:24:03.999Z</time></trkpt><trkpt lat="43.57417981132095" lon="2.996676657171171"><ele>173.66666666666666</ele><time>2026-04-07T16:24:04.999Z</time></trkpt><trkpt lat="43.574041367806444" lon="2.9964490688450747"><ele>176.33333333333331</ele><time>2026-04-07T16:24:05.999Z</time></trkpt><trkpt lat="43.573912994150824" lon="2.9962099132857705"><ele>179.0</ele><time>2026-04-07T16:24:06.999Z</time></trkpt><trkpt lat="43.573792226202514" lon="2.9959785116853506"><ele>176.33333333333331</ele><time>2026-04-07T16:24:07.999Z</time></trkpt><trkpt lat="43.57367348109786" lon="2.995746586271543"><ele>173.66666666666666</ele><time>2026-04-07T16:24:08.999Z</time></trkpt><trkpt lat="43.57355972836778" lon="2.9955224328313217"><ele>171.0</ele><time>2026-04-07T16:24:09.999Z</time></trkpt><trkpt lat="43.57344844683027" lon="2.995288216947439"><ele>171.0</ele><time>2026-04-07T16:24:10.999Z</time></trkpt><trkpt lat="43.573349108828964" lon="2.9950515685786283"><ele>171.0</ele><time>2026-04-07T16:24:11.999Z</time></trkpt><trkpt lat="43.573246968309505" lon="2.994819122903635"><ele>171.0</ele><time>2026-04-07T16:24:12.999Z</time></trkpt><trkpt lat="43.57315128373244" lon="2.9945890168020104"><ele>172.33333333333334</ele><time>2026-04-07T16:24:13.999Z</time></trkpt><trkpt lat="43.57305351879673" lon="2.994358905496779"><ele>173.66666666666669</ele><time>2026-04-07T16:24:14.999Z</time></trkpt><trkpt lat="43.57296039166958" lon="2.994133477505979"><ele>175.0</ele><time>2026-04-07T16:24:15.999Z</time></trkpt><trkpt lat="43.57287126177543" lon="2.993910157592211"><ele>176.0</ele><time>2026-04-07T16:24:16.999Z</time></trkpt><trkpt lat="43.57278655528369" lon="2.9936850283489713"><ele>177.0</ele><time>2026-04-07T16:24:17.999Z</time></trkpt><trkpt lat="43.57270248205635" lon="2.99346297429947"><ele>178.0</ele><time>2026-04-07T16:24:18.999Z</time></trkpt><trkpt lat="43.572621525047175" lon="2.9932430409176676"><ele>178.0</ele><time>2026-04-07T16:24:19.999Z</time></trkpt><trkpt lat="43.57254352247291" lon="2.9930202180312153"><ele>178.0</ele><time>2026-04-07T16:24:20.999Z</time></trkpt><trkpt lat="43.57246894468157" lon="2.992801507674557"><ele>178.0</ele><time>2026-04-07T16:24:21.999Z</time></trkpt><trkpt lat="43.57239462143582" lon="2.992586106640992"><ele>179.0</ele><time>2026-04-07T16:24:22.999Z</time></trkpt><trkpt lat="43.57232394298217" lon="2.9923471859448814"><ele>180.0</ele><time>2026-04-07T16:24:23.999Z</time></trkpt><trkpt lat="43.57225186152996" lon="2.9921400621572216"><ele>181.0</ele><time>2026-04-07T16:24:24.999Z</time></trkpt><trkpt lat="43.57218400035961" lon="2.9919228344283524"><ele>181.0</ele><time>2026-04-07T16:24:25.999Z</time></trkpt><trkpt lat="43.57211881867958" lon="2.9916978315356837"><ele>181.0</ele><time>2026-04-07T16:24:26.999Z</time></trkpt><trkpt lat="43.57205907099086" lon="2.9914713360272214"><ele>181.0</ele><time>2026-04-07T16:24:27.999Z</time></trkpt><trkpt lat="43.57200005608342" lon="2.9912494424052336"><ele>182.33333333333334</ele><time>2026-04-07T16:24:28.999Z</time></trkpt><trkpt lat="43.57194391590373" lon="2.991029990330335"><ele>183.66666666666666</ele><time>2026-04-07T16:24:29.999Z</time></trkpt><trkpt lat="43.57189100400169" lon="2.9908081587888327"><ele>185.0</ele><time>2026-04-07T16:24:30.999Z</time></trkpt><trkpt lat="43.571846057622004" lon="2.990584328198657"><ele>185.0</ele><time>2026-04-07T16:24:31.999Z</time></trkpt><trkpt lat="43.57180247201819" lon="2.9903584052795233"><ele>185.0</ele><time>2026-04-07T16:24:32.999Z</time></trkpt><trkpt lat="43.57175983878699" lon="2.990138066268185"><ele>185.0</ele><time>2026-04-07T16:24:33.999Z</time></trkpt><trkpt lat="43.57171680003674" lon="2.9899134725710588"><ele>187.33333333333331</ele><time>2026-04-07T16:24:34.999Z</time></trkpt><trkpt lat="43.57167330090854" lon="2.9896946296837745"><ele>189.66666666666666</ele><time>2026-04-07T16:24:35.999Z</time></trkpt><trkpt lat="43.571632117895476" lon="2.9894793170364826"><ele>192.0</ele><time>2026-04-07T16:24:36.999Z</time></trkpt><trkpt lat="43.5715794029186" lon="2.9892663299666657"><ele>193.33333333333331</ele><time>2026-04-07T16:24:37.999Z</time></trkpt><trkpt lat="43.57154372227746" lon="2.9890474306470494"><ele>194.66666666666666</ele><time>2026-04-07T16:24:38.999Z</time></trkpt><trkpt lat="43.57149850022426" lon="2.9888354264114385"><ele>196.0</ele><time>2026-04-07T16:24:39.999Z</time></trkpt><trkpt lat="43.57136831094911" lon="2.9886542697329928"><ele>196.0</ele><time>2026-04-07T16:24:40.999Z</time></trkpt><trkpt lat="43.5712630435133" lon="2.988472944067453"><ele>196.0</ele><time>2026-04-07T16:24:41.999Z</time></trkpt><trkpt lat="43.571145136169456" lon="2.9883017854339244"><ele>196.0</ele><time>2026-04-07T16:24:42.999Z</time></trkpt><trkpt lat="43.571017438937616" lon="2.9881453986297393"><ele>194.33333333333331</ele><time>2026-04-07T16:24:43.999Z</time></trkpt><trkpt lat="43.57087906231871" lon="2.9880093868105546"><ele>192.66666666666666</ele><time>2026-04-07T16:24:44.999Z</time></trkpt><trkpt lat="43.5707303456274" lon="2.9878854844308314"><ele>191.0</ele><time>2026-04-07T16:24:45.998Z</time></trkpt><trkpt lat="43.57057709138243" lon="2.987768782898628"><ele>191.0</ele><time>2026-04-07T16:24:46.998Z</time></trkpt><trkpt lat="43.57041331362783" lon="2.9876488583956164"><ele>191.0</ele><time>2026-04-07T16:24:47.998Z</time></trkpt><trkpt lat="43.57025488113972" lon="2.987530853627582"><ele>191.0</ele><time>2026-04-07T16:24:48.998Z</time></trkpt><trkpt lat="43.57009425012949" lon="2.9874095679268016"><ele>193.0</ele><time>2026-04-07T16:24:49.998Z</time></trkpt><trkpt lat="43.56993936096503" lon="2.9872842981015717"><ele>195.0</ele><time>2026-04-07T16:24:50.998Z</time></trkpt><trkpt lat="43.569784165623034" lon="2.987172888351527"><ele>197.0</ele><time>2026-04-07T16:24:51.998Z</time></trkpt><trkpt lat="43.56963649343117" lon="2.987058115248532"><ele>189.0</ele><time>2026-04-07T16:24:52.998Z</time></trkpt><trkpt lat="43.56949018675346" lon="2.986936747089171"><ele>181.0</ele><time>2026-04-07T16:24:53.998Z</time></trkpt><trkpt lat="43.56932116511022" lon="2.986862216464132"><ele>173.0</ele><time>2026-04-07T16:24:54.998Z</time></trkpt><trkpt lat="43.5691586437037" lon="2.986777926402909"><ele>173.0</ele><time>2026-04-07T16:24:55.998Z</time></trkpt><trkpt lat="43.56899961621621" lon="2.9866960889786136"><ele>173.0</ele><time>2026-04-07T16:24:56.998Z</time></trkpt><trkpt lat="43.568852620378465" lon="2.9865996688715803"><ele>173.0</ele><time>2026-04-07T16:24:57.998Z</time></trkpt><trkpt lat="43.568689457077234" lon="2.9865188527728614"><ele>179.33333333333331</ele><time>2026-04-07T16:24:58.998Z</time></trkpt><trkpt lat="43.56853163526325" lon="2.986443498848824"><ele>185.66666666666666</ele><time>2026-04-07T16:24:59.998Z</time></trkpt><trkpt lat="43.568384218806216" lon="2.9863584477369125"><ele>192.0</ele><time>2026-04-07T16:25:00.998Z</time></trkpt><trkpt lat="43.568256538292054" lon="2.986252943716277"><ele>192.0</ele><time>2026-04-07T16:25:01.998Z</time></trkpt><trkpt lat="43.56814602131023" lon="2.986132785950735"><ele>192.0</ele><time>2026-04-07T16:25:02.998Z</time></trkpt><trkpt lat="43.56805161673456" lon="2.985985008201003"><ele>192.0</ele><time>2026-04-07T16:25:03.998Z</time></trkpt><trkpt lat="43.567982835585575" lon="2.9858056242210225"><ele>192.0</ele><time>2026-04-07T16:25:04.998Z</time></trkpt><trkpt lat="43.56793957817446" lon="2.9856026070352875"><ele>194.66666666666669</ele><time>2026-04-07T16:25:05.998Z</time></trkpt><trkpt lat="43.56793128174313" lon="2.985388355420498"><ele>197.33333333333334</ele><time>2026-04-07T16:25:06.998Z</time></trkpt><trkpt lat="43.56795942697309" lon="2.9851734048971874"><ele>200.0</ele><time>2026-04-07T16:25:07.998Z</time></trkpt><trkpt lat="43.56801131737269" lon="2.9849819306108447"><ele>200.0</ele><time>2026-04-07T16:25:08.998Z</time></trkpt><trkpt lat="43.568095746338514" lon="2.984817714234932"><ele>200.0</ele><time>2026-04-07T16:25:09.998Z</time></trkpt><trkpt lat="43.568202053481194" lon="2.984672558133081"><ele>200.0</ele><time>2026-04-07T16:25:10.998Z</time></trkpt><trkpt lat="43.56832318476028" lon="2.9845427968799507"><ele>200.0</ele><time>2026-04-07T16:25:11.998Z</time></trkpt><trkpt lat="43.56845512054466" lon="2.984424581978623"><ele>200.0</ele><time>2026-04-07T16:25:12.998Z</time></trkpt><trkpt lat="43.56858780705358" lon="2.984318104412985"><ele>200.0</ele><time>2026-04-07T16:25:13.998Z</time></trkpt><trkpt lat="43.56872081400751" lon="2.9842124071542573"><ele>200.0</ele><time>2026-04-07T16:25:14.998Z</time></trkpt><trkpt lat="43.568854149664645" lon="2.9841066331464736"><ele>199.0</ele><time>2026-04-07T16:25:15.998Z</time></trkpt><trkpt lat="43.56898507442212" lon="2.983982187337496"><ele>198.0</ele><time>2026-04-07T16:25:16.998Z</time></trkpt><trkpt lat="43.5691042966374" lon="2.9838343937437184"><ele>197.0</ele><time>2026-04-07T16:25:17.998Z</time></trkpt><trkpt lat="43.569218375551564" lon="2.9836735523511413"><ele>197.0</ele><time>2026-04-07T16:25:18.998Z</time></trkpt><trkpt lat="43.56931629767535" lon="2.9835201096498984"><ele>197.0</ele><time>2026-04-07T16:25:19.998Z</time></trkpt><trkpt lat="43.56940571068613" lon="2.9833497838063177"><ele>197.0</ele><time>2026-04-07T16:25:20.998Z</time></trkpt><trkpt lat="43.56947588419287" lon="2.983173859935524"><ele>197.0</ele><time>2026-04-07T16:25:21.998Z</time></trkpt><trkpt lat="43.56952109732787" lon="2.982984241744305"><ele>197.25</ele><time>2026-04-07T16:25:22.998Z</time></trkpt><trkpt lat="43.56956727304008" lon="2.982793965941167"><ele>197.5</ele><time>2026-04-07T16:25:23.998Z</time></trkpt><trkpt lat="43.56960228030141" lon="2.982615958794313"><ele>197.75</ele><time>2026-04-07T16:25:25Z</time></trkpt><trkpt lat="43.56963798623502" lon="2.9824410856090404"><ele>198.0</ele><time>2026-04-07T16:25:26Z</time></trkpt><trkpt lat="43.56967892540782" lon="2.9822700157707462"><ele>197.0</ele><time>2026-04-07T16:25:27Z</time></trkpt><trkpt lat="43.56971097159163" lon="2.9821080609822643"><ele>196.0</ele><time>2026-04-07T16:25:28Z</time></trkpt><trkpt lat="43.56972060683235" lon="2.9819399969513407"><ele>195.0</ele><time>2026-04-07T16:25:29Z</time></trkpt><trkpt lat="43.569696433239265" lon="2.981752406637053"><ele>194.0</ele><time>2026-04-07T16:25:30Z</time></trkpt><trkpt lat="43.569660630393315" lon="2.981599192983023"><ele>193.5</ele><time>2026-04-07T16:25:31Z</time></trkpt><trkpt lat="43.569635185873196" lon="2.981434921405817"><ele>193.0</ele><time>2026-04-07T16:25:32Z</time></trkpt><trkpt lat="43.56965304538064" lon="2.9812655527724137"><ele>192.5</ele><time>2026-04-07T16:25:33Z</time></trkpt><trkpt lat="43.569675667830346" lon="2.9810919153972923"><ele>192.0</ele><time>2026-04-07T16:25:34Z</time></trkpt><trkpt lat="43.56968862353907" lon="2.9809140478009377"><ele>191.0</ele><time>2026-04-07T16:25:35Z</time></trkpt><trkpt lat="43.56970974477264" lon="2.9807383548320625"><ele>190.0</ele><time>2026-04-07T16:25:36Z</time></trkpt><trkpt lat="43.56972984389049" lon="2.9805603210941936"><ele>189.0</ele><time>2026-04-07T16:25:37Z</time></trkpt><trkpt lat="43.569749222664846" lon="2.9803881138633974"><ele>188.0</ele><time>2026-04-07T16:25:38Z</time></trkpt><trkpt lat="43.56977239911735" lon="2.980227248742077"><ele>188.0</ele><time>2026-04-07T16:25:39Z</time></trkpt><trkpt lat="43.56978910814221" lon="2.9800669944109877"><ele>188.0</ele><time>2026-04-07T16:25:40Z</time></trkpt><trkpt lat="43.56981022040762" lon="2.9799000924715706"><ele>188.0</ele><time>2026-04-07T16:25:41Z</time></trkpt><trkpt lat="43.56983332921871" lon="2.9797418623358816"><ele>188.0</ele><time>2026-04-07T16:25:42Z</time></trkpt><trkpt lat="43.569867408947935" lon="2.979588208371716"><ele>187.0</ele><time>2026-04-07T16:25:43Z</time></trkpt><trkpt lat="43.569924307095064" lon="2.9794412374718613"><ele>186.0</ele><time>2026-04-07T16:25:44Z</time></trkpt><trkpt lat="43.57000261830059" lon="2.9792917090283217"><ele>185.0</ele><time>2026-04-07T16:25:45Z</time></trkpt><trkpt lat="43.57010774413082" lon="2.9791612638284812"><ele>184.0</ele><time>2026-04-07T16:25:46Z</time></trkpt><trkpt lat="43.570218851749125" lon="2.9790407947324518"><ele>184.75</ele><time>2026-04-07T16:25:47Z</time></trkpt><trkpt lat="43.57032178870609" lon="2.978914619928409"><ele>185.5</ele><time>2026-04-07T16:25:48Z</time></trkpt><trkpt lat="43.57037752608017" lon="2.978745796758034"><ele>186.25</ele><time>2026-04-07T16:25:49Z</time></trkpt><trkpt lat="43.57038450472399" lon="2.9785373671987947"><ele>187.0</ele><time>2026-04-07T16:25:50Z</time></trkpt><trkpt lat="43.570351110502045" lon="2.9783359689194127"><ele>182.33333333333334</ele><time>2026-04-07T16:25:51Z</time></trkpt><trkpt lat="43.57028101822879" lon="2.9781458757305685"><ele>177.66666666666666</ele><time>2026-04-07T16:25:52Z</time></trkpt><trkpt lat="43.57018325133122" lon="2.9779769782636025"><ele>173.0</ele><time>2026-04-07T16:25:53Z</time></trkpt><trkpt lat="43.57006403442101" lon="2.9778311410252787"><ele>173.0</ele><time>2026-04-07T16:25:54Z</time></trkpt><trkpt lat="43.56992404391805" lon="2.977708822448548"><ele>173.0</ele><time>2026-04-07T16:25:55Z</time></trkpt><trkpt lat="43.56977868312844" lon="2.977631402429163"><ele>173.0</ele><time>2026-04-07T16:25:56Z</time></trkpt><trkpt lat="43.56963673028006" lon="2.9775797821201"><ele>171.25</ele><time>2026-04-07T16:25:57Z</time></trkpt><trkpt lat="43.56948836545204" lon="2.9775483407119614"><ele>169.5</ele><time>2026-04-07T16:25:58Z</time></trkpt><trkpt lat="43.56934333624721" lon="2.977521216880653"><ele>167.75</ele><time>2026-04-07T16:25:59Z</time></trkpt><trkpt lat="43.56920749352268" lon="2.97746840113446"><ele>166.0</ele><time>2026-04-07T16:26:00Z</time></trkpt><trkpt lat="43.56906775864422" lon="2.9773566017880033"><ele>165.33333333333334</ele><time>2026-04-07T16:26:01Z</time></trkpt><trkpt lat="43.56897427631236" lon="2.9771664171191605"><ele>164.66666666666666</ele><time>2026-04-07T16:26:02Z</time></trkpt><trkpt lat="43.568890712057154" lon="2.976947487585227"><ele>164.0</ele><time>2026-04-07T16:26:03Z</time></trkpt><trkpt lat="43.568815331649404" lon="2.976720282476155"><ele>166.66666666666666</ele><time>2026-04-07T16:26:04Z</time></trkpt><trkpt lat="43.568725916540615" lon="2.9765010442015507"><ele>169.33333333333334</ele><time>2026-04-07T16:26:04.999Z</time></trkpt><trkpt lat="43.56863588628827" lon="2.976290786565578"><ele>172.0</ele><time>2026-04-07T16:26:05.999Z</time></trkpt><trkpt lat="43.568530061277606" lon="2.9760906003961796"><ele>168.0</ele><time>2026-04-07T16:26:06.999Z</time></trkpt><trkpt lat="43.568390839437555" lon="2.9759222764527578"><ele>164.0</ele><time>2026-04-07T16:26:07.999Z</time></trkpt><trkpt lat="43.568244255963045" lon="2.9757592818919782"><ele>160.0</ele><time>2026-04-07T16:26:08.999Z</time></trkpt><trkpt lat="43.56810403861297" lon="2.9756058411087305"><ele>160.0</ele><time>2026-04-07T16:26:09.999Z</time></trkpt><trkpt lat="43.56798883139161" lon="2.975421719035416"><ele>160.0</ele><time>2026-04-07T16:26:10.999Z</time></trkpt><trkpt lat="43.56788162050755" lon="2.975240084464073"><ele>160.0</ele><time>2026-04-07T16:26:11.999Z</time></trkpt><trkpt lat="43.56776594925277" lon="2.975070789599541"><ele>155.0</ele><time>2026-04-07T16:26:12.999Z</time></trkpt><trkpt lat="43.567663800815495" lon="2.974886123019264"><ele>150.0</ele><time>2026-04-07T16:26:13.999Z</time></trkpt><trkpt lat="43.56756133497559" lon="2.974715888580001"><ele>145.0</ele><time>2026-04-07T16:26:14.999Z</time></trkpt><trkpt lat="43.567441416279955" lon="2.974579368367503"><ele>145.0</ele><time>2026-04-07T16:26:15.999Z</time></trkpt><trkpt lat="43.56731647127731" lon="2.97444528899067"><ele>145.0</ele><time>2026-04-07T16:26:16.999Z</time></trkpt><trkpt lat="43.56716952036903" lon="2.9743460594864652"><ele>145.0</ele><time>2026-04-07T16:26:17.999Z</time></trkpt><trkpt lat="43.56701264281992" lon="2.974286274763749"><ele>144.33333333333334</ele><time>2026-04-07T16:26:18.999Z</time></trkpt><trkpt lat="43.56683938794038" lon="2.9742882504054546"><ele>143.66666666666666</ele><time>2026-04-07T16:26:19.999Z</time></trkpt><trkpt lat="43.56666840713842" lon="2.9743022017630794"><ele>143.0</ele><time>2026-04-07T16:26:20.999Z</time></trkpt><trkpt lat="43.56650947413659" lon="2.9743195745392885"><ele>143.0</ele><time>2026-04-07T16:26:21.999Z</time></trkpt><trkpt lat="43.56636187616454" lon="2.9743300153634458"><ele>143.0</ele><time>2026-04-07T16:26:22.999Z</time></trkpt><trkpt lat="43.5662166049118" lon="2.9742928939053286"><ele>143.0</ele><time>2026-04-07T16:26:23.999Z</time></trkpt><trkpt lat="43.566082972178016" lon="2.9742045983756915"><ele>143.0</ele><time>2026-04-07T16:26:24.999Z</time></trkpt><trkpt lat="43.565963446590025" lon="2.9741190532045705"><ele>145.0</ele><time>2026-04-07T16:26:25.999Z</time></trkpt><trkpt lat="43.565859220185736" lon="2.97401454670216"><ele>147.0</ele><time>2026-04-07T16:26:26.999Z</time></trkpt><trkpt lat="43.565771568678414" lon="2.973903596031975"><ele>149.0</ele><time>2026-04-07T16:26:27.999Z</time></trkpt><trkpt lat="43.56570534922195" lon="2.9737919519691767"><ele>151.0</ele><time>2026-04-07T16:26:28.999Z</time></trkpt><trkpt lat="43.56565183425744" lon="2.9736816557267645"><ele>153.0</ele><time>2026-04-07T16:26:30.999Z</time></trkpt><trkpt lat="43.56547423135186" lon="2.973872782422223"><ele>153.0</ele><time>2026-04-07T16:26:31.999Z</time></trkpt><trkpt lat="43.5654067508232" lon="2.9739396734617816"><ele>153.0</ele><time>2026-04-07T16:26:32.999Z</time></trkpt><trkpt lat="43.565347533294535" lon="2.973992678503542"><ele>153.0</ele><time>2026-04-07T16:26:33.999Z</time></trkpt><trkpt lat="43.565283419286615" lon="2.9740473997541677"><ele>153.0</ele><time>2026-04-07T16:26:35.999Z</time></trkpt><trkpt lat="43.56521068139948" lon="2.9741099799983024"><ele>153.0</ele><time>2026-04-07T16:26:39.999Z</time></trkpt><trkpt lat="43.565147037278365" lon="2.9741654922616894"><ele>153.0</ele><time>2026-04-07T16:26:44.999Z</time></trkpt><trkpt lat="43.56509591369389" lon="2.974218900734714"><ele>150.20000000000002</ele><time>2026-04-07T16:26:46.999Z</time></trkpt><trkpt lat="43.56498300360521" lon="2.974320798120332"><ele>147.4</ele><time>2026-04-07T16:26:48.999Z</time></trkpt><trkpt lat="43.56489973190207" lon="2.97438280339284"><ele>144.60000000000002</ele><time>2026-04-07T16:26:49.998Z</time></trkpt><trkpt lat="43.56482884011305" lon="2.9744530413402526"><ele>141.8</ele><time>2026-04-07T16:26:50.998Z</time></trkpt><trkpt lat="43.564764073792155" lon="2.974512781921301"><ele>139.0</ele><time>2026-04-07T16:26:51.998Z</time></trkpt><trkpt lat="43.56466798635156" lon="2.97459402447797"><ele>139.0</ele><time>2026-04-07T16:26:53.998Z</time></trkpt><trkpt lat="43.56456186959167" lon="2.9746792789360303"><ele>139.0</ele><time>2026-04-07T16:26:55.998Z</time></trkpt><trkpt lat="43.56449486970722" lon="2.9747367994114633"><ele>139.0</ele><time>2026-04-07T16:26:56.998Z</time></trkpt><trkpt lat="43.564424545757944" lon="2.9747920924279248"><ele>139.0</ele><time>2026-04-07T16:26:57.998Z</time></trkpt><trkpt lat="43.564353410245324" lon="2.9748606466245584"><ele>139.0</ele><time>2026-04-07T16:26:58.998Z</time></trkpt><trkpt lat="43.564274088615" lon="2.974939134966583"><ele>138.8</ele><time>2026-04-07T16:26:59.998Z</time></trkpt><trkpt lat="43.564178918668205" lon="2.975006826585036"><ele>138.60000000000002</ele><time>2026-04-07T16:27:00.998Z</time></trkpt><trkpt lat="43.56409915967761" lon="2.9750980532532023"><ele>138.4</ele><time>2026-04-07T16:27:01.998Z</time></trkpt><trkpt lat="43.56400712148359" lon="2.975171045593619"><ele>138.20000000000002</ele><time>2026-04-07T16:27:02.998Z</time></trkpt><trkpt lat="43.563917083921254" lon="2.975245791747865"><ele>138.0</ele><time>2026-04-07T16:27:03.998Z</time></trkpt><trkpt lat="43.5638149566951" lon="2.9753262151336504"><ele>142.25</ele><time>2026-04-07T16:27:04.998Z</time></trkpt><trkpt lat="43.563715514985574" lon="2.9753946281750965"><ele>146.5</ele><time>2026-04-07T16:27:05.998Z</time></trkpt><trkpt lat="43.563604174805775" lon="2.975453911102611"><ele>150.75</ele><time>2026-04-07T16:27:06.998Z</time></trkpt><trkpt lat="43.56349006342477" lon="2.9755075774094735"><ele>155.0</ele><time>2026-04-07T16:27:07.998Z</time></trkpt><trkpt lat="43.563376446468745" lon="2.9755582377434733"><ele>155.5</ele><time>2026-04-07T16:27:08.998Z</time></trkpt><trkpt lat="43.56325379240324" lon="2.97561031299616"><ele>156.0</ele><time>2026-04-07T16:27:09.998Z</time></trkpt><trkpt lat="43.56313358005113" lon="2.9756764996077982"><ele>156.5</ele><time>2026-04-07T16:27:10.998Z</time></trkpt><trkpt lat="43.56300553487194" lon="2.975727652999589"><ele>157.0</ele><time>2026-04-07T16:27:11.998Z</time></trkpt><trkpt lat="43.56288653043122" lon="2.9757797674715216"><ele>155.75</ele><time>2026-04-07T16:27:12.998Z</time></trkpt><trkpt lat="43.5627609260807" lon="2.9758241730661297"><ele>154.5</ele><time>2026-04-07T16:27:13.998Z</time></trkpt><trkpt lat="43.562631145467904" lon="2.975873183832167"><ele>153.25</ele><time>2026-04-07T16:27:14.998Z</time></trkpt><trkpt lat="43.562501074122196" lon="2.9759343980467725"><ele>152.0</ele><time>2026-04-07T16:27:15.998Z</time></trkpt><trkpt lat="43.56237442178513" lon="2.9759837065529253"><ele>152.0</ele><time>2026-04-07T16:27:16.998Z</time></trkpt><trkpt lat="43.562251830899434" lon="2.976032185632588"><ele>152.0</ele><time>2026-04-07T16:27:17.998Z</time></trkpt><trkpt lat="43.56212075192497" lon="2.9760897046210153"><ele>152.0</ele><time>2026-04-07T16:27:18.998Z</time></trkpt><trkpt lat="43.56197810532707" lon="2.976154488174683"><ele>152.0</ele><time>2026-04-07T16:27:19.998Z</time></trkpt><trkpt lat="43.561813805771195" lon="2.976197687284498"><ele>149.66666666666666</ele><time>2026-04-07T16:27:20.998Z</time></trkpt><trkpt lat="43.56164559758026" lon="2.976260492448063"><ele>147.33333333333334</ele><time>2026-04-07T16:27:21.998Z</time></trkpt><trkpt lat="43.56148351987347" lon="2.976332365040007"><ele>145.0</ele><time>2026-04-07T16:27:22.998Z</time></trkpt><trkpt lat="43.561335200118684" lon="2.976394876596642"><ele>144.0</ele><time>2026-04-07T16:27:23.998Z</time></trkpt><trkpt lat="43.561178482396535" lon="2.9764566749252266"><ele>143.0</ele><time>2026-04-07T16:27:24.998Z</time></trkpt><trkpt lat="43.56103270477358" lon="2.9765068427076447"><ele>142.0</ele><time>2026-04-07T16:27:25.998Z</time></trkpt><trkpt lat="43.560901166998626" lon="2.9765619876656815"><ele>142.0</ele><time>2026-04-07T16:27:26.998Z</time></trkpt><trkpt lat="43.560772086914795" lon="2.9766165534385194"><ele>142.0</ele><time>2026-04-07T16:27:27.998Z</time></trkpt><trkpt lat="43.560647957773114" lon="2.976719080382303"><ele>142.0</ele><time>2026-04-07T16:27:28.998Z</time></trkpt><trkpt lat="43.56054737535969" lon="2.976866803024983"><ele>142.0</ele><time>2026-04-07T16:27:29.998Z</time></trkpt><trkpt lat="43.56048109698986" lon="2.977054922471957"><ele>142.5</ele><time>2026-04-07T16:27:31Z</time></trkpt><trkpt lat="43.56047127143072" lon="2.977258250187667"><ele>143.0</ele><time>2026-04-07T16:27:32Z</time></trkpt><trkpt lat="43.56045562927895" lon="2.977450175599233"><ele>143.5</ele><time>2026-04-07T16:27:33Z</time></trkpt><trkpt lat="43.56044801327019" lon="2.9776437279801358"><ele>144.0</ele><time>2026-04-07T16:27:34Z</time></trkpt><trkpt lat="43.560464868356206" lon="2.977838524209199"><ele>144.75</ele><time>2026-04-07T16:27:35Z</time></trkpt><trkpt lat="43.560476468909194" lon="2.9780362436092034"><ele>145.5</ele><time>2026-04-07T16:27:36Z</time></trkpt><trkpt lat="43.56049045121346" lon="2.9782712134758014"><ele>146.25</ele><time>2026-04-07T16:27:37Z</time></trkpt><trkpt lat="43.56050290494325" lon="2.97844553670872"><ele>147.0</ele><time>2026-04-07T16:27:38Z</time></trkpt><trkpt lat="43.56051256513793" lon="2.9786316588930912"><ele>147.25</ele><time>2026-04-07T16:27:39Z</time></trkpt><trkpt lat="43.56051905857274" lon="2.9788299186519924"><ele>147.5</ele><time>2026-04-07T16:27:40Z</time></trkpt><trkpt lat="43.5604949981421" lon="2.979024106178303"><ele>147.75</ele><time>2026-04-07T16:27:41Z</time></trkpt><trkpt lat="43.56043703529242" lon="2.9792069638756296"><ele>148.0</ele><time>2026-04-07T16:27:42Z</time></trkpt><trkpt lat="43.56038291052516" lon="2.9793879577851494"><ele>147.5</ele><time>2026-04-07T16:27:43Z</time></trkpt><trkpt lat="43.56033089547303" lon="2.9795741966662272"><ele>147.0</ele><time>2026-04-07T16:27:44Z</time></trkpt><trkpt lat="43.560233600782816" lon="2.979731591664066"><ele>146.5</ele><time>2026-04-07T16:27:45Z</time></trkpt><trkpt lat="43.56013552377145" lon="2.979877691214113"><ele>146.0</ele><time>2026-04-07T16:27:46Z</time></trkpt><trkpt lat="43.56002461447307" lon="2.980019343341087"><ele>148.33333333333331</ele><time>2026-04-07T16:27:47Z</time></trkpt><trkpt lat="43.55992358819033" lon="2.9801678368964666"><ele>150.66666666666666</ele><time>2026-04-07T16:27:48Z</time></trkpt><trkpt lat="43.55981762081462" lon="2.980322428800927"><ele>153.0</ele><time>2026-04-07T16:27:49Z</time></trkpt><trkpt lat="43.55973801136873" lon="2.9804994523045507"><ele>153.0</ele><time>2026-04-07T16:27:50Z</time></trkpt><trkpt lat="43.559669770036294" lon="2.980689156164797"><ele>153.0</ele><time>2026-04-07T16:27:51Z</time></trkpt><trkpt lat="43.55960452469574" lon="2.980878354562594"><ele>153.0</ele><time>2026-04-07T16:27:52Z</time></trkpt><trkpt lat="43.559519024072465" lon="2.9810587398552295"><ele>151.5</ele><time>2026-04-07T16:27:53Z</time></trkpt><trkpt lat="43.559444683938985" lon="2.9812383342486344"><ele>150.0</ele><time>2026-04-07T16:27:54Z</time></trkpt><trkpt lat="43.55936599100034" lon="2.981409608452416"><ele>148.5</ele><time>2026-04-07T16:27:55Z</time></trkpt><trkpt lat="43.55927906173313" lon="2.981565721609781"><ele>147.0</ele><time>2026-04-07T16:27:56Z</time></trkpt><trkpt lat="43.55919641094318" lon="2.9817282302949035"><ele>153.75</ele><time>2026-04-07T16:27:57Z</time></trkpt><trkpt lat="43.55910457532942" lon="2.9818796766288758"><ele>160.5</ele><time>2026-04-07T16:27:58Z</time></trkpt><trkpt lat="43.55900784997368" lon="2.9820294271618546"><ele>167.25</ele><time>2026-04-07T16:27:59Z</time></trkpt><trkpt lat="43.55890390981763" lon="2.9821678908728595"><ele>174.0</ele><time>2026-04-07T16:28:00Z</time></trkpt><trkpt lat="43.55876769401857" lon="2.9822465069255153"><ele>175.25</ele><time>2026-04-07T16:28:01Z</time></trkpt><trkpt lat="43.55863811375335" lon="2.982336873828194"><ele>176.5</ele><time>2026-04-07T16:28:02Z</time></trkpt><trkpt lat="43.55854389341327" lon="2.9824855288173917"><ele>177.75</ele><time>2026-04-07T16:28:03Z</time></trkpt><trkpt lat="43.55846758055887" lon="2.982660019972444"><ele>179.0</ele><time>2026-04-07T16:28:04Z</time></trkpt><trkpt lat="43.55839372749237" lon="2.982815764910434"><ele>179.0</ele><time>2026-04-07T16:28:05Z</time></trkpt><trkpt lat="43.5582956154125" lon="2.982968942685018"><ele>179.0</ele><time>2026-04-07T16:28:06Z</time></trkpt><trkpt lat="43.55817624844967" lon="2.9830678918153812"><ele>179.0</ele><time>2026-04-07T16:28:07Z</time></trkpt><trkpt lat="43.558053464896616" lon="2.983179607943752"><ele>179.0</ele><time>2026-04-07T16:28:08Z</time></trkpt><trkpt lat="43.55790998142017" lon="2.9831892458005043"><ele>181.75</ele><time>2026-04-07T16:28:08.999Z</time></trkpt><trkpt lat="43.5577771073691" lon="2.983226796759401"><ele>184.5</ele><time>2026-04-07T16:28:09.999Z</time></trkpt><trkpt lat="43.557674891635045" lon="2.9833133651574624"><ele>187.25</ele><time>2026-04-07T16:28:10.999Z</time></trkpt><trkpt lat="43.55761219781381" lon="2.983443711094043"><ele>190.0</ele><time>2026-04-07T16:28:11.999Z</time></trkpt><trkpt lat="43.55759144786435" lon="2.9835889133001485"><ele>190.0</ele><time>2026-04-07T16:28:12.999Z</time></trkpt><trkpt lat="43.557544746349386" lon="2.9837105311568277"><ele>190.0</ele><time>2026-04-07T16:28:13.999Z</time></trkpt><trkpt lat="43.55744719586336" lon="2.9837648795591494"><ele>190.0</ele><time>2026-04-07T16:28:14.999Z</time></trkpt><trkpt lat="43.55734376890017" lon="2.983741577829978"><ele>190.0</ele><time>2026-04-07T16:28:15.999Z</time></trkpt><trkpt lat="43.55729242147899" lon="2.98360706934091"><ele>190.0</ele><time>2026-04-07T16:28:16.999Z</time></trkpt><trkpt lat="43.5571924350565" lon="2.983519832195421"><ele>190.0</ele><time>2026-04-07T16:28:17.999Z</time></trkpt><trkpt lat="43.55709081241786" lon="2.983461927608104"><ele>190.0</ele><time>2026-04-07T16:28:18.999Z</time></trkpt><trkpt lat="43.556960676725" lon="2.983421811797841"><ele>190.0</ele><time>2026-04-07T16:28:19.999Z</time></trkpt><trkpt lat="43.55683790593209" lon="2.983409140831722"><ele>190.0</ele><time>2026-04-07T16:28:20.999Z</time></trkpt><trkpt lat="43.55671819018851" lon="2.98340365788316"><ele>191.25</ele><time>2026-04-07T16:28:21.999Z</time></trkpt><trkpt lat="43.55659650299585" lon="2.9834122785806825"><ele>192.5</ele><time>2026-04-07T16:28:22.999Z</time></trkpt><trkpt lat="43.55647642085381" lon="2.9834069471014133"><ele>193.75</ele><time>2026-04-07T16:28:23.999Z</time></trkpt><trkpt lat="43.55635781155851" lon="2.9834202552541393"><ele>195.0</ele><time>2026-04-07T16:28:24.999Z</time></trkpt><trkpt lat="43.55622584118607" lon="2.9834604612093494"><ele>195.5</ele><time>2026-04-07T16:28:25.999Z</time></trkpt><trkpt lat="43.556100934790095" lon="2.983504962220133"><ele>196.0</ele><time>2026-04-07T16:28:26.999Z</time></trkpt><trkpt lat="43.555980526184406" lon="2.983547144183531"><ele>196.5</ele><time>2026-04-07T16:28:27.999Z</time></trkpt><trkpt lat="43.55587169976932" lon="2.9835883916038726"><ele>197.0</ele><time>2026-04-07T16:28:28.999Z</time></trkpt><trkpt lat="43.55573782692849" lon="2.9835651377044714"><ele>197.0</ele><time>2026-04-07T16:28:29.999Z</time></trkpt><trkpt lat="43.55561489662001" lon="2.9835225619565184"><ele>197.0</ele><time>2026-04-07T16:28:30.999Z</time></trkpt><trkpt lat="43.555492068379536" lon="2.9834462583249333"><ele>197.0</ele><time>2026-04-07T16:28:31.999Z</time></trkpt><trkpt lat="43.55535509481527" lon="2.983356974867904"><ele>197.0</ele><time>2026-04-07T16:28:32.999Z</time></trkpt><trkpt lat="43.55523094145763" lon="2.9832587545652607"><ele>190.75</ele><time>2026-04-07T16:28:33.999Z</time></trkpt><trkpt lat="43.55510691648066" lon="2.9831896951647425"><ele>184.5</ele><time>2026-04-07T16:28:34.999Z</time></trkpt><trkpt lat="43.55497597128203" lon="2.9831542488929808"><ele>178.25</ele><time>2026-04-07T16:28:35.999Z</time></trkpt><trkpt lat="43.55485257254257" lon="2.9830640192800777"><ele>172.0</ele><time>2026-04-07T16:28:36.999Z</time></trkpt><trkpt lat="43.55473036160092" lon="2.9829813598309007"><ele>172.0</ele><time>2026-04-07T16:28:37.999Z</time></trkpt><trkpt lat="43.55460908996125" lon="2.9828770346593716"><ele>172.0</ele><time>2026-04-07T16:28:38.999Z</time></trkpt><trkpt lat="43.55448953221642" lon="2.9827603791858657"><ele>172.0</ele><time>2026-04-07T16:28:39.999Z</time></trkpt><trkpt lat="43.554371423075246" lon="2.9826430545603935"><ele>172.0</ele><time>2026-04-07T16:28:40.999Z</time></trkpt><trkpt lat="43.554247035487876" lon="2.98251930037517"><ele>170.66666666666669</ele><time>2026-04-07T16:28:41.999Z</time></trkpt><trkpt lat="43.55413317729001" lon="2.982378259455994"><ele>169.33333333333334</ele><time>2026-04-07T16:28:42.999Z</time></trkpt><trkpt lat="43.55402065161399" lon="2.9822337975115705"><ele>168.0</ele><time>2026-04-07T16:28:43.999Z</time></trkpt><trkpt lat="43.55390546313185" lon="2.9820862883042962"><ele>168.0</ele><time>2026-04-07T16:28:44.999Z</time></trkpt><trkpt lat="43.55379384641161" lon="2.9819493746548034"><ele>168.0</ele><time>2026-04-07T16:28:45.999Z</time></trkpt><trkpt lat="43.553690467844014" lon="2.981823833026041"><ele>168.0</ele><time>2026-04-07T16:28:46.999Z</time></trkpt><trkpt lat="43.55359542689235" lon="2.981701345828246"><ele>168.0</ele><time>2026-04-07T16:28:47.999Z</time></trkpt><trkpt lat="43.55349949432203" lon="2.9815846622255227"><ele>168.5</ele><time>2026-04-07T16:28:48.999Z</time></trkpt><trkpt lat="43.553402066453955" lon="2.9814665719242113"><ele>169.0</ele><time>2026-04-07T16:28:49.999Z</time></trkpt><trkpt lat="43.55330561235225" lon="2.9813454986069283"><ele>169.5</ele><time>2026-04-07T16:28:50.999Z</time></trkpt><trkpt lat="43.553209376536444" lon="2.9812284764219372"><ele>170.0</ele><time>2026-04-07T16:28:51.999Z</time></trkpt><trkpt lat="43.553102539049526" lon="2.9811283002718287"><ele>170.0</ele><time>2026-04-07T16:28:52.998Z</time></trkpt><trkpt lat="43.55298430224897" lon="2.9810908654537793"><ele>170.0</ele><time>2026-04-07T16:28:53.998Z</time></trkpt><trkpt lat="43.55286849194923" lon="2.9811224931509117"><ele>170.0</ele><time>2026-04-07T16:28:54.998Z</time></trkpt><trkpt lat="43.552746926942724" lon="2.9812249646227236"><ele>170.0</ele><time>2026-04-07T16:28:55.998Z</time></trkpt><trkpt lat="43.55264457219872" lon="2.9813754349899577"><ele>169.0</ele><time>2026-04-07T16:28:56.998Z</time></trkpt><trkpt lat="43.552545966517386" lon="2.981541647308423"><ele>168.0</ele><time>2026-04-07T16:28:57.998Z</time></trkpt><trkpt lat="43.552425319761554" lon="2.981668591606285"><ele>167.0</ele><time>2026-04-07T16:28:58.998Z</time></trkpt><trkpt lat="43.552292470740284" lon="2.9817610155034546"><ele>167.33333333333331</ele><time>2026-04-07T16:28:59.998Z</time></trkpt><trkpt lat="43.55213663677195" lon="2.981822791611488"><ele>167.66666666666666</ele><time>2026-04-07T16:29:00.998Z</time></trkpt><trkpt lat="43.55197375739163" lon="2.9818856201376325"><ele>168.0</ele><time>2026-04-07T16:29:01.998Z</time></trkpt><trkpt lat="43.55180564541754" lon="2.981920926082496"><ele>168.0</ele><time>2026-04-07T16:29:02.998Z</time></trkpt><trkpt lat="43.55165311054427" lon="2.9820043053453604"><ele>168.0</ele><time>2026-04-07T16:29:03.998Z</time></trkpt><trkpt lat="43.55150890347434" lon="2.982115749199908"><ele>168.0</ele><time>2026-04-07T16:29:04.998Z</time></trkpt><trkpt lat="43.55137227890876" lon="2.9822393920526102"><ele>168.0</ele><time>2026-04-07T16:29:05.998Z</time></trkpt><trkpt lat="43.55124842038354" lon="2.982350362224435"><ele>168.0</ele><time>2026-04-07T16:29:06.998Z</time></trkpt><trkpt lat="43.55112055770164" lon="2.982462412885593"><ele>168.0</ele><time>2026-04-07T16:29:07.998Z</time></trkpt><trkpt lat="43.55099882601265" lon="2.9825590981483963"><ele>168.0</ele><time>2026-04-07T16:29:08.998Z</time></trkpt><trkpt lat="43.55087888010408" lon="2.9826007846058173"><ele>166.60000000000002</ele><time>2026-04-07T16:29:09.998Z</time></trkpt><trkpt lat="43.55076589976579" lon="2.9825821781356536"><ele>165.20000000000002</ele><time>2026-04-07T16:29:10.998Z</time></trkpt><trkpt lat="43.550666008339384" lon="2.9825703181913155"><ele>163.8</ele><time>2026-04-07T16:29:11.998Z</time></trkpt><trkpt lat="43.55060342314473" lon="2.9824772104582977"><ele>162.4</ele><time>2026-04-07T16:29:12.998Z</time></trkpt><trkpt lat="43.550607439420666" lon="2.9823329318514062"><ele>161.0</ele><time>2026-04-07T16:29:13.998Z</time></trkpt><trkpt lat="43.55061132100169" lon="2.982154879789403"><ele>161.0</ele><time>2026-04-07T16:29:14.998Z</time></trkpt><trkpt lat="43.55061324894036" lon="2.9819668959404146"><ele>161.0</ele><time>2026-04-07T16:29:15.998Z</time></trkpt><trkpt lat="43.55057496170986" lon="2.9817881179818557"><ele>161.0</ele><time>2026-04-07T16:29:16.998Z</time></trkpt><trkpt lat="43.55051896897028" lon="2.981610409576256"><ele>161.0</ele><time>2026-04-07T16:29:17.998Z</time></trkpt><trkpt lat="43.55044874559912" lon="2.981434467083351"><ele>165.0</ele><time>2026-04-07T16:29:18.998Z</time></trkpt><trkpt lat="43.55036750044271" lon="2.981270341230461"><ele>169.0</ele><time>2026-04-07T16:29:19.998Z</time></trkpt><trkpt lat="43.55027098368434" lon="2.981116811018243"><ele>173.0</ele><time>2026-04-07T16:29:20.998Z</time></trkpt><trkpt lat="43.550144982958415" lon="2.9809816006950025"><ele>173.0</ele><time>2026-04-07T16:29:21.998Z</time></trkpt><trkpt lat="43.550015186722" lon="2.980859923538658"><ele>173.0</ele><time>2026-04-07T16:29:22.998Z</time></trkpt><trkpt lat="43.5498775248582" lon="2.9807589359099724"><ele>173.0</ele><time>2026-04-07T16:29:23.998Z</time></trkpt><trkpt lat="43.54974636125079" lon="2.980665153381769"><ele>169.0</ele><time>2026-04-07T16:29:24.998Z</time></trkpt><trkpt lat="43.54959788821009" lon="2.980574906517599"><ele>165.0</ele><time>2026-04-07T16:29:25.998Z</time></trkpt><trkpt lat="43.54944914574011" lon="2.9804763386228394"><ele>161.0</ele><time>2026-04-07T16:29:26.998Z</time></trkpt><trkpt lat="43.549299583752784" lon="2.980385278128417"><ele>161.0</ele><time>2026-04-07T16:29:27.998Z</time></trkpt><trkpt lat="43.54914711235772" lon="2.9802810767908725"><ele>161.0</ele><time>2026-04-07T16:29:28.998Z</time></trkpt><trkpt lat="43.548997617039156" lon="2.9801806236213872"><ele>161.0</ele><time>2026-04-07T16:29:29.998Z</time></trkpt><trkpt lat="43.54885216774376" lon="2.9800733674209323"><ele>156.66666666666666</ele><time>2026-04-07T16:29:30.998Z</time></trkpt><trkpt lat="43.54872985655934" lon="2.979960807498995"><ele>152.33333333333334</ele><time>2026-04-07T16:29:31.998Z</time></trkpt><trkpt lat="43.54860544215666" lon="2.9798418126202115"><ele>148.0</ele><time>2026-04-07T16:29:32.998Z</time></trkpt><trkpt lat="43.54848570158373" lon="2.979713372349338"><ele>148.0</ele><time>2026-04-07T16:29:33.998Z</time></trkpt><trkpt lat="43.54836928156766" lon="2.9795993278920427"><ele>148.0</ele><time>2026-04-07T16:29:34.998Z</time></trkpt><trkpt lat="43.54825152589785" lon="2.979508487164891"><ele>148.0</ele><time>2026-04-07T16:29:35.998Z</time></trkpt><trkpt lat="43.548119282453406" lon="2.9794684638462074"><ele>148.0</ele><time>2026-04-07T16:29:37Z</time></trkpt><trkpt lat="43.5479758433815" lon="2.9794846523777094"><ele>145.75</ele><time>2026-04-07T16:29:38Z</time></trkpt><trkpt lat="43.54782369241783" lon="2.9795569470920147"><ele>143.5</ele><time>2026-04-07T16:29:39Z</time></trkpt><trkpt lat="43.54768941620354" lon="2.9796467569062965"><ele>141.25</ele><time>2026-04-07T16:29:40Z</time></trkpt><trkpt lat="43.54756560950939" lon="2.979717111645934"><ele>139.0</ele><time>2026-04-07T16:29:41Z</time></trkpt><trkpt lat="43.547454919513534" lon="2.97977102152986"><ele>139.0</ele><time>2026-04-07T16:29:42Z</time></trkpt><trkpt lat="43.54735811943546" lon="2.9798456267310693"><ele>139.0</ele><time>2026-04-07T16:29:43Z</time></trkpt><trkpt lat="43.54727767401396" lon="2.9799760355574043"><ele>139.0</ele><time>2026-04-07T16:29:44Z</time></trkpt><trkpt lat="43.54720254965526" lon="2.9801521888678217"><ele>139.0</ele><time>2026-04-07T16:29:45Z</time></trkpt><trkpt lat="43.54715741445098" lon="2.9803668196037516"><ele>135.33333333333334</ele><time>2026-04-07T16:29:46Z</time></trkpt><trkpt lat="43.5471054339051" lon="2.9805652966776313"><ele>131.66666666666666</ele><time>2026-04-07T16:29:47Z</time></trkpt><trkpt lat="43.54703703519187" lon="2.9807484231086048"><ele>128.0</ele><time>2026-04-07T16:29:48Z</time></trkpt><trkpt lat="43.54695351290422" lon="2.980926610990448"><ele>137.66666666666666</ele><time>2026-04-07T16:29:49Z</time></trkpt><trkpt lat="43.54685256985323" lon="2.981095203700476"><ele>147.33333333333334</ele><time>2026-04-07T16:29:50Z</time></trkpt><trkpt lat="43.54672667934628" lon="2.9812200788344403"><ele>157.0</ele><time>2026-04-07T16:29:51Z</time></trkpt><trkpt lat="43.546617446909295" lon="2.9813410194809853"><ele>157.0</ele><time>2026-04-07T16:29:52Z</time></trkpt><trkpt lat="43.54651505890896" lon="2.9814626840556735"><ele>157.0</ele><time>2026-04-07T16:29:53Z</time></trkpt><trkpt lat="43.54640277188039" lon="2.9815703059742393"><ele>157.0</ele><time>2026-04-07T16:29:54Z</time></trkpt><trkpt lat="43.546281752243274" lon="2.9816577123811103"><ele>157.0</ele><time>2026-04-07T16:29:55Z</time></trkpt><trkpt lat="43.54615757466132" lon="2.981739472867915"><ele>160.0</ele><time>2026-04-07T16:29:56Z</time></trkpt><trkpt lat="43.546032007504046" lon="2.9818107808545253"><ele>163.0</ele><time>2026-04-07T16:29:57Z</time></trkpt><trkpt lat="43.54592063804939" lon="2.981881539000096"><ele>166.0</ele><time>2026-04-07T16:29:58Z</time></trkpt><trkpt lat="43.545815667362135" lon="2.9819435094815563"><ele>169.0</ele><time>2026-04-07T16:29:59Z</time></trkpt><trkpt lat="43.54570624133365" lon="2.981998898719567"><ele>169.0</ele><time>2026-04-07T16:30:00Z</time></trkpt><trkpt lat="43.54559052004905" lon="2.9819767034645857"><ele>169.0</ele><time>2026-04-07T16:30:01Z</time></trkpt><trkpt lat="43.54547720893742" lon="2.9819368491720923"><ele>169.0</ele><time>2026-04-07T16:30:02Z</time></trkpt><trkpt lat="43.54536761360699" lon="2.9819213554267714"><ele>169.0</ele><time>2026-04-07T16:30:03Z</time></trkpt><trkpt lat="43.54526683326201" lon="2.9818564463971264"><ele>171.25</ele><time>2026-04-07T16:30:04Z</time></trkpt><trkpt lat="43.54518126651337" lon="2.9816966126365343"><ele>173.5</ele><time>2026-04-07T16:30:05Z</time></trkpt><trkpt lat="43.545085853407244" lon="2.9815629806141306"><ele>175.75</ele><time>2026-04-07T16:30:06Z</time></trkpt><trkpt lat="43.54498109892794" lon="2.9814509343570164"><ele>178.0</ele><time>2026-04-07T16:30:07Z</time></trkpt><trkpt lat="43.54487129953318" lon="2.9813466004604185"><ele>181.25</ele><time>2026-04-07T16:30:08Z</time></trkpt><trkpt lat="43.54477452854653" lon="2.981226085725934"><ele>184.5</ele><time>2026-04-07T16:30:09Z</time></trkpt><trkpt lat="43.544685588521986" lon="2.981080334090316"><ele>187.75</ele><time>2026-04-07T16:30:10Z</time></trkpt><trkpt lat="43.54457975286059" lon="2.9809612345012466"><ele>191.0</ele><time>2026-04-07T16:30:11Z</time></trkpt><trkpt lat="43.54444426209479" lon="2.9808767284960993"><ele>180.5</ele><time>2026-04-07T16:30:11.999Z</time></trkpt><trkpt lat="43.544329821032605" lon="2.9807920578990097"><ele>170.0</ele><time>2026-04-07T16:30:12.999Z</time></trkpt><trkpt lat="43.54422222987664" lon="2.980690820914366"><ele>159.5</ele><time>2026-04-07T16:30:13.999Z</time></trkpt><trkpt lat="43.5441168071313" lon="2.9805736107471703"><ele>149.0</ele><time>2026-04-07T16:30:14.999Z</time></trkpt><trkpt lat="43.54401750260403" lon="2.980465558870517"><ele>149.0</ele><time>2026-04-07T16:30:15.999Z</time></trkpt><trkpt lat="43.54391317883867" lon="2.9803704017887367"><ele>149.0</ele><time>2026-04-07T16:30:16.999Z</time></trkpt><trkpt lat="43.543813281621475" lon="2.9802685141076806"><ele>149.0</ele><time>2026-04-07T16:30:17.999Z</time></trkpt><trkpt lat="43.54371964143812" lon="2.980168942753426"><ele>149.0</ele><time>2026-04-07T16:30:18.999Z</time></trkpt><trkpt lat="43.543625625671375" lon="2.9800678922731647"><ele>148.0</ele><time>2026-04-07T16:30:19.999Z</time></trkpt><trkpt lat="43.54353968751967" lon="2.97994596726237"><ele>147.0</ele><time>2026-04-07T16:30:20.999Z</time></trkpt><trkpt lat="43.543453740109214" lon="2.979817252038785"><ele>146.0</ele><time>2026-04-07T16:30:21.999Z</time></trkpt><trkpt lat="43.54335591766932" lon="2.9797011807388185"><ele>145.0</ele><time>2026-04-07T16:30:22.999Z</time></trkpt><trkpt lat="43.54326623896597" lon="2.9795751590214783"><ele>145.0</ele><time>2026-04-07T16:30:23.999Z</time></trkpt><trkpt lat="43.54318620575168" lon="2.979427617886013"><ele>145.0</ele><time>2026-04-07T16:30:24.999Z</time></trkpt><trkpt lat="43.543115791108185" lon="2.9792725356292387"><ele>145.0</ele><time>2026-04-07T16:30:25.999Z</time></trkpt><trkpt lat="43.543032135155215" lon="2.9791338616408196"><ele>145.0</ele><time>2026-04-07T16:30:26.999Z</time></trkpt><trkpt lat="43.54293655365823" lon="2.9790037380413787"><ele>148.5</ele><time>2026-04-07T16:30:27.999Z</time></trkpt><trkpt lat="43.54285349390764" lon="2.9788608121706397"><ele>152.0</ele><time>2026-04-07T16:30:28.999Z</time></trkpt><trkpt lat="43.54277114310565" lon="2.9787179753394635"><ele>155.5</ele><time>2026-04-07T16:30:29.999Z</time></trkpt><trkpt lat="43.54271039023326" lon="2.9785421586522682"><ele>159.0</ele><time>2026-04-07T16:30:30.999Z</time></trkpt><trkpt lat="43.5426756640846" lon="2.978359585575866"><ele>155.25</ele><time>2026-04-07T16:30:31.999Z</time></trkpt><trkpt lat="43.54263029329264" lon="2.9781733082945308"><ele>151.5</ele><time>2026-04-07T16:30:32.999Z</time></trkpt><trkpt lat="43.542581768121615" lon="2.9780022528090075"><ele>147.75</ele><time>2026-04-07T16:30:33.999Z</time></trkpt><trkpt lat="43.542537754223865" lon="2.9778243003944245"><ele>144.0</ele><time>2026-04-07T16:30:34.999Z</time></trkpt><trkpt lat="43.5425108905175" lon="2.977635212212418"><ele>142.5</ele><time>2026-04-07T16:30:35.999Z</time></trkpt><trkpt lat="43.54246958998672" lon="2.9774512092872856"><ele>141.0</ele><time>2026-04-07T16:30:36.999Z</time></trkpt><trkpt lat="43.54242995810226" lon="2.9772661654616424"><ele>139.5</ele><time>2026-04-07T16:30:37.999Z</time></trkpt><trkpt lat="43.54237940857443" lon="2.9770792410675813"><ele>138.0</ele><time>2026-04-07T16:30:38.999Z</time></trkpt><trkpt lat="43.54235261179515" lon="2.976878038838777"><ele>136.0</ele><time>2026-04-07T16:30:39.999Z</time></trkpt><trkpt lat="43.542297714059764" lon="2.9766858502883706"><ele>134.0</ele><time>2026-04-07T16:30:40.999Z</time></trkpt><trkpt lat="43.54226020591977" lon="2.976482640600932"><ele>132.0</ele><time>2026-04-07T16:30:41.999Z</time></trkpt><trkpt lat="43.542237676842745" lon="2.9762932820484282"><ele>130.0</ele><time>2026-04-07T16:30:42.999Z</time></trkpt><trkpt lat="43.5421842129507" lon="2.976124574349367"><ele>130.0</ele><time>2026-04-07T16:30:43.999Z</time></trkpt><trkpt lat="43.54214590977136" lon="2.97597126846581"><ele>130.0</ele><time>2026-04-07T16:30:44.999Z</time></trkpt><trkpt lat="43.54210280673756" lon="2.9758356246303697"><ele>130.0</ele><time>2026-04-07T16:30:45.999Z</time></trkpt><trkpt lat="43.54205407613557" lon="2.975698513078014"><ele>130.0</ele><time>2026-04-07T16:30:46.999Z</time></trkpt><trkpt lat="43.54203440147446" lon="2.9755393907146663"><ele>135.0</ele><time>2026-04-07T16:30:47.999Z</time></trkpt><trkpt lat="43.5420296508311" lon="2.9753764441825727"><ele>140.0</ele><time>2026-04-07T16:30:48.999Z</time></trkpt><trkpt lat="43.54203797345909" lon="2.9751813399766034"><ele>145.0</ele><time>2026-04-07T16:30:49.999Z</time></trkpt><trkpt lat="43.542005127345305" lon="2.9750153953169596"><ele>150.0</ele><time>2026-04-07T16:30:50.999Z</time></trkpt><trkpt lat="43.54199703116497" lon="2.9748192037648034"><ele>150.0</ele><time>2026-04-07T16:30:51.999Z</time></trkpt><trkpt lat="43.541969100432546" lon="2.9746227906069276"><ele>150.0</ele><time>2026-04-07T16:30:52.999Z</time></trkpt><trkpt lat="43.54191399824235" lon="2.974424220853568"><ele>150.0</ele><time>2026-04-07T16:30:53.999Z</time></trkpt><trkpt lat="43.541868736331885" lon="2.9742254742329517"><ele>146.75</ele><time>2026-04-07T16:30:54.999Z</time></trkpt><trkpt lat="43.54180150366676" lon="2.974023997324212"><ele>143.5</ele><time>2026-04-07T16:30:55.999Z</time></trkpt><trkpt lat="43.54174228933557" lon="2.9738499263038425"><ele>140.25</ele><time>2026-04-07T16:30:56.998Z</time></trkpt><trkpt lat="43.54168216037649" lon="2.9736683659064664"><ele>137.0</ele><time>2026-04-07T16:30:57.998Z</time></trkpt><trkpt lat="43.54162332733404" lon="2.973487228469349"><ele>133.5</ele><time>2026-04-07T16:30:58.998Z</time></trkpt><trkpt lat="43.54156789332037" lon="2.973305208442169"><ele>130.0</ele><time>2026-04-07T16:30:59.998Z</time></trkpt><trkpt lat="43.54151370021577" lon="2.9731191905794554"><ele>126.5</ele><time>2026-04-07T16:31:00.998Z</time></trkpt><trkpt lat="43.54147271125896" lon="2.9729288391265967"><ele>123.0</ele><time>2026-04-07T16:31:01.998Z</time></trkpt><trkpt lat="43.541448632723174" lon="2.972731954004354"><ele>123.0</ele><time>2026-04-07T16:31:02.998Z</time></trkpt><trkpt lat="43.541430158707236" lon="2.9725319222771223"><ele>123.0</ele><time>2026-04-07T16:31:03.998Z</time></trkpt><trkpt lat="43.54141608744876" lon="2.9723300402203314"><ele>123.0</ele><time>2026-04-07T16:31:04.998Z</time></trkpt><trkpt lat="43.54140240594352" lon="2.9721332243426346"><ele>123.0</ele><time>2026-04-07T16:31:05.998Z</time></trkpt><trkpt lat="43.541386475586584" lon="2.9719306207410168"><ele>121.75</ele><time>2026-04-07T16:31:06.998Z</time></trkpt><trkpt lat="43.54137140628439" lon="2.9717456766379313"><ele>120.5</ele><time>2026-04-07T16:31:07.998Z</time></trkpt><trkpt lat="43.54134688759858" lon="2.97155630841902"><ele>119.25</ele><time>2026-04-07T16:31:08.998Z</time></trkpt><trkpt lat="43.54131471974592" lon="2.9713712935081396"><ele>118.0</ele><time>2026-04-07T16:31:09.998Z</time></trkpt><trkpt lat="43.5412773564754" lon="2.9711819202882506"><ele>117.5</ele><time>2026-04-07T16:31:10.998Z</time></trkpt><trkpt lat="43.54123806443425" lon="2.9709930298086284"><ele>117.0</ele><time>2026-04-07T16:31:11.998Z</time></trkpt><trkpt lat="43.54119383888172" lon="2.9708092240589314"><ele>116.5</ele><time>2026-04-07T16:31:12.998Z</time></trkpt><trkpt lat="43.54112878172529" lon="2.9706478737337876"><ele>116.0</ele><time>2026-04-07T16:31:13.998Z</time></trkpt><trkpt lat="43.54105797024071" lon="2.9704737885343584"><ele>117.75</ele><time>2026-04-07T16:31:14.998Z</time></trkpt><trkpt lat="43.540970776800975" lon="2.9703120954585733"><ele>119.5</ele><time>2026-04-07T16:31:15.998Z</time></trkpt><trkpt lat="43.540885624724666" lon="2.9701625004821786"><ele>121.25</ele><time>2026-04-07T16:31:16.998Z</time></trkpt><trkpt lat="43.540806278863556" lon="2.9700056446904153"><ele>123.0</ele><time>2026-04-07T16:31:17.998Z</time></trkpt><trkpt lat="43.540719962277265" lon="2.9698421579583427"><ele>123.0</ele><time>2026-04-07T16:31:18.998Z</time></trkpt><trkpt lat="43.54062983070314" lon="2.969685114516327"><ele>123.0</ele><time>2026-04-07T16:31:19.998Z</time></trkpt><trkpt lat="43.54053805480271" lon="2.969522555812313"><ele>123.0</ele><time>2026-04-07T16:31:20.998Z</time></trkpt><trkpt lat="43.54045627230693" lon="2.9693676958567936"><ele>123.0</ele><time>2026-04-07T16:31:21.998Z</time></trkpt><trkpt lat="43.54037687659576" lon="2.9692316956716294"><ele>123.0</ele><time>2026-04-07T16:31:22.998Z</time></trkpt><trkpt lat="43.540279286859075" lon="2.969049279613565"><ele>123.0</ele><time>2026-04-07T16:31:23.998Z</time></trkpt><trkpt lat="43.54016035902864" lon="2.968932207114361"><ele>123.0</ele><time>2026-04-07T16:31:24.998Z</time></trkpt><trkpt lat="43.540032848749156" lon="2.968853333805581"><ele>123.0</ele><time>2026-04-07T16:31:25.998Z</time></trkpt><trkpt lat="43.53989744472965" lon="2.968806521904571"><ele>123.0</ele><time>2026-04-07T16:31:26.998Z</time></trkpt><trkpt lat="43.53975478643661" lon="2.9687653687412023"><ele>123.0</ele><time>2026-04-07T16:31:27.998Z</time></trkpt><trkpt lat="43.53961131400354" lon="2.968742038410095"><ele>123.0</ele><time>2026-04-07T16:31:28.998Z</time></trkpt><trkpt lat="43.539465320361366" lon="2.9687243419169214"><ele>122.5</ele><time>2026-04-07T16:31:29.998Z</time></trkpt><trkpt lat="43.53932177898038" lon="2.968758347594092"><ele>122.0</ele><time>2026-04-07T16:31:30.998Z</time></trkpt><trkpt lat="43.53919382989614" lon="2.9688116864036163"><ele>121.5</ele><time>2026-04-07T16:31:31.998Z</time></trkpt><trkpt lat="43.539065134650215" lon="2.9688870987451708"><ele>121.0</ele><time>2026-04-07T16:31:32.998Z</time></trkpt><trkpt lat="43.53894624585066" lon="2.968986954877626"><ele>121.0</ele><time>2026-04-07T16:31:33.998Z</time></trkpt><trkpt lat="43.53883276564134" lon="2.9691116075199027"><ele>121.0</ele><time>2026-04-07T16:31:34.998Z</time></trkpt><trkpt lat="43.538737020438354" lon="2.9692432178745594"><ele>121.0</ele><time>2026-04-07T16:31:35.998Z</time></trkpt><trkpt lat="43.538652982307646" lon="2.969393442950003"><ele>121.0</ele><time>2026-04-07T16:31:36.998Z</time></trkpt><trkpt lat="43.538555564319175" lon="2.9695462625885343"><ele>120.5</ele><time>2026-04-07T16:31:37.998Z</time></trkpt><trkpt lat="43.538464183201874" lon="2.969692822358295"><ele>120.0</ele><time>2026-04-07T16:31:38.998Z</time></trkpt><trkpt lat="43.53839119922896" lon="2.969837861575645"><ele>119.5</ele><time>2026-04-07T16:31:39.998Z</time></trkpt><trkpt lat="43.538320878339" lon="2.969992940696049"><ele>119.0</ele><time>2026-04-07T16:31:40.998Z</time></trkpt><trkpt lat="43.53826363727457" lon="2.9701630824999254"><ele>121.25</ele><time>2026-04-07T16:31:41.997Z</time></trkpt><trkpt lat="43.538222408761094" lon="2.970346173310956"><ele>123.5</ele><time>2026-04-07T16:31:43Z</time></trkpt><trkpt lat="43.5381949376555" lon="2.9705356098028135"><ele>125.75</ele><time>2026-04-07T16:31:44Z</time></trkpt><trkpt lat="43.5381614204715" lon="2.970732281094285"><ele>128.0</ele><time>2026-04-07T16:31:45Z</time></trkpt><trkpt lat="43.53811326182099" lon="2.9709253425533135"><ele>130.0</ele><time>2026-04-07T16:31:46Z</time></trkpt><trkpt lat="43.53806555587388" lon="2.971114125677132"><ele>132.0</ele><time>2026-04-07T16:31:47Z</time></trkpt><trkpt lat="43.538011839146264" lon="2.9713012716167486"><ele>134.0</ele><time>2026-04-07T16:31:48Z</time></trkpt><trkpt lat="43.537969166607915" lon="2.9714998546958595"><ele>136.0</ele><time>2026-04-07T16:31:49Z</time></trkpt><trkpt lat="43.53794247093632" lon="2.9717015240368405"><ele>136.25</ele><time>2026-04-07T16:31:50Z</time></trkpt><trkpt lat="43.53794352614251" lon="2.971905125067659"><ele>136.5</ele><time>2026-04-07T16:31:51Z</time></trkpt><trkpt lat="43.53794879726775" lon="2.9721025803327388"><ele>136.75</ele><time>2026-04-07T16:31:52Z</time></trkpt><trkpt lat="43.537955456747" lon="2.97227395583184"><ele>137.0</ele><time>2026-04-07T16:31:53Z</time></trkpt><trkpt lat="43.53794140849979" lon="2.972443196798474"><ele>135.5</ele><time>2026-04-07T16:31:54Z</time></trkpt><trkpt lat="43.53794040176942" lon="2.972599249289754"><ele>134.0</ele><time>2026-04-07T16:31:55Z</time></trkpt><trkpt lat="43.53796937427063" lon="2.972766082359967"><ele>132.5</ele><time>2026-04-07T16:31:56Z</time></trkpt><trkpt lat="43.538003339130455" lon="2.972924116744657"><ele>131.0</ele><time>2026-04-07T16:31:57Z</time></trkpt><trkpt lat="43.538026715369256" lon="2.9730984168629404"><ele>131.0</ele><time>2026-04-07T16:31:58Z</time></trkpt><trkpt lat="43.53805468564444" lon="2.9732930280447967"><ele>131.0</ele><time>2026-04-07T16:31:59Z</time></trkpt><trkpt lat="43.53806826789265" lon="2.9734967398457717"><ele>131.0</ele><time>2026-04-07T16:32:00Z</time></trkpt><trkpt lat="43.53804823019615" lon="2.9736883845950453"><ele>131.0</ele><time>2026-04-07T16:32:01Z</time></trkpt><trkpt lat="43.5380065512937" lon="2.9738593260723967"><ele>128.5</ele><time>2026-04-07T16:32:02Z</time></trkpt><trkpt lat="43.53798604624196" lon="2.9740286044058974"><ele>126.0</ele><time>2026-04-07T16:32:03Z</time></trkpt><trkpt lat="43.538022356534256" lon="2.974205869674209"><ele>123.5</ele><time>2026-04-07T16:32:04Z</time></trkpt><trkpt lat="43.53810022247097" lon="2.974371424864828"><ele>121.0</ele><time>2026-04-07T16:32:05Z</time></trkpt><trkpt lat="43.53817835337181" lon="2.9745164172705163"><ele>119.75</ele><time>2026-04-07T16:32:06Z</time></trkpt><trkpt lat="43.53825846299652" lon="2.9746471350073347"><ele>118.5</ele><time>2026-04-07T16:32:07Z</time></trkpt><trkpt lat="43.53833194849152" lon="2.974771491801068"><ele>117.25</ele><time>2026-04-07T16:32:08Z</time></trkpt><trkpt lat="43.53840965680415" lon="2.9748992773735257"><ele>116.0</ele><time>2026-04-07T16:32:09Z</time></trkpt><trkpt lat="43.538496101134335" lon="2.9750302486886153"><ele>116.5</ele><time>2026-04-07T16:32:10Z</time></trkpt><trkpt lat="43.538574018560055" lon="2.975188778519001"><ele>117.0</ele><time>2026-04-07T16:32:11Z</time></trkpt><trkpt lat="43.538656021439415" lon="2.9753059029474067"><ele>117.5</ele><time>2026-04-07T16:32:12Z</time></trkpt><trkpt lat="43.538712276552666" lon="2.975464518792615"><ele>118.0</ele><time>2026-04-07T16:32:13Z</time></trkpt><trkpt lat="43.53876372145452" lon="2.975634396908686"><ele>118.0</ele><time>2026-04-07T16:32:14Z</time></trkpt><trkpt lat="43.53878387034732" lon="2.975838246883392"><ele>118.0</ele><time>2026-04-07T16:32:15Z</time></trkpt><trkpt lat="43.53880513322031" lon="2.976049676492094"><ele>118.0</ele><time>2026-04-07T16:32:16Z</time></trkpt><trkpt lat="43.53883369681737" lon="2.9762524175636114"><ele>116.0</ele><time>2026-04-07T16:32:16.999Z</time></trkpt><trkpt lat="43.53884912702292" lon="2.9764576744479743"><ele>114.0</ele><time>2026-04-07T16:32:17.999Z</time></trkpt><trkpt lat="43.53885025471206" lon="2.9766641770651643"><ele>112.0</ele><time>2026-04-07T16:32:18.999Z</time></trkpt><trkpt lat="43.53886400485228" lon="2.976879448569479"><ele>111.75</ele><time>2026-04-07T16:32:19.999Z</time></trkpt><trkpt lat="43.53889117210455" lon="2.9770720123567513"><ele>111.5</ele><time>2026-04-07T16:32:20.999Z</time></trkpt><trkpt lat="43.53889868158353" lon="2.977263852469293"><ele>111.25</ele><time>2026-04-07T16:32:21.999Z</time></trkpt><trkpt lat="43.53890761412679" lon="2.9774432322786346"><ele>111.0</ele><time>2026-04-07T16:32:22.999Z</time></trkpt><trkpt lat="43.53891402240413" lon="2.9776289536152936"><ele>110.8</ele><time>2026-04-07T16:32:23.999Z</time></trkpt><trkpt lat="43.53893177399078" lon="2.977802048874148"><ele>110.6</ele><time>2026-04-07T16:32:24.999Z</time></trkpt><trkpt lat="43.53894022582086" lon="2.977954501031078"><ele>110.4</ele><time>2026-04-07T16:32:25.999Z</time></trkpt><trkpt lat="43.53894771153692" lon="2.9781065971087313"><ele>110.2</ele><time>2026-04-07T16:32:26.999Z</time></trkpt><trkpt lat="43.53895912654459" lon="2.978236435840273"><ele>110.0</ele><time>2026-04-07T16:32:27.999Z</time></trkpt><trkpt lat="43.538967523772904" lon="2.978366545930915"><ele>110.8</ele><time>2026-04-07T16:32:28.999Z</time></trkpt><trkpt lat="43.53896700243221" lon="2.978482090885428"><ele>111.6</ele><time>2026-04-07T16:32:29.999Z</time></trkpt><trkpt lat="43.53897536162073" lon="2.978617658690847"><ele>112.4</ele><time>2026-04-07T16:32:30.999Z</time></trkpt><trkpt lat="43.53899801365605" lon="2.978765208602072"><ele>113.2</ele><time>2026-04-07T16:32:31.999Z</time></trkpt><trkpt lat="43.53899899178464" lon="2.9789206691215493"><ele>114.0</ele><time>2026-04-07T16:32:32.999Z</time></trkpt><trkpt lat="43.53900525874262" lon="2.9790650118174185"><ele>116.0</ele><time>2026-04-07T16:32:33.999Z</time></trkpt><trkpt lat="43.539001110458415" lon="2.9792059517675393"><ele>118.0</ele><time>2026-04-07T16:32:34.999Z</time></trkpt><trkpt lat="43.538971204785085" lon="2.97935376581491"><ele>120.0</ele><time>2026-04-07T16:32:35.999Z</time></trkpt><trkpt lat="43.538904719209256" lon="2.9794672284763712"><ele>122.0</ele><time>2026-04-07T16:32:36.999Z</time></trkpt><trkpt lat="43.538864691174844" lon="2.9796046370408322"><ele>124.0</ele><time>2026-04-07T16:32:37.999Z</time></trkpt><trkpt lat="43.5388478092241" lon="2.979700021284661"><ele>124.00000000000001</ele><time>2026-04-07T16:32:38.999Z</time></trkpt><trkpt lat="43.53882027116055" lon="2.9797871780766965"><ele>124.0</ele><time>2026-04-07T16:32:39.999Z</time></trkpt><trkpt lat="43.53879292869548" lon="2.9798690883123515"><ele>124.0</ele><time>2026-04-07T16:32:40.999Z</time></trkpt><trkpt lat="43.53875062424171" lon="2.9800177938604784"><ele>124.0</ele><time>2026-04-07T16:32:42.999Z</time></trkpt><trkpt lat="43.538719536727164" lon="2.9801004453490534"><ele>124.00000000000001</ele><time>2026-04-07T16:32:43.999Z</time></trkpt><trkpt lat="43.538690272090705" lon="2.9802164311789534"><ele>124.0</ele><time>2026-04-07T16:32:45.999Z</time></trkpt><trkpt lat="43.53865018548841" lon="2.980320273740427"><ele>123.4</ele><time>2026-04-07T16:32:47.999Z</time></trkpt><trkpt lat="43.53861368073082" lon="2.9804543967105954"><ele>122.80000000000001</ele><time>2026-04-07T16:32:49.999Z</time></trkpt><trkpt lat="43.538582194247816" lon="2.980603597320945"><ele>122.19999999999999</ele><time>2026-04-07T16:32:51.999Z</time></trkpt><trkpt lat="43.53855055187415" lon="2.9807498549584612"><ele>121.6</ele><time>2026-04-07T16:32:53.999Z</time></trkpt><trkpt lat="43.53852833345756" lon="2.980877873131106"><ele>121.0</ele><time>2026-04-07T16:32:55.999Z</time></trkpt><trkpt lat="43.5385036143139" lon="2.9810340813470915"><ele>121.00000000000001</ele><time>2026-04-07T16:32:57.999Z</time></trkpt><trkpt lat="43.53849251142021" lon="2.981126575307279"><ele>121.0</ele><time>2026-04-07T16:32:58.999Z</time></trkpt><trkpt lat="43.53847892615647" lon="2.9812255016250977"><ele>121.0</ele><time>2026-04-07T16:32:59.999Z</time></trkpt><trkpt lat="43.53845971582222" lon="2.9813309186779904"><ele>121.0</ele><time>2026-04-07T16:33:00.999Z</time></trkpt><trkpt lat="43.5384254199034" lon="2.9814439169940314"><ele>121.00000000000001</ele><time>2026-04-07T16:33:01.999Z</time></trkpt><trkpt lat="43.53837627862341" lon="2.9815632435867307"><ele>121.0</ele><time>2026-04-07T16:33:02.998Z</time></trkpt><trkpt lat="43.538314738909506" lon="2.981688038365178"><ele>126.25</ele><time>2026-04-07T16:33:03.998Z</time></trkpt><trkpt lat="43.53824807982281" lon="2.981820205175906"><ele>131.5</ele><time>2026-04-07T16:33:04.998Z</time></trkpt><trkpt lat="43.538182888983066" lon="2.981966435359396"><ele>136.75</ele><time>2026-04-07T16:33:05.998Z</time></trkpt><trkpt lat="43.53811591192347" lon="2.982109980051276"><ele>142.0</ele><time>2026-04-07T16:33:06.998Z</time></trkpt><trkpt lat="43.53803933348839" lon="2.9822512773843406"><ele>142.0</ele><time>2026-04-07T16:33:07.998Z</time></trkpt><trkpt lat="43.537971050753804" lon="2.9823967517462195"><ele>142.0</ele><time>2026-04-07T16:33:08.998Z</time></trkpt><trkpt lat="43.53789767028535" lon="2.9825321703633114"><ele>142.0</ele><time>2026-04-07T16:33:09.998Z</time></trkpt><trkpt lat="43.537815960101355" lon="2.9826618412356853"><ele>142.0</ele><time>2026-04-07T16:33:10.998Z</time></trkpt><trkpt lat="43.53772629414472" lon="2.9827853489064604"><ele>136.25</ele><time>2026-04-07T16:33:11.998Z</time></trkpt><trkpt lat="43.53762924533376" lon="2.9829006378023655"><ele>130.5</ele><time>2026-04-07T16:33:12.998Z</time></trkpt><trkpt lat="43.537520673646355" lon="2.9830079365379807"><ele>124.75</ele><time>2026-04-07T16:33:13.998Z</time></trkpt><trkpt lat="43.5374140305604" lon="2.983136348422496"><ele>119.0</ele><time>2026-04-07T16:33:14.998Z</time></trkpt><trkpt lat="43.53730878247837" lon="2.983273717335417"><ele>117.75</ele><time>2026-04-07T16:33:15.998Z</time></trkpt><trkpt lat="43.53720655922365" lon="2.9834245257858467"><ele>116.5</ele><time>2026-04-07T16:33:16.998Z</time></trkpt><trkpt lat="43.53710641432515" lon="2.9835659365375924"><ele>115.25</ele><time>2026-04-07T16:33:17.998Z</time></trkpt><trkpt lat="43.53699924856228" lon="2.9837065648896495"><ele>114.0</ele><time>2026-04-07T16:33:18.998Z</time></trkpt><trkpt lat="43.53690597389973" lon="2.9838381698033465"><ele>114.0</ele><time>2026-04-07T16:33:19.998Z</time></trkpt><trkpt lat="43.53682934959579" lon="2.9839671278781625"><ele>114.0</ele><time>2026-04-07T16:33:20.998Z</time></trkpt><trkpt lat="43.53672507121079" lon="2.98408768417625"><ele>114.0</ele><time>2026-04-07T16:33:21.998Z</time></trkpt><trkpt lat="43.53661935533053" lon="2.984198032962515"><ele>114.0</ele><time>2026-04-07T16:33:22.998Z</time></trkpt><trkpt lat="43.536514206191804" lon="2.9842989807798235"><ele>113.5</ele><time>2026-04-07T16:33:23.998Z</time></trkpt><trkpt lat="43.536425769091295" lon="2.9844060752011305"><ele>113.0</ele><time>2026-04-07T16:33:24.998Z</time></trkpt><trkpt lat="43.536331100643366" lon="2.9845096412347645"><ele>112.5</ele><time>2026-04-07T16:33:25.998Z</time></trkpt><trkpt lat="43.53624836122476" lon="2.9846222295070652"><ele>112.0</ele><time>2026-04-07T16:33:26.998Z</time></trkpt><trkpt lat="43.536173548130975" lon="2.984732703151027"><ele>112.0</ele><time>2026-04-07T16:33:27.998Z</time></trkpt><trkpt lat="43.53608545173614" lon="2.9848456858876116"><ele>112.0</ele><time>2026-04-07T16:33:28.998Z</time></trkpt><trkpt lat="43.5360016219197" lon="2.9849278838634254"><ele>112.0</ele><time>2026-04-07T16:33:29.998Z</time></trkpt><trkpt lat="43.535898061245874" lon="2.9849900141941825"><ele>112.0</ele><time>2026-04-07T16:33:30.998Z</time></trkpt><trkpt lat="43.5357824848392" lon="2.985022158592401"><ele>112.75</ele><time>2026-04-07T16:33:31.998Z</time></trkpt><trkpt lat="43.53566322850997" lon="2.985077230986291"><ele>113.5</ele><time>2026-04-07T16:33:32.998Z</time></trkpt><trkpt lat="43.535544386190345" lon="2.985136484036184"><ele>114.25</ele><time>2026-04-07T16:33:33.998Z</time></trkpt><trkpt lat="43.535439504841165" lon="2.9852266202691324"><ele>115.0</ele><time>2026-04-07T16:33:34.998Z</time></trkpt><trkpt lat="43.53534514928681" lon="2.985338076203483"><ele>115.0</ele><time>2026-04-07T16:33:35.998Z</time></trkpt><trkpt lat="43.535242688262066" lon="2.985448955439954"><ele>115.0</ele><time>2026-04-07T16:33:36.998Z</time></trkpt><trkpt lat="43.53515006153553" lon="2.985551021342606"><ele>115.0</ele><time>2026-04-07T16:33:37.998Z</time></trkpt><trkpt lat="43.535055080158195" lon="2.985656118677696"><ele>115.0</ele><time>2026-04-07T16:33:38.998Z</time></trkpt><trkpt lat="43.53495986003277" lon="2.985767813582484"><ele>120.25</ele><time>2026-04-07T16:33:39.998Z</time></trkpt><trkpt lat="43.53487006052133" lon="2.9858737232693495"><ele>125.5</ele><time>2026-04-07T16:33:40.998Z</time></trkpt><trkpt lat="43.53477814781247" lon="2.9859731021660405"><ele>130.75</ele><time>2026-04-07T16:33:41.998Z</time></trkpt><trkpt lat="43.53468787492573" lon="2.986078592101775"><ele>136.0</ele><time>2026-04-07T16:33:42.998Z</time></trkpt><trkpt lat="43.534601546001106" lon="2.9862037374322337"><ele>130.75</ele><time>2026-04-07T16:33:43.998Z</time></trkpt><trkpt lat="43.5345341940129" lon="2.9863415390466725"><ele>125.5</ele><time>2026-04-07T16:33:44.998Z</time></trkpt><trkpt lat="43.534476243910106" lon="2.9864968471822815"><ele>120.25</ele><time>2026-04-07T16:33:45.998Z</time></trkpt><trkpt lat="43.53440992598235" lon="2.986654406231465"><ele>115.0</ele><time>2026-04-07T16:33:46.998Z</time></trkpt><trkpt lat="43.53435970146736" lon="2.9868155934828176"><ele>115.0</ele><time>2026-04-07T16:33:47.997Z</time></trkpt><trkpt lat="43.53432010494457" lon="2.9869782444700994"><ele>115.0</ele><time>2026-04-07T16:33:49Z</time></trkpt><trkpt lat="43.53430270248039" lon="2.98716023843813"><ele>115.0</ele><time>2026-04-07T16:33:50Z</time></trkpt><trkpt lat="43.534291376953526" lon="2.987341330408988"><ele>115.0</ele><time>2026-04-07T16:33:51Z</time></trkpt><trkpt lat="43.53430043207764" lon="2.98750794582592"><ele>115.16666666666667</ele><time>2026-04-07T16:33:52Z</time></trkpt><trkpt lat="43.53432447017067" lon="2.9876424488778506"><ele>115.33333333333334</ele><time>2026-04-07T16:33:53Z</time></trkpt><trkpt lat="43.53434568217859" lon="2.9877346466848267"><ele>115.5</ele><time>2026-04-07T16:33:54Z</time></trkpt><trkpt lat="43.534374353238746" lon="2.987816557698599"><ele>115.66666666666666</ele><time>2026-04-07T16:33:55Z</time></trkpt><trkpt lat="43.53440536526709" lon="2.9879650860424998"><ele>115.83333333333333</ele><time>2026-04-07T16:33:57Z</time></trkpt><trkpt lat="43.53441327301746" lon="2.9880926556841834"><ele>116.0</ele><time>2026-04-07T16:33:59Z</time></trkpt><trkpt lat="43.534380016606534" lon="2.9882402409852253"><ele>116.83333333333333</ele><time>2026-04-07T16:34:01Z</time></trkpt><trkpt lat="43.53436140783663" lon="2.9883601081828077"><ele>117.66666666666666</ele><time>2026-04-07T16:34:02Z</time></trkpt><trkpt lat="43.534343707999426" lon="2.988492663132503"><ele>118.5</ele><time>2026-04-07T16:34:03Z</time></trkpt><trkpt lat="43.53432578967513" lon="2.9886059374058545"><ele>119.33333333333334</ele><time>2026-04-07T16:34:04Z</time></trkpt><trkpt lat="43.53431547812329" lon="2.988717387315357"><ele>120.16666666666667</ele><time>2026-04-07T16:34:05Z</time></trkpt><trkpt lat="43.534299955385556" lon="2.988834058997396"><ele>121.0</ele><time>2026-04-07T16:34:06Z</time></trkpt><trkpt lat="43.53428455971099" lon="2.988953887138438"><ele>121.0</ele><time>2026-04-07T16:34:07Z</time></trkpt><trkpt lat="43.534268875545465" lon="2.9890763060714183"><ele>121.0</ele><time>2026-04-07T16:34:08Z</time></trkpt><trkpt lat="43.53425090065279" lon="2.9892015383813377"><ele>121.0</ele><time>2026-04-07T16:34:09Z</time></trkpt><trkpt lat="43.534232887169544" lon="2.9893243774983245"><ele>121.0</ele><time>2026-04-07T16:34:10Z</time></trkpt><trkpt lat="43.534220606536614" lon="2.989452446671899"><ele>121.0</ele><time>2026-04-07T16:34:11Z</time></trkpt><trkpt lat="43.53420780309081" lon="2.989584826446005"><ele>122.6</ele><time>2026-04-07T16:34:12Z</time></trkpt><trkpt lat="43.53419079626973" lon="2.98971214261754"><ele>124.19999999999999</ele><time>2026-04-07T16:34:13Z</time></trkpt><trkpt lat="43.53416633527806" lon="2.989834497561101"><ele>125.80000000000001</ele><time>2026-04-07T16:34:14Z</time></trkpt><trkpt lat="43.534133427320434" lon="2.9899549318982177"><ele>127.4</ele><time>2026-04-07T16:34:15Z</time></trkpt><trkpt lat="43.534100589137466" lon="2.990076644828444"><ele>129.0</ele><time>2026-04-07T16:34:16Z</time></trkpt><trkpt lat="43.53406468409128" lon="2.9901910257693904"><ele>131.8</ele><time>2026-04-07T16:34:17Z</time></trkpt><trkpt lat="43.534034990015826" lon="2.990314588248073"><ele>134.60000000000002</ele><time>2026-04-07T16:34:18Z</time></trkpt><trkpt lat="43.53400148308631" lon="2.9904384213104405"><ele>137.4</ele><time>2026-04-07T16:34:19Z</time></trkpt><trkpt lat="43.533968795659064" lon="2.990555287563516"><ele>140.20000000000002</ele><time>2026-04-07T16:34:20Z</time></trkpt><trkpt lat="43.533935756200165" lon="2.9906724241062146"><ele>143.0</ele><time>2026-04-07T16:34:21Z</time></trkpt><trkpt lat="43.533905599673965" lon="2.990792178640868"><ele>146.8</ele><time>2026-04-07T16:34:22Z</time></trkpt><trkpt lat="43.53387625879176" lon="2.99091850775886"><ele>150.60000000000002</ele><time>2026-04-07T16:34:22.999Z</time></trkpt><trkpt lat="43.53384053143006" lon="2.99105016388361"><ele>154.39999999999998</ele><time>2026-04-07T16:34:23.999Z</time></trkpt><trkpt lat="43.53379887805182" lon="2.9911850672965308"><ele>158.2</ele><time>2026-04-07T16:34:24.999Z</time></trkpt><trkpt lat="43.533757607134845" lon="2.991325577706427"><ele>162.0</ele><time>2026-04-07T16:34:25.999Z</time></trkpt><trkpt lat="43.53371841878581" lon="2.991470662784958"><ele>156.25</ele><time>2026-04-07T16:34:26.999Z</time></trkpt><trkpt lat="43.53367478836426" lon="2.991618772163493"><ele>150.5</ele><time>2026-04-07T16:34:27.999Z</time></trkpt><trkpt lat="43.53362445478529" lon="2.9917502262931768"><ele>144.75</ele><time>2026-04-07T16:34:28.999Z</time></trkpt><trkpt lat="43.533587245732406" lon="2.991932195228338"><ele>139.0</ele><time>2026-04-07T16:34:29.999Z</time></trkpt><trkpt lat="43.53353692266263" lon="2.992060323303368"><ele>139.0</ele><time>2026-04-07T16:34:30.999Z</time></trkpt><trkpt lat="43.53347773591671" lon="2.9922409249889657"><ele>139.0</ele><time>2026-04-07T16:34:31.999Z</time></trkpt><trkpt lat="43.53338722386332" lon="2.9923763921309092"><ele>139.0</ele><time>2026-04-07T16:34:32.999Z</time></trkpt><trkpt lat="43.533317199832894" lon="2.9925352777290724"><ele>139.0</ele><time>2026-04-07T16:34:33.999Z</time></trkpt><trkpt lat="43.53321968584056" lon="2.992678619007656"><ele>139.0</ele><time>2026-04-07T16:34:34.999Z</time></trkpt><trkpt lat="43.53313482847283" lon="2.9928263963019246"><ele>139.0</ele><time>2026-04-07T16:34:35.999Z</time></trkpt><trkpt lat="43.53304919251826" lon="2.9929801774582905"><ele>139.0</ele><time>2026-04-07T16:34:36.999Z</time></trkpt><trkpt lat="43.53296966063078" lon="2.9931332847912646"><ele>139.0</ele><time>2026-04-07T16:34:37.999Z</time></trkpt><trkpt lat="43.53288177072919" lon="2.9932926953984706"><ele>147.25</ele><time>2026-04-07T16:34:38.999Z</time></trkpt><trkpt lat="43.53276025732913" lon="2.9933979073640433"><ele>155.5</ele><time>2026-04-07T16:34:39.999Z</time></trkpt><trkpt lat="43.532643980369585" lon="2.9934890109702192"><ele>163.75</ele><time>2026-04-07T16:34:40.999Z</time></trkpt><trkpt lat="43.532516608008095" lon="2.993556635524887"><ele>172.0</ele><time>2026-04-07T16:34:41.999Z</time></trkpt><trkpt lat="43.5323874660928" lon="2.993581894700704"><ele>172.0</ele><time>2026-04-07T16:34:42.999Z</time></trkpt><trkpt lat="43.53225571330467" lon="2.993581602655846"><ele>172.0</ele><time>2026-04-07T16:34:43.999Z</time></trkpt><trkpt lat="43.532127321337306" lon="2.993548039648287"><ele>172.0</ele><time>2026-04-07T16:34:44.999Z</time></trkpt><trkpt lat="43.53199939726455" lon="2.993492784954854"><ele>172.0</ele><time>2026-04-07T16:34:45.999Z</time></trkpt><trkpt lat="43.53187559538283" lon="2.9934382330721254"><ele>168.75</ele><time>2026-04-07T16:34:46.999Z</time></trkpt><trkpt lat="43.53174346148078" lon="2.99343573515402"><ele>165.5</ele><time>2026-04-07T16:34:47.999Z</time></trkpt><trkpt lat="43.531612002899536" lon="2.9934616464031016"><ele>162.25</ele><time>2026-04-07T16:34:48.999Z</time></trkpt><trkpt lat="43.53149015096544" lon="2.993508638791683"><ele>159.0</ele><time>2026-04-07T16:34:49.999Z</time></trkpt><trkpt lat="43.53137370893865" lon="2.9935722803667457"><ele>159.0</ele><time>2026-04-07T16:34:50.999Z</time></trkpt><trkpt lat="43.53126869751416" lon="2.9936472385978443"><ele>159.0</ele><time>2026-04-07T16:34:51.999Z</time></trkpt><trkpt lat="43.531173656307224" lon="2.99370909078032"><ele>159.0</ele><time>2026-04-07T16:34:52.999Z</time></trkpt><trkpt lat="43.531090827469775" lon="2.9937633046934153"><ele>159.0</ele><time>2026-04-07T16:34:53.999Z</time></trkpt><trkpt lat="43.53101398587817" lon="2.9937995247682574"><ele>159.0</ele><time>2026-04-07T16:34:54.999Z</time></trkpt><trkpt lat="43.53093291415679" lon="2.9937589705345444"><ele>155.75</ele><time>2026-04-07T16:34:55.999Z</time></trkpt><trkpt lat="43.53087010377637" lon="2.9936763397412256"><ele>152.5</ele><time>2026-04-07T16:34:56.999Z</time></trkpt><trkpt lat="43.53088114162785" lon="2.9934651081350756"><ele>149.25</ele><time>2026-04-07T16:34:57.999Z</time></trkpt><trkpt lat="43.530836559480896" lon="2.9933236525696216"><ele>146.0</ele><time>2026-04-07T16:34:58.999Z</time></trkpt><trkpt lat="43.53079161970071" lon="2.9931853913606115"><ele>144.25</ele><time>2026-04-07T16:34:59.999Z</time></trkpt><trkpt lat="43.53072985503597" lon="2.9930575657035234"><ele>142.5</ele><time>2026-04-07T16:35:00.999Z</time></trkpt><trkpt lat="43.530670864618585" lon="2.992924035112943"><ele>140.75</ele><time>2026-04-07T16:35:01.999Z</time></trkpt><trkpt lat="43.53057226273049" lon="2.9928454896997043"><ele>139.0</ele><time>2026-04-07T16:35:02.999Z</time></trkpt><trkpt lat="43.53045191764495" lon="2.9928309771366353"><ele>139.5</ele><time>2026-04-07T16:35:03.999Z</time></trkpt><trkpt lat="43.530320004813404" lon="2.9928860982676744"><ele>140.0</ele><time>2026-04-07T16:35:04.999Z</time></trkpt><trkpt lat="43.53018803409767" lon="2.9929658033405167"><ele>140.5</ele><time>2026-04-07T16:35:05.999Z</time></trkpt><trkpt lat="43.53006595828677" lon="2.9930364691227234"><ele>141.0</ele><time>2026-04-07T16:35:06.999Z</time></trkpt><trkpt lat="43.52995705176326" lon="2.9930919686493422"><ele>141.0</ele><time>2026-04-07T16:35:07.999Z</time></trkpt><trkpt lat="43.529851363518034" lon="2.9931519181719954"><ele>141.0</ele><time>2026-04-07T16:35:08.998Z</time></trkpt><trkpt lat="43.52973711746187" lon="2.99321366008197"><ele>141.0</ele><time>2026-04-07T16:35:09.998Z</time></trkpt><trkpt lat="43.5296040692426" lon="2.9932663035590488"><ele>141.0</ele><time>2026-04-07T16:35:10.998Z</time></trkpt><trkpt lat="43.52943142522099" lon="2.9932512796384048"><ele>138.25</ele><time>2026-04-07T16:35:11.998Z</time></trkpt><trkpt lat="43.529321314422994" lon="2.9932527718495496"><ele>135.5</ele><time>2026-04-07T16:35:12.998Z</time></trkpt><trkpt lat="43.52918359651169" lon="2.993225744983557"><ele>132.75</ele><time>2026-04-07T16:35:13.998Z</time></trkpt><trkpt lat="43.52905180660217" lon="2.9932062141798954"><ele>130.0</ele><time>2026-04-07T16:35:14.998Z</time></trkpt><trkpt lat="43.52891516881653" lon="2.9932143906117687"><ele>130.0</ele><time>2026-04-07T16:35:15.998Z</time></trkpt><trkpt lat="43.528773564053225" lon="2.993291826259043"><ele>130.0</ele><time>2026-04-07T16:35:16.998Z</time></trkpt><trkpt lat="43.52863656772246" lon="2.9934184226969185"><ele>130.0</ele><time>2026-04-07T16:35:17.998Z</time></trkpt><trkpt lat="43.528506136415054" lon="2.9935376760204555"><ele>132.0</ele><time>2026-04-07T16:35:18.998Z</time></trkpt><trkpt lat="43.528374363853366" lon="2.9936548624460637"><ele>134.0</ele><time>2026-04-07T16:35:19.998Z</time></trkpt><trkpt lat="43.5282426368814" lon="2.9937758380315214"><ele>136.0</ele><time>2026-04-07T16:35:20.998Z</time></trkpt><trkpt lat="43.52811381817233" lon="2.9939103701058456"><ele>136.0</ele><time>2026-04-07T16:35:21.998Z</time></trkpt><trkpt lat="43.52799503159919" lon="2.9940633864102755"><ele>136.0</ele><time>2026-04-07T16:35:22.998Z</time></trkpt><trkpt lat="43.52790168756579" lon="2.9942515439987303"><ele>136.0</ele><time>2026-04-07T16:35:23.998Z</time></trkpt><trkpt lat="43.527831229392895" lon="2.9944502383542626"><ele>134.5</ele><time>2026-04-07T16:35:24.998Z</time></trkpt><trkpt lat="43.52775720027334" lon="2.994637164590177"><ele>133.0</ele><time>2026-04-07T16:35:25.998Z</time></trkpt><trkpt lat="43.5276793311575" lon="2.9948081279493697"><ele>131.5</ele><time>2026-04-07T16:35:26.998Z</time></trkpt><trkpt lat="43.52761180445626" lon="2.994974638858073"><ele>130.0</ele><time>2026-04-07T16:35:27.998Z</time></trkpt><trkpt lat="43.52757183769167" lon="2.9951696421278373"><ele>130.0</ele><time>2026-04-07T16:35:28.998Z</time></trkpt><trkpt lat="43.52755488078151" lon="2.9953807448766354"><ele>130.0</ele><time>2026-04-07T16:35:29.998Z</time></trkpt><trkpt lat="43.52754846764668" lon="2.995596280975826"><ele>130.0</ele><time>2026-04-07T16:35:30.998Z</time></trkpt><trkpt lat="43.52755785103324" lon="2.9958103107318266"><ele>132.0</ele><time>2026-04-07T16:35:31.998Z</time></trkpt><trkpt lat="43.52759962004316" lon="2.99601605153403"><ele>134.0</ele><time>2026-04-07T16:35:32.998Z</time></trkpt><trkpt lat="43.52763073766003" lon="2.996211640911228"><ele>136.0</ele><time>2026-04-07T16:35:33.998Z</time></trkpt><trkpt lat="43.52760962360411" lon="2.9964170820380507"><ele>136.0</ele><time>2026-04-07T16:35:34.998Z</time></trkpt><trkpt lat="43.527528586543646" lon="2.996628726944858"><ele>136.0</ele><time>2026-04-07T16:35:35.998Z</time></trkpt><trkpt lat="43.52748609535936" lon="2.9968612303792908"><ele>136.0</ele><time>2026-04-07T16:35:36.998Z</time></trkpt><trkpt lat="43.52746312320362" lon="2.9970972764659027"><ele>138.0</ele><time>2026-04-07T16:35:37.998Z</time></trkpt><trkpt lat="43.52745919516483" lon="2.997315762665219"><ele>140.0</ele><time>2026-04-07T16:35:38.998Z</time></trkpt><trkpt lat="43.5274369284038" lon="2.997522488782179"><ele>142.0</ele><time>2026-04-07T16:35:39.998Z</time></trkpt><trkpt lat="43.527357475985745" lon="2.997727335729056"><ele>146.0</ele><time>2026-04-07T16:35:40.998Z</time></trkpt><trkpt lat="43.52726268879988" lon="2.99792842366388"><ele>150.0</ele><time>2026-04-07T16:35:41.998Z</time></trkpt><trkpt lat="43.52713943973175" lon="2.998091671530348"><ele>154.0</ele><time>2026-04-07T16:35:42.998Z</time></trkpt><trkpt lat="43.527022090280774" lon="2.9982560347940987"><ele>149.33333333333334</ele><time>2026-04-07T16:35:43.998Z</time></trkpt><trkpt lat="43.52687988807296" lon="2.998371515647519"><ele>144.66666666666666</ele><time>2026-04-07T16:35:44.998Z</time></trkpt><trkpt lat="43.52673581955211" lon="2.9984887816257695"><ele>140.0</ele><time>2026-04-07T16:35:45.998Z</time></trkpt><trkpt lat="43.52658897205375" lon="2.9985675060562706"><ele>140.0</ele><time>2026-04-07T16:35:46.998Z</time></trkpt><trkpt lat="43.52646811228937" lon="2.998712179312245"><ele>140.0</ele><time>2026-04-07T16:35:47.998Z</time></trkpt><trkpt lat="43.52637900867064" lon="2.9988974315269474"><ele>140.0</ele><time>2026-04-07T16:35:48.998Z</time></trkpt><trkpt lat="43.52629373197969" lon="2.9990791962804373"><ele>138.0</ele><time>2026-04-07T16:35:49.998Z</time></trkpt><trkpt lat="43.526203883011334" lon="2.999244371490155"><ele>136.0</ele><time>2026-04-07T16:35:50.998Z</time></trkpt><trkpt lat="43.526109154007976" lon="2.999391158667053"><ele>134.0</ele><time>2026-04-07T16:35:51.998Z</time></trkpt><trkpt lat="43.52601504159063" lon="2.999532651137822"><ele>132.0</ele><time>2026-04-07T16:35:52.998Z</time></trkpt><trkpt lat="43.52592606216158" lon="2.999667930470091"><ele>132.0</ele><time>2026-04-07T16:35:53.998Z</time></trkpt><trkpt lat="43.52583971096607" lon="2.9997992557792528"><ele>132.0</ele><time>2026-04-07T16:35:55Z</time></trkpt><trkpt lat="43.52575688938639" lon="2.9999276934732424"><ele>132.0</ele><time>2026-04-07T16:35:56Z</time></trkpt><trkpt lat="43.525661869394" lon="3.000035763060678"><ele>132.0</ele><time>2026-04-07T16:35:57Z</time></trkpt><trkpt lat="43.52551981345151" lon="3.000069647642082"><ele>129.33333333333334</ele><time>2026-04-07T16:35:58Z</time></trkpt><trkpt lat="43.52536214218398" lon="3.000032830234401"><ele>126.66666666666667</ele><time>2026-04-07T16:35:59Z</time></trkpt><trkpt lat="43.52518865246918" lon="3.000003324333023"><ele>124.0</ele><time>2026-04-07T16:36:00Z</time></trkpt><trkpt lat="43.525028892976266" lon="2.999970792612038"><ele>124.0</ele><time>2026-04-07T16:36:01Z</time></trkpt><trkpt lat="43.5248656373475" lon="2.999986459266978"><ele>124.0</ele><time>2026-04-07T16:36:02Z</time></trkpt><trkpt lat="43.52470853343868" lon="3.0000045051629254"><ele>124.0</ele><time>2026-04-07T16:36:03Z</time></trkpt><trkpt lat="43.52455868153641" lon="3.0000153734196595"><ele>123.0</ele><time>2026-04-07T16:36:04Z</time></trkpt><trkpt lat="43.52441043011" lon="3.0000159821841765"><ele>122.0</ele><time>2026-04-07T16:36:05Z</time></trkpt><trkpt lat="43.524261928907244" lon="3.0000120753765054"><ele>121.0</ele><time>2026-04-07T16:36:06Z</time></trkpt><trkpt lat="43.5241139361095" lon="3.0000121918589397"><ele>120.0</ele><time>2026-04-07T16:36:07Z</time></trkpt><trkpt lat="43.52395693826585" lon="3.000024814506503"><ele>120.0</ele><time>2026-04-07T16:36:08Z</time></trkpt><trkpt lat="43.523807468173935" lon="3.0000304917805223"><ele>120.0</ele><time>2026-04-07T16:36:09Z</time></trkpt><trkpt lat="43.52366003587007" lon="3.0000514662847824"><ele>120.0</ele><time>2026-04-07T16:36:10Z</time></trkpt><trkpt lat="43.52352043663302" lon="3.0000867786128333"><ele>120.0</ele><time>2026-04-07T16:36:11Z</time></trkpt><trkpt lat="43.52338625163675" lon="3.0001360169533244"><ele>119.25</ele><time>2026-04-07T16:36:12Z</time></trkpt><trkpt lat="43.523258064875876" lon="3.000161715472569"><ele>118.5</ele><time>2026-04-07T16:36:13Z</time></trkpt><trkpt lat="43.52313086374244" lon="3.000090665036582"><ele>117.75</ele><time>2026-04-07T16:36:14Z</time></trkpt><trkpt lat="43.523016047949724" lon="2.9999867719959146"><ele>117.0</ele><time>2026-04-07T16:36:15Z</time></trkpt><trkpt lat="43.522939192074006" lon="2.9998198600061876"><ele>118.5</ele><time>2026-04-07T16:36:16Z</time></trkpt><trkpt lat="43.52288939130549" lon="2.9996354262419893"><ele>120.0</ele><time>2026-04-07T16:36:17Z</time></trkpt><trkpt lat="43.522843253561476" lon="2.9994646594982783"><ele>121.5</ele><time>2026-04-07T16:36:18Z</time></trkpt><trkpt lat="43.52274597709414" lon="2.9993051699174993"><ele>123.0</ele><time>2026-04-07T16:36:19Z</time></trkpt><trkpt lat="43.5226407226909" lon="2.9991636058714826"><ele>123.0</ele><time>2026-04-07T16:36:20Z</time></trkpt><trkpt lat="43.52251961913849" lon="2.999058168240191"><ele>123.0</ele><time>2026-04-07T16:36:21Z</time></trkpt><trkpt lat="43.52240440175287" lon="2.9989788897658523"><ele>123.0</ele><time>2026-04-07T16:36:22Z</time></trkpt><trkpt lat="43.522311163772315" lon="2.9988593866997344"><ele>123.0</ele><time>2026-04-07T16:36:23Z</time></trkpt><trkpt lat="43.52224489748164" lon="2.9987020399929087"><ele>123.0</ele><time>2026-04-07T16:36:24Z</time></trkpt><trkpt lat="43.522193306807914" lon="2.998523858666563"><ele>123.0</ele><time>2026-04-07T16:36:25Z</time></trkpt><trkpt lat="43.52216062561818" lon="2.9983334947805957"><ele>123.0</ele><time>2026-04-07T16:36:26Z</time></trkpt><trkpt lat="43.5221499359023" lon="2.998146610753403"><ele>123.0</ele><time>2026-04-07T16:36:27Z</time></trkpt><trkpt lat="43.52215518063301" lon="2.997949031584598"><ele>119.75</ele><time>2026-04-07T16:36:28Z</time></trkpt><trkpt lat="43.522145124480424" lon="2.997752960254785"><ele>116.5</ele><time>2026-04-07T16:36:29Z</time></trkpt><trkpt lat="43.522138556620554" lon="2.9975630411701397"><ele>113.25</ele><time>2026-04-07T16:36:30Z</time></trkpt><trkpt lat="43.52212038100014" lon="2.9973652901447063"><ele>110.0</ele><time>2026-04-07T16:36:31Z</time></trkpt><trkpt lat="43.5220957767016" lon="2.9971764998757653"><ele>115.0</ele><time>2026-04-07T16:36:31.999Z</time></trkpt><trkpt lat="43.522063426301024" lon="2.9969904633680957"><ele>120.0</ele><time>2026-04-07T16:36:32.999Z</time></trkpt><trkpt lat="43.52200182810876" lon="2.9968123866817193"><ele>125.0</ele><time>2026-04-07T16:36:33.999Z</time></trkpt><trkpt lat="43.52190333805905" lon="2.9966501375543313"><ele>130.0</ele><time>2026-04-07T16:36:34.999Z</time></trkpt><trkpt lat="43.52179555334053" lon="2.9965039790689283"><ele>130.0</ele><time>2026-04-07T16:36:35.999Z</time></trkpt><trkpt lat="43.52168657183488" lon="2.996362860851508"><ele>130.0</ele><time>2026-04-07T16:36:36.999Z</time></trkpt><trkpt lat="43.52157970915403" lon="2.9962142310066833"><ele>130.0</ele><time>2026-04-07T16:36:37.999Z</time></trkpt><trkpt lat="43.52147786837385" lon="2.9960533137316268"><ele>130.0</ele><time>2026-04-07T16:36:38.999Z</time></trkpt><trkpt lat="43.52138600752751" lon="2.995879376205117"><ele>130.0</ele><time>2026-04-07T16:36:39.999Z</time></trkpt><trkpt lat="43.52129201995223" lon="2.9957043909707872"><ele>130.0</ele><time>2026-04-07T16:36:40.999Z</time></trkpt><trkpt lat="43.52118278668693" lon="2.9955388073801923"><ele>132.66666666666669</ele><time>2026-04-07T16:36:41.999Z</time></trkpt><trkpt lat="43.52106108090971" lon="2.9953893375132585"><ele>135.33333333333334</ele><time>2026-04-07T16:36:42.999Z</time></trkpt><trkpt lat="43.52093247066942" lon="2.99524883997202"><ele>138.0</ele><time>2026-04-07T16:36:43.999Z</time></trkpt><trkpt lat="43.520797815062124" lon="2.9951224707468973"><ele>138.0</ele><time>2026-04-07T16:36:44.999Z</time></trkpt><trkpt lat="43.520654044567706" lon="2.995009057144324"><ele>138.0</ele><time>2026-04-07T16:36:45.999Z</time></trkpt><trkpt lat="43.52049781236125" lon="2.9949170121057964"><ele>138.0</ele><time>2026-04-07T16:36:46.999Z</time></trkpt><trkpt lat="43.52033641807437" lon="2.994835554458913"><ele>135.0</ele><time>2026-04-07T16:36:47.999Z</time></trkpt><trkpt lat="43.520173147118015" lon="2.9947621726586515"><ele>132.0</ele><time>2026-04-07T16:36:48.999Z</time></trkpt><trkpt lat="43.52000968909215" lon="2.9946872566387928"><ele>129.0</ele><time>2026-04-07T16:36:49.999Z</time></trkpt><trkpt lat="43.51984008015516" lon="2.9946247184558192"><ele>129.0</ele><time>2026-04-07T16:36:50.999Z</time></trkpt><trkpt lat="43.519675094342034" lon="2.9945701972871044"><ele>129.0</ele><time>2026-04-07T16:36:51.999Z</time></trkpt><trkpt lat="43.51950965234154" lon="2.994517735575336"><ele>129.0</ele><time>2026-04-07T16:36:52.999Z</time></trkpt><trkpt lat="43.51934379718796" lon="2.9944662081940163"><ele>131.33333333333334</ele><time>2026-04-07T16:36:53.999Z</time></trkpt><trkpt lat="43.51917792292122" lon="2.994421033665082"><ele>133.66666666666669</ele><time>2026-04-07T16:36:54.999Z</time></trkpt><trkpt lat="43.51901437762958" lon="2.99437682058617"><ele>136.0</ele><time>2026-04-07T16:36:55.999Z</time></trkpt><trkpt lat="43.5188587486819" lon="2.9943370438024024"><ele>133.33333333333334</ele><time>2026-04-07T16:36:56.999Z</time></trkpt><trkpt lat="43.518708141348284" lon="2.9943316470472463"><ele>130.66666666666666</ele><time>2026-04-07T16:36:57.999Z</time></trkpt><trkpt lat="43.518551745694424" lon="2.99439150182245"><ele>128.0</ele><time>2026-04-07T16:36:58.999Z</time></trkpt><trkpt lat="43.51840290073363" lon="2.994500029579003"><ele>128.0</ele><time>2026-04-07T16:36:59.999Z</time></trkpt><trkpt lat="43.518278675677074" lon="2.994625280985353"><ele>128.0</ele><time>2026-04-07T16:37:00.999Z</time></trkpt><trkpt lat="43.51817135663267" lon="2.994749458331554"><ele>128.0</ele><time>2026-04-07T16:37:01.999Z</time></trkpt><trkpt lat="43.5180862954357" lon="2.994902549210965"><ele>128.0</ele><time>2026-04-07T16:37:02.999Z</time></trkpt><trkpt lat="43.518035993095744" lon="2.995103896748916"><ele>127.75</ele><time>2026-04-07T16:37:03.999Z</time></trkpt><trkpt lat="43.518016372837245" lon="2.9953080204445026"><ele>127.5</ele><time>2026-04-07T16:37:04.999Z</time></trkpt><trkpt lat="43.51796786230855" lon="2.9954767006642844"><ele>127.25</ele><time>2026-04-07T16:37:05.999Z</time></trkpt><trkpt lat="43.517848960343976" lon="2.9955815958142384"><ele>127.0</ele><time>2026-04-07T16:37:06.999Z</time></trkpt><trkpt lat="43.517726118983624" lon="2.9956239683319654"><ele>127.0</ele><time>2026-04-07T16:37:07.999Z</time></trkpt><trkpt lat="43.517593647822494" lon="2.995645569780737"><ele>127.0</ele><time>2026-04-07T16:37:08.999Z</time></trkpt><trkpt lat="43.5174453542706" lon="2.9956439571772138"><ele>127.0</ele><time>2026-04-07T16:37:09.999Z</time></trkpt><trkpt lat="43.51730358302382" lon="2.995629841386575"><ele>127.0</ele><time>2026-04-07T16:37:10.999Z</time></trkpt><trkpt lat="43.51717034413167" lon="2.9955857634257086"><ele>128.0</ele><time>2026-04-07T16:37:11.999Z</time></trkpt><trkpt lat="43.517039739351645" lon="2.9955257416940384"><ele>129.0</ele><time>2026-04-07T16:37:12.999Z</time></trkpt><trkpt lat="43.51697507922543" lon="2.99535939051469"><ele>130.0</ele><time>2026-04-07T16:37:13.999Z</time></trkpt><trkpt lat="43.51696972591235" lon="2.9951869849360926"><ele>131.0</ele><time>2026-04-07T16:37:14.999Z</time></trkpt><trkpt lat="43.516943239647716" lon="2.9949986445769836"><ele>131.0</ele><time>2026-04-07T16:37:15.999Z</time></trkpt><trkpt lat="43.516923092368444" lon="2.9948213889047013"><ele>131.0</ele><time>2026-04-07T16:37:16.999Z</time></trkpt><trkpt lat="43.5168650870863" lon="2.994661832850043"><ele>131.0</ele><time>2026-04-07T16:37:17.998Z</time></trkpt><trkpt lat="43.51679111013969" lon="2.994512582208857"><ele>131.0</ele><time>2026-04-07T16:37:18.998Z</time></trkpt><trkpt lat="43.516697540269774" lon="2.9943748060057653"><ele>131.0</ele><time>2026-04-07T16:37:19.998Z</time></trkpt><trkpt lat="43.51659220427629" lon="2.994251991270078"><ele>131.0</ele><time>2026-04-07T16:37:20.998Z</time></trkpt><trkpt lat="43.51646607658884" lon="2.9941741614975586"><ele>131.0</ele><time>2026-04-07T16:37:21.998Z</time></trkpt><trkpt lat="43.51631584076452" lon="2.994143704695153"><ele>131.0</ele><time>2026-04-07T16:37:22.998Z</time></trkpt><trkpt lat="43.51618141114658" lon="2.9941265620095416"><ele>131.25</ele><time>2026-04-07T16:37:23.998Z</time></trkpt><trkpt lat="43.51604196626282" lon="2.9941002013062024"><ele>131.5</ele><time>2026-04-07T16:37:24.998Z</time></trkpt><trkpt lat="43.51591100778021" lon="2.9939951262742905"><ele>131.75</ele><time>2026-04-07T16:37:25.998Z</time></trkpt><trkpt lat="43.51580102038581" lon="2.9938446321489085"><ele>132.0</ele><time>2026-04-07T16:37:26.998Z</time></trkpt><trkpt lat="43.51567182278905" lon="2.9937130830617176"><ele>132.0</ele><time>2026-04-07T16:37:27.998Z</time></trkpt><trkpt lat="43.515538810702736" lon="2.9936024850015026"><ele>132.0</ele><time>2026-04-07T16:37:28.998Z</time></trkpt><trkpt lat="43.51541958912265" lon="2.993494318857502"><ele>132.0</ele><time>2026-04-07T16:37:29.998Z</time></trkpt><trkpt lat="43.51530440228126" lon="2.993386242366167"><ele>132.0</ele><time>2026-04-07T16:37:30.998Z</time></trkpt><trkpt lat="43.5151847059634" lon="2.9932774921819303"><ele>131.75</ele><time>2026-04-07T16:37:31.998Z</time></trkpt><trkpt lat="43.51506706166542" lon="2.9931687161974363"><ele>131.5</ele><time>2026-04-07T16:37:32.998Z</time></trkpt><trkpt lat="43.51495599509008" lon="2.993070268449898"><ele>131.25</ele><time>2026-04-07T16:37:33.998Z</time></trkpt><trkpt lat="43.51484386267618" lon="2.9929919070755275"><ele>131.0</ele><time>2026-04-07T16:37:34.998Z</time></trkpt><trkpt lat="43.51472793063525" lon="2.992956641339646"><ele>131.0</ele><time>2026-04-07T16:37:35.998Z</time></trkpt><trkpt lat="43.51460155890353" lon="2.9929689813872358"><ele>131.0</ele><time>2026-04-07T16:37:36.998Z</time></trkpt><trkpt lat="43.5144810466921" lon="2.9929968897756933"><ele>131.0</ele><time>2026-04-07T16:37:37.998Z</time></trkpt><trkpt lat="43.51435953854036" lon="2.992954369559823"><ele>131.0</ele><time>2026-04-07T16:37:38.998Z</time></trkpt><trkpt lat="43.51423112122312" lon="2.9929008200853553"><ele>133.5</ele><time>2026-04-07T16:37:39.998Z</time></trkpt><trkpt lat="43.51409581199214" lon="2.99285374799828"><ele>136.0</ele><time>2026-04-07T16:37:40.998Z</time></trkpt><trkpt lat="43.51396342791138" lon="2.9928044830766765"><ele>138.5</ele><time>2026-04-07T16:37:41.998Z</time></trkpt><trkpt lat="43.5138438780348" lon="2.992722344262733"><ele>141.0</ele><time>2026-04-07T16:37:42.998Z</time></trkpt><trkpt lat="43.513727546414906" lon="2.9926466004455152"><ele>137.75</ele><time>2026-04-07T16:37:43.998Z</time></trkpt><trkpt lat="43.513607028310446" lon="2.9925734406532536"><ele>134.5</ele><time>2026-04-07T16:37:44.998Z</time></trkpt><trkpt lat="43.51347553898325" lon="2.992535657826846"><ele>131.25</ele><time>2026-04-07T16:37:45.998Z</time></trkpt><trkpt lat="43.51334954228973" lon="2.992483292828034"><ele>128.0</ele><time>2026-04-07T16:37:46.998Z</time></trkpt><trkpt lat="43.5132380148229" lon="2.992394218123291"><ele>128.0</ele><time>2026-04-07T16:37:47.998Z</time></trkpt><trkpt lat="43.513136178270656" lon="2.99226259288965"><ele>128.0</ele><time>2026-04-07T16:37:48.998Z</time></trkpt><trkpt lat="43.51303600306695" lon="2.9921076437325604"><ele>128.0</ele><time>2026-04-07T16:37:49.998Z</time></trkpt><trkpt lat="43.51293522705126" lon="2.9919596547055383"><ele>128.0</ele><time>2026-04-07T16:37:50.998Z</time></trkpt><trkpt lat="43.51283314011499" lon="2.9918237860178523"><ele>128.25</ele><time>2026-04-07T16:37:51.998Z</time></trkpt><trkpt lat="43.51272371775265" lon="2.9917007727345255"><ele>128.5</ele><time>2026-04-07T16:37:52.998Z</time></trkpt><trkpt lat="43.51259418992136" lon="2.9916032310132126"><ele>128.75</ele><time>2026-04-07T16:37:53.998Z</time></trkpt><trkpt lat="43.51245775706385" lon="2.991534270012242"><ele>129.0</ele><time>2026-04-07T16:37:54.998Z</time></trkpt><trkpt lat="43.512330315716675" lon="2.991467381686853"><ele>129.0</ele><time>2026-04-07T16:37:55.998Z</time></trkpt><trkpt lat="43.51220869144939" lon="2.9913891311560676"><ele>129.0</ele><time>2026-04-07T16:37:56.998Z</time></trkpt><trkpt lat="43.512088557159906" lon="2.991289609292759"><ele>129.0</ele><time>2026-04-07T16:37:57.998Z</time></trkpt><trkpt lat="43.5119786515864" lon="2.9911767217621636"><ele>129.0</ele><time>2026-04-07T16:37:58.998Z</time></trkpt><trkpt lat="43.51187400113264" lon="2.9910498957303"><ele>128.75</ele><time>2026-04-07T16:37:59.998Z</time></trkpt><trkpt lat="43.511775352130684" lon="2.9909201176296283"><ele>128.5</ele><time>2026-04-07T16:38:01Z</time></trkpt><trkpt lat="43.511676419267616" lon="2.9907824034958423"><ele>128.25</ele><time>2026-04-07T16:38:02Z</time></trkpt><trkpt lat="43.5115822459433" lon="2.9906442370104322"><ele>128.0</ele><time>2026-04-07T16:38:03Z</time></trkpt><trkpt lat="43.51148835095905" lon="2.9905055751865484"><ele>128.0</ele><time>2026-04-07T16:38:04Z</time></trkpt><trkpt lat="43.51139458154071" lon="2.9903627268687325"><ele>128.0</ele><time>2026-04-07T16:38:05Z</time></trkpt><trkpt lat="43.5113047467955" lon="2.9902015319370303"><ele>128.0</ele><time>2026-04-07T16:38:06Z</time></trkpt><trkpt lat="43.51120879929244" lon="2.990040094077943"><ele>128.0</ele><time>2026-04-07T16:38:07Z</time></trkpt><trkpt lat="43.51111358223326" lon="2.9898805275307283"><ele>130.0</ele><time>2026-04-07T16:38:08Z</time></trkpt><trkpt lat="43.51101190094397" lon="2.9897188898304536"><ele>132.0</ele><time>2026-04-07T16:38:09Z</time></trkpt><trkpt lat="43.51091031806503" lon="2.9895560498429314"><ele>134.0</ele><time>2026-04-07T16:38:10Z</time></trkpt><trkpt lat="43.510797601486885" lon="2.9893941394051047"><ele>134.0</ele><time>2026-04-07T16:38:11Z</time></trkpt><trkpt lat="43.51067534953031" lon="2.9892422614438723"><ele>134.0</ele><time>2026-04-07T16:38:12Z</time></trkpt><trkpt lat="43.51053623384136" lon="2.989098586234698"><ele>134.0</ele><time>2026-04-07T16:38:13Z</time></trkpt><trkpt lat="43.51039921183556" lon="2.988962458766408"><ele>131.66666666666666</ele><time>2026-04-07T16:38:14Z</time></trkpt><trkpt lat="43.510257834805046" lon="2.9888271976424106"><ele>129.33333333333334</ele><time>2026-04-07T16:38:15Z</time></trkpt><trkpt lat="43.510115707930005" lon="2.988693719332614"><ele>127.0</ele><time>2026-04-07T16:38:16Z</time></trkpt><trkpt lat="43.50996995188262" lon="2.9885867925089893"><ele>127.0</ele><time>2026-04-07T16:38:17Z</time></trkpt><trkpt lat="43.509821697672535" lon="2.988516267345969"><ele>127.0</ele><time>2026-04-07T16:38:18Z</time></trkpt><trkpt lat="43.50967489120373" lon="2.988481511219066"><ele>127.0</ele><time>2026-04-07T16:38:19Z</time></trkpt><trkpt lat="43.50952547982263" lon="2.988484771710523"><ele>125.33333333333334</ele><time>2026-04-07T16:38:20Z</time></trkpt><trkpt lat="43.50938121882711" lon="2.98852432281237"><ele>123.66666666666666</ele><time>2026-04-07T16:38:21Z</time></trkpt><trkpt lat="43.50923864406211" lon="2.9886010624860804"><ele>122.0</ele><time>2026-04-07T16:38:22Z</time></trkpt><trkpt lat="43.50909869305757" lon="2.9886831746001397"><ele>122.0</ele><time>2026-04-07T16:38:23Z</time></trkpt><trkpt lat="43.50895235456395" lon="2.988763753611406"><ele>122.0</ele><time>2026-04-07T16:38:24Z</time></trkpt><trkpt lat="43.50880685685982" lon="2.9888460835689363"><ele>122.0</ele><time>2026-04-07T16:38:25Z</time></trkpt><trkpt lat="43.50865979114489" lon="2.9889316691285535"><ele>122.0</ele><time>2026-04-07T16:38:26Z</time></trkpt><trkpt lat="43.50851110231422" lon="2.9890222904993013"><ele>122.0</ele><time>2026-04-07T16:38:27Z</time></trkpt><trkpt lat="43.508364338771386" lon="2.9891090919567844"><ele>122.0</ele><time>2026-04-07T16:38:28Z</time></trkpt><trkpt lat="43.50821042510075" lon="2.98919547784497"><ele>122.0</ele><time>2026-04-07T16:38:29Z</time></trkpt><trkpt lat="43.50806142144225" lon="2.989315567600081"><ele>122.0</ele><time>2026-04-07T16:38:30Z</time></trkpt><trkpt lat="43.50792473483578" lon="2.9894793212778485"><ele>122.0</ele><time>2026-04-07T16:38:31Z</time></trkpt><trkpt lat="43.507804908607554" lon="2.9896671724520365"><ele>120.66666666666666</ele><time>2026-04-07T16:38:32Z</time></trkpt><trkpt lat="43.50769615856859" lon="2.9898610963348236"><ele>119.33333333333334</ele><time>2026-04-07T16:38:33Z</time></trkpt><trkpt lat="43.507579380867455" lon="2.9900674432614402"><ele>118.0</ele><time>2026-04-07T16:38:34Z</time></trkpt><trkpt lat="43.50746070346539" lon="2.9902495956990847"><ele>118.0</ele><time>2026-04-07T16:38:35Z</time></trkpt><trkpt lat="43.50734470655239" lon="2.990432630247236"><ele>118.0</ele><time>2026-04-07T16:38:36Z</time></trkpt><trkpt lat="43.50722945343183" lon="2.99061641967624"><ele>118.0</ele><time>2026-04-07T16:38:37Z</time></trkpt><trkpt lat="43.50710401315414" lon="2.9907920008903224"><ele>118.0</ele><time>2026-04-07T16:38:37.999Z</time></trkpt><trkpt lat="43.50698349587666" lon="2.9909640915367137"><ele>118.0</ele><time>2026-04-07T16:38:38.999Z</time></trkpt><trkpt lat="43.50686629720506" lon="2.991134380275072"><ele>118.0</ele><time>2026-04-07T16:38:39.999Z</time></trkpt><trkpt lat="43.50674058153269" lon="2.991302055268848"><ele>118.0</ele><time>2026-04-07T16:38:40.999Z</time></trkpt><trkpt lat="43.506612533049996" lon="2.9914561267191915"><ele>118.0</ele><time>2026-04-07T16:38:41.999Z</time></trkpt><trkpt lat="43.50645450422698" lon="2.9916175659990247"><ele>118.0</ele><time>2026-04-07T16:38:42.999Z</time></trkpt><trkpt lat="43.50633408408525" lon="2.9917714711575107"><ele>115.0</ele><time>2026-04-07T16:38:43.999Z</time></trkpt><trkpt lat="43.50621484073061" lon="2.9919484332415736"><ele>112.0</ele><time>2026-04-07T16:38:44.999Z</time></trkpt><trkpt lat="43.50609633530467" lon="2.992116301073823"><ele>109.0</ele><time>2026-04-07T16:38:45.999Z</time></trkpt><trkpt lat="43.505975783289486" lon="2.992284268005881"><ele>109.0</ele><time>2026-04-07T16:38:46.999Z</time></trkpt><trkpt lat="43.50585920465768" lon="2.99244982635182"><ele>109.0</ele><time>2026-04-07T16:38:47.999Z</time></trkpt><trkpt lat="43.50573597483161" lon="2.9926243902662573"><ele>109.0</ele><time>2026-04-07T16:38:48.999Z</time></trkpt><trkpt lat="43.505616049349754" lon="2.992787382557281"><ele>108.66666666666667</ele><time>2026-04-07T16:38:49.999Z</time></trkpt><trkpt lat="43.5055026734213" lon="2.9929635997015893"><ele>108.33333333333334</ele><time>2026-04-07T16:38:50.999Z</time></trkpt><trkpt lat="43.50540684735591" lon="2.993157480314616"><ele>108.0</ele><time>2026-04-07T16:38:51.999Z</time></trkpt><trkpt lat="43.50531896302156" lon="2.9933638096936623"><ele>108.0</ele><time>2026-04-07T16:38:52.999Z</time></trkpt><trkpt lat="43.5052536959284" lon="2.993589111399819"><ele>108.0</ele><time>2026-04-07T16:38:53.999Z</time></trkpt><trkpt lat="43.50519661212804" lon="2.9938171864052605"><ele>108.0</ele><time>2026-04-07T16:38:54.999Z</time></trkpt><trkpt lat="43.505132117985056" lon="2.994045063217065"><ele>110.66666666666666</ele><time>2026-04-07T16:38:55.999Z</time></trkpt><trkpt lat="43.50506490406068" lon="2.9942698708837017"><ele>113.33333333333333</ele><time>2026-04-07T16:38:56.999Z</time></trkpt><trkpt lat="43.50500590214385" lon="2.9944958845882463"><ele>116.0</ele><time>2026-04-07T16:38:57.999Z</time></trkpt><trkpt lat="43.50496489276845" lon="2.994736662741156"><ele>116.0</ele><time>2026-04-07T16:38:58.999Z</time></trkpt><trkpt lat="43.50493564924306" lon="2.994978270228901"><ele>116.0</ele><time>2026-04-07T16:38:59.999Z</time></trkpt><trkpt lat="43.50491151312638" lon="2.9951928117573305"><ele>116.0</ele><time>2026-04-07T16:39:00.999Z</time></trkpt><trkpt lat="43.50486402584012" lon="2.995383607272911"><ele>114.33333333333333</ele><time>2026-04-07T16:39:01.999Z</time></trkpt><trkpt lat="43.50481679046521" lon="2.9955362763379196"><ele>112.66666666666666</ele><time>2026-04-07T16:39:02.999Z</time></trkpt><trkpt lat="43.504758984942306" lon="2.995635178235682"><ele>111.0</ele><time>2026-04-07T16:39:03.999Z</time></trkpt><trkpt lat="43.504577205925806" lon="2.995952163888251"><ele>111.0</ele><time>2026-04-07T16:39:04.999Z</time></trkpt><trkpt lat="43.504472399779175" lon="2.996144277175973"><ele>111.0</ele><time>2026-04-07T16:39:05.999Z</time></trkpt><trkpt lat="43.50436759509211" lon="2.996340147006197"><ele>111.0</ele><time>2026-04-07T16:39:06.999Z</time></trkpt><trkpt lat="43.50427370561338" lon="2.996553884897825"><ele>116.0</ele><time>2026-04-07T16:39:07.999Z</time></trkpt><trkpt lat="43.5041683886357" lon="2.996761186683939"><ele>121.0</ele><time>2026-04-07T16:39:08.999Z</time></trkpt><trkpt lat="43.50407853819856" lon="2.996977561151776"><ele>126.0</ele><time>2026-04-07T16:39:09.999Z</time></trkpt><trkpt lat="43.503983961510045" lon="2.9971888436195355"><ele>126.0</ele><time>2026-04-07T16:39:10.999Z</time></trkpt><trkpt lat="43.50385780812978" lon="2.9973657442486332"><ele>126.0</ele><time>2026-04-07T16:39:11.999Z</time></trkpt><trkpt lat="43.50374820458794" lon="2.997541303759263"><ele>126.0</ele><time>2026-04-07T16:39:12.999Z</time></trkpt><trkpt lat="43.503642071196936" lon="2.997713914054235"><ele>120.0</ele><time>2026-04-07T16:39:13.999Z</time></trkpt><trkpt lat="43.50354766601346" lon="2.9979014977000022"><ele>114.0</ele><time>2026-04-07T16:39:14.999Z</time></trkpt><trkpt lat="43.5034293941537" lon="2.99805838481047"><ele>108.0</ele><time>2026-04-07T16:39:15.999Z</time></trkpt><trkpt lat="43.50333121261751" lon="2.998241580998809"><ele>109.33333333333334</ele><time>2026-04-07T16:39:16.999Z</time></trkpt><trkpt lat="43.50322505415976" lon="2.9984122587289974"><ele>110.66666666666667</ele><time>2026-04-07T16:39:17.999Z</time></trkpt><trkpt lat="43.50311675206568" lon="2.998574734622117"><ele>112.0</ele><time>2026-04-07T16:39:18.999Z</time></trkpt><trkpt lat="43.50301998270905" lon="2.9987447009222925"><ele>112.0</ele><time>2026-04-07T16:39:19.999Z</time></trkpt><trkpt lat="43.50292935725199" lon="2.998923286363567"><ele>112.0</ele><time>2026-04-07T16:39:20.999Z</time></trkpt><trkpt lat="43.50286371496661" lon="2.999126594971811"><ele>112.0</ele><time>2026-04-07T16:39:21.999Z</time></trkpt><trkpt lat="43.50283544482675" lon="2.99934402578091"><ele>110.0</ele><time>2026-04-07T16:39:22.998Z</time></trkpt><trkpt lat="43.50283899789182" lon="2.9995707448534086"><ele>108.0</ele><time>2026-04-07T16:39:23.998Z</time></trkpt><trkpt lat="43.502847421050234" lon="2.999788664642169"><ele>106.0</ele><time>2026-04-07T16:39:24.998Z</time></trkpt><trkpt lat="43.50285124832843" lon="3.000000903514568"><ele>106.0</ele><time>2026-04-07T16:39:25.998Z</time></trkpt><trkpt lat="43.5028468122454" lon="3.000216775643104"><ele>106.0</ele><time>2026-04-07T16:39:26.998Z</time></trkpt><trkpt lat="43.502850000169694" lon="3.000466425375095"><ele>106.0</ele><time>2026-04-07T16:39:27.998Z</time></trkpt><trkpt lat="43.502834553858776" lon="3.0006757048812833"><ele>105.33333333333334</ele><time>2026-04-07T16:39:28.998Z</time></trkpt><trkpt lat="43.502816078456306" lon="3.000895375512504"><ele>104.66666666666666</ele><time>2026-04-07T16:39:29.998Z</time></trkpt><trkpt lat="43.502789637794415" lon="3.0011199676576172"><ele>104.0</ele><time>2026-04-07T16:39:30.998Z</time></trkpt><trkpt lat="43.50276318833283" lon="3.001339802652842"><ele>104.0</ele><time>2026-04-07T16:39:31.998Z</time></trkpt><trkpt lat="43.502733517063504" lon="3.0015641535367767"><ele>104.0</ele><time>2026-04-07T16:39:32.998Z</time></trkpt><trkpt lat="43.502709218372395" lon="3.0017862527391777"><ele>104.0</ele><time>2026-04-07T16:39:33.998Z</time></trkpt><trkpt lat="43.50267771848469" lon="3.0020117642419777"><ele>103.33333333333333</ele><time>2026-04-07T16:39:34.998Z</time></trkpt><trkpt lat="43.50264959653497" lon="3.002226374511768"><ele>102.66666666666666</ele><time>2026-04-07T16:39:35.998Z</time></trkpt><trkpt lat="43.50262870162284" lon="3.002464474027873"><ele>102.0</ele><time>2026-04-07T16:39:36.998Z</time></trkpt><trkpt lat="43.5026042127836" lon="3.0026958229614675"><ele>100.66666666666666</ele><time>2026-04-07T16:39:37.998Z</time></trkpt><trkpt lat="43.50257513608479" lon="3.0029280788474253"><ele>99.33333333333333</ele><time>2026-04-07T16:39:38.998Z</time></trkpt><trkpt lat="43.50254660667201" lon="3.003164319365562"><ele>98.0</ele><time>2026-04-07T16:39:39.998Z</time></trkpt><trkpt lat="43.502529064944575" lon="3.0034025812690928"><ele>97.0</ele><time>2026-04-07T16:39:40.998Z</time></trkpt><trkpt lat="43.50254539826368" lon="3.0036517348395786"><ele>96.0</ele><time>2026-04-07T16:39:41.998Z</time></trkpt><trkpt lat="43.50258240510051" lon="3.003903267255853"><ele>95.0</ele><time>2026-04-07T16:39:42.998Z</time></trkpt><trkpt lat="43.50262275239968" lon="3.0041494911699873"><ele>93.66666666666667</ele><time>2026-04-07T16:39:43.998Z</time></trkpt><trkpt lat="43.502653470862626" lon="3.0043981089620106"><ele>92.33333333333333</ele><time>2026-04-07T16:39:44.998Z</time></trkpt><trkpt lat="43.50268296872851" lon="3.0046398954068305"><ele>91.0</ele><time>2026-04-07T16:39:45.998Z</time></trkpt><trkpt lat="43.50270010928357" lon="3.004892659502677"><ele>90.0</ele><time>2026-04-07T16:39:46.998Z</time></trkpt><trkpt lat="43.502717756651144" lon="3.0051523925619095"><ele>89.0</ele><time>2026-04-07T16:39:47.998Z</time></trkpt><trkpt lat="43.502707899549755" lon="3.0054035125075838"><ele>88.0</ele><time>2026-04-07T16:39:48.998Z</time></trkpt><trkpt lat="43.50268295098669" lon="3.0056544693814167"><ele>87.66666666666666</ele><time>2026-04-07T16:39:49.998Z</time></trkpt><trkpt lat="43.502658644748486" lon="3.00591105076882"><ele>87.33333333333333</ele><time>2026-04-07T16:39:50.998Z</time></trkpt><trkpt lat="43.50263815295183" lon="3.0061609881065023"><ele>87.0</ele><time>2026-04-07T16:39:51.998Z</time></trkpt><trkpt lat="43.50262043431437" lon="3.0064159103499732"><ele>86.33333333333333</ele><time>2026-04-07T16:39:52.998Z</time></trkpt><trkpt lat="43.50260055243019" lon="3.006661631914592"><ele>85.66666666666666</ele><time>2026-04-07T16:39:53.998Z</time></trkpt><trkpt lat="43.50258145575464" lon="3.0069092855657704"><ele>85.0</ele><time>2026-04-07T16:39:54.998Z</time></trkpt><trkpt lat="43.50256066049201" lon="3.0071506428495955"><ele>85.0</ele><time>2026-04-07T16:39:55.998Z</time></trkpt><trkpt lat="43.50254311291035" lon="3.007399511192908"><ele>85.0</ele><time>2026-04-07T16:39:56.998Z</time></trkpt><trkpt lat="43.50252228822572" lon="3.0076412754150743"><ele>85.0</ele><time>2026-04-07T16:39:57.998Z</time></trkpt><trkpt lat="43.50250022040258" lon="3.0078867657252752"><ele>85.0</ele><time>2026-04-07T16:39:58.998Z</time></trkpt><trkpt lat="43.50247450034527" lon="3.008128040798144"><ele>85.0</ele><time>2026-04-07T16:39:59.998Z</time></trkpt><trkpt lat="43.50244567722288" lon="3.0083674185877447"><ele>85.0</ele><time>2026-04-07T16:40:00.998Z</time></trkpt><trkpt lat="43.502431829269064" lon="3.0086060275478004"><ele>85.0</ele><time>2026-04-07T16:40:01.998Z</time></trkpt><trkpt lat="43.50239737997894" lon="3.0088398779285876"><ele>85.0</ele><time>2026-04-07T16:40:02.998Z</time></trkpt><trkpt lat="43.50238229101115" lon="3.0090768647263264"><ele>85.0</ele><time>2026-04-07T16:40:03.998Z</time></trkpt><trkpt lat="43.502360125942104" lon="3.0093166490858714"><ele>85.33333333333333</ele><time>2026-04-07T16:40:04.998Z</time></trkpt><trkpt lat="43.50232760545244" lon="3.0095529731696127"><ele>85.66666666666667</ele><time>2026-04-07T16:40:05.998Z</time></trkpt><trkpt lat="43.502280405044154" lon="3.0097881453618864"><ele>86.0</ele><time>2026-04-07T16:40:07Z</time></trkpt><trkpt lat="43.502212740011146" lon="3.0100103810647103"><ele>85.0</ele><time>2026-04-07T16:40:08Z</time></trkpt><trkpt lat="43.50212506487715" lon="3.0102235207759134"><ele>84.0</ele><time>2026-04-07T16:40:09Z</time></trkpt><trkpt lat="43.502020393342605" lon="3.0104255206150348"><ele>83.0</ele><time>2026-04-07T16:40:10Z</time></trkpt><trkpt lat="43.50190142171017" lon="3.0106148873461556"><ele>84.66666666666667</ele><time>2026-04-07T16:40:11Z</time></trkpt><trkpt lat="43.50178094854903" lon="3.0108462984498625"><ele>86.33333333333333</ele><time>2026-04-07T16:40:12Z</time></trkpt><trkpt lat="43.50165825443599" lon="3.0110303268016563"><ele>88.0</ele><time>2026-04-07T16:40:13Z</time></trkpt><trkpt lat="43.501532922399946" lon="3.011231998513448"><ele>88.0</ele><time>2026-04-07T16:40:14Z</time></trkpt><trkpt lat="43.50140434097557" lon="3.0114427193653137"><ele>88.0</ele><time>2026-04-07T16:40:15Z</time></trkpt><trkpt lat="43.50127586962826" lon="3.011656934944139"><ele>88.0</ele><time>2026-04-07T16:40:16Z</time></trkpt><trkpt lat="43.50115034924848" lon="3.011865421508075"><ele>88.0</ele><time>2026-04-07T16:40:17Z</time></trkpt><trkpt lat="43.50102253903583" lon="3.0120756200234324"><ele>88.0</ele><time>2026-04-07T16:40:18Z</time></trkpt><trkpt lat="43.50089675474408" lon="3.0122823000178793"><ele>88.0</ele><time>2026-04-07T16:40:19Z</time></trkpt><trkpt lat="43.50076670642772" lon="3.0124961532566705"><ele>88.0</ele><time>2026-04-07T16:40:20Z</time></trkpt><trkpt lat="43.500647735215985" lon="3.012699272531947"><ele>88.0</ele><time>2026-04-07T16:40:21Z</time></trkpt><trkpt lat="43.50052454176214" lon="3.012904179543801"><ele>88.0</ele><time>2026-04-07T16:40:22Z</time></trkpt><trkpt lat="43.50040943745302" lon="3.0131060510922163"><ele>86.66666666666666</ele><time>2026-04-07T16:40:23Z</time></trkpt><trkpt lat="43.50029426699788" lon="3.0132989262298313"><ele>85.33333333333333</ele><time>2026-04-07T16:40:24Z</time></trkpt><trkpt lat="43.5001804036178" lon="3.013493018285484"><ele>84.0</ele><time>2026-04-07T16:40:25Z</time></trkpt><trkpt lat="43.50006692817284" lon="3.0136844999341807"><ele>84.0</ele><time>2026-04-07T16:40:26Z</time></trkpt><trkpt lat="43.499959812356714" lon="3.0138677137058676"><ele>84.0</ele><time>2026-04-07T16:40:27Z</time></trkpt><trkpt lat="43.49985651745959" lon="3.0140409380008544"><ele>84.0</ele><time>2026-04-07T16:40:28Z</time></trkpt><trkpt lat="43.499745635470305" lon="3.014218776419813"><ele>84.0</ele><time>2026-04-07T16:40:29Z</time></trkpt><trkpt lat="43.49963380154655" lon="3.014393557733798"><ele>84.0</ele><time>2026-04-07T16:40:30Z</time></trkpt><trkpt lat="43.499522830425455" lon="3.014569118255448"><ele>84.0</ele><time>2026-04-07T16:40:31Z</time></trkpt><trkpt lat="43.49941611692962" lon="3.014749299542295"><ele>84.0</ele><time>2026-04-07T16:40:32Z</time></trkpt><trkpt lat="43.49930726500847" lon="3.0149186384549944"><ele>84.0</ele><time>2026-04-07T16:40:33Z</time></trkpt><trkpt lat="43.49921429267148" lon="3.0151104736162795"><ele>84.0</ele><time>2026-04-07T16:40:34Z</time></trkpt><trkpt lat="43.49910708879777" lon="3.0152638820233757"><ele>85.5</ele><time>2026-04-07T16:40:35Z</time></trkpt><trkpt lat="43.49902533513261" lon="3.0154186577991497"><ele>87.0</ele><time>2026-04-07T16:40:36Z</time></trkpt><trkpt lat="43.49895593496517" lon="3.0155770584606585"><ele>88.5</ele><time>2026-04-07T16:40:37Z</time></trkpt><trkpt lat="43.49890045554097" lon="3.015733109428"><ele>90.0</ele><time>2026-04-07T16:40:38Z</time></trkpt><trkpt lat="43.49885767621204" lon="3.015902101173523"><ele>91.0</ele><time>2026-04-07T16:40:39Z</time></trkpt><trkpt lat="43.498813021026706" lon="3.0160738342547027"><ele>92.0</ele><time>2026-04-07T16:40:40Z</time></trkpt><trkpt lat="43.498789044074535" lon="3.0162386663108274"><ele>93.0</ele><time>2026-04-07T16:40:41Z</time></trkpt><trkpt lat="43.49877454371047" lon="3.016397310621908"><ele>94.0</ele><time>2026-04-07T16:40:42Z</time></trkpt><trkpt lat="43.49877148915061" lon="3.016558522221313"><ele>94.0</ele><time>2026-04-07T16:40:43Z</time></trkpt><trkpt lat="43.498777467781544" lon="3.0167222195009886"><ele>94.0</ele><time>2026-04-07T16:40:44Z</time></trkpt><trkpt lat="43.49880110965471" lon="3.0168823021511"><ele>94.0</ele><time>2026-04-07T16:40:44.999Z</time></trkpt><trkpt lat="43.49883976811995" lon="3.0170464017654686"><ele>94.0</ele><time>2026-04-07T16:40:45.999Z</time></trkpt><trkpt lat="43.498871501467605" lon="3.0171939028829757"><ele>94.0</ele><time>2026-04-07T16:40:46.999Z</time></trkpt><trkpt lat="43.49891771781134" lon="3.0173406900473707"><ele>94.0</ele><time>2026-04-07T16:40:47.999Z</time></trkpt><trkpt lat="43.498957763974744" lon="3.017488269358282"><ele>94.0</ele><time>2026-04-07T16:40:48.999Z</time></trkpt><trkpt lat="43.498994717524525" lon="3.017634073976596"><ele>94.0</ele><time>2026-04-07T16:40:49.999Z</time></trkpt><trkpt lat="43.49903706304253" lon="3.017790343029104"><ele>93.4</ele><time>2026-04-07T16:40:50.999Z</time></trkpt><trkpt lat="43.49907896467545" lon="3.0179325791929887"><ele>92.80000000000001</ele><time>2026-04-07T16:40:51.999Z</time></trkpt><trkpt lat="43.49911759536911" lon="3.01807497657227"><ele>92.19999999999999</ele><time>2026-04-07T16:40:52.999Z</time></trkpt><trkpt lat="43.4991519663549" lon="3.018214755377881"><ele>91.6</ele><time>2026-04-07T16:40:53.999Z</time></trkpt><trkpt lat="43.49918242486825" lon="3.018360463034673"><ele>91.0</ele><time>2026-04-07T16:40:54.999Z</time></trkpt><trkpt lat="43.499202429594256" lon="3.018510453136784"><ele>90.8</ele><time>2026-04-07T16:40:55.999Z</time></trkpt><trkpt lat="43.49921924138901" lon="3.0186621124242436"><ele>90.6</ele><time>2026-04-07T16:40:56.999Z</time></trkpt><trkpt lat="43.499229620368645" lon="3.018814340941856"><ele>90.4</ele><time>2026-04-07T16:40:57.999Z</time></trkpt><trkpt lat="43.49923760723734" lon="3.0189677974997444"><ele>90.2</ele><time>2026-04-07T16:40:58.999Z</time></trkpt><trkpt lat="43.499241045298994" lon="3.019122662621192"><ele>90.0</ele><time>2026-04-07T16:40:59.999Z</time></trkpt><trkpt lat="43.49925625403145" lon="3.019286901090746"><ele>90.5</ele><time>2026-04-07T16:41:00.999Z</time></trkpt><trkpt lat="43.49927224461214" lon="3.019446078565009"><ele>91.0</ele><time>2026-04-07T16:41:01.999Z</time></trkpt><trkpt lat="43.49927867867884" lon="3.0196112011652843"><ele>91.5</ele><time>2026-04-07T16:41:02.999Z</time></trkpt><trkpt lat="43.49929124940428" lon="3.019766817827694"><ele>92.0</ele><time>2026-04-07T16:41:03.999Z</time></trkpt><trkpt lat="43.49929945387686" lon="3.0199198985165596"><ele>91.8</ele><time>2026-04-07T16:41:04.999Z</time></trkpt><trkpt lat="43.499307012473665" lon="3.0200605743313775"><ele>91.6</ele><time>2026-04-07T16:41:05.999Z</time></trkpt><trkpt lat="43.49931992842319" lon="3.0202054623978913"><ele>91.39999999999999</ele><time>2026-04-07T16:41:06.999Z</time></trkpt><trkpt lat="43.49933227122141" lon="3.0203538066378246"><ele>91.19999999999999</ele><time>2026-04-07T16:41:07.999Z</time></trkpt><trkpt lat="43.49933612492513" lon="3.0204997260662854"><ele>91.0</ele><time>2026-04-07T16:41:08.999Z</time></trkpt><trkpt lat="43.499350827080875" lon="3.0206144537171786"><ele>91.0</ele><time>2026-04-07T16:41:09.999Z</time></trkpt><trkpt lat="43.499349654388155" lon="3.020758061841173"><ele>91.0</ele><time>2026-04-07T16:41:10.999Z</time></trkpt><trkpt lat="43.49935668184253" lon="3.020888591290621"><ele>91.0</ele><time>2026-04-07T16:41:11.999Z</time></trkpt><trkpt lat="43.49936925322988" lon="3.0210142994616787"><ele>91.0</ele><time>2026-04-07T16:41:12.999Z</time></trkpt><trkpt lat="43.499379719790156" lon="3.0211463636773686"><ele>91.0</ele><time>2026-04-07T16:41:13.999Z</time></trkpt><trkpt lat="43.49938361892517" lon="3.0212689070141114"><ele>90.66666666666666</ele><time>2026-04-07T16:41:14.999Z</time></trkpt><trkpt lat="43.499395895636994" lon="3.0213931702143086"><ele>90.33333333333333</ele><time>2026-04-07T16:41:15.999Z</time></trkpt><trkpt lat="43.49940371640611" lon="3.021521643106405"><ele>90.0</ele><time>2026-04-07T16:41:16.999Z</time></trkpt><trkpt lat="43.49941297335022" lon="3.021645133331689"><ele>89.66666666666667</ele><time>2026-04-07T16:41:17.999Z</time></trkpt><trkpt lat="43.499416605926754" lon="3.0217523607857224"><ele>89.33333333333334</ele><time>2026-04-07T16:41:18.999Z</time></trkpt><trkpt lat="43.49942317403832" lon="3.02185935579835"><ele>89.0</ele><time>2026-04-07T16:41:19.999Z</time></trkpt><trkpt lat="43.499431779662785" lon="3.021958300729235"><ele>88.83333333333334</ele><time>2026-04-07T16:41:20.999Z</time></trkpt><trkpt lat="43.49943837477883" lon="3.0220583797524467"><ele>88.66666666666667</ele><time>2026-04-07T16:41:21.999Z</time></trkpt><trkpt lat="43.499430116994674" lon="3.0221718482609194"><ele>88.5</ele><time>2026-04-07T16:41:22.999Z</time></trkpt><trkpt lat="43.49943675868435" lon="3.022289339035498"><ele>88.33333333333333</ele><time>2026-04-07T16:41:23.999Z</time></trkpt><trkpt lat="43.49945915131951" lon="3.022407436893051"><ele>88.16666666666666</ele><time>2026-04-07T16:41:24.999Z</time></trkpt><trkpt lat="43.499453334374785" lon="3.0225307029743793"><ele>88.0</ele><time>2026-04-07T16:41:25.999Z</time></trkpt><trkpt lat="43.49948244599777" lon="3.022635333417954"><ele>88.33333333333333</ele><time>2026-04-07T16:41:26.999Z</time></trkpt><trkpt lat="43.49949605202233" lon="3.022736919741776"><ele>88.66666666666666</ele><time>2026-04-07T16:41:27.999Z</time></trkpt><trkpt lat="43.49950774193113" lon="3.0228290442245407"><ele>89.0</ele><time>2026-04-07T16:41:28.999Z</time></trkpt><trkpt lat="43.499531712686164" lon="3.022972322677631"><ele>89.33333333333333</ele><time>2026-04-07T16:41:30.998Z</time></trkpt><trkpt lat="43.49954391931629" lon="3.023063426664131"><ele>89.66666666666667</ele><time>2026-04-07T16:41:33.998Z</time></trkpt><trkpt lat="43.49959882720043" lon="3.02321005311175"><ele>90.0</ele><time>2026-04-07T16:41:37.998Z</time></trkpt><trkpt lat="43.499632297040776" lon="3.023286422922853"><ele>91.16666666666667</ele><time>2026-04-07T16:41:38.998Z</time></trkpt><trkpt lat="43.499646189693664" lon="3.0233786336551356"><ele>92.33333333333334</ele><time>2026-04-07T16:41:39.998Z</time></trkpt><trkpt lat="43.499682884743734" lon="3.023474799601517"><ele>93.5</ele><time>2026-04-07T16:41:40.998Z</time></trkpt><trkpt lat="43.49972659083968" lon="3.023575429243568"><ele>94.66666666666667</ele><time>2026-04-07T16:41:41.998Z</time></trkpt><trkpt lat="43.49978619697761" lon="3.023665260997645"><ele>95.83333333333334</ele><time>2026-04-07T16:41:42.998Z</time></trkpt><trkpt lat="43.499831158963566" lon="3.023758104284033"><ele>97.0</ele><time>2026-04-07T16:41:43.998Z</time></trkpt><trkpt lat="43.49987417599949" lon="3.0238507813822366"><ele>97.00000000000001</ele><time>2026-04-07T16:41:44.998Z</time></trkpt><trkpt lat="43.499909847147975" lon="3.0239500607250385"><ele>97.0</ele><time>2026-04-07T16:41:45.998Z</time></trkpt><trkpt lat="43.49995583209545" lon="3.0240371643300934"><ele>97.0</ele><time>2026-04-07T16:41:46.998Z</time></trkpt><trkpt lat="43.49999952223171" lon="3.024135333267746"><ele>97.0</ele><time>2026-04-07T16:41:47.998Z</time></trkpt><trkpt lat="43.50004602547996" lon="3.0242361116296674"><ele>97.00000000000001</ele><time>2026-04-07T16:41:48.998Z</time></trkpt><trkpt lat="43.500092813174" lon="3.0243443778167434"><ele>97.0</ele><time>2026-04-07T16:41:49.998Z</time></trkpt><trkpt lat="43.50013774257443" lon="3.0244493709733793"><ele>96.50000000000001</ele><time>2026-04-07T16:41:50.998Z</time></trkpt><trkpt lat="43.500180787236694" lon="3.0245490804950887"><ele>96.0</ele><time>2026-04-07T16:41:51.998Z</time></trkpt><trkpt lat="43.50021619260066" lon="3.0246544497887404"><ele>95.5</ele><time>2026-04-07T16:41:52.998Z</time></trkpt><trkpt lat="43.500242293867984" lon="3.024753043147146"><ele>95.0</ele><time>2026-04-07T16:41:53.998Z</time></trkpt><trkpt lat="43.50026780014607" lon="3.024858403378798"><ele>94.5</ele><time>2026-04-07T16:41:54.998Z</time></trkpt><trkpt lat="43.500302101461216" lon="3.02496526181456"><ele>94.0</ele><time>2026-04-07T16:41:55.998Z</time></trkpt><trkpt lat="43.50031604105434" lon="3.0250945621119776"><ele>93.5</ele><time>2026-04-07T16:41:56.998Z</time></trkpt><trkpt lat="43.500332438299324" lon="3.0252344601978294"><ele>93.0</ele><time>2026-04-07T16:41:57.998Z</time></trkpt><trkpt lat="43.500338672652475" lon="3.0253515317037154"><ele>92.5</ele><time>2026-04-07T16:41:58.998Z</time></trkpt><trkpt lat="43.50034610914045" lon="3.0254722989396776"><ele>92.0</ele><time>2026-04-07T16:41:59.998Z</time></trkpt><trkpt lat="43.50035346920699" lon="3.025585141552072"><ele>91.5</ele><time>2026-04-07T16:42:00.998Z</time></trkpt><trkpt lat="43.50035692587615" lon="3.0256967649311024"><ele>91.0</ele><time>2026-04-07T16:42:01.998Z</time></trkpt><trkpt lat="43.50036371410351" lon="3.0258063032597113"><ele>90.83333333333333</ele><time>2026-04-07T16:42:02.998Z</time></trkpt><trkpt lat="43.50036237211256" lon="3.025928455065724"><ele>90.66666666666666</ele><time>2026-04-07T16:42:03.998Z</time></trkpt><trkpt lat="43.500360112561026" lon="3.0260327134673375"><ele>90.5</ele><time>2026-04-07T16:42:04.998Z</time></trkpt><trkpt lat="43.50035789256615" lon="3.0261537278389836"><ele>90.33333333333333</ele><time>2026-04-07T16:42:05.998Z</time></trkpt><trkpt lat="43.50038274513508" lon="3.0262548205887687"><ele>90.16666666666667</ele><time>2026-04-07T16:42:06.998Z</time></trkpt><trkpt lat="43.50040051852747" lon="3.0263546071932645"><ele>90.0</ele><time>2026-04-07T16:42:07.998Z</time></trkpt><trkpt lat="43.50039567553977" lon="3.026467252189371"><ele>90.0</ele><time>2026-04-07T16:42:08.998Z</time></trkpt><trkpt lat="43.50040481545702" lon="3.0265730886114173"><ele>90.0</ele><time>2026-04-07T16:42:09.998Z</time></trkpt><trkpt lat="43.500411011102955" lon="3.0266753528667265"><ele>90.0</ele><time>2026-04-07T16:42:10.998Z</time></trkpt><trkpt lat="43.50040601091516" lon="3.026794585087366"><ele>90.0</ele><time>2026-04-07T16:42:11.998Z</time></trkpt><trkpt lat="43.50042179763426" lon="3.0269239852715004"><ele>90.0</ele><time>2026-04-07T16:42:13Z</time></trkpt><trkpt lat="43.500431163337126" lon="3.027058160193969"><ele>90.0</ele><time>2026-04-07T16:42:14Z</time></trkpt><trkpt lat="43.500441620481865" lon="3.027185553154668"><ele>91.83333333333333</ele><time>2026-04-07T16:42:15Z</time></trkpt><trkpt lat="43.50045362544935" lon="3.027310482792175"><ele>93.66666666666666</ele><time>2026-04-07T16:42:16Z</time></trkpt><trkpt lat="43.500461849843425" lon="3.0274390189410236"><ele>95.5</ele><time>2026-04-07T16:42:17Z</time></trkpt><trkpt lat="43.50047182228706" lon="3.027558850255785"><ele>97.33333333333333</ele><time>2026-04-07T16:42:18Z</time></trkpt><trkpt lat="43.50047878303696" lon="3.0276723924043054"><ele>99.16666666666666</ele><time>2026-04-07T16:42:19Z</time></trkpt><trkpt lat="43.50048295881036" lon="3.027797905158087"><ele>101.0</ele><time>2026-04-07T16:42:20Z</time></trkpt><trkpt lat="43.500491978686355" lon="3.027935808528144"><ele>102.0</ele><time>2026-04-07T16:42:21Z</time></trkpt><trkpt lat="43.50049197598309" lon="3.0280888270059747"><ele>103.0</ele><time>2026-04-07T16:42:22Z</time></trkpt><trkpt lat="43.500494577644226" lon="3.028237133611698"><ele>104.0</ele><time>2026-04-07T16:42:23Z</time></trkpt><trkpt lat="43.500497239673464" lon="3.0283865188721233"><ele>105.0</ele><time>2026-04-07T16:42:24Z</time></trkpt><trkpt lat="43.50049543048755" lon="3.028541439540504"><ele>106.0</ele><time>2026-04-07T16:42:25Z</time></trkpt><trkpt lat="43.50049030336096" lon="3.028699268468628"><ele>106.25</ele><time>2026-04-07T16:42:26Z</time></trkpt><trkpt lat="43.50048923821943" lon="3.0288502993689943"><ele>106.5</ele><time>2026-04-07T16:42:27Z</time></trkpt><trkpt lat="43.50047497749613" lon="3.0290052394305484"><ele>106.75</ele><time>2026-04-07T16:42:28Z</time></trkpt><trkpt lat="43.5004753155084" lon="3.029164779675333"><ele>107.0</ele><time>2026-04-07T16:42:29Z</time></trkpt><trkpt lat="43.50047578605367" lon="3.0293213074446603"><ele>108.25</ele><time>2026-04-07T16:42:30Z</time></trkpt><trkpt lat="43.500476456946444" lon="3.0294844965117482"><ele>109.5</ele><time>2026-04-07T16:42:31Z</time></trkpt><trkpt lat="43.50047753713173" lon="3.029645086636121"><ele>110.75</ele><time>2026-04-07T16:42:32Z</time></trkpt><trkpt lat="43.500442581258575" lon="3.02980422038587"><ele>112.0</ele><time>2026-04-07T16:42:33Z</time></trkpt><trkpt lat="43.500397750746416" lon="3.029935873882476"><ele>107.19999999999999</ele><time>2026-04-07T16:42:34Z</time></trkpt><trkpt lat="43.50035157112518" lon="3.030064312618853"><ele>102.39999999999999</ele><time>2026-04-07T16:42:35Z</time></trkpt><trkpt lat="43.50030063294629" lon="3.0301841082753405"><ele>97.6</ele><time>2026-04-07T16:42:36Z</time></trkpt><trkpt lat="43.500250619945476" lon="3.0302890195365353"><ele>92.80000000000001</ele><time>2026-04-07T16:42:37Z</time></trkpt><trkpt lat="43.5001910649294" lon="3.0304078781351986"><ele>88.0</ele><time>2026-04-07T16:42:38Z</time></trkpt><trkpt lat="43.50013431516904" lon="3.0305226257290907"><ele>88.0</ele><time>2026-04-07T16:42:39Z</time></trkpt><trkpt lat="43.50008227395026" lon="3.0306274769921426"><ele>88.0</ele><time>2026-04-07T16:42:40Z</time></trkpt><trkpt lat="43.50003227539371" lon="3.0307401901800435"><ele>88.0</ele><time>2026-04-07T16:42:41Z</time></trkpt><trkpt lat="43.49997685204055" lon="3.0308658187364035"><ele>88.0</ele><time>2026-04-07T16:42:42Z</time></trkpt><trkpt lat="43.4999187722576" lon="3.0309974685611594"><ele>88.0</ele><time>2026-04-07T16:42:43Z</time></trkpt><trkpt lat="43.499857304305756" lon="3.0311367282384216"><ele>89.25</ele><time>2026-04-07T16:42:44Z</time></trkpt><trkpt lat="43.499823082809165" lon="3.031297321143818"><ele>90.5</ele><time>2026-04-07T16:42:45Z</time></trkpt><trkpt lat="43.49976410157014" lon="3.0314384345048704"><ele>91.75</ele><time>2026-04-07T16:42:46Z</time></trkpt><trkpt lat="43.49969851043463" lon="3.031570657227512"><ele>93.0</ele><time>2026-04-07T16:42:47Z</time></trkpt><trkpt lat="43.4996332766721" lon="3.0316964755463056"><ele>90.60000000000001</ele><time>2026-04-07T16:42:48Z</time></trkpt><trkpt lat="43.499572666156695" lon="3.031821850878628"><ele>88.2</ele><time>2026-04-07T16:42:49Z</time></trkpt><trkpt lat="43.49950268665422" lon="3.031926938932355"><ele>85.8</ele><time>2026-04-07T16:42:49.999Z</time></trkpt><trkpt lat="43.49944489299939" lon="3.0320348093967406"><ele>83.4</ele><time>2026-04-07T16:42:50.999Z</time></trkpt><trkpt lat="43.49938788725147" lon="3.032144022196243"><ele>81.0</ele><time>2026-04-07T16:42:51.999Z</time></trkpt><trkpt lat="43.49929794616499" lon="3.032168750592149"><ele>81.0</ele><time>2026-04-07T16:42:52.999Z</time></trkpt><trkpt lat="43.49920910727318" lon="3.0321931491413676"><ele>81.0</ele><time>2026-04-07T16:42:53.999Z</time></trkpt><trkpt lat="43.49910308424826" lon="3.0321623176863315"><ele>81.0</ele><time>2026-04-07T16:42:54.999Z</time></trkpt><trkpt lat="43.49899575031726" lon="3.0321203051113743"><ele>81.0</ele><time>2026-04-07T16:42:55.999Z</time></trkpt><trkpt lat="43.498892127774226" lon="3.0320876452329513"><ele>81.0</ele><time>2026-04-07T16:42:56.999Z</time></trkpt><trkpt lat="43.49879053319515" lon="3.032071686072951"><ele>81.0</ele><time>2026-04-07T16:42:57.999Z</time></trkpt><trkpt lat="43.49867267001923" lon="3.0321225357732837"><ele>81.0</ele><time>2026-04-07T16:42:58.999Z</time></trkpt><trkpt lat="43.49855792453378" lon="3.032187762982088"><ele>81.0</ele><time>2026-04-07T16:42:59.999Z</time></trkpt><trkpt lat="43.498462412458736" lon="3.0322512906409385"><ele>81.0</ele><time>2026-04-07T16:43:00.999Z</time></trkpt><trkpt lat="43.49835604799816" lon="3.032290190040009"><ele>81.0</ele><time>2026-04-07T16:43:01.999Z</time></trkpt><trkpt lat="43.49822521054845" lon="3.0322684913683373"><ele>81.0</ele><time>2026-04-07T16:43:02.999Z</time></trkpt><trkpt lat="43.49810344065131" lon="3.0322260559086045"><ele>81.0</ele><time>2026-04-07T16:43:03.999Z</time></trkpt><trkpt lat="43.49797837684006" lon="3.032193224836443"><ele>81.0</ele><time>2026-04-07T16:43:04.999Z</time></trkpt><trkpt lat="43.49788591768437" lon="3.032221530158696"><ele>80.75</ele><time>2026-04-07T16:43:05.999Z</time></trkpt><trkpt lat="43.49781269010582" lon="3.0323396906218503"><ele>80.5</ele><time>2026-04-07T16:43:06.999Z</time></trkpt><trkpt lat="43.497715565052346" lon="3.0324394770902137"><ele>80.25</ele><time>2026-04-07T16:43:07.999Z</time></trkpt><trkpt lat="43.497605135458805" lon="3.03253596254928"><ele>80.0</ele><time>2026-04-07T16:43:08.999Z</time></trkpt><trkpt lat="43.497502749642244" lon="3.0326537009196346"><ele>80.25</ele><time>2026-04-07T16:43:09.999Z</time></trkpt><trkpt lat="43.497399748992095" lon="3.0327667802562064"><ele>80.5</ele><time>2026-04-07T16:43:10.999Z</time></trkpt><trkpt lat="43.49729246424746" lon="3.032877422218609"><ele>80.75</ele><time>2026-04-07T16:43:11.999Z</time></trkpt><trkpt lat="43.4971787673514" lon="3.0329779324882624"><ele>81.0</ele><time>2026-04-07T16:43:12.999Z</time></trkpt><trkpt lat="43.497064296055925" lon="3.033064518634909"><ele>81.0</ele><time>2026-04-07T16:43:13.999Z</time></trkpt><trkpt lat="43.49694765448771" lon="3.033139454914552"><ele>81.0</ele><time>2026-04-07T16:43:14.999Z</time></trkpt><trkpt lat="43.4968499169607" lon="3.0332090162122656"><ele>81.0</ele><time>2026-04-07T16:43:15.999Z</time></trkpt><trkpt lat="43.49674913017086" lon="3.0332823903767925"><ele>81.0</ele><time>2026-04-07T16:43:16.999Z</time></trkpt><trkpt lat="43.496642403160905" lon="3.0333495774451604"><ele>82.8</ele><time>2026-04-07T16:43:17.999Z</time></trkpt><trkpt lat="43.49655738124822" lon="3.033413229917843"><ele>84.6</ele><time>2026-04-07T16:43:18.999Z</time></trkpt><trkpt lat="43.496481582360744" lon="3.0334710026029814"><ele>86.4</ele><time>2026-04-07T16:43:19.999Z</time></trkpt><trkpt lat="43.49640010408395" lon="3.0335262710443853"><ele>88.2</ele><time>2026-04-07T16:43:20.999Z</time></trkpt><trkpt lat="43.49632327948581" lon="3.0335753504192406"><ele>90.0</ele><time>2026-04-07T16:43:21.999Z</time></trkpt><trkpt lat="43.49624035398001" lon="3.033639568483738"><ele>90.0</ele><time>2026-04-07T16:43:22.999Z</time></trkpt><trkpt lat="43.49615217021007" lon="3.0337059385070946"><ele>90.0</ele><time>2026-04-07T16:43:23.999Z</time></trkpt><trkpt lat="43.496061154548904" lon="3.0337630222957466"><ele>90.0</ele><time>2026-04-07T16:43:24.999Z</time></trkpt><trkpt lat="43.49599064191503" lon="3.0338678334084173"><ele>90.0</ele><time>2026-04-07T16:43:25.999Z</time></trkpt><trkpt lat="43.49592260829605" lon="3.0339810715034425"><ele>90.0</ele><time>2026-04-07T16:43:26.999Z</time></trkpt><trkpt lat="43.495866651957996" lon="3.034110688225689"><ele>90.8</ele><time>2026-04-07T16:43:27.999Z</time></trkpt><trkpt lat="43.49581777009839" lon="3.0342407613850533"><ele>91.6</ele><time>2026-04-07T16:43:28.999Z</time></trkpt><trkpt lat="43.495766363307865" lon="3.0343769570973147"><ele>92.4</ele><time>2026-04-07T16:43:29.999Z</time></trkpt><trkpt lat="43.49571552844859" lon="3.034501103120913"><ele>93.2</ele><time>2026-04-07T16:43:30.999Z</time></trkpt><trkpt lat="43.49565124716468" lon="3.034614224686294"><ele>94.0</ele><time>2026-04-07T16:43:31.999Z</time></trkpt><trkpt lat="43.49556596762945" lon="3.0347198058912794"><ele>94.0</ele><time>2026-04-07T16:43:32.999Z</time></trkpt><trkpt lat="43.49545764301085" lon="3.034810939468393"><ele>94.0</ele><time>2026-04-07T16:43:33.998Z</time></trkpt><trkpt lat="43.49533515097895" lon="3.0348703290829455"><ele>94.0</ele><time>2026-04-07T16:43:34.998Z</time></trkpt><trkpt lat="43.495199903112294" lon="3.034913509227759"><ele>94.0</ele><time>2026-04-07T16:43:35.998Z</time></trkpt><trkpt lat="43.495069819505545" lon="3.034957554923121"><ele>93.5</ele><time>2026-04-07T16:43:36.998Z</time></trkpt><trkpt lat="43.49494434084849" lon="3.034979524905752"><ele>93.0</ele><time>2026-04-07T16:43:37.998Z</time></trkpt><trkpt lat="43.4948145790372" lon="3.034952764873738"><ele>92.5</ele><time>2026-04-07T16:43:38.998Z</time></trkpt><trkpt lat="43.494685486737914" lon="3.0349035782907103"><ele>92.0</ele><time>2026-04-07T16:43:39.998Z</time></trkpt><trkpt lat="43.49456409970622" lon="3.034825634003589"><ele>91.75</ele><time>2026-04-07T16:43:40.998Z</time></trkpt><trkpt lat="43.49444199839262" lon="3.034736815713454"><ele>91.5</ele><time>2026-04-07T16:43:41.998Z</time></trkpt><trkpt lat="43.49431389754338" lon="3.034656093894369"><ele>91.25</ele><time>2026-04-07T16:43:42.998Z</time></trkpt><trkpt lat="43.49416608449628" lon="3.034571383474258"><ele>91.0</ele><time>2026-04-07T16:43:43.998Z</time></trkpt><trkpt lat="43.49400375421241" lon="3.0344569857532018"><ele>91.0</ele><time>2026-04-07T16:43:44.998Z</time></trkpt><trkpt lat="43.493827620940586" lon="3.034350763169313"><ele>91.0</ele><time>2026-04-07T16:43:45.998Z</time></trkpt><trkpt lat="43.49363920562675" lon="3.034235932020088"><ele>91.0</ele><time>2026-04-07T16:43:46.998Z</time></trkpt><trkpt lat="43.493437433364626" lon="3.0341129604799626"><ele>89.0</ele><time>2026-04-07T16:43:47.998Z</time></trkpt><trkpt lat="43.493230162525784" lon="3.0339866375674154"><ele>87.0</ele><time>2026-04-07T16:43:48.998Z</time></trkpt><trkpt lat="43.493395682064765" lon="3.0340999811422504"><ele>85.0</ele><time>2026-04-07T16:43:49.998Z</time></trkpt><trkpt lat="43.493254379402096" lon="3.0340154235523134"><ele>85.0</ele><time>2026-04-07T16:43:50.998Z</time></trkpt><trkpt lat="43.4931168918774" lon="3.0339336650860984"><ele>85.0</ele><time>2026-04-07T16:43:51.998Z</time></trkpt><trkpt lat="43.492979444834624" lon="3.0338427327813"><ele>85.0</ele><time>2026-04-07T16:43:52.998Z</time></trkpt><trkpt lat="43.492837445025664" lon="3.0337528656306447"><ele>86.66666666666666</ele><time>2026-04-07T16:43:53.998Z</time></trkpt><trkpt lat="43.492693077553305" lon="3.0336573292225797"><ele>88.33333333333333</ele><time>2026-04-07T16:43:54.998Z</time></trkpt><trkpt lat="43.49255399684681" lon="3.033525695270481"><ele>90.0</ele><time>2026-04-07T16:43:55.998Z</time></trkpt><trkpt lat="43.49241598585876" lon="3.0333924938216943"><ele>91.33333333333333</ele><time>2026-04-07T16:43:56.998Z</time></trkpt><trkpt lat="43.49229730274656" lon="3.0332258584533647"><ele>92.66666666666666</ele><time>2026-04-07T16:43:57.998Z</time></trkpt><trkpt lat="43.49216919202812" lon="3.0330497146235222"><ele>94.0</ele><time>2026-04-07T16:43:58.998Z</time></trkpt><trkpt lat="43.492040929786384" lon="3.0328733623342647"><ele>94.0</ele><time>2026-04-07T16:43:59.998Z</time></trkpt><trkpt lat="43.491912709403735" lon="3.032694863891773"><ele>94.0</ele><time>2026-04-07T16:44:00.998Z</time></trkpt><trkpt lat="43.491775006069936" lon="3.0325300065162644"><ele>94.0</ele><time>2026-04-07T16:44:01.998Z</time></trkpt><trkpt lat="43.49166032414392" lon="3.032363965633666"><ele>90.0</ele><time>2026-04-07T16:44:02.998Z</time></trkpt><trkpt lat="43.49154845002523" lon="3.032195809550683"><ele>86.0</ele><time>2026-04-07T16:44:03.998Z</time></trkpt><trkpt lat="43.491421097913566" lon="3.032038752852832"><ele>82.0</ele><time>2026-04-07T16:44:04.998Z</time></trkpt><trkpt lat="43.4912775651936" lon="3.0319126399181013"><ele>86.33333333333333</ele><time>2026-04-07T16:44:05.998Z</time></trkpt><trkpt lat="43.49110863934099" lon="3.031816754254723"><ele>90.66666666666667</ele><time>2026-04-07T16:44:06.998Z</time></trkpt><trkpt lat="43.49094078560076" lon="3.031731740061366"><ele>95.0</ele><time>2026-04-07T16:44:07.998Z</time></trkpt><trkpt lat="43.49077330013223" lon="3.031647351597356"><ele>94.66666666666667</ele><time>2026-04-07T16:44:08.998Z</time></trkpt><trkpt lat="43.49061333722243" lon="3.0315654842845743"><ele>94.33333333333333</ele><time>2026-04-07T16:44:09.998Z</time></trkpt><trkpt lat="43.49047057243628" lon="3.03144060524019"><ele>94.0</ele><time>2026-04-07T16:44:10.998Z</time></trkpt><trkpt lat="43.490339872296566" lon="3.0313016834574666"><ele>94.0</ele><time>2026-04-07T16:44:11.998Z</time></trkpt><trkpt lat="43.49021160618109" lon="3.03114965041518"><ele>94.0</ele><time>2026-04-07T16:44:12.998Z</time></trkpt><trkpt lat="43.490078501226066" lon="3.030991882062871"><ele>94.0</ele><time>2026-04-07T16:44:13.998Z</time></trkpt><trkpt lat="43.48994597440907" lon="3.030863759866999"><ele>93.0</ele><time>2026-04-07T16:44:14.998Z</time></trkpt><trkpt lat="43.4898348714379" lon="3.030725876916807"><ele>92.0</ele><time>2026-04-07T16:44:15.998Z</time></trkpt><trkpt lat="43.489717204080414" lon="3.0306147599091418"><ele>91.0</ele><time>2026-04-07T16:44:16.998Z</time></trkpt><trkpt lat="43.489588342735374" lon="3.0305612217312436"><ele>90.0</ele><time>2026-04-07T16:44:17.998Z</time></trkpt><trkpt lat="43.489444278636455" lon="3.0305545951776183"><ele>90.0</ele><time>2026-04-07T16:44:19Z</time></trkpt><trkpt lat="43.489313833221495" lon="3.03060929945867"><ele>90.0</ele><time>2026-04-07T16:44:20Z</time></trkpt><trkpt lat="43.48917843160848" lon="3.030703064439185"><ele>90.0</ele><time>2026-04-07T16:44:21Z</time></trkpt><trkpt lat="43.48905574364344" lon="3.0308152822705816"><ele>90.0</ele><time>2026-04-07T16:44:22Z</time></trkpt><trkpt lat="43.4889433208049" lon="3.03093917255732"><ele>91.25</ele><time>2026-04-07T16:44:23Z</time></trkpt><trkpt lat="43.488835283052424" lon="3.0310619206414624"><ele>92.5</ele><time>2026-04-07T16:44:24Z</time></trkpt><trkpt lat="43.488738032348955" lon="3.0312190893210147"><ele>93.75</ele><time>2026-04-07T16:44:25Z</time></trkpt><trkpt lat="43.48865678061542" lon="3.03139658909804"><ele>95.0</ele><time>2026-04-07T16:44:26Z</time></trkpt><trkpt lat="43.48859079997481" lon="3.0315871537935624"><ele>95.5</ele><time>2026-04-07T16:44:27Z</time></trkpt><trkpt lat="43.48852159567014" lon="3.0317678724989343"><ele>96.0</ele><time>2026-04-07T16:44:28Z</time></trkpt><trkpt lat="43.48846448897046" lon="3.0319550525567487"><ele>96.5</ele><time>2026-04-07T16:44:29Z</time></trkpt><trkpt lat="43.488390092428105" lon="3.032125685506109"><ele>97.0</ele><time>2026-04-07T16:44:30Z</time></trkpt><trkpt lat="43.48831494068185" lon="3.0323021372529437"><ele>97.0</ele><time>2026-04-07T16:44:31Z</time></trkpt><trkpt lat="43.48823906746684" lon="3.032487987400134"><ele>97.0</ele><time>2026-04-07T16:44:32Z</time></trkpt><trkpt lat="43.488159534462284" lon="3.032673273377758"><ele>97.0</ele><time>2026-04-07T16:44:33Z</time></trkpt><trkpt lat="43.48807678273659" lon="3.0328539339984144"><ele>97.0</ele><time>2026-04-07T16:44:34Z</time></trkpt><trkpt lat="43.48800565895375" lon="3.033055138642832"><ele>97.0</ele><time>2026-04-07T16:44:35Z</time></trkpt><trkpt lat="43.48795796424646" lon="3.0332592232884394"><ele>97.0</ele><time>2026-04-07T16:44:36Z</time></trkpt><trkpt lat="43.48791912172923" lon="3.033465931597238"><ele>92.33333333333334</ele><time>2026-04-07T16:44:37Z</time></trkpt><trkpt lat="43.48788507557421" lon="3.0336607196577643"><ele>87.66666666666667</ele><time>2026-04-07T16:44:38Z</time></trkpt><trkpt lat="43.487847645351785" lon="3.033857369994226"><ele>83.0</ele><time>2026-04-07T16:44:39Z</time></trkpt><trkpt lat="43.48785326166959" lon="3.0340772892697556"><ele>82.66666666666667</ele><time>2026-04-07T16:44:40Z</time></trkpt><trkpt lat="43.487894079012484" lon="3.034295800957067"><ele>82.33333333333333</ele><time>2026-04-07T16:44:41Z</time></trkpt><trkpt lat="43.487940219507436" lon="3.034510080239265"><ele>82.0</ele><time>2026-04-07T16:44:42Z</time></trkpt><trkpt lat="43.487969610207585" lon="3.0347256640191675"><ele>85.25</ele><time>2026-04-07T16:44:43Z</time></trkpt><trkpt lat="43.48800182068837" lon="3.0349285790237004"><ele>88.5</ele><time>2026-04-07T16:44:44Z</time></trkpt><trkpt lat="43.48803000525971" lon="3.0351307860393475"><ele>91.75</ele><time>2026-04-07T16:44:45Z</time></trkpt><trkpt lat="43.48805725732824" lon="3.0353275166879476"><ele>95.0</ele><time>2026-04-07T16:44:46Z</time></trkpt><trkpt lat="43.488086509150136" lon="3.0355157496133622"><ele>95.0</ele><time>2026-04-07T16:44:47Z</time></trkpt><trkpt lat="43.488139933455344" lon="3.035682205395719"><ele>95.0</ele><time>2026-04-07T16:44:48Z</time></trkpt><trkpt lat="43.48823758117052" lon="3.035822071922232"><ele>95.0</ele><time>2026-04-07T16:44:49Z</time></trkpt><trkpt lat="43.488365232042526" lon="3.0359297331990023"><ele>95.0</ele><time>2026-04-07T16:44:50Z</time></trkpt><trkpt lat="43.48849724302131" lon="3.0359985570236003"><ele>94.75</ele><time>2026-04-07T16:44:51Z</time></trkpt><trkpt lat="43.48863264837833" lon="3.0360166771883104"><ele>94.5</ele><time>2026-04-07T16:44:52Z</time></trkpt><trkpt lat="43.48876172421606" lon="3.036012731996427"><ele>94.25</ele><time>2026-04-07T16:44:53Z</time></trkpt><trkpt lat="43.488850960413565" lon="3.036092614792228"><ele>94.0</ele><time>2026-04-07T16:44:53.999Z</time></trkpt><trkpt lat="43.48890060318743" lon="3.036215900485823"><ele>94.0</ele><time>2026-04-07T16:44:54.999Z</time></trkpt><trkpt lat="43.48892357114447" lon="3.03635859147681"><ele>94.0</ele><time>2026-04-07T16:44:55.999Z</time></trkpt><trkpt lat="43.48887967578712" lon="3.0365242430605566"><ele>94.0</ele><time>2026-04-07T16:44:56.999Z</time></trkpt><trkpt lat="43.48885570037057" lon="3.0367056902633656"><ele>94.0</ele><time>2026-04-07T16:44:57.999Z</time></trkpt><trkpt lat="43.48888296609519" lon="3.0368891781661502"><ele>94.0</ele><time>2026-04-07T16:44:58.999Z</time></trkpt><trkpt lat="43.48891100919242" lon="3.03705879738974"><ele>94.0</ele><time>2026-04-07T16:44:59.999Z</time></trkpt><trkpt lat="43.4889370439582" lon="3.037216291929238"><ele>94.0</ele><time>2026-04-07T16:45:00.999Z</time></trkpt><trkpt lat="43.488964926507215" lon="3.0373780567862916"><ele>94.0</ele><time>2026-04-07T16:45:01.999Z</time></trkpt><trkpt lat="43.48899821269319" lon="3.03754606899566"><ele>94.0</ele><time>2026-04-07T16:45:02.999Z</time></trkpt><trkpt lat="43.489044952857064" lon="3.0377096482719597"><ele>94.0</ele><time>2026-04-07T16:45:03.999Z</time></trkpt><trkpt lat="43.489111721037574" lon="3.037868822585724"><ele>94.0</ele><time>2026-04-07T16:45:04.999Z</time></trkpt><trkpt lat="43.489165335746954" lon="3.038023627082199"><ele>94.0</ele><time>2026-04-07T16:45:05.999Z</time></trkpt><trkpt lat="43.489215495119964" lon="3.0381828912120565"><ele>92.5</ele><time>2026-04-07T16:45:06.999Z</time></trkpt><trkpt lat="43.489268006176545" lon="3.0383401091490465"><ele>91.0</ele><time>2026-04-07T16:45:07.999Z</time></trkpt><trkpt lat="43.48931744286644" lon="3.0385065502460655"><ele>89.5</ele><time>2026-04-07T16:45:08.999Z</time></trkpt><trkpt lat="43.489344843828675" lon="3.0386940161210774"><ele>88.0</ele><time>2026-04-07T16:45:09.999Z</time></trkpt><trkpt lat="43.48936387393084" lon="3.038886392230806"><ele>88.0</ele><time>2026-04-07T16:45:10.999Z</time></trkpt><trkpt lat="43.48935459737033" lon="3.039087534751727"><ele>88.0</ele><time>2026-04-07T16:45:11.999Z</time></trkpt><trkpt lat="43.48937423593876" lon="3.039292703840835"><ele>88.0</ele><time>2026-04-07T16:45:12.999Z</time></trkpt><trkpt lat="43.48937412825891" lon="3.0395004965168724"><ele>88.0</ele><time>2026-04-07T16:45:13.999Z</time></trkpt><trkpt lat="43.489384576851904" lon="3.0397105499155206"><ele>86.66666666666666</ele><time>2026-04-07T16:45:14.999Z</time></trkpt><trkpt lat="43.48940078344483" lon="3.039926532342043"><ele>85.33333333333333</ele><time>2026-04-07T16:45:15.999Z</time></trkpt><trkpt lat="43.48941095142169" lon="3.040149608289162"><ele>84.0</ele><time>2026-04-07T16:45:16.999Z</time></trkpt><trkpt lat="43.489398717057014" lon="3.0403732379691526"><ele>82.66666666666667</ele><time>2026-04-07T16:45:17.999Z</time></trkpt><trkpt lat="43.48939075190024" lon="3.0405776181322515"><ele>81.33333333333334</ele><time>2026-04-07T16:45:18.999Z</time></trkpt><trkpt lat="43.48937731356861" lon="3.0407901250468266"><ele>80.0</ele><time>2026-04-07T16:45:19.999Z</time></trkpt><trkpt lat="43.48937490412556" lon="3.0410150200125003"><ele>79.66666666666667</ele><time>2026-04-07T16:45:20.999Z</time></trkpt><trkpt lat="43.48935471117399" lon="3.0412427675596883"><ele>79.33333333333333</ele><time>2026-04-07T16:45:21.999Z</time></trkpt><trkpt lat="43.489335769013486" lon="3.0414745086225694"><ele>79.0</ele><time>2026-04-07T16:45:22.999Z</time></trkpt><trkpt lat="43.489317841418405" lon="3.0416919864594933"><ele>79.0</ele><time>2026-04-07T16:45:23.999Z</time></trkpt><trkpt lat="43.489300894505135" lon="3.04190919357738"><ele>79.0</ele><time>2026-04-07T16:45:24.999Z</time></trkpt><trkpt lat="43.48928923383432" lon="3.0421390462285367"><ele>79.0</ele><time>2026-04-07T16:45:25.999Z</time></trkpt><trkpt lat="43.48927692617018" lon="3.0423719154849906"><ele>79.66666666666666</ele><time>2026-04-07T16:45:26.999Z</time></trkpt><trkpt lat="43.489243424732436" lon="3.042588462221919"><ele>80.33333333333333</ele><time>2026-04-07T16:45:27.999Z</time></trkpt><trkpt lat="43.489212038184725" lon="3.042800016577138"><ele>81.0</ele><time>2026-04-07T16:45:28.999Z</time></trkpt><trkpt lat="43.48914300247516" lon="3.0429989623911187"><ele>81.0</ele><time>2026-04-07T16:45:29.999Z</time></trkpt><trkpt lat="43.4890392284653" lon="3.0431762688416617"><ele>81.0</ele><time>2026-04-07T16:45:30.999Z</time></trkpt><trkpt lat="43.48889879664451" lon="3.043317431012711"><ele>81.0</ele><time>2026-04-07T16:45:31.999Z</time></trkpt><trkpt lat="43.48872877376793" lon="3.0434191619960123"><ele>79.33333333333333</ele><time>2026-04-07T16:45:32.999Z</time></trkpt><trkpt lat="43.488542095287144" lon="3.0434470878113165"><ele>77.66666666666666</ele><time>2026-04-07T16:45:33.999Z</time></trkpt><trkpt lat="43.48835271235774" lon="3.043483761105021"><ele>76.0</ele><time>2026-04-07T16:45:34.999Z</time></trkpt><trkpt lat="43.48817118583806" lon="3.043501447943488"><ele>76.0</ele><time>2026-04-07T16:45:35.999Z</time></trkpt><trkpt lat="43.48801008580287" lon="3.043544743186091"><ele>76.0</ele><time>2026-04-07T16:45:36.999Z</time></trkpt><trkpt lat="43.487854375389325" lon="3.043632458618301"><ele>76.0</ele><time>2026-04-07T16:45:37.999Z</time></trkpt><trkpt lat="43.487702194782365" lon="3.043752157273572"><ele>74.33333333333333</ele><time>2026-04-07T16:45:38.998Z</time></trkpt><trkpt lat="43.487554815414754" lon="3.0438859661069513"><ele>72.66666666666667</ele><time>2026-04-07T16:45:39.998Z</time></trkpt><trkpt lat="43.48739777723124" lon="3.0440031851421416"><ele>71.0</ele><time>2026-04-07T16:45:40.998Z</time></trkpt><trkpt lat="43.487244774929465" lon="3.0441094843883953"><ele>70.66666666666667</ele><time>2026-04-07T16:45:41.998Z</time></trkpt><trkpt lat="43.48709181339469" lon="3.0442161282241638"><ele>70.33333333333333</ele><time>2026-04-07T16:45:42.998Z</time></trkpt><trkpt lat="43.486944309690436" lon="3.044326133842891"><ele>70.0</ele><time>2026-04-07T16:45:43.998Z</time></trkpt><trkpt lat="43.48680006240629" lon="3.0444371216568094"><ele>70.0</ele><time>2026-04-07T16:45:44.998Z</time></trkpt><trkpt lat="43.4866536627246" lon="3.044548857882487"><ele>70.0</ele><time>2026-04-07T16:45:45.998Z</time></trkpt><trkpt lat="43.48650373291277" lon="3.0446574985327928"><ele>70.0</ele><time>2026-04-07T16:45:46.998Z</time></trkpt><trkpt lat="43.48635439384571" lon="3.044761866923221"><ele>69.75</ele><time>2026-04-07T16:45:47.998Z</time></trkpt><trkpt lat="43.486222238629985" lon="3.044855155929413"><ele>69.5</ele><time>2026-04-07T16:45:48.998Z</time></trkpt><trkpt lat="43.486099553092195" lon="3.044952917594953"><ele>69.25</ele><time>2026-04-07T16:45:49.998Z</time></trkpt><trkpt lat="43.485977015279815" lon="3.0450453527832977"><ele>69.0</ele><time>2026-04-07T16:45:50.998Z</time></trkpt><trkpt lat="43.48585556766242" lon="3.045138959720059"><ele>69.0</ele><time>2026-04-07T16:45:51.998Z</time></trkpt><trkpt lat="43.485726292593746" lon="3.045236895550822"><ele>69.0</ele><time>2026-04-07T16:45:52.998Z</time></trkpt><trkpt lat="43.485597523730505" lon="3.0453395347737713"><ele>69.0</ele><time>2026-04-07T16:45:53.998Z</time></trkpt><trkpt lat="43.485456696839364" lon="3.045443955270121"><ele>69.0</ele><time>2026-04-07T16:45:54.998Z</time></trkpt><trkpt lat="43.48530522825372" lon="3.045507758156623"><ele>69.0</ele><time>2026-04-07T16:45:55.998Z</time></trkpt><trkpt lat="43.48515688693942" lon="3.045521129956291"><ele>69.0</ele><time>2026-04-07T16:45:56.998Z</time></trkpt><trkpt lat="43.484994612582064" lon="3.045504213660241"><ele>69.0</ele><time>2026-04-07T16:45:57.998Z</time></trkpt><trkpt lat="43.48482962873717" lon="3.0454985236812204"><ele>69.0</ele><time>2026-04-07T16:45:58.998Z</time></trkpt><trkpt lat="43.48465448566487" lon="3.0454669633115463"><ele>69.0</ele><time>2026-04-07T16:45:59.998Z</time></trkpt><trkpt lat="43.48448237560197" lon="3.045441693383527"><ele>69.33333333333333</ele><time>2026-04-07T16:46:00.998Z</time></trkpt><trkpt lat="43.48431921352278" lon="3.0454102751057164"><ele>69.66666666666666</ele><time>2026-04-07T16:46:01.998Z</time></trkpt><trkpt lat="43.484170819116116" lon="3.0452944782035742"><ele>70.0</ele><time>2026-04-07T16:46:02.998Z</time></trkpt><trkpt lat="43.484020322933574" lon="3.0451592265369785"><ele>70.0</ele><time>2026-04-07T16:46:03.998Z</time></trkpt><trkpt lat="43.483871493863894" lon="3.0450284377520487"><ele>70.0</ele><time>2026-04-07T16:46:04.998Z</time></trkpt><trkpt lat="43.48372877802878" lon="3.0449123962568176"><ele>70.0</ele><time>2026-04-07T16:46:05.998Z</time></trkpt><trkpt lat="43.48357195718775" lon="3.044835851414501"><ele>69.0</ele><time>2026-04-07T16:46:06.998Z</time></trkpt><trkpt lat="43.48340612908263" lon="3.044799419919126"><ele>68.0</ele><time>2026-04-07T16:46:07.998Z</time></trkpt><trkpt lat="43.48323519117462" lon="3.0447655256943156"><ele>67.0</ele><time>2026-04-07T16:46:08.998Z</time></trkpt><trkpt lat="43.48306606574484" lon="3.044722952837399"><ele>67.0</ele><time>2026-04-07T16:46:09.998Z</time></trkpt><trkpt lat="43.48290039989612" lon="3.0446838101937432"><ele>67.0</ele><time>2026-04-07T16:46:10.998Z</time></trkpt><trkpt lat="43.4827366954902" lon="3.0446373074194844"><ele>67.0</ele><time>2026-04-07T16:46:11.998Z</time></trkpt><trkpt lat="43.48257136789784" lon="3.0445895822327125"><ele>67.0</ele><time>2026-04-07T16:46:12.998Z</time></trkpt><trkpt lat="43.482404614539234" lon="3.0445434478013063"><ele>67.0</ele><time>2026-04-07T16:46:13.998Z</time></trkpt><trkpt lat="43.48224165501885" lon="3.0445030352799654"><ele>67.0</ele><time>2026-04-07T16:46:14.998Z</time></trkpt><trkpt lat="43.482077397995695" lon="3.0444052898585094"><ele>67.66666666666666</ele><time>2026-04-07T16:46:15.998Z</time></trkpt><trkpt lat="43.48192320017703" lon="3.044301215658053"><ele>68.33333333333333</ele><time>2026-04-07T16:46:16.998Z</time></trkpt><trkpt lat="43.4817670284593" lon="3.0442076430729372"><ele>69.0</ele><time>2026-04-07T16:46:17.998Z</time></trkpt><trkpt lat="43.48162474229648" lon="3.0441160765993507"><ele>69.0</ele><time>2026-04-07T16:46:18.998Z</time></trkpt><trkpt lat="43.48146605188832" lon="3.044037890411763"><ele>69.0</ele><time>2026-04-07T16:46:19.998Z</time></trkpt><trkpt lat="43.48129107451593" lon="3.044000050019581"><ele>69.0</ele><time>2026-04-07T16:46:20.998Z</time></trkpt><trkpt lat="43.48111163176078" lon="3.0439887172014024"><ele>69.33333333333333</ele><time>2026-04-07T16:46:21.998Z</time></trkpt><trkpt lat="43.48094017992233" lon="3.043948415432159"><ele>69.66666666666666</ele><time>2026-04-07T16:46:22.998Z</time></trkpt><trkpt lat="43.48075948499892" lon="3.043917663275337"><ele>70.0</ele><time>2026-04-07T16:46:23.997Z</time></trkpt><trkpt lat="43.48058069956368" lon="3.0438800028439577"><ele>69.33333333333333</ele><time>2026-04-07T16:46:25Z</time></trkpt><trkpt lat="43.480405897162036" lon="3.0438456651503563"><ele>68.66666666666667</ele><time>2026-04-07T16:46:26Z</time></trkpt><trkpt lat="43.48022993588219" lon="3.043814673415331"><ele>68.0</ele><time>2026-04-07T16:46:27Z</time></trkpt><trkpt lat="43.48004744589629" lon="3.043797642993948"><ele>68.0</ele><time>2026-04-07T16:46:28Z</time></trkpt><trkpt lat="43.479867439382296" lon="3.0437887433212354"><ele>68.0</ele><time>2026-04-07T16:46:29Z</time></trkpt><trkpt lat="43.47967974137271" lon="3.043769627417733"><ele>68.0</ele><time>2026-04-07T16:46:30Z</time></trkpt><trkpt lat="43.47949645062881" lon="3.0437538860890863"><ele>67.66666666666667</ele><time>2026-04-07T16:46:31Z</time></trkpt><trkpt lat="43.47931865207928" lon="3.043743941830528"><ele>67.33333333333333</ele><time>2026-04-07T16:46:32Z</time></trkpt><trkpt lat="43.47914830629011" lon="3.043741926058928"><ele>67.0</ele><time>2026-04-07T16:46:33Z</time></trkpt><trkpt lat="43.47898631331828" lon="3.043726180710284"><ele>67.0</ele><time>2026-04-07T16:46:34Z</time></trkpt><trkpt lat="43.478838463318986" lon="3.0437219881822304"><ele>67.0</ele><time>2026-04-07T16:46:35Z</time></trkpt><trkpt lat="43.47869553234023" lon="3.0437284389831656"><ele>67.0</ele><time>2026-04-07T16:46:36Z</time></trkpt><trkpt lat="43.47856935761428" lon="3.0437432959437647"><ele>67.0</ele><time>2026-04-07T16:46:37Z</time></trkpt><trkpt lat="43.478445005711684" lon="3.0437902146886544"><ele>66.25</ele><time>2026-04-07T16:46:38Z</time></trkpt><trkpt lat="43.47834749782891" lon="3.0439091177181328"><ele>65.5</ele><time>2026-04-07T16:46:39Z</time></trkpt><trkpt lat="43.47826934783121" lon="3.0440578148203175"><ele>64.75</ele><time>2026-04-07T16:46:40Z</time></trkpt><trkpt lat="43.47819234925742" lon="3.0441950995987117"><ele>64.0</ele><time>2026-04-07T16:46:41Z</time></trkpt><trkpt lat="43.478087607108606" lon="3.044304548782248"><ele>64.0</ele><time>2026-04-07T16:46:42Z</time></trkpt><trkpt lat="43.4779795689361" lon="3.044434979973605"><ele>64.0</ele><time>2026-04-07T16:46:43Z</time></trkpt><trkpt lat="43.477900425139026" lon="3.044612562942504"><ele>64.0</ele><time>2026-04-07T16:46:44Z</time></trkpt><trkpt lat="43.47783840136079" lon="3.044781804803008"><ele>64.0</ele><time>2026-04-07T16:46:45Z</time></trkpt><trkpt lat="43.477772885164505" lon="3.0449477961488607"><ele>65.5</ele><time>2026-04-07T16:46:46Z</time></trkpt><trkpt lat="43.47767899171578" lon="3.0450913951854335"><ele>67.0</ele><time>2026-04-07T16:46:47Z</time></trkpt><trkpt lat="43.47758303062157" lon="3.0452154839478967"><ele>68.5</ele><time>2026-04-07T16:46:48Z</time></trkpt><trkpt lat="43.47750030280167" lon="3.0453559196788156"><ele>70.0</ele><time>2026-04-07T16:46:49Z</time></trkpt><trkpt lat="43.477415892661234" lon="3.0454812473984796"><ele>70.0</ele><time>2026-04-07T16:46:50Z</time></trkpt><trkpt lat="43.47733136465619" lon="3.045598578389505"><ele>70.0</ele><time>2026-04-07T16:46:51Z</time></trkpt><trkpt lat="43.47724338937532" lon="3.0457133846004614"><ele>70.0</ele><time>2026-04-07T16:46:52Z</time></trkpt><trkpt lat="43.47716768248257" lon="3.0458312151468"><ele>70.0</ele><time>2026-04-07T16:46:53Z</time></trkpt><trkpt lat="43.477107055542604" lon="3.045965437290662"><ele>68.75</ele><time>2026-04-07T16:46:54Z</time></trkpt><trkpt lat="43.47707290977656" lon="3.046138841984612"><ele>67.5</ele><time>2026-04-07T16:46:55Z</time></trkpt><trkpt lat="43.47708740949024" lon="3.0463299803560915"><ele>66.25</ele><time>2026-04-07T16:46:56Z</time></trkpt><trkpt lat="43.47713122047821" lon="3.0465089895681206"><ele>65.0</ele><time>2026-04-07T16:46:57Z</time></trkpt><trkpt lat="43.477206277719084" lon="3.0466837458094735"><ele>70.5</ele><time>2026-04-07T16:46:58Z</time></trkpt><trkpt lat="43.477270182424554" lon="3.046863461990576"><ele>76.0</ele><time>2026-04-07T16:46:59Z</time></trkpt><trkpt lat="43.477314437543974" lon="3.0470149072608015"><ele>81.5</ele><time>2026-04-07T16:47:00Z</time></trkpt><trkpt lat="43.47734875055182" lon="3.0471770330049313"><ele>87.0</ele><time>2026-04-07T16:47:00.999Z</time></trkpt><trkpt lat="43.47740520727977" lon="3.047325269853577"><ele>87.0</ele><time>2026-04-07T16:47:01.999Z</time></trkpt><trkpt lat="43.47748261464539" lon="3.0474313559911828"><ele>87.0</ele><time>2026-04-07T16:47:02.999Z</time></trkpt><trkpt lat="43.47758708512315" lon="3.047457093781537"><ele>87.0</ele><time>2026-04-07T16:47:03.999Z</time></trkpt><trkpt lat="43.477710558474726" lon="3.0474159743166513"><ele>87.0</ele><time>2026-04-07T16:47:04.999Z</time></trkpt><trkpt lat="43.477829962055935" lon="3.0473582319734307"><ele>90.0</ele><time>2026-04-07T16:47:05.999Z</time></trkpt><trkpt lat="43.47794157259414" lon="3.047331305417982"><ele>93.0</ele><time>2026-04-07T16:47:06.999Z</time></trkpt><trkpt lat="43.478055612246315" lon="3.0473046807172546"><ele>96.0</ele><time>2026-04-07T16:47:07.999Z</time></trkpt><trkpt lat="43.478161124294665" lon="3.0472736202275983"><ele>99.0</ele><time>2026-04-07T16:47:08.999Z</time></trkpt><trkpt lat="43.478269605904536" lon="3.0472641773581306"><ele>102.0</ele><time>2026-04-07T16:47:09.999Z</time></trkpt><trkpt lat="43.47838285399109" lon="3.0472661242094925"><ele>102.0</ele><time>2026-04-07T16:47:10.999Z</time></trkpt><trkpt lat="43.47848538798502" lon="3.0472611600884547"><ele>102.0</ele><time>2026-04-07T16:47:11.999Z</time></trkpt><trkpt lat="43.478597854961215" lon="3.0472457303094056"><ele>102.0</ele><time>2026-04-07T16:47:12.999Z</time></trkpt><trkpt lat="43.47870969669029" lon="3.0472431422775226"><ele>102.0</ele><time>2026-04-07T16:47:13.999Z</time></trkpt><trkpt lat="43.47883374721167" lon="3.047204105718429"><ele>103.75</ele><time>2026-04-07T16:47:14.999Z</time></trkpt><trkpt lat="43.47895251613686" lon="3.0471913349612074"><ele>105.5</ele><time>2026-04-07T16:47:15.999Z</time></trkpt><trkpt lat="43.47908811631062" lon="3.047164564679838"><ele>107.25</ele><time>2026-04-07T16:47:16.999Z</time></trkpt><trkpt lat="43.47922394694495" lon="3.0471315296072463"><ele>109.0</ele><time>2026-04-07T16:47:17.999Z</time></trkpt><trkpt lat="43.47936117902365" lon="3.047106065932612"><ele>109.0</ele><time>2026-04-07T16:47:18.999Z</time></trkpt><trkpt lat="43.47949026609019" lon="3.0470830110690605"><ele>109.0</ele><time>2026-04-07T16:47:19.999Z</time></trkpt><trkpt lat="43.47962425174373" lon="3.047057581330305"><ele>109.0</ele><time>2026-04-07T16:47:20.999Z</time></trkpt><trkpt lat="43.47976569289308" lon="3.0470479128474195"><ele>109.0</ele><time>2026-04-07T16:47:21.999Z</time></trkpt><trkpt lat="43.479899484467865" lon="3.0470589521299822"><ele>108.5</ele><time>2026-04-07T16:47:22.999Z</time></trkpt><trkpt lat="43.48000238921359" lon="3.0471137894206004"><ele>108.0</ele><time>2026-04-07T16:47:23.999Z</time></trkpt><trkpt lat="43.48014284545779" lon="3.0471589015544773"><ele>107.5</ele><time>2026-04-07T16:47:24.999Z</time></trkpt><trkpt lat="43.48027911278821" lon="3.0472017882638114"><ele>107.0</ele><time>2026-04-07T16:47:25.999Z</time></trkpt><trkpt lat="43.480424095163976" lon="3.047240843509139"><ele>108.25</ele><time>2026-04-07T16:47:26.999Z</time></trkpt><trkpt lat="43.48056736381651" lon="3.0472688393673364"><ele>109.5</ele><time>2026-04-07T16:47:27.999Z</time></trkpt><trkpt lat="43.48071729580399" lon="3.0472841832742357"><ele>110.75</ele><time>2026-04-07T16:47:28.999Z</time></trkpt><trkpt lat="43.48086713353729" lon="3.0472976794761566"><ele>112.0</ele><time>2026-04-07T16:47:29.999Z</time></trkpt><trkpt lat="43.48100584002928" lon="3.047309856609151"><ele>112.0</ele><time>2026-04-07T16:47:30.999Z</time></trkpt><trkpt lat="43.481132607855606" lon="3.047317806030955"><ele>112.0</ele><time>2026-04-07T16:47:31.999Z</time></trkpt><trkpt lat="43.48125583246426" lon="3.0472914309386177"><ele>112.0</ele><time>2026-04-07T16:47:32.999Z</time></trkpt><trkpt lat="43.481369405358826" lon="3.0472739177223347"><ele>112.0</ele><time>2026-04-07T16:47:33.999Z</time></trkpt><trkpt lat="43.48147011885798" lon="3.0472725047894023"><ele>112.66666666666667</ele><time>2026-04-07T16:47:34.999Z</time></trkpt><trkpt lat="43.48154229232227" lon="3.0472769655660037"><ele>113.33333333333334</ele><time>2026-04-07T16:47:35.999Z</time></trkpt><trkpt lat="43.48160282521309" lon="3.047365118126799"><ele>114.0</ele><time>2026-04-07T16:47:36.999Z</time></trkpt><trkpt lat="43.481610397991645" lon="3.04745182119548"><ele>114.66666666666666</ele><time>2026-04-07T16:47:37.999Z</time></trkpt><trkpt lat="43.48157852241058" lon="3.0475470831110862"><ele>115.33333333333333</ele><time>2026-04-07T16:47:38.999Z</time></trkpt><trkpt lat="43.48155587321379" lon="3.047685915081375"><ele>116.0</ele><time>2026-04-07T16:47:39.999Z</time></trkpt><trkpt lat="43.481532626272696" lon="3.047846211721784"><ele>112.6</ele><time>2026-04-07T16:47:40.999Z</time></trkpt><trkpt lat="43.48149453546549" lon="3.047968779761621"><ele>109.19999999999999</ele><time>2026-04-07T16:47:41.999Z</time></trkpt><trkpt lat="43.48143979099553" lon="3.0480623359152452"><ele>105.80000000000001</ele><time>2026-04-07T16:47:42.999Z</time></trkpt><trkpt lat="43.48134946568448" lon="3.0480295299758007"><ele>102.4</ele><time>2026-04-07T16:47:43.999Z</time></trkpt><trkpt lat="43.48125032775597" lon="3.048019280738127"><ele>99.0</ele><time>2026-04-07T16:47:44.999Z</time></trkpt><trkpt lat="43.481134353313" lon="3.048034205446413"><ele>98.0</ele><time>2026-04-07T16:47:45.998Z</time></trkpt><trkpt lat="43.48095539316216" lon="3.0480115446360725"><ele>97.0</ele><time>2026-04-07T16:47:46.998Z</time></trkpt><trkpt lat="43.480811437614015" lon="3.0480254388270787"><ele>96.0</ele><time>2026-04-07T16:47:47.998Z</time></trkpt><trkpt lat="43.48069668808342" lon="3.048049329475072"><ele>95.0</ele><time>2026-04-07T16:47:48.998Z</time></trkpt><trkpt lat="43.48058889494405" lon="3.0480624742132036"><ele>95.0</ele><time>2026-04-07T16:47:49.998Z</time></trkpt><trkpt lat="43.4804848451363" lon="3.048079034703574"><ele>95.0</ele><time>2026-04-07T16:47:50.998Z</time></trkpt><trkpt lat="43.4803781281766" lon="3.0481009813567943"><ele>95.0</ele><time>2026-04-07T16:47:51.998Z</time></trkpt><trkpt lat="43.48026695768335" lon="3.0481152988236144"><ele>95.0</ele><time>2026-04-07T16:47:52.998Z</time></trkpt><trkpt lat="43.48015091583074" lon="3.048140917645673"><ele>95.0</ele><time>2026-04-07T16:47:53.998Z</time></trkpt><trkpt lat="43.48003961035737" lon="3.048170270292275"><ele>94.25</ele><time>2026-04-07T16:47:54.998Z</time></trkpt><trkpt lat="43.479934827766805" lon="3.048248923660195"><ele>93.5</ele><time>2026-04-07T16:47:55.998Z</time></trkpt><trkpt lat="43.47984116687497" lon="3.0483739389037594"><ele>92.75</ele><time>2026-04-07T16:47:56.998Z</time></trkpt><trkpt lat="43.47977627966185" lon="3.0485327683244767"><ele>92.0</ele><time>2026-04-07T16:47:57.998Z</time></trkpt><trkpt lat="43.47973089491132" lon="3.048693164123342"><ele>93.25</ele><time>2026-04-07T16:47:58.998Z</time></trkpt><trkpt lat="43.47965518127716" lon="3.0488068772952"><ele>94.5</ele><time>2026-04-07T16:47:59.998Z</time></trkpt><trkpt lat="43.47955668351624" lon="3.0488813650729094"><ele>95.75</ele><time>2026-04-07T16:48:00.998Z</time></trkpt><trkpt lat="43.47942083926864" lon="3.0488999638747756"><ele>97.0</ele><time>2026-04-07T16:48:01.998Z</time></trkpt><trkpt lat="43.4792914091736" lon="3.0489572631989557"><ele>97.0</ele><time>2026-04-07T16:48:02.998Z</time></trkpt><trkpt lat="43.479181418694786" lon="3.0489901852980044"><ele>97.0</ele><time>2026-04-07T16:48:03.998Z</time></trkpt><trkpt lat="43.47907216069209" lon="3.049077198650749"><ele>97.0</ele><time>2026-04-07T16:48:04.998Z</time></trkpt><trkpt lat="43.47898475764299" lon="3.0491876906724955"><ele>97.0</ele><time>2026-04-07T16:48:05.998Z</time></trkpt><trkpt lat="43.478892537010125" lon="3.0493030775900767"><ele>98.75</ele><time>2026-04-07T16:48:06.998Z</time></trkpt><trkpt lat="43.478785104139995" lon="3.049378530156725"><ele>100.5</ele><time>2026-04-07T16:48:07.998Z</time></trkpt><trkpt lat="43.47868916858789" lon="3.049473622272534"><ele>102.25</ele><time>2026-04-07T16:48:08.998Z</time></trkpt><trkpt lat="43.47858552615041" lon="3.0495479375372643"><ele>104.0</ele><time>2026-04-07T16:48:09.998Z</time></trkpt><trkpt lat="43.47848419574843" lon="3.0496230521883314"><ele>104.0</ele><time>2026-04-07T16:48:10.998Z</time></trkpt><trkpt lat="43.478385304935365" lon="3.0496879882448944"><ele>104.0</ele><time>2026-04-07T16:48:11.998Z</time></trkpt><trkpt lat="43.47826793596622" lon="3.0496953234143973"><ele>104.0</ele><time>2026-04-07T16:48:12.998Z</time></trkpt><trkpt lat="43.47814457134338" lon="3.04967422951536"><ele>104.0</ele><time>2026-04-07T16:48:13.998Z</time></trkpt><trkpt lat="43.478016092686005" lon="3.049647835217632"><ele>104.0</ele><time>2026-04-07T16:48:14.998Z</time></trkpt><trkpt lat="43.477895194737904" lon="3.0496144721515352"><ele>104.0</ele><time>2026-04-07T16:48:15.998Z</time></trkpt><trkpt lat="43.47778945499177" lon="3.049634219663289"><ele>104.0</ele><time>2026-04-07T16:48:16.998Z</time></trkpt><trkpt lat="43.477718554832556" lon="3.0497274175517775"><ele>104.0</ele><time>2026-04-07T16:48:17.998Z</time></trkpt><trkpt lat="43.47767976171069" lon="3.049847412585329"><ele>104.0</ele><time>2026-04-07T16:48:18.998Z</time></trkpt><trkpt lat="43.47770662318032" lon="3.0499903537864066"><ele>104.75</ele><time>2026-04-07T16:48:19.998Z</time></trkpt><trkpt lat="43.47777997417782" lon="3.0501210192449792"><ele>105.5</ele><time>2026-04-07T16:48:20.998Z</time></trkpt><trkpt lat="43.477860210345234" lon="3.050238145834575"><ele>106.25</ele><time>2026-04-07T16:48:21.998Z</time></trkpt><trkpt lat="43.47792929853314" lon="3.050358454933619"><ele>107.0</ele><time>2026-04-07T16:48:22.998Z</time></trkpt><trkpt lat="43.47799158313957" lon="3.0504792599661386"><ele>110.19999999999999</ele><time>2026-04-07T16:48:23.998Z</time></trkpt><trkpt lat="43.47805006452357" lon="3.050604544818432"><ele>113.39999999999999</ele><time>2026-04-07T16:48:24.998Z</time></trkpt><trkpt lat="43.47810515164389" lon="3.050733565149426"><ele>116.60000000000001</ele><time>2026-04-07T16:48:25.998Z</time></trkpt><trkpt lat="43.478148727343196" lon="3.0508733919760633"><ele>119.80000000000001</ele><time>2026-04-07T16:48:26.998Z</time></trkpt><trkpt lat="43.478185690071754" lon="3.0510196284083158"><ele>123.0</ele><time>2026-04-07T16:48:27.998Z</time></trkpt><trkpt lat="43.47821623749528" lon="3.051171248124713"><ele>124.0</ele><time>2026-04-07T16:48:28.998Z</time></trkpt><trkpt lat="43.47821561814949" lon="3.051324193802903"><ele>125.00000000000001</ele><time>2026-04-07T16:48:29.998Z</time></trkpt><trkpt lat="43.47823873259115" lon="3.0514763709412343"><ele>126.00000000000001</ele><time>2026-04-07T16:48:31Z</time></trkpt><trkpt lat="43.47824603798759" lon="3.0516280136355314"><ele>127.0</ele><time>2026-04-07T16:48:32Z</time></trkpt><trkpt lat="43.47825510039923" lon="3.0517815526806427"><ele>128.0</ele><time>2026-04-07T16:48:33Z</time></trkpt><trkpt lat="43.4782652258444" lon="3.0519354186230503"><ele>128.20000000000002</ele><time>2026-04-07T16:48:34Z</time></trkpt><trkpt lat="43.47827266216731" lon="3.0520900581539183"><ele>128.4</ele><time>2026-04-07T16:48:35Z</time></trkpt><trkpt lat="43.47827676211577" lon="3.052242061865131"><ele>128.60000000000002</ele><time>2026-04-07T16:48:36Z</time></trkpt><trkpt lat="43.47828567636751" lon="3.052398732169346"><ele>128.8</ele><time>2026-04-07T16:48:37Z</time></trkpt><trkpt lat="43.47828671174456" lon="3.052552713632406"><ele>129.0</ele><time>2026-04-07T16:48:38Z</time></trkpt><trkpt lat="43.478292334172565" lon="3.052713101949604"><ele>130.0</ele><time>2026-04-07T16:48:39Z</time></trkpt><trkpt lat="43.47829036036619" lon="3.052868013362137"><ele>131.0</ele><time>2026-04-07T16:48:40Z</time></trkpt><trkpt lat="43.47828578348063" lon="3.0530252087530427"><ele>132.0</ele><time>2026-04-07T16:48:41Z</time></trkpt><trkpt lat="43.478297666871505" lon="3.053180245983515"><ele>133.0</ele><time>2026-04-07T16:48:42Z</time></trkpt><trkpt lat="43.47834125188072" lon="3.0533251578348626"><ele>134.5</ele><time>2026-04-07T16:48:43Z</time></trkpt><trkpt lat="43.47840419566304" lon="3.0534590798528125"><ele>136.0</ele><time>2026-04-07T16:48:44Z</time></trkpt><trkpt lat="43.478459342292275" lon="3.0535996536667875"><ele>137.5</ele><time>2026-04-07T16:48:45Z</time></trkpt><trkpt lat="43.47851475512285" lon="3.0537397503658377"><ele>139.0</ele><time>2026-04-07T16:48:46Z</time></trkpt><trkpt lat="43.47855706839791" lon="3.0538874191183627"><ele>139.0</ele><time>2026-04-07T16:48:47Z</time></trkpt><trkpt lat="43.47859823275449" lon="3.0540385995955956"><ele>139.0</ele><time>2026-04-07T16:48:48Z</time></trkpt><trkpt lat="43.47863754615981" lon="3.054185293833103"><ele>139.0</ele><time>2026-04-07T16:48:49Z</time></trkpt><trkpt lat="43.47867003586763" lon="3.0543248231823923"><ele>139.0</ele><time>2026-04-07T16:48:50Z</time></trkpt><trkpt lat="43.478713408517194" lon="3.0544821488398184"><ele>139.75</ele><time>2026-04-07T16:48:51Z</time></trkpt><trkpt lat="43.478765311936556" lon="3.0546278954683883"><ele>140.5</ele><time>2026-04-07T16:48:52Z</time></trkpt><trkpt lat="43.47882398983066" lon="3.0547648300082386"><ele>141.25</ele><time>2026-04-07T16:48:53Z</time></trkpt><trkpt lat="43.47888515581339" lon="3.054898301121104"><ele>142.0</ele><time>2026-04-07T16:48:54Z</time></trkpt><trkpt lat="43.47893818143591" lon="3.055039986744895"><ele>144.0</ele><time>2026-04-07T16:48:55Z</time></trkpt><trkpt lat="43.47895066685323" lon="3.055200535215917"><ele>146.0</ele><time>2026-04-07T16:48:56Z</time></trkpt><trkpt lat="43.478963992967124" lon="3.055357800024959"><ele>148.0</ele><time>2026-04-07T16:48:57Z</time></trkpt><trkpt lat="43.47897716465508" lon="3.055515602488698"><ele>150.0</ele><time>2026-04-07T16:48:58Z</time></trkpt><trkpt lat="43.47898319823935" lon="3.055679449230349"><ele>150.5</ele><time>2026-04-07T16:48:59Z</time></trkpt><trkpt lat="43.47899749525361" lon="3.0558458130902943"><ele>151.0</ele><time>2026-04-07T16:49:00Z</time></trkpt><trkpt lat="43.479014042711064" lon="3.0560106034477945"><ele>151.5</ele><time>2026-04-07T16:49:01Z</time></trkpt><trkpt lat="43.47903787015466" lon="3.056168881615691"><ele>152.0</ele><time>2026-04-07T16:49:02Z</time></trkpt><trkpt lat="43.479062939918364" lon="3.056311994385244"><ele>152.0</ele><time>2026-04-07T16:49:03Z</time></trkpt><trkpt lat="43.479089302489164" lon="3.0564451656438587"><ele>152.0</ele><time>2026-04-07T16:49:04Z</time></trkpt><trkpt lat="43.47911863745262" lon="3.05658652512912"><ele>152.0</ele><time>2026-04-07T16:49:05Z</time></trkpt><trkpt lat="43.47913319445217" lon="3.0567507743086586"><ele>152.0</ele><time>2026-04-07T16:49:05.999Z</time></trkpt><trkpt lat="43.4791707139379" lon="3.0569469349585923"><ele>152.25</ele><time>2026-04-07T16:49:06.999Z</time></trkpt><trkpt lat="43.47916974822824" lon="3.0571234496187656"><ele>152.5</ele><time>2026-04-07T16:49:07.999Z</time></trkpt><trkpt lat="43.479179031681795" lon="3.0573064692525684"><ele>152.75</ele><time>2026-04-07T16:49:08.999Z</time></trkpt><trkpt lat="43.479192390341126" lon="3.057500542598778"><ele>153.0</ele><time>2026-04-07T16:49:09.999Z</time></trkpt><trkpt lat="43.479211864003226" lon="3.057703862659933"><ele>151.66666666666666</ele><time>2026-04-07T16:49:10.999Z</time></trkpt><trkpt lat="43.479248629995915" lon="3.0579145344427645"><ele>150.33333333333331</ele><time>2026-04-07T16:49:11.999Z</time></trkpt><trkpt lat="43.479323799181145" lon="3.058103752336793"><ele>149.0</ele><time>2026-04-07T16:49:12.999Z</time></trkpt><trkpt lat="43.47942132285006" lon="3.058282481688338"><ele>148.33333333333331</ele><time>2026-04-07T16:49:13.999Z</time></trkpt><trkpt lat="43.47947584126431" lon="3.0584929704264012"><ele>147.66666666666666</ele><time>2026-04-07T16:49:14.999Z</time></trkpt><trkpt lat="43.479503453675626" lon="3.058732630737179"><ele>147.0</ele><time>2026-04-07T16:49:15.999Z</time></trkpt><trkpt lat="43.47951837226432" lon="3.058979042715404"><ele>146.66666666666666</ele><time>2026-04-07T16:49:16.999Z</time></trkpt><trkpt lat="43.47954360857353" lon="3.0592307974574116"><ele>146.33333333333331</ele><time>2026-04-07T16:49:17.999Z</time></trkpt><trkpt lat="43.47955131683617" lon="3.0594813739192603"><ele>146.0</ele><time>2026-04-07T16:49:18.999Z</time></trkpt><trkpt lat="43.47956675242741" lon="3.0597360464227736"><ele>143.66666666666666</ele><time>2026-04-07T16:49:19.999Z</time></trkpt><trkpt lat="43.479580230729525" lon="3.059992573329305"><ele>141.33333333333334</ele><time>2026-04-07T16:49:20.999Z</time></trkpt><trkpt lat="43.47959363000488" lon="3.060252109348354"><ele>139.0</ele><time>2026-04-07T16:49:21.999Z</time></trkpt><trkpt lat="43.47960744840892" lon="3.0605105809708686"><ele>133.66666666666669</ele><time>2026-04-07T16:49:22.999Z</time></trkpt><trkpt lat="43.47962009977505" lon="3.060763614557864"><ele>128.33333333333334</ele><time>2026-04-07T16:49:23.999Z</time></trkpt><trkpt lat="43.47963549819199" lon="3.06100991411728"><ele>123.0</ele><time>2026-04-07T16:49:24.999Z</time></trkpt><trkpt lat="43.479648995708985" lon="3.061251288142894"><ele>122.33333333333334</ele><time>2026-04-07T16:49:25.999Z</time></trkpt><trkpt lat="43.47963115618859" lon="3.061481867402836"><ele>121.66666666666667</ele><time>2026-04-07T16:49:26.999Z</time></trkpt><trkpt lat="43.47959209005104" lon="3.06168285886535"><ele>121.0</ele><time>2026-04-07T16:49:27.999Z</time></trkpt><trkpt lat="43.47950588659428" lon="3.061853421680108"><ele>122.66666666666667</ele><time>2026-04-07T16:49:28.999Z</time></trkpt><trkpt lat="43.47938560631807" lon="3.061989168868974"><ele>124.33333333333334</ele><time>2026-04-07T16:49:29.999Z</time></trkpt><trkpt lat="43.47924608821431" lon="3.0621105362605183"><ele>126.0</ele><time>2026-04-07T16:49:30.999Z</time></trkpt><trkpt lat="43.479108339319104" lon="3.062233895035944"><ele>126.0</ele><time>2026-04-07T16:49:31.999Z</time></trkpt><trkpt lat="43.47896424931582" lon="3.0623332445145777"><ele>126.0</ele><time>2026-04-07T16:49:32.999Z</time></trkpt><trkpt lat="43.47882885793308" lon="3.0624422070598114"><ele>126.0</ele><time>2026-04-07T16:49:33.999Z</time></trkpt><trkpt lat="43.478695796794526" lon="3.0625597200400385"><ele>124.66666666666666</ele><time>2026-04-07T16:49:34.999Z</time></trkpt><trkpt lat="43.478587462473826" lon="3.062719140270995"><ele>123.33333333333333</ele><time>2026-04-07T16:49:35.999Z</time></trkpt><trkpt lat="43.478494428426416" lon="3.0628992595803144"><ele>122.0</ele><time>2026-04-07T16:49:36.999Z</time></trkpt><trkpt lat="43.47841388101387" lon="3.0631020827494804"><ele>118.0</ele><time>2026-04-07T16:49:37.999Z</time></trkpt><trkpt lat="43.47833152669934" lon="3.063301199278749"><ele>114.0</ele><time>2026-04-07T16:49:38.999Z</time></trkpt><trkpt lat="43.478254689019046" lon="3.0634861927594317"><ele>110.0</ele><time>2026-04-07T16:49:39.999Z</time></trkpt><trkpt lat="43.47817772212421" lon="3.0636579638360186"><ele>110.0</ele><time>2026-04-07T16:49:40.999Z</time></trkpt><trkpt lat="43.47810013446603" lon="3.063819781276123"><ele>110.0</ele><time>2026-04-07T16:49:41.999Z</time></trkpt><trkpt lat="43.47802899785786" lon="3.063968247987562"><ele>110.0</ele><time>2026-04-07T16:49:42.999Z</time></trkpt><trkpt lat="43.477971663619755" lon="3.0641099976173356"><ele>110.0</ele><time>2026-04-07T16:49:43.999Z</time></trkpt><trkpt lat="43.477932969782074" lon="3.064242121667112"><ele>109.16666666666666</ele><time>2026-04-07T16:49:44.999Z</time></trkpt><trkpt lat="43.477930066930476" lon="3.0643732283467204"><ele>108.33333333333333</ele><time>2026-04-07T16:49:45.999Z</time></trkpt><trkpt lat="43.47795356761381" lon="3.064487440826274"><ele>107.5</ele><time>2026-04-07T16:49:46.999Z</time></trkpt><trkpt lat="43.47798787332972" lon="3.064571904246413"><ele>106.66666666666666</ele><time>2026-04-07T16:49:47.999Z</time></trkpt><trkpt lat="43.47808028928958" lon="3.0646436363495884"><ele>105.83333333333333</ele><time>2026-04-07T16:49:49.999Z</time></trkpt><trkpt lat="43.47813731607496" lon="3.0646880700189003"><ele>105.0</ele><time>2026-04-07T16:49:50.999Z</time></trkpt><trkpt lat="43.4781928403668" lon="3.064733962272132"><ele>105.0</ele><time>2026-04-07T16:49:51.998Z</time></trkpt><trkpt lat="43.47829082962476" lon="3.06479971486181"><ele>105.0</ele><time>2026-04-07T16:49:53.998Z</time></trkpt><trkpt lat="43.47834101905606" lon="3.06491904650195"><ele>105.0</ele><time>2026-04-07T16:49:55.998Z</time></trkpt><trkpt lat="43.478281226865676" lon="3.065066560883331"><ele>105.0</ele><time>2026-04-07T16:49:56.998Z</time></trkpt><trkpt lat="43.47821581660451" lon="3.0651948872703167"><ele>105.0</ele><time>2026-04-07T16:49:57.998Z</time></trkpt><trkpt lat="43.47816480642459" lon="3.0653243830450827"><ele>105.8</ele><time>2026-04-07T16:49:58.998Z</time></trkpt><trkpt lat="43.478118046166806" lon="3.0654567152291627"><ele>106.6</ele><time>2026-04-07T16:49:59.998Z</time></trkpt><trkpt lat="43.47808980957986" lon="3.065596424931226"><ele>107.4</ele><time>2026-04-07T16:50:00.998Z</time></trkpt><trkpt lat="43.478065691903424" lon="3.0657403051104803"><ele>108.2</ele><time>2026-04-07T16:50:01.998Z</time></trkpt><trkpt lat="43.47806058335695" lon="3.065907152173761"><ele>109.0</ele><time>2026-04-07T16:50:02.998Z</time></trkpt><trkpt lat="43.478072484686216" lon="3.0660699878573774"><ele>109.75</ele><time>2026-04-07T16:50:03.998Z</time></trkpt><trkpt lat="43.47809226352068" lon="3.066234757733275"><ele>110.5</ele><time>2026-04-07T16:50:04.998Z</time></trkpt><trkpt lat="43.47813296533549" lon="3.0663988595182214"><ele>111.25</ele><time>2026-04-07T16:50:05.998Z</time></trkpt><trkpt lat="43.4781811958714" lon="3.0665545231521523"><ele>112.0</ele><time>2026-04-07T16:50:06.998Z</time></trkpt><trkpt lat="43.47825836160509" lon="3.066702560116391"><ele>112.0</ele><time>2026-04-07T16:50:07.998Z</time></trkpt><trkpt lat="43.47833158587784" lon="3.0668574303514045"><ele>112.0</ele><time>2026-04-07T16:50:08.998Z</time></trkpt><trkpt lat="43.47839753427996" lon="3.0670131349438883"><ele>112.0</ele><time>2026-04-07T16:50:09.998Z</time></trkpt><trkpt lat="43.478458912434895" lon="3.067172456306437"><ele>112.0</ele><time>2026-04-07T16:50:10.998Z</time></trkpt><trkpt lat="43.478497135296294" lon="3.067341494425972"><ele>111.5</ele><time>2026-04-07T16:50:11.998Z</time></trkpt><trkpt lat="43.47852621130885" lon="3.067513664413924"><ele>111.0</ele><time>2026-04-07T16:50:12.998Z</time></trkpt><trkpt lat="43.47854401947299" lon="3.067686102099227"><ele>110.5</ele><time>2026-04-07T16:50:13.998Z</time></trkpt><trkpt lat="43.47854644893115" lon="3.0678551561837466"><ele>110.0</ele><time>2026-04-07T16:50:14.998Z</time></trkpt><trkpt lat="43.47854419858998" lon="3.068035530793727"><ele>110.0</ele><time>2026-04-07T16:50:15.998Z</time></trkpt><trkpt lat="43.47854827066188" lon="3.0682159048510558"><ele>110.0</ele><time>2026-04-07T16:50:16.998Z</time></trkpt><trkpt lat="43.47854045148857" lon="3.0683944047429694"><ele>110.0</ele><time>2026-04-07T16:50:17.998Z</time></trkpt><trkpt lat="43.478523280643465" lon="3.068571390596279"><ele>110.0</ele><time>2026-04-07T16:50:18.998Z</time></trkpt><trkpt lat="43.478510004667015" lon="3.06875545896375"><ele>110.25</ele><time>2026-04-07T16:50:19.998Z</time></trkpt><trkpt lat="43.47846060762913" lon="3.068924847264937"><ele>110.5</ele><time>2026-04-07T16:50:20.998Z</time></trkpt><trkpt lat="43.47840667247292" lon="3.0690825833074626"><ele>110.75</ele><time>2026-04-07T16:50:21.998Z</time></trkpt><trkpt lat="43.47834057635027" lon="3.0692424275968895"><ele>111.0</ele><time>2026-04-07T16:50:22.998Z</time></trkpt><trkpt lat="43.47827374958052" lon="3.0694016137457543"><ele>112.5</ele><time>2026-04-07T16:50:23.998Z</time></trkpt><trkpt lat="43.47821010230871" lon="3.0695622919901746"><ele>114.0</ele><time>2026-04-07T16:50:24.998Z</time></trkpt><trkpt lat="43.478159636392206" lon="3.069732322406609"><ele>115.5</ele><time>2026-04-07T16:50:25.998Z</time></trkpt><trkpt lat="43.47810349965786" lon="3.0698858312948483"><ele>117.0</ele><time>2026-04-07T16:50:26.998Z</time></trkpt><trkpt lat="43.478060100389136" lon="3.0700327984972837"><ele>120.5</ele><time>2026-04-07T16:50:27.998Z</time></trkpt><trkpt lat="43.47802200710485" lon="3.070232968220981"><ele>124.0</ele><time>2026-04-07T16:50:28.998Z</time></trkpt><trkpt lat="43.47798867393826" lon="3.070404943072429"><ele>127.5</ele><time>2026-04-07T16:50:29.998Z</time></trkpt><trkpt lat="43.47794692005838" lon="3.0705740065558698"><ele>131.0</ele><time>2026-04-07T16:50:30.998Z</time></trkpt><trkpt lat="43.477892428369934" lon="3.070729125415492"><ele>125.75</ele><time>2026-04-07T16:50:31.998Z</time></trkpt><trkpt lat="43.477838140200795" lon="3.0708813892655638"><ele>120.5</ele><time>2026-04-07T16:50:32.998Z</time></trkpt><trkpt lat="43.477784954327845" lon="3.0710356504295935"><ele>115.25</ele><time>2026-04-07T16:50:33.998Z</time></trkpt><trkpt lat="43.477737550858926" lon="3.07119137928624"><ele>110.0</ele><time>2026-04-07T16:50:34.998Z</time></trkpt><trkpt lat="43.47768675006207" lon="3.071341290380429"><ele>110.0</ele><time>2026-04-07T16:50:35.998Z</time></trkpt><trkpt lat="43.47763420272458" lon="3.07149251671497"><ele>110.0</ele><time>2026-04-07T16:50:37Z</time></trkpt><trkpt lat="43.47757209729582" lon="3.071635547229701"><ele>110.0</ele><time>2026-04-07T16:50:38Z</time></trkpt><trkpt lat="43.47752336322687" lon="3.0717882592354986"><ele>110.0</ele><time>2026-04-07T16:50:39Z</time></trkpt><trkpt lat="43.47746849884543" lon="3.0719448956654194"><ele>113.5</ele><time>2026-04-07T16:50:40Z</time></trkpt><trkpt lat="43.47740821208428" lon="3.0721016614892713"><ele>117.0</ele><time>2026-04-07T16:50:41Z</time></trkpt><trkpt lat="43.477353849032376" lon="3.072252951834528"><ele>120.5</ele><time>2026-04-07T16:50:42Z</time></trkpt><trkpt lat="43.47730967327137" lon="3.072409970600388"><ele>124.0</ele><time>2026-04-07T16:50:43Z</time></trkpt><trkpt lat="43.47726716749391" lon="3.072566418578425"><ele>128.0</ele><time>2026-04-07T16:50:44Z</time></trkpt><trkpt lat="43.477243300539975" lon="3.0727262847425267"><ele>132.0</ele><time>2026-04-07T16:50:45Z</time></trkpt><trkpt lat="43.47722693364131" lon="3.0729100699546406"><ele>136.0</ele><time>2026-04-07T16:50:46Z</time></trkpt><trkpt lat="43.477217433246324" lon="3.073085456530931"><ele>140.0</ele><time>2026-04-07T16:50:47Z</time></trkpt><trkpt lat="43.47720019501587" lon="3.0732528418393668"><ele>142.25</ele><time>2026-04-07T16:50:48Z</time></trkpt><trkpt lat="43.4772017462691" lon="3.07342921739984"><ele>144.5</ele><time>2026-04-07T16:50:49Z</time></trkpt><trkpt lat="43.47719700746241" lon="3.073606970865872"><ele>146.75</ele><time>2026-04-07T16:50:50Z</time></trkpt><trkpt lat="43.47719523743194" lon="3.0737770440686"><ele>149.0</ele><time>2026-04-07T16:50:51Z</time></trkpt><trkpt lat="43.477193900886476" lon="3.0739425645710017"><ele>150.0</ele><time>2026-04-07T16:50:52Z</time></trkpt><trkpt lat="43.47718098761514" lon="3.0741186332989385"><ele>151.0</ele><time>2026-04-07T16:50:53Z</time></trkpt><trkpt lat="43.47716517813723" lon="3.074295008141304"><ele>152.0</ele><time>2026-04-07T16:50:54Z</time></trkpt><trkpt lat="43.477166641407614" lon="3.07447479165495"><ele>153.0</ele><time>2026-04-07T16:50:55Z</time></trkpt><trkpt lat="43.4771617575828" lon="3.074643638764288"><ele>153.0</ele><time>2026-04-07T16:50:56Z</time></trkpt><trkpt lat="43.477158835964715" lon="3.074817908270137"><ele>153.0</ele><time>2026-04-07T16:50:57Z</time></trkpt><trkpt lat="43.47716552018875" lon="3.0749898032781795"><ele>153.0</ele><time>2026-04-07T16:50:58Z</time></trkpt><trkpt lat="43.47717064030097" lon="3.075150759074114"><ele>153.0</ele><time>2026-04-07T16:50:59Z</time></trkpt><trkpt lat="43.47719098783017" lon="3.075319552802386"><ele>154.0</ele><time>2026-04-07T16:51:00Z</time></trkpt><trkpt lat="43.477213515305806" lon="3.0754760225196898"><ele>155.0</ele><time>2026-04-07T16:51:01Z</time></trkpt><trkpt lat="43.47722982771076" lon="3.0756520813503463"><ele>156.0</ele><time>2026-04-07T16:51:02Z</time></trkpt><trkpt lat="43.477258489573224" lon="3.0758077364028953"><ele>157.0</ele><time>2026-04-07T16:51:03Z</time></trkpt><trkpt lat="43.47729289373635" lon="3.0759695702915035"><ele>157.0</ele><time>2026-04-07T16:51:04Z</time></trkpt><trkpt lat="43.47734008251828" lon="3.076121203877223"><ele>157.0</ele><time>2026-04-07T16:51:05Z</time></trkpt><trkpt lat="43.47738299211883" lon="3.0762846610854417"><ele>157.0</ele><time>2026-04-07T16:51:06Z</time></trkpt><trkpt lat="43.4774232152449" lon="3.076431531267999"><ele>157.0</ele><time>2026-04-07T16:51:07Z</time></trkpt><trkpt lat="43.477461751750994" lon="3.076585097437419"><ele>155.0</ele><time>2026-04-07T16:51:08Z</time></trkpt><trkpt lat="43.47746710097917" lon="3.0767588189603905"><ele>153.0</ele><time>2026-04-07T16:51:09Z</time></trkpt><trkpt lat="43.47749166698173" lon="3.0769088506613524"><ele>151.0</ele><time>2026-04-07T16:51:10Z</time></trkpt><trkpt lat="43.477478043986245" lon="3.0770822900160084"><ele>149.0</ele><time>2026-04-07T16:51:11Z</time></trkpt><trkpt lat="43.47743791829958" lon="3.0772334604391736"><ele>149.0</ele><time>2026-04-07T16:51:12Z</time></trkpt><trkpt lat="43.47738309706124" lon="3.07737399966363"><ele>149.0</ele><time>2026-04-07T16:51:12.999Z</time></trkpt><trkpt lat="43.47731671232541" lon="3.07750468988698"><ele>149.0</ele><time>2026-04-07T16:51:13.999Z</time></trkpt><trkpt lat="43.47725415660209" lon="3.0776434263372265"><ele>149.0</ele><time>2026-04-07T16:51:14.999Z</time></trkpt><trkpt lat="43.47717822092104" lon="3.077765366274643"><ele>149.25</ele><time>2026-04-07T16:51:15.999Z</time></trkpt><trkpt lat="43.47710271072597" lon="3.0778909886340706"><ele>149.5</ele><time>2026-04-07T16:51:16.999Z</time></trkpt><trkpt lat="43.47703743556211" lon="3.0780286696889045"><ele>149.75</ele><time>2026-04-07T16:51:17.999Z</time></trkpt><trkpt lat="43.47696752276967" lon="3.078154041711755"><ele>150.0</ele><time>2026-04-07T16:51:18.999Z</time></trkpt><trkpt lat="43.47689530603858" lon="3.078288778334356"><ele>150.0</ele><time>2026-04-07T16:51:19.999Z</time></trkpt><trkpt lat="43.47680050774982" lon="3.0784408961311946"><ele>150.0</ele><time>2026-04-07T16:51:20.999Z</time></trkpt><trkpt lat="43.476709043399545" lon="3.0785741926326238"><ele>150.0</ele><time>2026-04-07T16:51:21.999Z</time></trkpt><trkpt lat="43.476641687481674" lon="3.0786881197562157"><ele>150.0</ele><time>2026-04-07T16:51:22.999Z</time></trkpt><trkpt lat="43.47656064644243" lon="3.0788083348575035"><ele>150.0</ele><time>2026-04-07T16:51:23.999Z</time></trkpt><trkpt lat="43.47646304604916" lon="3.078886981925449"><ele>150.0</ele><time>2026-04-07T16:51:24.999Z</time></trkpt><trkpt lat="43.476359703101274" lon="3.0789949799979888"><ele>150.0</ele><time>2026-04-07T16:51:25.999Z</time></trkpt><trkpt lat="43.476288775984635" lon="3.0791481093834356"><ele>150.0</ele><time>2026-04-07T16:51:26.999Z</time></trkpt><trkpt lat="43.47622061417329" lon="3.079274824761647"><ele>151.5</ele><time>2026-04-07T16:51:27.999Z</time></trkpt><trkpt lat="43.47615324164333" lon="3.0794055136584944"><ele>153.0</ele><time>2026-04-07T16:51:28.999Z</time></trkpt><trkpt lat="43.4760869940404" lon="3.079534941415971"><ele>154.5</ele><time>2026-04-07T16:51:29.999Z</time></trkpt><trkpt lat="43.47602002562504" lon="3.079668712828146"><ele>156.0</ele><time>2026-04-07T16:51:30.999Z</time></trkpt><trkpt lat="43.4759597946011" lon="3.079806030051202"><ele>157.75</ele><time>2026-04-07T16:51:31.999Z</time></trkpt><trkpt lat="43.475906788644345" lon="3.0799415112813677"><ele>159.5</ele><time>2026-04-07T16:51:32.999Z</time></trkpt><trkpt lat="43.47586025173851" lon="3.0800931466436707"><ele>161.25</ele><time>2026-04-07T16:51:33.999Z</time></trkpt><trkpt lat="43.475832872771974" lon="3.080253068605161"><ele>163.0</ele><time>2026-04-07T16:51:34.999Z</time></trkpt><trkpt lat="43.47581267623484" lon="3.0804180486413335"><ele>163.0</ele><time>2026-04-07T16:51:35.999Z</time></trkpt><trkpt lat="43.47581025977227" lon="3.0805904675282023"><ele>163.0</ele><time>2026-04-07T16:51:36.999Z</time></trkpt><trkpt lat="43.47579920364188" lon="3.080760454099504"><ele>163.0</ele><time>2026-04-07T16:51:37.999Z</time></trkpt><trkpt lat="43.475780360223894" lon="3.080942805366252"><ele>163.0</ele><time>2026-04-07T16:51:38.999Z</time></trkpt><trkpt lat="43.475774695440826" lon="3.0811196876816647"><ele>162.75</ele><time>2026-04-07T16:51:39.999Z</time></trkpt><trkpt lat="43.4757629644574" lon="3.0813007744398293"><ele>162.5</ele><time>2026-04-07T16:51:40.999Z</time></trkpt><trkpt lat="43.47575166024848" lon="3.0814851690841882"><ele>162.25</ele><time>2026-04-07T16:51:41.999Z</time></trkpt><trkpt lat="43.47573664624695" lon="3.0816534014511334"><ele>162.0</ele><time>2026-04-07T16:51:42.999Z</time></trkpt><trkpt lat="43.475722770149105" lon="3.081821428067991"><ele>162.75</ele><time>2026-04-07T16:51:43.999Z</time></trkpt><trkpt lat="43.47570927806241" lon="3.0819922697418827"><ele>163.5</ele><time>2026-04-07T16:51:44.999Z</time></trkpt><trkpt lat="43.475687824873994" lon="3.082159796559173"><ele>164.25</ele><time>2026-04-07T16:51:45.999Z</time></trkpt><trkpt lat="43.47566469235264" lon="3.082311443777427"><ele>165.0</ele><time>2026-04-07T16:51:46.999Z</time></trkpt><trkpt lat="43.475644423746076" lon="3.082453162603484"><ele>165.4</ele><time>2026-04-07T16:51:47.999Z</time></trkpt><trkpt lat="43.47562254370431" lon="3.082589550095404"><ele>165.8</ele><time>2026-04-07T16:51:48.999Z</time></trkpt><trkpt lat="43.47560606683189" lon="3.0827274508398608"><ele>166.2</ele><time>2026-04-07T16:51:49.999Z</time></trkpt><trkpt lat="43.47558056969131" lon="3.0828589360300738"><ele>166.6</ele><time>2026-04-07T16:51:50.999Z</time></trkpt><trkpt lat="43.47556249039205" lon="3.0829810557573225"><ele>167.0</ele><time>2026-04-07T16:51:51.999Z</time></trkpt><trkpt lat="43.475549516178624" lon="3.083107557958172"><ele>167.0</ele><time>2026-04-07T16:51:52.999Z</time></trkpt><trkpt lat="43.475531867932794" lon="3.0832341585190255"><ele>167.0</ele><time>2026-04-07T16:51:53.999Z</time></trkpt><trkpt lat="43.47551211905579" lon="3.0833396605276455"><ele>167.0</ele><time>2026-04-07T16:51:54.999Z</time></trkpt><trkpt lat="43.47550403478661" lon="3.083428712575948"><ele>167.0</ele><time>2026-04-07T16:51:55.999Z</time></trkpt><trkpt lat="43.475491960201" lon="3.0835172538029263"><ele>167.0</ele><time>2026-04-07T16:51:56.999Z</time></trkpt><trkpt lat="43.47548046030568" lon="3.0836071365512168"><ele>167.0</ele><time>2026-04-07T16:51:57.998Z</time></trkpt><trkpt lat="43.47546783278213" lon="3.0836985499554683"><ele>167.0</ele><time>2026-04-07T16:51:58.998Z</time></trkpt><trkpt lat="43.475454196320996" lon="3.0838123339257764"><ele>165.2</ele><time>2026-04-07T16:51:59.998Z</time></trkpt><trkpt lat="43.475431115229874" lon="3.083943993347667"><ele>163.39999999999998</ele><time>2026-04-07T16:52:00.998Z</time></trkpt><trkpt lat="43.47541524374593" lon="3.0840674320364108"><ele>161.60000000000002</ele><time>2026-04-07T16:52:01.998Z</time></trkpt><trkpt lat="43.47540005450021" lon="3.0841855389583945"><ele>159.8</ele><time>2026-04-07T16:52:02.998Z</time></trkpt><trkpt lat="43.47538527407609" lon="3.0843083305955177"><ele>158.0</ele><time>2026-04-07T16:52:03.998Z</time></trkpt><trkpt lat="43.47537606191268" lon="3.0844307225818017"><ele>157.8</ele><time>2026-04-07T16:52:04.998Z</time></trkpt><trkpt lat="43.47535131821283" lon="3.084545368775655"><ele>157.60000000000002</ele><time>2026-04-07T16:52:05.998Z</time></trkpt><trkpt lat="43.47533411394434" lon="3.0846560945349686"><ele>157.39999999999998</ele><time>2026-04-07T16:52:06.998Z</time></trkpt><trkpt lat="43.47529950559344" lon="3.084854780228199"><ele>157.2</ele><time>2026-04-07T16:52:08.998Z</time></trkpt><trkpt lat="43.475293858827946" lon="3.0849608107770554"><ele>157.0</ele><time>2026-04-07T16:52:09.998Z</time></trkpt><trkpt lat="43.475267437097344" lon="3.085042776807202"><ele>157.0</ele><time>2026-04-07T16:52:10.998Z</time></trkpt><trkpt lat="43.475251171948265" lon="3.085130795420823"><ele>157.0</ele><time>2026-04-07T16:52:11.998Z</time></trkpt><trkpt lat="43.475227998619374" lon="3.085216790461507"><ele>157.0</ele><time>2026-04-07T16:52:12.998Z</time></trkpt><trkpt lat="43.4752058507298" lon="3.0853078105735126"><ele>157.0</ele><time>2026-04-07T16:52:13.998Z</time></trkpt><trkpt lat="43.47514678355397" lon="3.085385356269763"><ele>157.0</ele><time>2026-04-07T16:52:14.998Z</time></trkpt><trkpt lat="43.47507723336685" lon="3.0854656838676404"><ele>157.0</ele><time>2026-04-07T16:52:15.998Z</time></trkpt><trkpt lat="43.47499641215897" lon="3.0855246362066424"><ele>157.0</ele><time>2026-04-07T16:52:16.998Z</time></trkpt><trkpt lat="43.474929690263984" lon="3.0855848519530285"><ele>157.0</ele><time>2026-04-07T16:52:17.998Z</time></trkpt><trkpt lat="43.47483320328927" lon="3.0856985477386845"><ele>157.0</ele><time>2026-04-07T16:52:19.998Z</time></trkpt><trkpt lat="43.47476866461949" lon="3.0857696215318535"><ele>157.0</ele><time>2026-04-07T16:52:20.998Z</time></trkpt><trkpt lat="43.47467712505272" lon="3.085782106796125"><ele>157.0</ele><time>2026-04-07T16:52:21.998Z</time></trkpt><trkpt lat="43.47458558761741" lon="3.0857205775703758"><ele>156.0</ele><time>2026-04-07T16:52:22.998Z</time></trkpt><trkpt lat="43.47448666156356" lon="3.0856926060546614"><ele>155.0</ele><time>2026-04-07T16:52:23.998Z</time></trkpt><trkpt lat="43.47439512982903" lon="3.085646360406424"><ele>154.0</ele><time>2026-04-07T16:52:24.998Z</time></trkpt><trkpt lat="43.47430096158703" lon="3.0856236946143745"><ele>153.0</ele><time>2026-04-07T16:52:25.998Z</time></trkpt><trkpt lat="43.47422110630315" lon="3.085625859790358"><ele>152.0</ele><time>2026-04-07T16:52:26.998Z</time></trkpt><trkpt lat="43.474136927503835" lon="3.0856997802701818"><ele>152.6</ele><time>2026-04-07T16:52:27.998Z</time></trkpt><trkpt lat="43.474053008488234" lon="3.0857904705127233"><ele>153.2</ele><time>2026-04-07T16:52:28.998Z</time></trkpt><trkpt lat="43.47399849273964" lon="3.0859078045066752"><ele>153.8</ele><time>2026-04-07T16:52:29.998Z</time></trkpt><trkpt lat="43.47398887409465" lon="3.0860300925881132"><ele>154.4</ele><time>2026-04-07T16:52:30.998Z</time></trkpt><trkpt lat="43.47397040034789" lon="3.0861465449987784"><ele>155.0</ele><time>2026-04-07T16:52:31.998Z</time></trkpt><trkpt lat="43.473956656527136" lon="3.0862416577280127"><ele>155.0</ele><time>2026-04-07T16:52:32.998Z</time></trkpt><trkpt lat="43.47393840487022" lon="3.086333718541652"><ele>155.0</ele><time>2026-04-07T16:52:33.998Z</time></trkpt><trkpt lat="43.47387668153583" lon="3.086394448550835"><ele>155.0</ele><time>2026-04-07T16:52:34.998Z</time></trkpt><trkpt lat="43.473770878024155" lon="3.086441877946631"><ele>155.0</ele><time>2026-04-07T16:52:35.998Z</time></trkpt><trkpt lat="43.473684340121835" lon="3.0865177952682976"><ele>155.0</ele><time>2026-04-07T16:52:36.998Z</time></trkpt><trkpt lat="43.47359031389732" lon="3.0866004719626403"><ele>153.8</ele><time>2026-04-07T16:52:37.998Z</time></trkpt><trkpt lat="43.473500324630336" lon="3.0866865888592745"><ele>152.6</ele><time>2026-04-07T16:52:38.998Z</time></trkpt><trkpt lat="43.47341912365943" lon="3.086754134710218"><ele>151.4</ele><time>2026-04-07T16:52:39.998Z</time></trkpt><trkpt lat="43.47334310027973" lon="3.0868151717864514"><ele>150.2</ele><time>2026-04-07T16:52:40.998Z</time></trkpt><trkpt lat="43.47326087642124" lon="3.0868372324217077"><ele>149.0</ele><time>2026-04-07T16:52:41.998Z</time></trkpt><trkpt lat="43.473176462608144" lon="3.086841121044912"><ele>149.0</ele><time>2026-04-07T16:52:43Z</time></trkpt><trkpt lat="43.47309795392323" lon="3.086855929508621"><ele>149.0</ele><time>2026-04-07T16:52:44Z</time></trkpt><trkpt lat="43.47299318247773" lon="3.086875835000308"><ele>149.0</ele><time>2026-04-07T16:52:45Z</time></trkpt><trkpt lat="43.47289519780634" lon="3.086894451118453"><ele>149.0</ele><time>2026-04-07T16:52:46Z</time></trkpt><trkpt lat="43.47282968499201" lon="3.0869284128350034"><ele>149.0</ele><time>2026-04-07T16:52:47Z</time></trkpt><trkpt lat="43.4727201694963" lon="3.0869423702474514"><ele>147.8</ele><time>2026-04-07T16:52:48Z</time></trkpt><trkpt lat="43.47261029214213" lon="3.086964132951033"><ele>146.60000000000002</ele><time>2026-04-07T16:52:49Z</time></trkpt><trkpt lat="43.47249502988458" lon="3.0869961951394465"><ele>145.4</ele><time>2026-04-07T16:52:50Z</time></trkpt><trkpt lat="43.472403781926396" lon="3.087037790694547"><ele>144.20000000000002</ele><time>2026-04-07T16:52:51Z</time></trkpt><trkpt lat="43.47231442896272" lon="3.087054593614943"><ele>143.0</ele><time>2026-04-07T16:52:52Z</time></trkpt><trkpt lat="43.47221972897692" lon="3.087064601497871"><ele>141.75</ele><time>2026-04-07T16:52:53Z</time></trkpt><trkpt lat="43.47208118705827" lon="3.086943492428574"><ele>140.5</ele><time>2026-04-07T16:52:55Z</time></trkpt><trkpt lat="43.47202108761345" lon="3.0868535987506447"><ele>139.25</ele><time>2026-04-07T16:52:56Z</time></trkpt><trkpt lat="43.471937142975186" lon="3.0867848156746245"><ele>138.0</ele><time>2026-04-07T16:52:57Z</time></trkpt><trkpt lat="43.47183282514541" lon="3.0867112160011727"><ele>138.0</ele><time>2026-04-07T16:52:58Z</time></trkpt><trkpt lat="43.47172085812463" lon="3.0866588043498098"><ele>138.0</ele><time>2026-04-07T16:52:59Z</time></trkpt><trkpt lat="43.471591730458684" lon="3.086639723013975"><ele>138.0</ele><time>2026-04-07T16:53:00Z</time></trkpt><trkpt lat="43.47146080565776" lon="3.086655852034527"><ele>138.0</ele><time>2026-04-07T16:53:01Z</time></trkpt><trkpt lat="43.47132415938469" lon="3.0866615273382316"><ele>137.0</ele><time>2026-04-07T16:53:02Z</time></trkpt><trkpt lat="43.471184944114206" lon="3.0866818444528654"><ele>136.0</ele><time>2026-04-07T16:53:03Z</time></trkpt><trkpt lat="43.471058024614344" lon="3.0866937273168764"><ele>135.0</ele><time>2026-04-07T16:53:04Z</time></trkpt><trkpt lat="43.47093642277367" lon="3.08670896833871"><ele>134.0</ele><time>2026-04-07T16:53:05Z</time></trkpt><trkpt lat="43.470810307872235" lon="3.086721218983998"><ele>134.0</ele><time>2026-04-07T16:53:06Z</time></trkpt><trkpt lat="43.47068755876453" lon="3.0867209564554026"><ele>134.0</ele><time>2026-04-07T16:53:07Z</time></trkpt><trkpt lat="43.47057123452086" lon="3.086731306802337"><ele>134.0</ele><time>2026-04-07T16:53:08Z</time></trkpt><trkpt lat="43.47045919018147" lon="3.086731660668632"><ele>134.0</ele><time>2026-04-07T16:53:09Z</time></trkpt><trkpt lat="43.47034726413512" lon="3.0867556010444135"><ele>133.0</ele><time>2026-04-07T16:53:10Z</time></trkpt><trkpt lat="43.47024366169077" lon="3.086758744196533"><ele>132.0</ele><time>2026-04-07T16:53:11Z</time></trkpt><trkpt lat="43.47014155447478" lon="3.08677144020756"><ele>131.0</ele><time>2026-04-07T16:53:12Z</time></trkpt><trkpt lat="43.47004652729796" lon="3.0867829674554925"><ele>130.0</ele><time>2026-04-07T16:53:13Z</time></trkpt><trkpt lat="43.4699470832119" lon="3.0867940197908874"><ele>129.0</ele><time>2026-04-07T16:53:14Z</time></trkpt><trkpt lat="43.469850896601834" lon="3.0868007695212674"><ele>128.99999999999997</ele><time>2026-04-07T16:53:15Z</time></trkpt><trkpt lat="43.46975590322293" lon="3.0867925568526426"><ele>129.0</ele><time>2026-04-07T16:53:16Z</time></trkpt><trkpt lat="43.46968166101492" lon="3.086799643988605"><ele>129.0</ele><time>2026-04-07T16:53:17Z</time></trkpt><trkpt lat="43.46961921209078" lon="3.0867616296185987"><ele>129.0</ele><time>2026-04-07T16:53:18Z</time></trkpt><trkpt lat="43.46955271133397" lon="3.0867517689165176"><ele>129.0</ele><time>2026-04-07T16:53:18.999Z</time></trkpt><trkpt lat="43.46951189296288" lon="3.0868377301570407"><ele>128.99999999999997</ele><time>2026-04-07T16:53:19.999Z</time></trkpt><trkpt lat="43.46951449428658" lon="3.086933547144567"><ele>129.0</ele><time>2026-04-07T16:53:20.999Z</time></trkpt><trkpt lat="43.46952063810138" lon="3.087056525807556"><ele>129.2</ele><time>2026-04-07T16:53:21.999Z</time></trkpt><trkpt lat="43.46948103610713" lon="3.0871656897151416"><ele>129.4</ele><time>2026-04-07T16:53:22.999Z</time></trkpt><trkpt lat="43.469415170918374" lon="3.087280461705738"><ele>129.6</ele><time>2026-04-07T16:53:23.999Z</time></trkpt><trkpt lat="43.46936437588747" lon="3.087395338925058"><ele>129.8</ele><time>2026-04-07T16:53:24.999Z</time></trkpt><trkpt lat="43.46931623964316" lon="3.0874860779278217"><ele>130.0</ele><time>2026-04-07T16:53:25.999Z</time></trkpt><trkpt lat="43.46927452258999" lon="3.0875975692532878"><ele>129.4</ele><time>2026-04-07T16:53:26.999Z</time></trkpt><trkpt lat="43.46922821322537" lon="3.0877176159911457"><ele>128.8</ele><time>2026-04-07T16:53:27.999Z</time></trkpt><trkpt lat="43.46918412089815" lon="3.087849762709713"><ele>128.2</ele><time>2026-04-07T16:53:28.999Z</time></trkpt><trkpt lat="43.46914215368735" lon="3.087984438882833"><ele>127.6</ele><time>2026-04-07T16:53:29.999Z</time></trkpt><trkpt lat="43.46907077396654" lon="3.088126929765469"><ele>127.0</ele><time>2026-04-07T16:53:30.999Z</time></trkpt><trkpt lat="43.46902316505768" lon="3.088289437396932"><ele>126.33333333333334</ele><time>2026-04-07T16:53:31.999Z</time></trkpt><trkpt lat="43.46894257665527" lon="3.0884344838409783"><ele>125.66666666666666</ele><time>2026-04-07T16:53:32.999Z</time></trkpt><trkpt lat="43.46888018800668" lon="3.088615327400572"><ele>125.0</ele><time>2026-04-07T16:53:33.999Z</time></trkpt><trkpt lat="43.46878920498044" lon="3.088828830670581"><ele>125.5</ele><time>2026-04-07T16:53:34.999Z</time></trkpt><trkpt lat="43.468720540956966" lon="3.089003751786566"><ele>126.0</ele><time>2026-04-07T16:53:35.999Z</time></trkpt><trkpt lat="43.46866609531909" lon="3.0891427017894664"><ele>126.5</ele><time>2026-04-07T16:53:36.999Z</time></trkpt><trkpt lat="43.46860030677817" lon="3.089310195738871"><ele>127.0</ele><time>2026-04-07T16:53:37.999Z</time></trkpt><trkpt lat="43.46853032911952" lon="3.0894881028695713"><ele>126.0</ele><time>2026-04-07T16:53:38.999Z</time></trkpt><trkpt lat="43.46845760416269" lon="3.089672994575173"><ele>125.0</ele><time>2026-04-07T16:53:39.999Z</time></trkpt><trkpt lat="43.468386461598996" lon="3.08985386331859"><ele>124.0</ele><time>2026-04-07T16:53:40.999Z</time></trkpt><trkpt lat="43.468332724214044" lon="3.090037183332094"><ele>123.0</ele><time>2026-04-07T16:53:41.999Z</time></trkpt><trkpt lat="43.46824992680939" lon="3.0902120239877773"><ele>122.66666666666666</ele><time>2026-04-07T16:53:42.999Z</time></trkpt><trkpt lat="43.46818926073015" lon="3.090406487491539"><ele>122.33333333333333</ele><time>2026-04-07T16:53:43.999Z</time></trkpt><trkpt lat="43.468150739771865" lon="3.0906115241924716"><ele>122.0</ele><time>2026-04-07T16:53:44.999Z</time></trkpt><trkpt lat="43.46808824017585" lon="3.090791593161357"><ele>122.0</ele><time>2026-04-07T16:53:45.999Z</time></trkpt><trkpt lat="43.468053934992284" lon="3.0909955780739855"><ele>122.0</ele><time>2026-04-07T16:53:46.999Z</time></trkpt><trkpt lat="43.46799541756033" lon="3.0911896792872144"><ele>122.0</ele><time>2026-04-07T16:53:47.999Z</time></trkpt><trkpt lat="43.46793806707936" lon="3.091377369397524"><ele>121.5</ele><time>2026-04-07T16:53:48.999Z</time></trkpt><trkpt lat="43.46787521798783" lon="3.0915561615457756"><ele>121.0</ele><time>2026-04-07T16:53:49.999Z</time></trkpt><trkpt lat="43.467799054103885" lon="3.091729028310736"><ele>120.5</ele><time>2026-04-07T16:53:50.999Z</time></trkpt><trkpt lat="43.467717819656094" lon="3.0918944469691336"><ele>120.0</ele><time>2026-04-07T16:53:51.999Z</time></trkpt><trkpt lat="43.467628489714826" lon="3.0920592015038766"><ele>119.33333333333334</ele><time>2026-04-07T16:53:52.999Z</time></trkpt><trkpt lat="43.46753119652896" lon="3.092223572522097"><ele>118.66666666666667</ele><time>2026-04-07T16:53:53.999Z</time></trkpt><trkpt lat="43.46744150008143" lon="3.092388068012778"><ele>118.0</ele><time>2026-04-07T16:53:54.999Z</time></trkpt><trkpt lat="43.46734098132326" lon="3.0925526055203565"><ele>117.0</ele><time>2026-04-07T16:53:55.999Z</time></trkpt><trkpt lat="43.4672356276851" lon="3.0926877786969733"><ele>116.0</ele><time>2026-04-07T16:53:56.999Z</time></trkpt><trkpt lat="43.46712226916216" lon="3.0928171857419486"><ele>115.0</ele><time>2026-04-07T16:53:57.999Z</time></trkpt><trkpt lat="43.46699287276378" lon="3.0929713614376313"><ele>115.0</ele><time>2026-04-07T16:53:58.999Z</time></trkpt><trkpt lat="43.46684923304302" lon="3.093141790131957"><ele>115.0</ele><time>2026-04-07T16:53:59.999Z</time></trkpt><trkpt lat="43.46670318614432" lon="3.0933281371803596"><ele>115.0</ele><time>2026-04-07T16:54:00.999Z</time></trkpt><trkpt lat="43.46656251758132" lon="3.0935186108560027"><ele>115.0</ele><time>2026-04-07T16:54:01.999Z</time></trkpt><trkpt lat="43.466417198503976" lon="3.093714872147294"><ele>115.0</ele><time>2026-04-07T16:54:02.999Z</time></trkpt><trkpt lat="43.4662844187434" lon="3.093898105571762"><ele>115.0</ele><time>2026-04-07T16:54:03.998Z</time></trkpt><trkpt lat="43.46613472423864" lon="3.0941207717551675"><ele>113.66666666666667</ele><time>2026-04-07T16:54:04.998Z</time></trkpt><trkpt lat="43.46608082759555" lon="3.0942740346846587"><ele>112.33333333333334</ele><time>2026-04-07T16:54:06.998Z</time></trkpt><trkpt lat="43.465986309125675" lon="3.0944730643628726"><ele>111.0</ele><time>2026-04-07T16:54:07.998Z</time></trkpt><trkpt lat="43.46591623801154" lon="3.0946810202147885"><ele>111.0</ele><time>2026-04-07T16:54:08.998Z</time></trkpt><trkpt lat="43.46587518311922" lon="3.094913460393774"><ele>111.0</ele><time>2026-04-07T16:54:09.998Z</time></trkpt><trkpt lat="43.46586133629828" lon="3.095153948336731"><ele>111.0</ele><time>2026-04-07T16:54:10.998Z</time></trkpt><trkpt lat="43.46586988018457" lon="3.0953953074047855"><ele>111.33333333333334</ele><time>2026-04-07T16:54:11.998Z</time></trkpt><trkpt lat="43.465889410385316" lon="3.0956380683831664"><ele>111.66666666666667</ele><time>2026-04-07T16:54:12.998Z</time></trkpt><trkpt lat="43.465894603392144" lon="3.0958764540251495"><ele>112.0</ele><time>2026-04-07T16:54:13.998Z</time></trkpt><trkpt lat="43.465910208277954" lon="3.096105003652572"><ele>112.33333333333334</ele><time>2026-04-07T16:54:14.998Z</time></trkpt><trkpt lat="43.465943231368094" lon="3.096343988241791"><ele>112.66666666666666</ele><time>2026-04-07T16:54:15.998Z</time></trkpt><trkpt lat="43.46598114169368" lon="3.0965692552862882"><ele>113.0</ele><time>2026-04-07T16:54:16.998Z</time></trkpt><trkpt lat="43.46602860375295" lon="3.096785380694666"><ele>114.0</ele><time>2026-04-07T16:54:17.998Z</time></trkpt><trkpt lat="43.466084504859886" lon="3.096995631708355"><ele>115.0</ele><time>2026-04-07T16:54:18.998Z</time></trkpt><trkpt lat="43.466146544721525" lon="3.097199311280303"><ele>116.0</ele><time>2026-04-07T16:54:19.998Z</time></trkpt><trkpt lat="43.466204660632414" lon="3.0974129506707566"><ele>116.0</ele><time>2026-04-07T16:54:20.998Z</time></trkpt><trkpt lat="43.46625990252254" lon="3.097619128249003"><ele>116.0</ele><time>2026-04-07T16:54:21.998Z</time></trkpt><trkpt lat="43.46631428303737" lon="3.097826713971792"><ele>116.0</ele><time>2026-04-07T16:54:22.998Z</time></trkpt><trkpt lat="43.46636734069192" lon="3.098022488415177"><ele>116.5</ele><time>2026-04-07T16:54:23.998Z</time></trkpt><trkpt lat="43.46641343260051" lon="3.0982023218865535"><ele>117.0</ele><time>2026-04-07T16:54:24.998Z</time></trkpt><trkpt lat="43.466465377158215" lon="3.098390878972648"><ele>117.5</ele><time>2026-04-07T16:54:25.998Z</time></trkpt><trkpt lat="43.466513774615485" lon="3.098589259304727"><ele>118.0</ele><time>2026-04-07T16:54:26.998Z</time></trkpt><trkpt lat="43.466499092132146" lon="3.0988192676896267"><ele>118.0</ele><time>2026-04-07T16:54:27.998Z</time></trkpt><trkpt lat="43.46644449124584" lon="3.099035525600987"><ele>118.0</ele><time>2026-04-07T16:54:28.998Z</time></trkpt><trkpt lat="43.46636379149685" lon="3.0992347204957005"><ele>118.0</ele><time>2026-04-07T16:54:29.998Z</time></trkpt><trkpt lat="43.46628519196915" lon="3.0994346858800044"><ele>118.0</ele><time>2026-04-07T16:54:30.998Z</time></trkpt><trkpt lat="43.46619423541652" lon="3.0996277812393584"><ele>118.0</ele><time>2026-04-07T16:54:31.998Z</time></trkpt><trkpt lat="43.46611336566082" lon="3.0998316402982695"><ele>118.0</ele><time>2026-04-07T16:54:32.998Z</time></trkpt><trkpt lat="43.46603610703508" lon="3.100033967730928"><ele>117.33333333333334</ele><time>2026-04-07T16:54:33.998Z</time></trkpt><trkpt lat="43.465955958384114" lon="3.100237106459594"><ele>116.66666666666666</ele><time>2026-04-07T16:54:34.998Z</time></trkpt><trkpt lat="43.465879533524195" lon="3.1004424908620463"><ele>116.0</ele><time>2026-04-07T16:54:35.998Z</time></trkpt><trkpt lat="43.46581278246839" lon="3.100653776609453"><ele>115.33333333333333</ele><time>2026-04-07T16:54:36.998Z</time></trkpt><trkpt lat="43.465743583067905" lon="3.1008754661569533"><ele>114.66666666666666</ele><time>2026-04-07T16:54:37.998Z</time></trkpt><trkpt lat="43.46567654260269" lon="3.101091515657187"><ele>114.0</ele><time>2026-04-07T16:54:38.998Z</time></trkpt><trkpt lat="43.465616636963055" lon="3.101310255601423"><ele>114.0</ele><time>2026-04-07T16:54:39.998Z</time></trkpt><trkpt lat="43.465564604150174" lon="3.101532600443484"><ele>114.0</ele><time>2026-04-07T16:54:40.998Z</time></trkpt><trkpt lat="43.46552223213073" lon="3.1017626813496464"><ele>114.0</ele><time>2026-04-07T16:54:41.998Z</time></trkpt><trkpt lat="43.46548488841501" lon="3.1019846299082245"><ele>114.25</ele><time>2026-04-07T16:54:42.998Z</time></trkpt><trkpt lat="43.4654543229293" lon="3.1021889042566397"><ele>114.5</ele><time>2026-04-07T16:54:43.998Z</time></trkpt><trkpt lat="43.465414868096886" lon="3.102387055607423"><ele>114.75</ele><time>2026-04-07T16:54:44.998Z</time></trkpt><trkpt lat="43.46536789267489" lon="3.1025778764311216"><ele>115.0</ele><time>2026-04-07T16:54:45.998Z</time></trkpt><trkpt lat="43.46528154943249" lon="3.102742908842456"><ele>117.66666666666667</ele><time>2026-04-07T16:54:46.998Z</time></trkpt><trkpt lat="43.46516755723873" lon="3.102884781442058"><ele>120.33333333333334</ele><time>2026-04-07T16:54:47.998Z</time></trkpt><trkpt lat="43.465045628067834" lon="3.102990309648383"><ele>123.0</ele><time>2026-04-07T16:54:49Z</time></trkpt><trkpt lat="43.46490173017004" lon="3.1030624041404073"><ele>123.0</ele><time>2026-04-07T16:54:50Z</time></trkpt><trkpt lat="43.46476249596594" lon="3.1031189532929004"><ele>123.0</ele><time>2026-04-07T16:54:51Z</time></trkpt><trkpt lat="43.464610340448665" lon="3.1031724532527036"><ele>123.0</ele><time>2026-04-07T16:54:52Z</time></trkpt><trkpt lat="43.46444744086686" lon="3.1032399602603347"><ele>122.66666666666666</ele><time>2026-04-07T16:54:53Z</time></trkpt><trkpt lat="43.46427733433865" lon="3.10331884410501"><ele>122.33333333333333</ele><time>2026-04-07T16:54:54Z</time></trkpt><trkpt lat="43.46409950883485" lon="3.103397747605855"><ele>122.0</ele><time>2026-04-07T16:54:55Z</time></trkpt><trkpt lat="43.46391908223848" lon="3.103471674941368"><ele>122.0</ele><time>2026-04-07T16:54:56Z</time></trkpt><trkpt lat="43.46375705656436" lon="3.1035346359256546"><ele>122.0</ele><time>2026-04-07T16:54:57Z</time></trkpt><trkpt lat="43.46359453338906" lon="3.103606144304453"><ele>122.0</ele><time>2026-04-07T16:54:58Z</time></trkpt><trkpt lat="43.463433443519335" lon="3.1036794990591354"><ele>122.0</ele><time>2026-04-07T16:54:59Z</time></trkpt><trkpt lat="43.463280796659625" lon="3.103748818387421"><ele>122.0</ele><time>2026-04-07T16:55:00Z</time></trkpt><trkpt lat="43.463129232404896" lon="3.103828914700139"><ele>122.0</ele><time>2026-04-07T16:55:01Z</time></trkpt><trkpt lat="43.462972074126185" lon="3.103915994398222"><ele>122.0</ele><time>2026-04-07T16:55:02Z</time></trkpt><trkpt lat="43.46281910211014" lon="3.104002730616684"><ele>122.0</ele><time>2026-04-07T16:55:03Z</time></trkpt><trkpt lat="43.46267115446012" lon="3.1040935622335337"><ele>122.0</ele><time>2026-04-07T16:55:04Z</time></trkpt><trkpt lat="43.462518840404705" lon="3.1041772825479224"><ele>121.0</ele><time>2026-04-07T16:55:05Z</time></trkpt><trkpt lat="43.46236618204763" lon="3.104267793451969"><ele>120.0</ele><time>2026-04-07T16:55:06Z</time></trkpt><trkpt lat="43.46221604405831" lon="3.1043660218717894"><ele>119.0</ele><time>2026-04-07T16:55:07Z</time></trkpt><trkpt lat="43.462078354844635" lon="3.1044721497040273"><ele>119.0</ele><time>2026-04-07T16:55:08Z</time></trkpt><trkpt lat="43.46194013963687" lon="3.104602565113796"><ele>119.0</ele><time>2026-04-07T16:55:09Z</time></trkpt><trkpt lat="43.46181034034106" lon="3.104743228925359"><ele>119.0</ele><time>2026-04-07T16:55:10Z</time></trkpt><trkpt lat="43.46168384068147" lon="3.1048944469013033"><ele>119.0</ele><time>2026-04-07T16:55:11Z</time></trkpt><trkpt lat="43.461564600964735" lon="3.105055201640575"><ele>119.0</ele><time>2026-04-07T16:55:12Z</time></trkpt><trkpt lat="43.46145606300434" lon="3.1052291666877823"><ele>119.0</ele><time>2026-04-07T16:55:13Z</time></trkpt><trkpt lat="43.461360092519975" lon="3.105418320671335"><ele>119.0</ele><time>2026-04-07T16:55:14Z</time></trkpt><trkpt lat="43.461271438134006" lon="3.1056096182780277"><ele>119.0</ele><time>2026-04-07T16:55:15Z</time></trkpt><trkpt lat="43.46118681433973" lon="3.1058071821040825"><ele>119.0</ele><time>2026-04-07T16:55:16Z</time></trkpt><trkpt lat="43.461106095085384" lon="3.10600264802586"><ele>118.0</ele><time>2026-04-07T16:55:17Z</time></trkpt><trkpt lat="43.46102266069045" lon="3.1061999079165012"><ele>117.0</ele><time>2026-04-07T16:55:18Z</time></trkpt><trkpt lat="43.460935372252784" lon="3.10640027759353"><ele>116.0</ele><time>2026-04-07T16:55:19Z</time></trkpt><trkpt lat="43.46084821797314" lon="3.1065996612176296"><ele>115.33333333333333</ele><time>2026-04-07T16:55:20Z</time></trkpt><trkpt lat="43.46076287982931" lon="3.1067959262710363"><ele>114.66666666666666</ele><time>2026-04-07T16:55:21Z</time></trkpt><trkpt lat="43.46067993021454" lon="3.1069883180313465"><ele>114.0</ele><time>2026-04-07T16:55:22Z</time></trkpt><trkpt lat="43.46059526393045" lon="3.10717963141106"><ele>114.0</ele><time>2026-04-07T16:55:23Z</time></trkpt><trkpt lat="43.46051161064592" lon="3.107378222664883"><ele>114.0</ele><time>2026-04-07T16:55:24Z</time></trkpt><trkpt lat="43.46042435121739" lon="3.1075765610583823"><ele>114.0</ele><time>2026-04-07T16:55:25Z</time></trkpt><trkpt lat="43.460333670976" lon="3.1077727380333418"><ele>114.0</ele><time>2026-04-07T16:55:25.999Z</time></trkpt><trkpt lat="43.46022986807368" lon="3.107966043747074"><ele>114.0</ele><time>2026-04-07T16:55:26.999Z</time></trkpt><trkpt lat="43.46012363580475" lon="3.108137688140998"><ele>114.0</ele><time>2026-04-07T16:55:27.999Z</time></trkpt><trkpt lat="43.46000279035018" lon="3.1082729466569265"><ele>113.66666666666666</ele><time>2026-04-07T16:55:28.999Z</time></trkpt><trkpt lat="43.45986894929414" lon="3.108395395367595"><ele>113.33333333333333</ele><time>2026-04-07T16:55:29.999Z</time></trkpt><trkpt lat="43.45972918549308" lon="3.108523087689463"><ele>113.0</ele><time>2026-04-07T16:55:30.999Z</time></trkpt><trkpt lat="43.459595203826694" lon="3.1086614461431057"><ele>113.0</ele><time>2026-04-07T16:55:31.999Z</time></trkpt><trkpt lat="43.45947055650573" lon="3.1088027251784403"><ele>113.0</ele><time>2026-04-07T16:55:32.999Z</time></trkpt><trkpt lat="43.45935211843497" lon="3.1089595660833593"><ele>113.0</ele><time>2026-04-07T16:55:33.999Z</time></trkpt><trkpt lat="43.45924358648622" lon="3.1091390870447024"><ele>112.0</ele><time>2026-04-07T16:55:34.999Z</time></trkpt><trkpt lat="43.45915276603495" lon="3.1093364384336284"><ele>111.0</ele><time>2026-04-07T16:55:35.999Z</time></trkpt><trkpt lat="43.45907011161657" lon="3.10953880297237"><ele>110.0</ele><time>2026-04-07T16:55:36.999Z</time></trkpt><trkpt lat="43.45900936659685" lon="3.1097618311113933"><ele>109.33333333333333</ele><time>2026-04-07T16:55:37.999Z</time></trkpt><trkpt lat="43.458950336893324" lon="3.10998576788048"><ele>108.66666666666666</ele><time>2026-04-07T16:55:38.999Z</time></trkpt><trkpt lat="43.458882460961966" lon="3.1102096625280407"><ele>108.0</ele><time>2026-04-07T16:55:39.999Z</time></trkpt><trkpt lat="43.45880455706093" lon="3.110432366849553"><ele>109.0</ele><time>2026-04-07T16:55:40.999Z</time></trkpt><trkpt lat="43.45872206834458" lon="3.1106489092622716"><ele>110.0</ele><time>2026-04-07T16:55:41.999Z</time></trkpt><trkpt lat="43.45862712731805" lon="3.110856057554644"><ele>111.0</ele><time>2026-04-07T16:55:42.999Z</time></trkpt><trkpt lat="43.4585268071134" lon="3.111055321121539"><ele>111.0</ele><time>2026-04-07T16:55:43.999Z</time></trkpt><trkpt lat="43.45840878961828" lon="3.111240590136129"><ele>111.0</ele><time>2026-04-07T16:55:44.999Z</time></trkpt><trkpt lat="43.4582821226086" lon="3.111410357919835"><ele>111.0</ele><time>2026-04-07T16:55:45.999Z</time></trkpt><trkpt lat="43.45815128011131" lon="3.111579953329864"><ele>110.33333333333334</ele><time>2026-04-07T16:55:46.999Z</time></trkpt><trkpt lat="43.45802395771248" lon="3.1117576014866897"><ele>109.66666666666667</ele><time>2026-04-07T16:55:47.999Z</time></trkpt><trkpt lat="43.45789435385168" lon="3.1119384677540323"><ele>109.0</ele><time>2026-04-07T16:55:48.999Z</time></trkpt><trkpt lat="43.45776732366877" lon="3.1121213597710735"><ele>109.0</ele><time>2026-04-07T16:55:49.999Z</time></trkpt><trkpt lat="43.45764323977804" lon="3.112307551472728"><ele>109.0</ele><time>2026-04-07T16:55:50.999Z</time></trkpt><trkpt lat="43.45752518035713" lon="3.112496840376747"><ele>109.0</ele><time>2026-04-07T16:55:51.999Z</time></trkpt><trkpt lat="43.45742534819303" lon="3.1127094213838125"><ele>104.66666666666667</ele><time>2026-04-07T16:55:52.999Z</time></trkpt><trkpt lat="43.457340350222246" lon="3.1129298287052753"><ele>100.33333333333334</ele><time>2026-04-07T16:55:53.999Z</time></trkpt><trkpt lat="43.457270035154735" lon="3.1131690508950474"><ele>96.0</ele><time>2026-04-07T16:55:54.999Z</time></trkpt><trkpt lat="43.457215924216" lon="3.113415071053929"><ele>95.0</ele><time>2026-04-07T16:55:55.999Z</time></trkpt><trkpt lat="43.45716372324592" lon="3.113668737705893"><ele>94.0</ele><time>2026-04-07T16:55:56.999Z</time></trkpt><trkpt lat="43.45710915679875" lon="3.1139165776666475"><ele>93.0</ele><time>2026-04-07T16:55:57.999Z</time></trkpt><trkpt lat="43.457052409266375" lon="3.114170468681599"><ele>93.0</ele><time>2026-04-07T16:55:58.999Z</time></trkpt><trkpt lat="43.45699396330614" lon="3.114421535246403"><ele>93.0</ele><time>2026-04-07T16:55:59.999Z</time></trkpt><trkpt lat="43.4569365518619" lon="3.114672941416458"><ele>93.0</ele><time>2026-04-07T16:56:00.999Z</time></trkpt><trkpt lat="43.45688165973795" lon="3.114924766457279"><ele>90.33333333333333</ele><time>2026-04-07T16:56:01.999Z</time></trkpt><trkpt lat="43.45682619093091" lon="3.1151661245050373"><ele>87.66666666666666</ele><time>2026-04-07T16:56:02.999Z</time></trkpt><trkpt lat="43.456770354294456" lon="3.115406189653357"><ele>85.0</ele><time>2026-04-07T16:56:03.999Z</time></trkpt><trkpt lat="43.45671778164855" lon="3.1156508841251873"><ele>83.33333333333333</ele><time>2026-04-07T16:56:04.999Z</time></trkpt><trkpt lat="43.456667414529306" lon="3.1158968549974353"><ele>81.66666666666667</ele><time>2026-04-07T16:56:05.999Z</time></trkpt><trkpt lat="43.45662344757819" lon="3.1161587480150716"><ele>80.0</ele><time>2026-04-07T16:56:06.999Z</time></trkpt><trkpt lat="43.456598147223445" lon="3.1164030025470875"><ele>77.33333333333334</ele><time>2026-04-07T16:56:07.999Z</time></trkpt><trkpt lat="43.45660185354024" lon="3.116661374257434"><ele>74.66666666666667</ele><time>2026-04-07T16:56:08.999Z</time></trkpt><trkpt lat="43.45663754340646" lon="3.11692096260854"><ele>72.0</ele><time>2026-04-07T16:56:09.999Z</time></trkpt><trkpt lat="43.456677946551814" lon="3.117182879677332"><ele>70.0</ele><time>2026-04-07T16:56:10.998Z</time></trkpt><trkpt lat="43.45670983053818" lon="3.1174451288080793"><ele>68.0</ele><time>2026-04-07T16:56:11.998Z</time></trkpt><trkpt lat="43.456739480551384" lon="3.1177036996536467"><ele>66.0</ele><time>2026-04-07T16:56:12.998Z</time></trkpt><trkpt lat="43.456769325564345" lon="3.1179654517078013"><ele>66.0</ele><time>2026-04-07T16:56:13.998Z</time></trkpt><trkpt lat="43.45679481017915" lon="3.118223950121047"><ele>66.0</ele><time>2026-04-07T16:56:14.998Z</time></trkpt><trkpt lat="43.45682246815152" lon="3.1184844539795047"><ele>66.0</ele><time>2026-04-07T16:56:15.998Z</time></trkpt><trkpt lat="43.45684334559504" lon="3.1187367680752938"><ele>66.0</ele><time>2026-04-07T16:56:16.998Z</time></trkpt><trkpt lat="43.456863009957296" lon="3.1189872878652616"><ele>66.0</ele><time>2026-04-07T16:56:17.998Z</time></trkpt><trkpt lat="43.456855064483236" lon="3.1192391962015305"><ele>66.0</ele><time>2026-04-07T16:56:18.998Z</time></trkpt><trkpt lat="43.456804447130644" lon="3.1194691234499246"><ele>67.33333333333333</ele><time>2026-04-07T16:56:19.998Z</time></trkpt><trkpt lat="43.45671557837571" lon="3.119682403354798"><ele>68.66666666666666</ele><time>2026-04-07T16:56:20.998Z</time></trkpt><trkpt lat="43.456627258830274" lon="3.119887609871053"><ele>70.0</ele><time>2026-04-07T16:56:21.998Z</time></trkpt><trkpt lat="43.456537420177696" lon="3.120086132853649"><ele>71.0</ele><time>2026-04-07T16:56:22.998Z</time></trkpt><trkpt lat="43.45645338011593" lon="3.120285199417319"><ele>72.0</ele><time>2026-04-07T16:56:23.998Z</time></trkpt><trkpt lat="43.4563674207738" lon="3.1204829693233576"><ele>73.0</ele><time>2026-04-07T16:56:24.998Z</time></trkpt><trkpt lat="43.456278085066174" lon="3.1206717417698173"><ele>75.0</ele><time>2026-04-07T16:56:25.998Z</time></trkpt><trkpt lat="43.456180666495335" lon="3.120857634303112"><ele>77.0</ele><time>2026-04-07T16:56:26.998Z</time></trkpt><trkpt lat="43.456071848601404" lon="3.121021324296009"><ele>79.0</ele><time>2026-04-07T16:56:27.998Z</time></trkpt><trkpt lat="43.455954626939885" lon="3.121163305310182"><ele>79.0</ele><time>2026-04-07T16:56:28.998Z</time></trkpt><trkpt lat="43.45583738143936" lon="3.121290504955339"><ele>79.0</ele><time>2026-04-07T16:56:29.998Z</time></trkpt><trkpt lat="43.455724296763975" lon="3.121410891703563"><ele>79.0</ele><time>2026-04-07T16:56:30.998Z</time></trkpt><trkpt lat="43.45562056981333" lon="3.121522997090495"><ele>79.0</ele><time>2026-04-07T16:56:31.998Z</time></trkpt><trkpt lat="43.45551792322806" lon="3.121629678682883"><ele>79.75</ele><time>2026-04-07T16:56:32.998Z</time></trkpt><trkpt lat="43.4554165585261" lon="3.121741128459943"><ele>80.5</ele><time>2026-04-07T16:56:33.998Z</time></trkpt><trkpt lat="43.45531476042149" lon="3.121843469138286"><ele>81.25</ele><time>2026-04-07T16:56:34.998Z</time></trkpt><trkpt lat="43.45520230777627" lon="3.1219315271068893"><ele>82.0</ele><time>2026-04-07T16:56:35.998Z</time></trkpt><trkpt lat="43.45507937466139" lon="3.1220123050518835"><ele>82.0</ele><time>2026-04-07T16:56:36.998Z</time></trkpt><trkpt lat="43.45493898913127" lon="3.1220396275249236"><ele>82.0</ele><time>2026-04-07T16:56:37.998Z</time></trkpt><trkpt lat="43.45481737966103" lon="3.122072588360875"><ele>82.0</ele><time>2026-04-07T16:56:38.998Z</time></trkpt><trkpt lat="43.4546810225183" lon="3.122107017400367"><ele>82.0</ele><time>2026-04-07T16:56:39.998Z</time></trkpt><trkpt lat="43.454543169337114" lon="3.122163833946887"><ele>81.75</ele><time>2026-04-07T16:56:40.998Z</time></trkpt><trkpt lat="43.45440183420178" lon="3.122197341105714"><ele>81.5</ele><time>2026-04-07T16:56:41.998Z</time></trkpt><trkpt lat="43.45425591490133" lon="3.1222301591031463"><ele>81.25</ele><time>2026-04-07T16:56:42.998Z</time></trkpt><trkpt lat="43.45410191627581" lon="3.1222451276155474"><ele>81.0</ele><time>2026-04-07T16:56:43.998Z</time></trkpt><trkpt lat="43.45395755680289" lon="3.122278800373942"><ele>81.0</ele><time>2026-04-07T16:56:44.998Z</time></trkpt><trkpt lat="43.453812453262735" lon="3.1223304971527894"><ele>81.0</ele><time>2026-04-07T16:56:45.998Z</time></trkpt><trkpt lat="43.453657792238616" lon="3.1223665083636125"><ele>81.0</ele><time>2026-04-07T16:56:46.998Z</time></trkpt><trkpt lat="43.45350436207415" lon="3.122391407617824"><ele>80.75</ele><time>2026-04-07T16:56:47.998Z</time></trkpt><trkpt lat="43.45336326211434" lon="3.122368396844006"><ele>80.5</ele><time>2026-04-07T16:56:48.998Z</time></trkpt><trkpt lat="43.45322332129658" lon="3.1223281569119408"><ele>80.25</ele><time>2026-04-07T16:56:49.998Z</time></trkpt><trkpt lat="43.4530950942247" lon="3.1222364549577564"><ele>80.0</ele><time>2026-04-07T16:56:50.998Z</time></trkpt><trkpt lat="43.45295615008243" lon="3.1221203620030633"><ele>80.0</ele><time>2026-04-07T16:56:51.998Z</time></trkpt><trkpt lat="43.452832813657906" lon="3.122019874407296"><ele>80.0</ele><time>2026-04-07T16:56:52.998Z</time></trkpt><trkpt lat="43.45269498133476" lon="3.121927508948149"><ele>80.0</ele><time>2026-04-07T16:56:53.998Z</time></trkpt><trkpt lat="43.45256087864253" lon="3.1218791723444776"><ele>80.0</ele><time>2026-04-07T16:56:55Z</time></trkpt><trkpt lat="43.45242400484195" lon="3.121830726688038"><ele>80.0</ele><time>2026-04-07T16:56:56Z</time></trkpt><trkpt lat="43.45228570405945" lon="3.121823518092574"><ele>80.0</ele><time>2026-04-07T16:56:57Z</time></trkpt><trkpt lat="43.45214235298967" lon="3.121843876784834"><ele>80.0</ele><time>2026-04-07T16:56:58Z</time></trkpt><trkpt lat="43.45200649322868" lon="3.121883040497411"><ele>80.0</ele><time>2026-04-07T16:56:59Z</time></trkpt><trkpt lat="43.45186696506034" lon="3.1219537409929012"><ele>78.66666666666667</ele><time>2026-04-07T16:57:00Z</time></trkpt><trkpt lat="43.451735231365674" lon="3.1220790974996917"><ele>77.33333333333333</ele><time>2026-04-07T16:57:01Z</time></trkpt><trkpt lat="43.45161042117362" lon="3.122182580418789"><ele>76.0</ele><time>2026-04-07T16:57:02Z</time></trkpt><trkpt lat="43.45148253713187" lon="3.1222793094440706"><ele>77.33333333333333</ele><time>2026-04-07T16:57:03Z</time></trkpt><trkpt lat="43.45136265351675" lon="3.1224006753090316"><ele>78.66666666666667</ele><time>2026-04-07T16:57:04Z</time></trkpt><trkpt lat="43.45123727984876" lon="3.122511443243303"><ele>80.0</ele><time>2026-04-07T16:57:05Z</time></trkpt><trkpt lat="43.45112766752395" lon="3.1226621707485713"><ele>80.0</ele><time>2026-04-07T16:57:06Z</time></trkpt><trkpt lat="43.45103543945896" lon="3.1228376508307134"><ele>80.0</ele><time>2026-04-07T16:57:07Z</time></trkpt><trkpt lat="43.450967171715035" lon="3.1230277200742993"><ele>80.0</ele><time>2026-04-07T16:57:08Z</time></trkpt><trkpt lat="43.45091796777147" lon="3.1232253378722565"><ele>82.33333333333334</ele><time>2026-04-07T16:57:09Z</time></trkpt><trkpt lat="43.45088855907532" lon="3.123438316001043"><ele>84.66666666666667</ele><time>2026-04-07T16:57:10Z</time></trkpt><trkpt lat="43.450853868819785" lon="3.123642137606043"><ele>87.0</ele><time>2026-04-07T16:57:11Z</time></trkpt><trkpt lat="43.4508119778489" lon="3.1238455017621427"><ele>87.0</ele><time>2026-04-07T16:57:12Z</time></trkpt><trkpt lat="43.45076156653216" lon="3.124041297166119"><ele>87.0</ele><time>2026-04-07T16:57:13Z</time></trkpt><trkpt lat="43.45069646636219" lon="3.124237950783704"><ele>87.0</ele><time>2026-04-07T16:57:14Z</time></trkpt><trkpt lat="43.45060766868337" lon="3.1244181932266244"><ele>87.33333333333333</ele><time>2026-04-07T16:57:15Z</time></trkpt><trkpt lat="43.45051169124189" lon="3.1245910515472186"><ele>87.66666666666666</ele><time>2026-04-07T16:57:16Z</time></trkpt><trkpt lat="43.45040961212289" lon="3.1247542294500565"><ele>88.0</ele><time>2026-04-07T16:57:17Z</time></trkpt><trkpt lat="43.45030047338646" lon="3.124909257186903"><ele>88.0</ele><time>2026-04-07T16:57:18Z</time></trkpt><trkpt lat="43.450193554397536" lon="3.125068095399211"><ele>88.0</ele><time>2026-04-07T16:57:19Z</time></trkpt><trkpt lat="43.45009063631662" lon="3.1252227667022585"><ele>88.0</ele><time>2026-04-07T16:57:20Z</time></trkpt><trkpt lat="43.44998550335061" lon="3.1253755880236156"><ele>88.0</ele><time>2026-04-07T16:57:21Z</time></trkpt><trkpt lat="43.44988311502116" lon="3.1255337589818506"><ele>88.0</ele><time>2026-04-07T16:57:22Z</time></trkpt><trkpt lat="43.44978491289484" lon="3.1256955898317234"><ele>88.0</ele><time>2026-04-07T16:57:23Z</time></trkpt><trkpt lat="43.449684583288835" lon="3.1258391761339355"><ele>89.25</ele><time>2026-04-07T16:57:24Z</time></trkpt><trkpt lat="43.44958381217131" lon="3.125974095450565"><ele>90.5</ele><time>2026-04-07T16:57:25Z</time></trkpt><trkpt lat="43.449494031238665" lon="3.126117579727095"><ele>91.75</ele><time>2026-04-07T16:57:26Z</time></trkpt><trkpt lat="43.44939765170457" lon="3.1262729380692376"><ele>93.0</ele><time>2026-04-07T16:57:27Z</time></trkpt><trkpt lat="43.44930158279042" lon="3.1264150456765845"><ele>93.0</ele><time>2026-04-07T16:57:28Z</time></trkpt><trkpt lat="43.44920589982461" lon="3.1265547034423418"><ele>93.0</ele><time>2026-04-07T16:57:29Z</time></trkpt><trkpt lat="43.44910971753951" lon="3.1266985526139557"><ele>93.0</ele><time>2026-04-07T16:57:30Z</time></trkpt><trkpt lat="43.44901485714941" lon="3.126842600999912"><ele>93.0</ele><time>2026-04-07T16:57:31Z</time></trkpt><trkpt lat="43.44892103081313" lon="3.1269865552571985"><ele>93.25</ele><time>2026-04-07T16:57:31.999Z</time></trkpt><trkpt lat="43.44882500462353" lon="3.127132267011425"><ele>93.5</ele><time>2026-04-07T16:57:32.999Z</time></trkpt><trkpt lat="43.448731353138086" lon="3.1272787092903287"><ele>93.75</ele><time>2026-04-07T16:57:33.999Z</time></trkpt><trkpt lat="43.44863971917132" lon="3.1274326889162953"><ele>94.0</ele><time>2026-04-07T16:57:34.999Z</time></trkpt><trkpt lat="43.448556948895224" lon="3.12759847778304"><ele>93.25</ele><time>2026-04-07T16:57:35.999Z</time></trkpt><trkpt lat="43.44847997735252" lon="3.1277688974471856"><ele>92.5</ele><time>2026-04-07T16:57:36.999Z</time></trkpt><trkpt lat="43.44840483530176" lon="3.1279451719293636"><ele>91.75</ele><time>2026-04-07T16:57:37.999Z</time></trkpt><trkpt lat="43.448339079488605" lon="3.1281290199949674"><ele>91.0</ele><time>2026-04-07T16:57:38.999Z</time></trkpt><trkpt lat="43.44827680388128" lon="3.128320259029679"><ele>90.33333333333333</ele><time>2026-04-07T16:57:39.999Z</time></trkpt><trkpt lat="43.448220055336265" lon="3.128515839443748"><ele>89.66666666666667</ele><time>2026-04-07T16:57:40.999Z</time></trkpt><trkpt lat="43.448166498683136" lon="3.1287142067480636"><ele>89.0</ele><time>2026-04-07T16:57:41.999Z</time></trkpt><trkpt lat="43.44811873343691" lon="3.1289006270613493"><ele>88.25</ele><time>2026-04-07T16:57:42.999Z</time></trkpt><trkpt lat="43.448068815118745" lon="3.1290861670055046"><ele>87.5</ele><time>2026-04-07T16:57:43.999Z</time></trkpt><trkpt lat="43.44803148240555" lon="3.1292737829017354"><ele>86.75</ele><time>2026-04-07T16:57:44.999Z</time></trkpt><trkpt lat="43.44802545528716" lon="3.1294597346077055"><ele>86.0</ele><time>2026-04-07T16:57:45.999Z</time></trkpt><trkpt lat="43.44806532356233" lon="3.1296442764069328"><ele>86.0</ele><time>2026-04-07T16:57:46.999Z</time></trkpt><trkpt lat="43.44814822875959" lon="3.1298185873635718"><ele>86.0</ele><time>2026-04-07T16:57:47.999Z</time></trkpt><trkpt lat="43.44825690809817" lon="3.1299563768104504"><ele>86.0</ele><time>2026-04-07T16:57:48.999Z</time></trkpt><trkpt lat="43.44839176875228" lon="3.1300363212556603"><ele>86.0</ele><time>2026-04-07T16:57:49.999Z</time></trkpt><trkpt lat="43.448536019388364" lon="3.130086663376877"><ele>85.0</ele><time>2026-04-07T16:57:50.999Z</time></trkpt><trkpt lat="43.448678264108715" lon="3.130120498031262"><ele>84.0</ele><time>2026-04-07T16:57:51.999Z</time></trkpt><trkpt lat="43.44881141215853" lon="3.1301798486170185"><ele>83.0</ele><time>2026-04-07T16:57:52.999Z</time></trkpt><trkpt lat="43.44893395411368" lon="3.1302469153179384"><ele>82.0</ele><time>2026-04-07T16:57:53.999Z</time></trkpt><trkpt lat="43.44903722562949" lon="3.130371792037122"><ele>81.66666666666666</ele><time>2026-04-07T16:57:54.999Z</time></trkpt><trkpt lat="43.44910025228275" lon="3.1305408354131044"><ele>81.33333333333333</ele><time>2026-04-07T16:57:55.999Z</time></trkpt><trkpt lat="43.449102605073435" lon="3.130753866116128"><ele>81.0</ele><time>2026-04-07T16:57:56.999Z</time></trkpt><trkpt lat="43.44907693004509" lon="3.130986185853849"><ele>80.0</ele><time>2026-04-07T16:57:57.999Z</time></trkpt><trkpt lat="43.44903046688958" lon="3.131222281424486"><ele>79.0</ele><time>2026-04-07T16:57:58.999Z</time></trkpt><trkpt lat="43.448996151013944" lon="3.131442520602889"><ele>78.0</ele><time>2026-04-07T16:57:59.999Z</time></trkpt><trkpt lat="43.44893600139404" lon="3.1316444027079164"><ele>74.66666666666667</ele><time>2026-04-07T16:58:00.999Z</time></trkpt><trkpt lat="43.44886144566412" lon="3.13184386116095"><ele>71.33333333333334</ele><time>2026-04-07T16:58:01.999Z</time></trkpt><trkpt lat="43.44877232689316" lon="3.132041258649743"><ele>68.0</ele><time>2026-04-07T16:58:02.999Z</time></trkpt><trkpt lat="43.44866616335328" lon="3.1322341022122084"><ele>66.0</ele><time>2026-04-07T16:58:03.999Z</time></trkpt><trkpt lat="43.44856304393939" lon="3.1324135506252997"><ele>64.0</ele><time>2026-04-07T16:58:04.999Z</time></trkpt><trkpt lat="43.4484627874543" lon="3.1326072808620533"><ele>62.0</ele><time>2026-04-07T16:58:05.999Z</time></trkpt><trkpt lat="43.448361424672456" lon="3.1328023609394036"><ele>62.0</ele><time>2026-04-07T16:58:06.999Z</time></trkpt><trkpt lat="43.44825472484407" lon="3.1330035923357102"><ele>62.0</ele><time>2026-04-07T16:58:07.999Z</time></trkpt><trkpt lat="43.448139566477586" lon="3.133200179973055"><ele>62.0</ele><time>2026-04-07T16:58:08.999Z</time></trkpt><trkpt lat="43.448015328746756" lon="3.1333851043690832"><ele>59.333333333333336</ele><time>2026-04-07T16:58:09.999Z</time></trkpt><trkpt lat="43.447856373638906" lon="3.133530413876447"><ele>56.66666666666667</ele><time>2026-04-07T16:58:10.999Z</time></trkpt><trkpt lat="43.44770274538536" lon="3.1336859635420344"><ele>54.0</ele><time>2026-04-07T16:58:11.999Z</time></trkpt><trkpt lat="43.447525758206424" lon="3.1338106851650895"><ele>54.0</ele><time>2026-04-07T16:58:12.999Z</time></trkpt><trkpt lat="43.44735279552942" lon="3.133909007811465"><ele>54.0</ele><time>2026-04-07T16:58:13.999Z</time></trkpt><trkpt lat="43.447169221469565" lon="3.134010729995826"><ele>54.0</ele><time>2026-04-07T16:58:14.999Z</time></trkpt><trkpt lat="43.44698918163903" lon="3.1340962884482586"><ele>55.0</ele><time>2026-04-07T16:58:15.999Z</time></trkpt><trkpt lat="43.44680619159316" lon="3.1341785176157573"><ele>56.0</ele><time>2026-04-07T16:58:16.998Z</time></trkpt><trkpt lat="43.44662572223979" lon="3.1342537043615972"><ele>57.0</ele><time>2026-04-07T16:58:17.998Z</time></trkpt><trkpt lat="43.44645204264304" lon="3.1343236715088962"><ele>57.0</ele><time>2026-04-07T16:58:18.998Z</time></trkpt><trkpt lat="43.4462757098761" lon="3.134380565484083"><ele>57.0</ele><time>2026-04-07T16:58:19.998Z</time></trkpt><trkpt lat="43.44610268041127" lon="3.1344385141844096"><ele>57.0</ele><time>2026-04-07T16:58:20.998Z</time></trkpt><trkpt lat="43.44593123282456" lon="3.1345058373700683"><ele>57.0</ele><time>2026-04-07T16:58:21.998Z</time></trkpt><trkpt lat="43.44576166359243" lon="3.1345794887813456"><ele>57.0</ele><time>2026-04-07T16:58:22.998Z</time></trkpt><trkpt lat="43.44559486067897" lon="3.134660121583826"><ele>57.0</ele><time>2026-04-07T16:58:23.998Z</time></trkpt><trkpt lat="43.4454272516282" lon="3.1347508979982215"><ele>57.66666666666667</ele><time>2026-04-07T16:58:24.998Z</time></trkpt><trkpt lat="43.44526860187525" lon="3.1348513353046505"><ele>58.333333333333336</ele><time>2026-04-07T16:58:25.998Z</time></trkpt><trkpt lat="43.44510438982714" lon="3.1349488591419608"><ele>59.0</ele><time>2026-04-07T16:58:26.998Z</time></trkpt><trkpt lat="43.44494360290977" lon="3.135041302655738"><ele>59.0</ele><time>2026-04-07T16:58:27.998Z</time></trkpt><trkpt lat="43.4447857002827" lon="3.1351415014923605"><ele>59.0</ele><time>2026-04-07T16:58:28.998Z</time></trkpt><trkpt lat="43.444633842576174" lon="3.135237871727419"><ele>59.0</ele><time>2026-04-07T16:58:29.998Z</time></trkpt><trkpt lat="43.444480372374606" lon="3.1353286719420392"><ele>57.333333333333336</ele><time>2026-04-07T16:58:30.998Z</time></trkpt><trkpt lat="43.444331684497776" lon="3.1354354545334773"><ele>55.66666666666667</ele><time>2026-04-07T16:58:31.998Z</time></trkpt><trkpt lat="43.4441867640788" lon="3.135550933002282"><ele>54.0</ele><time>2026-04-07T16:58:32.998Z</time></trkpt><trkpt lat="43.44404892813741" lon="3.135671291937793"><ele>56.0</ele><time>2026-04-07T16:58:33.998Z</time></trkpt><trkpt lat="43.443903423880194" lon="3.135790759740016"><ele>58.0</ele><time>2026-04-07T16:58:34.998Z</time></trkpt><trkpt lat="43.44376224610449" lon="3.1359120450119042"><ele>60.0</ele><time>2026-04-07T16:58:35.998Z</time></trkpt><trkpt lat="43.44362132571992" lon="3.136029949670098"><ele>60.0</ele><time>2026-04-07T16:58:36.998Z</time></trkpt><trkpt lat="43.44348026797578" lon="3.136141567039349"><ele>60.0</ele><time>2026-04-07T16:58:37.998Z</time></trkpt><trkpt lat="43.443331465561066" lon="3.136226972094189"><ele>60.0</ele><time>2026-04-07T16:58:38.998Z</time></trkpt><trkpt lat="43.4431753685378" lon="3.1362933479397532"><ele>60.0</ele><time>2026-04-07T16:58:39.998Z</time></trkpt><trkpt lat="43.443025376932916" lon="3.136359149252833"><ele>60.0</ele><time>2026-04-07T16:58:40.998Z</time></trkpt><trkpt lat="43.442875811337395" lon="3.13642120900153"><ele>60.0</ele><time>2026-04-07T16:58:41.998Z</time></trkpt><trkpt lat="43.442722564015355" lon="3.136488810496496"><ele>63.0</ele><time>2026-04-07T16:58:42.998Z</time></trkpt><trkpt lat="43.44258341322341" lon="3.1365568827393284"><ele>66.0</ele><time>2026-04-07T16:58:43.998Z</time></trkpt><trkpt lat="43.44244751322711" lon="3.1366411960891756"><ele>69.0</ele><time>2026-04-07T16:58:44.998Z</time></trkpt><trkpt lat="43.44231054347912" lon="3.1367348252530958"><ele>69.0</ele><time>2026-04-07T16:58:45.998Z</time></trkpt><trkpt lat="43.442200609504106" lon="3.1368397609960916"><ele>69.0</ele><time>2026-04-07T16:58:46.998Z</time></trkpt><trkpt lat="43.44209029001567" lon="3.1369563585072155"><ele>69.0</ele><time>2026-04-07T16:58:47.998Z</time></trkpt><trkpt lat="43.442009068115055" lon="3.137124555081342"><ele>69.0</ele><time>2026-04-07T16:58:48.998Z</time></trkpt><trkpt lat="43.441961033462405" lon="3.1372959095350192"><ele>68.75</ele><time>2026-04-07T16:58:49.998Z</time></trkpt><trkpt lat="43.44191344524879" lon="3.1374823898378428"><ele>68.5</ele><time>2026-04-07T16:58:50.998Z</time></trkpt><trkpt lat="43.4418747439342" lon="3.137657783932577"><ele>68.25</ele><time>2026-04-07T16:58:51.998Z</time></trkpt><trkpt lat="43.44183534833603" lon="3.137830849062466"><ele>68.0</ele><time>2026-04-07T16:58:52.998Z</time></trkpt><trkpt lat="43.441780669367404" lon="3.137991309893279"><ele>68.0</ele><time>2026-04-07T16:58:53.998Z</time></trkpt><trkpt lat="43.44174203282464" lon="3.1381498582997835"><ele>68.0</ele><time>2026-04-07T16:58:54.998Z</time></trkpt><trkpt lat="43.4417036927932" lon="3.1383071899489785"><ele>68.0</ele><time>2026-04-07T16:58:55.998Z</time></trkpt><trkpt lat="43.441666132788484" lon="3.1384613204493252"><ele>68.0</ele><time>2026-04-07T16:58:56.998Z</time></trkpt><trkpt lat="43.44163817106567" lon="3.138613284657946"><ele>69.0</ele><time>2026-04-07T16:58:57.998Z</time></trkpt><trkpt lat="43.44160423638344" lon="3.1387589653905095"><ele>70.0</ele><time>2026-04-07T16:58:58.998Z</time></trkpt><trkpt lat="43.44157038279509" lon="3.138892459085954"><ele>71.0</ele><time>2026-04-07T16:58:59.998Z</time></trkpt><trkpt lat="43.441530480796565" lon="3.1390185792045338"><ele>72.0</ele><time>2026-04-07T16:59:01Z</time></trkpt><trkpt lat="43.44148200189959" lon="3.139136636270955"><ele>73.0</ele><time>2026-04-07T16:59:02Z</time></trkpt><trkpt lat="43.44142623481475" lon="3.139249563178996"><ele>72.83333333333333</ele><time>2026-04-07T16:59:03Z</time></trkpt><trkpt lat="43.441376561233625" lon="3.1393497283493477"><ele>72.66666666666666</ele><time>2026-04-07T16:59:04Z</time></trkpt><trkpt lat="43.44132589030238" lon="3.1394498991084823"><ele>72.5</ele><time>2026-04-07T16:59:05Z</time></trkpt><trkpt lat="43.44128942957842" lon="3.139541519533288"><ele>72.33333333333333</ele><time>2026-04-07T16:59:06Z</time></trkpt><trkpt lat="43.44126204914821" lon="3.139627251293431"><ele>72.16666666666667</ele><time>2026-04-07T16:59:07Z</time></trkpt><trkpt lat="43.44121978566972" lon="3.1397586653455836"><ele>72.0</ele><time>2026-04-07T16:59:09Z</time></trkpt><trkpt lat="43.44116355122862" lon="3.1399221036924523"><ele>72.5</ele><time>2026-04-07T16:59:11Z</time></trkpt><trkpt lat="43.441142719754644" lon="3.1400344094059167"><ele>73.0</ele><time>2026-04-07T16:59:12Z</time></trkpt><trkpt lat="43.441119860919905" lon="3.140147983492532"><ele>73.5</ele><time>2026-04-07T16:59:13Z</time></trkpt><trkpt lat="43.441096770666775" lon="3.1402593689675733"><ele>74.0</ele><time>2026-04-07T16:59:14Z</time></trkpt><trkpt lat="43.44107317198654" lon="3.140373207086488"><ele>74.5</ele><time>2026-04-07T16:59:15Z</time></trkpt><trkpt lat="43.44104881027276" lon="3.1404907258908317"><ele>75.0</ele><time>2026-04-07T16:59:16Z</time></trkpt><trkpt lat="43.44102403252044" lon="3.140613224253351"><ele>76.33333333333333</ele><time>2026-04-07T16:59:17Z</time></trkpt><trkpt lat="43.44100198147191" lon="3.1407296813309076"><ele>77.66666666666667</ele><time>2026-04-07T16:59:18Z</time></trkpt><trkpt lat="43.44098274196772" lon="3.140831290047877"><ele>79.0</ele><time>2026-04-07T16:59:19Z</time></trkpt><trkpt lat="43.44096522479051" lon="3.1409238025666752"><ele>80.33333333333334</ele><time>2026-04-07T16:59:20Z</time></trkpt><trkpt lat="43.44093614543151" lon="3.1410773779464667"><ele>81.66666666666667</ele><time>2026-04-07T16:59:22Z</time></trkpt><trkpt lat="43.440913176995714" lon="3.1411986793299937"><ele>83.0</ele><time>2026-04-07T16:59:24Z</time></trkpt><trkpt lat="43.440889867053116" lon="3.1413359634203686"><ele>83.0</ele><time>2026-04-07T16:59:26Z</time></trkpt><trkpt lat="43.440882358037875" lon="3.141509660095511"><ele>83.0</ele><time>2026-04-07T16:59:28Z</time></trkpt><trkpt lat="43.44087003910669" lon="3.141610407051722"><ele>83.0</ele><time>2026-04-07T16:59:29Z</time></trkpt><trkpt lat="43.44085214001163" lon="3.1417111129907256"><ele>83.0</ele><time>2026-04-07T16:59:30Z</time></trkpt><trkpt lat="43.440837759284804" lon="3.1418077483266758"><ele>83.0</ele><time>2026-04-07T16:59:31Z</time></trkpt><trkpt lat="43.440828422895436" lon="3.141903290121808"><ele>83.0</ele><time>2026-04-07T16:59:32Z</time></trkpt><trkpt lat="43.44083087019347" lon="3.1420024130444784"><ele>83.5</ele><time>2026-04-07T16:59:33Z</time></trkpt><trkpt lat="43.44083660508709" lon="3.1421093288385435"><ele>84.0</ele><time>2026-04-07T16:59:34Z</time></trkpt><trkpt lat="43.440840271881626" lon="3.142215697623607"><ele>84.5</ele><time>2026-04-07T16:59:35Z</time></trkpt><trkpt lat="43.440844881039084" lon="3.1423088412527695"><ele>85.0</ele><time>2026-04-07T16:59:36Z</time></trkpt><trkpt lat="43.44085152767192" lon="3.142455102139871"><ele>85.5</ele><time>2026-04-07T16:59:37.999Z</time></trkpt><trkpt lat="43.44080467362443" lon="3.142548100846225"><ele>86.0</ele><time>2026-04-07T16:59:39.999Z</time></trkpt><trkpt lat="43.440737170733954" lon="3.1425416513918023"><ele>86.00000000000001</ele><time>2026-04-07T16:59:40.999Z</time></trkpt><trkpt lat="43.44067774232336" lon="3.14248926369039"><ele>86.0</ele><time>2026-04-07T16:59:41.999Z</time></trkpt><trkpt lat="43.44061304363267" lon="3.1424805686981783"><ele>86.0</ele><time>2026-04-07T16:59:42.999Z</time></trkpt><trkpt lat="43.44054020424095" lon="3.142446895090247"><ele>86.0</ele><time>2026-04-07T16:59:43.999Z</time></trkpt><trkpt lat="43.44046268351017" lon="3.142393173933314"><ele>86.0</ele><time>2026-04-07T16:59:44.999Z</time></trkpt><trkpt lat="43.440397204412704" lon="3.1423566496641793"><ele>86.00000000000001</ele><time>2026-04-07T16:59:45.999Z</time></trkpt><trkpt lat="43.44032725945061" lon="3.1423271377326842"><ele>86.0</ele><time>2026-04-07T16:59:46.999Z</time></trkpt><trkpt lat="43.440254526052065" lon="3.1423037538380894"><ele>85.16666666666667</ele><time>2026-04-07T16:59:47.999Z</time></trkpt><trkpt lat="43.44018380932567" lon="3.1422782471654167"><ele>84.33333333333334</ele><time>2026-04-07T16:59:48.999Z</time></trkpt><trkpt lat="43.44011190341862" lon="3.1422462888986296"><ele>83.5</ele><time>2026-04-07T16:59:49.999Z</time></trkpt><trkpt lat="43.44004336369296" lon="3.1422124122079964"><ele>82.66666666666667</ele><time>2026-04-07T16:59:50.999Z</time></trkpt><trkpt lat="43.43997382488625" lon="3.142175187103027"><ele>81.83333333333333</ele><time>2026-04-07T16:59:51.999Z</time></trkpt><trkpt lat="43.43990035607168" lon="3.142142586890552"><ele>81.0</ele><time>2026-04-07T16:59:52.999Z</time></trkpt><trkpt lat="43.43982374886783" lon="3.1421432181506557"><ele>81.0</ele><time>2026-04-07T16:59:53.999Z</time></trkpt><trkpt lat="43.439761326817425" lon="3.1421728203844213"><ele>81.0</ele><time>2026-04-07T16:59:54.999Z</time></trkpt><trkpt lat="43.439674508136115" lon="3.142270764424587"><ele>81.0</ele><time>2026-04-07T16:59:56.999Z</time></trkpt><trkpt lat="43.43962839360338" lon="3.142338259006214"><ele>81.0</ele><time>2026-04-07T16:59:57.999Z</time></trkpt><trkpt lat="43.43958657000586" lon="3.1424118382655783"><ele>81.0</ele><time>2026-04-07T16:59:58.999Z</time></trkpt><trkpt lat="43.439533776090656" lon="3.142533673394723"><ele>81.0</ele><time>2026-04-07T17:00:00.999Z</time></trkpt><trkpt lat="43.43948787885444" lon="3.1426499988289796"><ele>80.66666666666667</ele><time>2026-04-07T17:00:02.999Z</time></trkpt><trkpt lat="43.43944065652785" lon="3.1427425981286414"><ele>80.33333333333333</ele><time>2026-04-07T17:00:04.999Z</time></trkpt><trkpt lat="43.43940244836165" lon="3.1428298439918456"><ele>80.0</ele><time>2026-04-07T17:00:06.999Z</time></trkpt><trkpt lat="43.43937193189307" lon="3.1429121607574446"><ele>79.66666666666666</ele><time>2026-04-07T17:00:08.999Z</time></trkpt><trkpt lat="43.43932481947328" lon="3.1430387031128055"><ele>79.33333333333333</ele><time>2026-04-07T17:00:10.999Z</time></trkpt><trkpt lat="43.4392890149219" lon="3.143118847039439"><ele>79.0</ele><time>2026-04-07T17:00:11.999Z</time></trkpt><trkpt lat="43.43925179952547" lon="3.143223977469783"><ele>79.0</ele><time>2026-04-07T17:00:12.999Z</time></trkpt><trkpt lat="43.439198183742555" lon="3.143337582306775"><ele>79.0</ele><time>2026-04-07T17:00:13.999Z</time></trkpt><trkpt lat="43.4391520074342" lon="3.143476380003413"><ele>79.0</ele><time>2026-04-07T17:00:14.999Z</time></trkpt><trkpt lat="43.43909340591517" lon="3.1436203777701306"><ele>79.0</ele><time>2026-04-07T17:00:15.999Z</time></trkpt><trkpt lat="43.4390587506341" lon="3.143784231906115"><ele>79.0</ele><time>2026-04-07T17:00:16.999Z</time></trkpt><trkpt lat="43.439019681299975" lon="3.1439531846490993"><ele>79.0</ele><time>2026-04-07T17:00:17.999Z</time></trkpt><trkpt lat="43.43898750286262" lon="3.144113316923087"><ele>79.0</ele><time>2026-04-07T17:00:18.999Z</time></trkpt><trkpt lat="43.43896425254394" lon="3.1442353611419938"><ele>79.0</ele><time>2026-04-07T17:00:19.999Z</time></trkpt><trkpt lat="43.438948933643545" lon="3.1443660217886773"><ele>79.0</ele><time>2026-04-07T17:00:20.998Z</time></trkpt><trkpt lat="43.43894042247419" lon="3.144479313694724"><ele>79.66666666666666</ele><time>2026-04-07T17:00:21.998Z</time></trkpt><trkpt lat="43.438922400295965" lon="3.144582359059435"><ele>80.33333333333333</ele><time>2026-04-07T17:00:23.998Z</time></trkpt><trkpt lat="43.43892714245781" lon="3.144689024121172"><ele>81.0</ele><time>2026-04-07T17:00:24.998Z</time></trkpt><trkpt lat="43.438917942608754" lon="3.1447871919322377"><ele>81.66666666666667</ele><time>2026-04-07T17:00:25.998Z</time></trkpt><trkpt lat="43.43894075187792" lon="3.1449659097196765"><ele>82.33333333333334</ele><time>2026-04-07T17:00:27.998Z</time></trkpt><trkpt lat="43.438955255815074" lon="3.145054066764072"><ele>83.0</ele><time>2026-04-07T17:00:28.998Z</time></trkpt><trkpt lat="43.438972983716205" lon="3.14515333695015"><ele>83.33333333333334</ele><time>2026-04-07T17:00:29.998Z</time></trkpt><trkpt lat="43.43898989767189" lon="3.1452491419349524"><ele>83.66666666666667</ele><time>2026-04-07T17:00:30.998Z</time></trkpt><trkpt lat="43.43901539534646" lon="3.1453496710112803"><ele>84.0</ele><time>2026-04-07T17:00:31.998Z</time></trkpt><trkpt lat="43.43902525174898" lon="3.1454631474290857"><ele>84.33333333333333</ele><time>2026-04-07T17:00:33.998Z</time></trkpt><trkpt lat="43.43906623997227" lon="3.1455822156587465"><ele>84.66666666666666</ele><time>2026-04-07T17:00:36.998Z</time></trkpt><trkpt lat="43.43917441370402" lon="3.1456316185151962"><ele>85.0</ele><time>2026-04-07T17:00:38.998Z</time></trkpt><trkpt lat="43.43921980322335" lon="3.145701990552395"><ele>84.83333333333333</ele><time>2026-04-07T17:00:39.998Z</time></trkpt><trkpt lat="43.43929332826583" lon="3.1457158481039147"><ele>84.66666666666666</ele><time>2026-04-07T17:00:40.998Z</time></trkpt><trkpt lat="43.43936719396089" lon="3.14576680884243"><ele>84.5</ele><time>2026-04-07T17:00:41.998Z</time></trkpt><trkpt lat="43.439437968962466" lon="3.14581406953196"><ele>84.33333333333333</ele><time>2026-04-07T17:00:42.998Z</time></trkpt><trkpt lat="43.43950587488039" lon="3.145854430756715"><ele>84.16666666666667</ele><time>2026-04-07T17:00:43.998Z</time></trkpt><trkpt lat="43.439577778100215" lon="3.1459363706651575"><ele>84.0</ele><time>2026-04-07T17:00:44.998Z</time></trkpt><trkpt lat="43.439665291147406" lon="3.145945327803961"><ele>85.33333333333333</ele><time>2026-04-07T17:00:45.998Z</time></trkpt><trkpt lat="43.43973272797073" lon="3.1459460509069554"><ele>86.66666666666667</ele><time>2026-04-07T17:00:46.998Z</time></trkpt><trkpt lat="43.43985404219942" lon="3.145941862916081"><ele>88.0</ele><time>2026-04-07T17:00:48.998Z</time></trkpt><trkpt lat="43.43992485655569" lon="3.145914927225782"><ele>89.33333333333334</ele><time>2026-04-07T17:00:49.998Z</time></trkpt><trkpt lat="43.4399921173598" lon="3.1459133074725605"><ele>90.66666666666667</ele><time>2026-04-07T17:00:50.998Z</time></trkpt><trkpt lat="43.440084539727856" lon="3.1459145206097237"><ele>92.0</ele><time>2026-04-07T17:00:52.998Z</time></trkpt><trkpt lat="43.44015248519563" lon="3.145914251847213"><ele>92.0</ele><time>2026-04-07T17:00:56.998Z</time></trkpt><trkpt lat="43.44022254361219" lon="3.1458880583100535"><ele>92.0</ele><time>2026-04-07T17:00:57.998Z</time></trkpt><trkpt lat="43.44028672838262" lon="3.145854117504908"><ele>92.0</ele><time>2026-04-07T17:00:58.998Z</time></trkpt><trkpt lat="43.440364700104354" lon="3.145798729751489"><ele>92.0</ele><time>2026-04-07T17:00:59.998Z</time></trkpt><trkpt lat="43.44045266974113" lon="3.1457221948981693"><ele>92.0</ele><time>2026-04-07T17:01:00.998Z</time></trkpt><trkpt lat="43.44051358393893" lon="3.1456653068735014"><ele>92.0</ele><time>2026-04-07T17:01:01.998Z</time></trkpt><trkpt lat="43.440579015714" lon="3.145598008790279"><ele>92.33333333333334</ele><time>2026-04-07T17:01:02.998Z</time></trkpt><trkpt lat="43.4406432565874" lon="3.1455297583377804"><ele>92.66666666666667</ele><time>2026-04-07T17:01:03.998Z</time></trkpt><trkpt lat="43.44070852937412" lon="3.1454604114468574"><ele>93.0</ele><time>2026-04-07T17:01:04.998Z</time></trkpt><trkpt lat="43.44076850144784" lon="3.145394917413783"><ele>93.33333333333333</ele><time>2026-04-07T17:01:05.998Z</time></trkpt><trkpt lat="43.440827928447106" lon="3.145327710978877"><ele>93.66666666666666</ele><time>2026-04-07T17:01:07Z</time></trkpt><trkpt lat="43.4408869169793" lon="3.145257504537301"><ele>94.0</ele><time>2026-04-07T17:01:08Z</time></trkpt><trkpt lat="43.44094777981047" lon="3.145183125479581"><ele>94.0</ele><time>2026-04-07T17:01:09Z</time></trkpt><trkpt lat="43.44097574324159" lon="3.145041718267689"><ele>94.0</ele><time>2026-04-07T17:01:10Z</time></trkpt><trkpt lat="43.4409816745623" lon="3.144907997282932"><ele>94.0</ele><time>2026-04-07T17:01:11Z</time></trkpt><trkpt lat="43.441003412455196" lon="3.1447935407261562"><ele>94.0</ele><time>2026-04-07T17:01:12Z</time></trkpt><trkpt lat="43.44102525674805" lon="3.1446874570446877"><ele>94.0</ele><time>2026-04-07T17:01:13Z</time></trkpt><trkpt lat="43.44105055720585" lon="3.144574518255251"><ele>94.0</ele><time>2026-04-07T17:01:14Z</time></trkpt><trkpt lat="43.441076585967544" lon="3.1444644982734227"><ele>94.0</ele><time>2026-04-07T17:01:15Z</time></trkpt><trkpt lat="43.44109462360042" lon="3.144364490293043"><ele>94.0</ele><time>2026-04-07T17:01:16Z</time></trkpt><trkpt lat="43.441120759105125" lon="3.1442534431202973"><ele>94.0</ele><time>2026-04-07T17:01:17Z</time></trkpt><trkpt lat="43.441123045412404" lon="3.1441237969723077"><ele>94.0</ele><time>2026-04-07T17:01:18Z</time></trkpt><trkpt lat="43.44112626053097" lon="3.1440068383800055"><ele>94.0</ele><time>2026-04-07T17:01:19Z</time></trkpt><trkpt lat="43.44112258449307" lon="3.1438922910864546"><ele>94.0</ele><time>2026-04-07T17:01:20Z</time></trkpt><trkpt lat="43.44112592692466" lon="3.1437937291990274"><ele>94.0</ele><time>2026-04-07T17:01:21Z</time></trkpt><trkpt lat="43.44113177413898" lon="3.143651231376212"><ele>94.0</ele><time>2026-04-07T17:01:23Z</time></trkpt><trkpt lat="43.44111450650819" lon="3.143520079967791"><ele>94.0</ele><time>2026-04-07T17:01:25Z</time></trkpt><trkpt lat="43.44107389528042" lon="3.143362419375248"><ele>94.0</ele><time>2026-04-07T17:01:27Z</time></trkpt><trkpt lat="43.441058706197495" lon="3.1432598773339966"><ele>93.14285714285714</ele><time>2026-04-07T17:01:28Z</time></trkpt><trkpt lat="43.441024420282154" lon="3.143173449690191"><ele>92.28571428571428</ele><time>2026-04-07T17:01:29Z</time></trkpt><trkpt lat="43.441008585668115" lon="3.143082864341266"><ele>91.42857142857143</ele><time>2026-04-07T17:01:30Z</time></trkpt><trkpt lat="43.440984510244085" lon="3.1429999579867274"><ele>90.57142857142857</ele><time>2026-04-07T17:01:31Z</time></trkpt><trkpt lat="43.44096053547164" lon="3.142911659541548"><ele>89.71428571428571</ele><time>2026-04-07T17:01:32Z</time></trkpt><trkpt lat="43.44091587565096" lon="3.1428222133156254"><ele>88.85714285714286</ele><time>2026-04-07T17:01:33Z</time></trkpt><trkpt lat="43.44089963098352" lon="3.1427294396189427"><ele>88.0</ele><time>2026-04-07T17:01:34Z</time></trkpt><trkpt lat="43.44087405682182" lon="3.1426465582846665"><ele>88.0</ele><time>2026-04-07T17:01:35Z</time></trkpt><trkpt lat="43.4408460405088" lon="3.1425230796373786"><ele>88.0</ele><time>2026-04-07T17:01:37Z</time></trkpt><trkpt lat="43.44067548578838" lon="3.142576626944453"><ele>88.0</ele><time>2026-04-07T17:01:38Z</time></trkpt><trkpt lat="43.440605575645364" lon="3.1424733148153874"><ele>88.0</ele><time>2026-04-07T17:01:40Z</time></trkpt><trkpt lat="43.4405174165257" lon="3.14242401678359"><ele>86.60000000000001</ele><time>2026-04-07T17:01:42Z</time></trkpt><trkpt lat="43.44042168863686" lon="3.1423719982624885"><ele>85.2</ele><time>2026-04-07T17:01:43.999Z</time></trkpt><trkpt lat="43.44035873888586" lon="3.142344260945923"><ele>83.8</ele><time>2026-04-07T17:01:44.999Z</time></trkpt><trkpt lat="43.44024879346916" lon="3.1423018352604313"><ele>82.4</ele><time>2026-04-07T17:01:46.999Z</time></trkpt><trkpt lat="43.44013577957177" lon="3.14225395105947"><ele>81.0</ele><time>2026-04-07T17:01:48.999Z</time></trkpt><trkpt lat="43.44003423190371" lon="3.142203381830689"><ele>81.0</ele><time>2026-04-07T17:01:50.999Z</time></trkpt><trkpt lat="43.43997044467926" lon="3.1420676349050614"><ele>81.0</ele><time>2026-04-07T17:01:52.999Z</time></trkpt><trkpt lat="43.439961097824586" lon="3.141904939955009"><ele>81.0</ele><time>2026-04-07T17:01:54.999Z</time></trkpt><trkpt lat="43.439966930166804" lon="3.1417553769697157"><ele>81.0</ele><time>2026-04-07T17:01:56.999Z</time></trkpt><trkpt lat="43.439944580348325" lon="3.1416598770586126"><ele>81.0</ele><time>2026-04-07T17:01:59.999Z</time></trkpt><trkpt lat="43.439944592531226" lon="3.1415410007540223"><ele>80.2</ele><time>2026-04-07T17:02:02.999Z</time></trkpt><trkpt lat="43.43992642660794" lon="3.141383557797745"><ele>79.39999999999999</ele><time>2026-04-07T17:02:04.999Z</time></trkpt><trkpt lat="43.43990956180989" lon="3.141214937563425"><ele>78.6</ele><time>2026-04-07T17:02:06.999Z</time></trkpt><trkpt lat="43.43991040512719" lon="3.1411247672234803"><ele>77.8</ele><time>2026-04-07T17:02:07.999Z</time></trkpt><trkpt lat="43.43989194903302" lon="3.141023591579198"><ele>77.0</ele><time>2026-04-07T17:02:08.999Z</time></trkpt><trkpt lat="43.43989881819959" lon="3.1409289452844362"><ele>77.0</ele><time>2026-04-07T17:02:09.999Z</time></trkpt><trkpt lat="43.43989335986968" lon="3.1408345414384886"><ele>77.0</ele><time>2026-04-07T17:02:10.999Z</time></trkpt><trkpt lat="43.43988334139603" lon="3.1407389419929435"><ele>77.0</ele><time>2026-04-07T17:02:11.999Z</time></trkpt><trkpt lat="43.439874205983564" lon="3.140645900106941"><ele>77.0</ele><time>2026-04-07T17:02:12.999Z</time></trkpt><trkpt lat="43.43986817487153" lon="3.1405536267862852"><ele>77.0</ele><time>2026-04-07T17:02:13.999Z</time></trkpt><trkpt lat="43.43986039333834" lon="3.1404597256545626"><ele>77.0</ele><time>2026-04-07T17:02:14.999Z</time></trkpt><trkpt lat="43.43985264840959" lon="3.1403659434771383"><ele>77.0</ele><time>2026-04-07T17:02:15.999Z</time></trkpt><trkpt lat="43.439847635090096" lon="3.1402767482373295"><ele>76.0</ele><time>2026-04-07T17:02:16.999Z</time></trkpt><trkpt lat="43.43984411355052" lon="3.140187468588117"><ele>75.0</ele><time>2026-04-07T17:02:17.999Z</time></trkpt><trkpt lat="43.43983738795377" lon="3.1400995284306186"><ele>74.0</ele><time>2026-04-07T17:02:18.999Z</time></trkpt><trkpt lat="43.43982938440225" lon="3.139938032767877"><ele>73.0</ele><time>2026-04-07T17:02:20.999Z</time></trkpt><trkpt lat="43.43982980781739" lon="3.139847966550007"><ele>72.0</ele><time>2026-04-07T17:02:22.999Z</time></trkpt><trkpt lat="43.4398212006841" lon="3.1397299602494537"><ele>71.0</ele><time>2026-04-07T17:02:24.999Z</time></trkpt><trkpt lat="43.43981088155736" lon="3.1396322966683563"><ele>70.2</ele><time>2026-04-07T17:02:25.999Z</time></trkpt><trkpt lat="43.439788700139026" lon="3.139500404500627"><ele>69.39999999999999</ele><time>2026-04-07T17:02:26.998Z</time></trkpt><trkpt lat="43.43977678968995" lon="3.139371587367497"><ele>68.6</ele><time>2026-04-07T17:02:27.998Z</time></trkpt><trkpt lat="43.43976315546921" lon="3.1392455440127742"><ele>67.8</ele><time>2026-04-07T17:02:28.998Z</time></trkpt><trkpt lat="43.439755627512845" lon="3.139106612727075"><ele>67.0</ele><time>2026-04-07T17:02:29.998Z</time></trkpt><trkpt lat="43.439743514343036" lon="3.1389570450387487"><ele>66.0</ele><time>2026-04-07T17:02:30.998Z</time></trkpt><trkpt lat="43.43973053482459" lon="3.1387983154065617"><ele>65.0</ele><time>2026-04-07T17:02:31.998Z</time></trkpt><trkpt lat="43.43971793892563" lon="3.138638557866205"><ele>64.0</ele><time>2026-04-07T17:02:32.998Z</time></trkpt><trkpt lat="43.43970368002421" lon="3.1384770189587674"><ele>63.0</ele><time>2026-04-07T17:02:33.998Z</time></trkpt><trkpt lat="43.43968757157721" lon="3.1383228984941187"><ele>62.333333333333336</ele><time>2026-04-07T17:02:34.998Z</time></trkpt><trkpt lat="43.43967206464647" lon="3.138198964968302"><ele>61.66666666666667</ele><time>2026-04-07T17:02:35.998Z</time></trkpt><trkpt lat="43.43965983376052" lon="3.1380582414951044"><ele>61.0</ele><time>2026-04-07T17:02:37.998Z</time></trkpt><trkpt lat="43.439651758897384" lon="3.137963480093071"><ele>60.333333333333336</ele><time>2026-04-07T17:02:39.998Z</time></trkpt><trkpt lat="43.439642728640784" lon="3.137870126351894"><ele>59.66666666666667</ele><time>2026-04-07T17:02:41.998Z</time></trkpt><trkpt lat="43.439637308881935" lon="3.137747300872804"><ele>59.0</ele><time>2026-04-07T17:02:43.998Z</time></trkpt><trkpt lat="43.43962063798813" lon="3.1375751031037686"><ele>58.800000000000004</ele><time>2026-04-07T17:02:45.998Z</time></trkpt><trkpt lat="43.43961122354435" lon="3.1374844341316384"><ele>58.60000000000001</ele><time>2026-04-07T17:02:46.998Z</time></trkpt><trkpt lat="43.439618677807964" lon="3.1373522643349223"><ele>58.4</ele><time>2026-04-07T17:02:47.998Z</time></trkpt><trkpt lat="43.439599609639615" lon="3.1371915372609145"><ele>58.2</ele><time>2026-04-07T17:02:48.998Z</time></trkpt><trkpt lat="43.43959500475093" lon="3.1370344439346303"><ele>58.0</ele><time>2026-04-07T17:02:49.998Z</time></trkpt><trkpt lat="43.43957851357598" lon="3.1368727315273"><ele>57.0</ele><time>2026-04-07T17:02:50.998Z</time></trkpt><trkpt lat="43.43955318164782" lon="3.1367066916550743"><ele>56.0</ele><time>2026-04-07T17:02:51.998Z</time></trkpt><trkpt lat="43.43953863658926" lon="3.136529720414338"><ele>55.0</ele><time>2026-04-07T17:02:52.998Z</time></trkpt><trkpt lat="43.439517523989565" lon="3.136358054508155"><ele>54.0</ele><time>2026-04-07T17:02:53.998Z</time></trkpt><trkpt lat="43.43949994250466" lon="3.1361868739021674"><ele>53.5</ele><time>2026-04-07T17:02:54.998Z</time></trkpt><trkpt lat="43.439486110456244" lon="3.1360168624602727"><ele>53.0</ele><time>2026-04-07T17:02:55.998Z</time></trkpt><trkpt lat="43.439471926541344" lon="3.1358453662946753"><ele>52.5</ele><time>2026-04-07T17:02:56.998Z</time></trkpt><trkpt lat="43.4394639838748" lon="3.1356738776879647"><ele>52.0</ele><time>2026-04-07T17:02:57.998Z</time></trkpt><trkpt lat="43.43946111468768" lon="3.1355011755536983"><ele>50.25</ele><time>2026-04-07T17:02:58.998Z</time></trkpt><trkpt lat="43.43944775910951" lon="3.135326052681588"><ele>48.5</ele><time>2026-04-07T17:02:59.998Z</time></trkpt><trkpt lat="43.43943535561729" lon="3.135163376781391"><ele>46.75</ele><time>2026-04-07T17:03:00.998Z</time></trkpt><trkpt lat="43.43942449600996" lon="3.1350209495274823"><ele>45.0</ele><time>2026-04-07T17:03:01.998Z</time></trkpt><trkpt lat="43.439413667295376" lon="3.13487892735552"><ele>44.6</ele><time>2026-04-07T17:03:02.998Z</time></trkpt><trkpt lat="43.439402720175956" lon="3.1347353524660155"><ele>44.2</ele><time>2026-04-07T17:03:03.998Z</time></trkpt><trkpt lat="43.4393923258232" lon="3.1345991424242166"><ele>43.8</ele><time>2026-04-07T17:03:04.998Z</time></trkpt><trkpt lat="43.43937323734989" lon="3.134457562348376"><ele>43.4</ele><time>2026-04-07T17:03:05.998Z</time></trkpt><trkpt lat="43.43936271512441" lon="3.1343006640712674"><ele>43.0</ele><time>2026-04-07T17:03:06.998Z</time></trkpt><trkpt lat="43.43934959288123" lon="3.134147555189844"><ele>43.75</ele><time>2026-04-07T17:03:07.998Z</time></trkpt><trkpt lat="43.439337018425896" lon="3.133975059119906"><ele>44.5</ele><time>2026-04-07T17:03:08.998Z</time></trkpt><trkpt lat="43.43931368688012" lon="3.133800734376751"><ele>45.25</ele><time>2026-04-07T17:03:09.998Z</time></trkpt><trkpt lat="43.43928329895408" lon="3.133619622805933"><ele>46.0</ele><time>2026-04-07T17:03:10.998Z</time></trkpt><trkpt lat="43.43923950757107" lon="3.1334385945500163"><ele>46.0</ele><time>2026-04-07T17:03:11.997Z</time></trkpt><trkpt lat="43.43918061294753" lon="3.133250941182718"><ele>46.0</ele><time>2026-04-07T17:03:13Z</time></trkpt><trkpt lat="43.43911403503318" lon="3.1330681814987438"><ele>46.0</ele><time>2026-04-07T17:03:14Z</time></trkpt><trkpt lat="43.43903278922711" lon="3.132884970344237"><ele>46.333333333333336</ele><time>2026-04-07T17:03:15Z</time></trkpt><trkpt lat="43.438945192604194" lon="3.132703323311123"><ele>46.666666666666664</ele><time>2026-04-07T17:03:16Z</time></trkpt><trkpt lat="43.43885642497623" lon="3.1325226067977017"><ele>47.0</ele><time>2026-04-07T17:03:17Z</time></trkpt><trkpt lat="43.43876411922191" lon="3.132342136964757"><ele>47.0</ele><time>2026-04-07T17:03:18Z</time></trkpt><trkpt lat="43.438663776090316" lon="3.1321574843560236"><ele>47.0</ele><time>2026-04-07T17:03:19Z</time></trkpt><trkpt lat="43.43856733404451" lon="3.131975474043045"><ele>47.0</ele><time>2026-04-07T17:03:20Z</time></trkpt><trkpt lat="43.43847004327854" lon="3.1317990955683483"><ele>47.0</ele><time>2026-04-07T17:03:21Z</time></trkpt><trkpt lat="43.43837513915411" lon="3.1316208136863217"><ele>47.0</ele><time>2026-04-07T17:03:22Z</time></trkpt><trkpt lat="43.438273848872896" lon="3.131439617692341"><ele>47.0</ele><time>2026-04-07T17:03:23Z</time></trkpt><trkpt lat="43.43817361916639" lon="3.131257282755801"><ele>47.0</ele><time>2026-04-07T17:03:24Z</time></trkpt><trkpt lat="43.438070998741395" lon="3.1310651281465174"><ele>47.0</ele><time>2026-04-07T17:03:25Z</time></trkpt><trkpt lat="43.437972132062306" lon="3.1308719614174514"><ele>47.0</ele><time>2026-04-07T17:03:26Z</time></trkpt><trkpt lat="43.43787175317051" lon="3.130680428883541"><ele>47.33333333333333</ele><time>2026-04-07T17:03:27Z</time></trkpt><trkpt lat="43.437768819794265" lon="3.130480920904181"><ele>47.666666666666664</ele><time>2026-04-07T17:03:28Z</time></trkpt><trkpt lat="43.437664792383806" lon="3.1302814641650305"><ele>48.0</ele><time>2026-04-07T17:03:29Z</time></trkpt><trkpt lat="43.43755899962666" lon="3.1300716808278186"><ele>47.666666666666664</ele><time>2026-04-07T17:03:30Z</time></trkpt><trkpt lat="43.437455470011486" lon="3.1298722364904314"><ele>47.33333333333333</ele><time>2026-04-07T17:03:31Z</time></trkpt><trkpt lat="43.4373514185967" lon="3.129679019322705"><ele>47.0</ele><time>2026-04-07T17:03:32Z</time></trkpt><trkpt lat="43.43724370744412" lon="3.12947356223581"><ele>47.0</ele><time>2026-04-07T17:03:33Z</time></trkpt><trkpt lat="43.437140912052655" lon="3.129270603835632"><ele>47.0</ele><time>2026-04-07T17:03:34Z</time></trkpt><trkpt lat="43.437036010567205" lon="3.1290636557687175"><ele>47.0</ele><time>2026-04-07T17:03:35Z</time></trkpt><trkpt lat="43.43694471541877" lon="3.1288445255891153"><ele>44.33333333333333</ele><time>2026-04-07T17:03:36Z</time></trkpt><trkpt lat="43.43687429638738" lon="3.128604471587295"><ele>41.666666666666664</ele><time>2026-04-07T17:03:37Z</time></trkpt><trkpt lat="43.4368142633379" lon="3.1283472424546392"><ele>39.0</ele><time>2026-04-07T17:03:38Z</time></trkpt><trkpt lat="43.43676576229966" lon="3.128093119193659"><ele>38.666666666666664</ele><time>2026-04-07T17:03:39Z</time></trkpt><trkpt lat="43.436720003848805" lon="3.127844459397154"><ele>38.33333333333333</ele><time>2026-04-07T17:03:40Z</time></trkpt><trkpt lat="43.436678308321014" lon="3.127610503302401"><ele>38.0</ele><time>2026-04-07T17:03:41Z</time></trkpt><trkpt lat="43.4366332739577" lon="3.127378999152769"><ele>38.0</ele><time>2026-04-07T17:03:42Z</time></trkpt><trkpt lat="43.436588512181636" lon="3.127153202742509"><ele>38.0</ele><time>2026-04-07T17:03:43Z</time></trkpt><trkpt lat="43.436537289594476" lon="3.1269373530665243"><ele>38.0</ele><time>2026-04-07T17:03:44Z</time></trkpt><trkpt lat="43.43649288875046" lon="3.1267119063485374"><ele>40.0</ele><time>2026-04-07T17:03:45Z</time></trkpt><trkpt lat="43.436451396095734" lon="3.1264840293216647"><ele>42.0</ele><time>2026-04-07T17:03:46Z</time></trkpt><trkpt lat="43.436419003682865" lon="3.126243503722882"><ele>44.0</ele><time>2026-04-07T17:03:47Z</time></trkpt><trkpt lat="43.436402273212124" lon="3.1259977431533743"><ele>44.0</ele><time>2026-04-07T17:03:48Z</time></trkpt><trkpt lat="43.43639269419705" lon="3.1257528214274073"><ele>44.0</ele><time>2026-04-07T17:03:48.999Z</time></trkpt><trkpt lat="43.43639005412662" lon="3.125507920451683"><ele>44.0</ele><time>2026-04-07T17:03:49.999Z</time></trkpt><trkpt lat="43.43638528526309" lon="3.1252718275937106"><ele>44.33333333333333</ele><time>2026-04-07T17:03:50.999Z</time></trkpt><trkpt lat="43.436375061894125" lon="3.125019133482891"><ele>44.666666666666664</ele><time>2026-04-07T17:03:51.999Z</time></trkpt><trkpt lat="43.43637181155648" lon="3.124772223187047"><ele>45.0</ele><time>2026-04-07T17:03:52.999Z</time></trkpt><trkpt lat="43.43636076236151" lon="3.1245319714230035"><ele>45.0</ele><time>2026-04-07T17:03:53.999Z</time></trkpt><trkpt lat="43.436342973812344" lon="3.124292339241661"><ele>45.0</ele><time>2026-04-07T17:03:54.999Z</time></trkpt><trkpt lat="43.436313652407165" lon="3.1240460176257616"><ele>45.0</ele><time>2026-04-07T17:03:55.999Z</time></trkpt><trkpt lat="43.436276905821565" lon="3.12379940908854"><ele>45.0</ele><time>2026-04-07T17:03:56.999Z</time></trkpt><trkpt lat="43.43624124167352" lon="3.123551852580211"><ele>45.0</ele><time>2026-04-07T17:03:57.999Z</time></trkpt><trkpt lat="43.436209242057146" lon="3.123311146487725"><ele>45.0</ele><time>2026-04-07T17:03:58.999Z</time></trkpt><trkpt lat="43.43617952119339" lon="3.123089629179602"><ele>45.666666666666664</ele><time>2026-04-07T17:03:59.999Z</time></trkpt><trkpt lat="43.43615550381084" lon="3.1228753204741193"><ele>46.33333333333333</ele><time>2026-04-07T17:04:00.999Z</time></trkpt><trkpt lat="43.43612764317501" lon="3.122668166573469"><ele>47.0</ele><time>2026-04-07T17:04:01.999Z</time></trkpt><trkpt lat="43.436101012191436" lon="3.1224670698100576"><ele>47.666666666666664</ele><time>2026-04-07T17:04:02.999Z</time></trkpt><trkpt lat="43.43607640519821" lon="3.122259491322451"><ele>48.33333333333333</ele><time>2026-04-07T17:04:03.999Z</time></trkpt><trkpt lat="43.43604855809867" lon="3.122048396394461"><ele>49.0</ele><time>2026-04-07T17:04:04.999Z</time></trkpt><trkpt lat="43.43602714901468" lon="3.1218364667565957"><ele>49.0</ele><time>2026-04-07T17:04:05.999Z</time></trkpt><trkpt lat="43.436005965794344" lon="3.1216179232449828"><ele>49.0</ele><time>2026-04-07T17:04:06.999Z</time></trkpt><trkpt lat="43.435992171601086" lon="3.1213963986725717"><ele>49.0</ele><time>2026-04-07T17:04:07.999Z</time></trkpt><trkpt lat="43.43598045241383" lon="3.1211712422006945"><ele>49.666666666666664</ele><time>2026-04-07T17:04:08.999Z</time></trkpt><trkpt lat="43.435967557461616" lon="3.1209328791346787"><ele>50.33333333333333</ele><time>2026-04-07T17:04:09.999Z</time></trkpt><trkpt lat="43.43595675062957" lon="3.1206956527694603"><ele>51.0</ele><time>2026-04-07T17:04:10.999Z</time></trkpt><trkpt lat="43.43595338139025" lon="3.120465120580224"><ele>52.33333333333333</ele><time>2026-04-07T17:04:11.999Z</time></trkpt><trkpt lat="43.4359506641109" lon="3.1202454066579715"><ele>53.666666666666664</ele><time>2026-04-07T17:04:12.999Z</time></trkpt><trkpt lat="43.43595607873576" lon="3.1200257678686856"><ele>55.0</ele><time>2026-04-07T17:04:13.999Z</time></trkpt><trkpt lat="43.43595628438797" lon="3.119809368444387"><ele>55.0</ele><time>2026-04-07T17:04:14.999Z</time></trkpt><trkpt lat="43.43595544111226" lon="3.119589307678736"><ele>55.0</ele><time>2026-04-07T17:04:15.999Z</time></trkpt><trkpt lat="43.435968380021045" lon="3.1193756687236114"><ele>55.0</ele><time>2026-04-07T17:04:16.999Z</time></trkpt><trkpt lat="43.43598120100693" lon="3.119157676299037"><ele>54.0</ele><time>2026-04-07T17:04:17.999Z</time></trkpt><trkpt lat="43.435995823500036" lon="3.118941454160933"><ele>53.0</ele><time>2026-04-07T17:04:18.999Z</time></trkpt><trkpt lat="43.43601027003172" lon="3.118721345449168"><ele>52.0</ele><time>2026-04-07T17:04:19.999Z</time></trkpt><trkpt lat="43.43603193589877" lon="3.1185058695975814"><ele>52.0</ele><time>2026-04-07T17:04:20.999Z</time></trkpt><trkpt lat="43.43604985171088" lon="3.118284674364091"><ele>52.0</ele><time>2026-04-07T17:04:21.999Z</time></trkpt><trkpt lat="43.43606883007776" lon="3.1180604492436688"><ele>52.0</ele><time>2026-04-07T17:04:22.999Z</time></trkpt><trkpt lat="43.436086196361536" lon="3.117844531359949"><ele>52.0</ele><time>2026-04-07T17:04:23.999Z</time></trkpt><trkpt lat="43.43610582825684" lon="3.117626702171916"><ele>52.0</ele><time>2026-04-07T17:04:24.999Z</time></trkpt><trkpt lat="43.43611917927287" lon="3.1174048664655394"><ele>52.0</ele><time>2026-04-07T17:04:25.999Z</time></trkpt><trkpt lat="43.43613384775462" lon="3.117180098799773"><ele>52.33333333333333</ele><time>2026-04-07T17:04:26.999Z</time></trkpt><trkpt lat="43.43615730229123" lon="3.116955928020071"><ele>52.66666666666667</ele><time>2026-04-07T17:04:27.999Z</time></trkpt><trkpt lat="43.436187557728076" lon="3.1167159255445873"><ele>53.0</ele><time>2026-04-07T17:04:28.999Z</time></trkpt><trkpt lat="43.43621994188003" lon="3.116473561473889"><ele>53.0</ele><time>2026-04-07T17:04:29.999Z</time></trkpt><trkpt lat="43.43625791918424" lon="3.116241077434217"><ele>53.0</ele><time>2026-04-07T17:04:30.999Z</time></trkpt><trkpt lat="43.436298537373375" lon="3.1160023466316"><ele>53.0</ele><time>2026-04-07T17:04:31.999Z</time></trkpt><trkpt lat="43.43633838573301" lon="3.1157636971560843"><ele>53.333333333333336</ele><time>2026-04-07T17:04:32.999Z</time></trkpt><trkpt lat="43.43639602487146" lon="3.115535825891199"><ele>53.66666666666667</ele><time>2026-04-07T17:04:33.998Z</time></trkpt><trkpt lat="43.4364213117218" lon="3.115310223927263"><ele>54.0</ele><time>2026-04-07T17:04:34.998Z</time></trkpt><trkpt lat="43.43645844655508" lon="3.115114674949019"><ele>54.0</ele><time>2026-04-07T17:04:35.998Z</time></trkpt><trkpt lat="43.43649150425631" lon="3.1149401590792998"><ele>54.00000000000001</ele><time>2026-04-07T17:04:36.998Z</time></trkpt><trkpt lat="43.436525167266026" lon="3.1148026367275925"><ele>54.00000000000001</ele><time>2026-04-07T17:04:37.998Z</time></trkpt><trkpt lat="43.43654287653302" lon="3.114692150997829"><ele>54.0</ele><time>2026-04-07T17:04:38.998Z</time></trkpt><trkpt lat="43.43656157950895" lon="3.1145756452146576"><ele>54.0</ele><time>2026-04-07T17:04:39.998Z</time></trkpt><trkpt lat="43.43658550808939" lon="3.1144484510734185"><ele>54.5</ele><time>2026-04-07T17:04:40.998Z</time></trkpt><trkpt lat="43.43661251829486" lon="3.1143101262257504"><ele>55.0</ele><time>2026-04-07T17:04:41.998Z</time></trkpt><trkpt lat="43.4366397910091" lon="3.1141578052973005"><ele>55.5</ele><time>2026-04-07T17:04:42.998Z</time></trkpt><trkpt lat="43.43666727735454" lon="3.1139987144935937"><ele>56.0</ele><time>2026-04-07T17:04:43.998Z</time></trkpt><trkpt lat="43.43668396146117" lon="3.1138318731696275"><ele>56.25</ele><time>2026-04-07T17:04:44.998Z</time></trkpt><trkpt lat="43.43669275701143" lon="3.113659126248096"><ele>56.5</ele><time>2026-04-07T17:04:45.998Z</time></trkpt><trkpt lat="43.43669529633956" lon="3.113480389462341"><ele>56.75</ele><time>2026-04-07T17:04:46.998Z</time></trkpt><trkpt lat="43.436680985144164" lon="3.113300580140022"><ele>57.0</ele><time>2026-04-07T17:04:47.998Z</time></trkpt><trkpt lat="43.436642679964336" lon="3.1131131950629753"><ele>57.75</ele><time>2026-04-07T17:04:48.998Z</time></trkpt><trkpt lat="43.436601787529256" lon="3.112936280826048"><ele>58.5</ele><time>2026-04-07T17:04:49.998Z</time></trkpt><trkpt lat="43.43655576685934" lon="3.1127563924308332"><ele>59.25</ele><time>2026-04-07T17:04:50.998Z</time></trkpt><trkpt lat="43.43651085338276" lon="3.1125751388798193"><ele>60.0</ele><time>2026-04-07T17:04:51.998Z</time></trkpt><trkpt lat="43.436463310568215" lon="3.11239110333974"><ele>60.5</ele><time>2026-04-07T17:04:52.998Z</time></trkpt><trkpt lat="43.43641846285441" lon="3.11220339442758"><ele>61.0</ele><time>2026-04-07T17:04:53.998Z</time></trkpt><trkpt lat="43.43637571039464" lon="3.112010372305454"><ele>61.5</ele><time>2026-04-07T17:04:54.998Z</time></trkpt><trkpt lat="43.436331865458556" lon="3.1118218635132084"><ele>62.0</ele><time>2026-04-07T17:04:55.998Z</time></trkpt><trkpt lat="43.436280703770535" lon="3.1116317867598946"><ele>60.25</ele><time>2026-04-07T17:04:56.998Z</time></trkpt><trkpt lat="43.43623072335589" lon="3.111445554255998"><ele>58.5</ele><time>2026-04-07T17:04:57.998Z</time></trkpt><trkpt lat="43.436187340532335" lon="3.1112693671090628"><ele>56.75</ele><time>2026-04-07T17:04:58.998Z</time></trkpt><trkpt lat="43.43613632793137" lon="3.111100166965988"><ele>55.0</ele><time>2026-04-07T17:04:59.998Z</time></trkpt><trkpt lat="43.436094337281894" lon="3.110927804272688"><ele>55.0</ele><time>2026-04-07T17:05:00.998Z</time></trkpt><trkpt lat="43.43605259430049" lon="3.1107589095027928"><ele>55.0</ele><time>2026-04-07T17:05:01.998Z</time></trkpt><trkpt lat="43.436010508419685" lon="3.110585387569811"><ele>55.0</ele><time>2026-04-07T17:05:02.998Z</time></trkpt><trkpt lat="43.43596769630282" lon="3.1104027631295055"><ele>55.0</ele><time>2026-04-07T17:05:03.998Z</time></trkpt><trkpt lat="43.43593230046979" lon="3.1102115564969903"><ele>55.666666666666664</ele><time>2026-04-07T17:05:04.998Z</time></trkpt><trkpt lat="43.43589933038659" lon="3.11001471256066"><ele>56.33333333333333</ele><time>2026-04-07T17:05:05.998Z</time></trkpt><trkpt lat="43.435866651654685" lon="3.1097884567482623"><ele>57.0</ele><time>2026-04-07T17:05:06.998Z</time></trkpt><trkpt lat="43.43583091581838" lon="3.109576278242544"><ele>57.0</ele><time>2026-04-07T17:05:07.998Z</time></trkpt><trkpt lat="43.43580284287124" lon="3.10937748699946"><ele>57.0</ele><time>2026-04-07T17:05:08.998Z</time></trkpt><trkpt lat="43.43576965993798" lon="3.109182671815219"><ele>57.0</ele><time>2026-04-07T17:05:09.998Z</time></trkpt><trkpt lat="43.43573611820845" lon="3.1089762538077474"><ele>57.0</ele><time>2026-04-07T17:05:10.998Z</time></trkpt><trkpt lat="43.43570849023159" lon="3.108779388116714"><ele>57.25</ele><time>2026-04-07T17:05:11.998Z</time></trkpt><trkpt lat="43.43568062112394" lon="3.108588430613834"><ele>57.5</ele><time>2026-04-07T17:05:12.998Z</time></trkpt><trkpt lat="43.43565709280165" lon="3.1083988150083526"><ele>57.75</ele><time>2026-04-07T17:05:13.998Z</time></trkpt><trkpt lat="43.43563166059058" lon="3.1082176575118643"><ele>58.0</ele><time>2026-04-07T17:05:14.998Z</time></trkpt><trkpt lat="43.435606280652074" lon="3.108018771329032"><ele>58.25</ele><time>2026-04-07T17:05:15.998Z</time></trkpt><trkpt lat="43.43558220306302" lon="3.107807316821883"><ele>58.5</ele><time>2026-04-07T17:05:16.998Z</time></trkpt><trkpt lat="43.43556091244126" lon="3.107596962628569"><ele>58.75</ele><time>2026-04-07T17:05:17.998Z</time></trkpt><trkpt lat="43.43554057723933" lon="3.107406722933521"><ele>59.0</ele><time>2026-04-07T17:05:19Z</time></trkpt><trkpt lat="43.43554096473808" lon="3.1072141878174757"><ele>59.0</ele><time>2026-04-07T17:05:20Z</time></trkpt><trkpt lat="43.43554489377988" lon="3.1070363496191864"><ele>59.0</ele><time>2026-04-07T17:05:21Z</time></trkpt><trkpt lat="43.435550540400314" lon="3.1068553688392178"><ele>59.0</ele><time>2026-04-07T17:05:22Z</time></trkpt><trkpt lat="43.43555587384868" lon="3.106667918944851"><ele>59.0</ele><time>2026-04-07T17:05:23Z</time></trkpt><trkpt lat="43.435560362527866" lon="3.106478343955964"><ele>58.5</ele><time>2026-04-07T17:05:24Z</time></trkpt><trkpt lat="43.43557264187466" lon="3.1062878950073456"><ele>58.0</ele><time>2026-04-07T17:05:25Z</time></trkpt><trkpt lat="43.43557652121605" lon="3.106112653335457"><ele>57.5</ele><time>2026-04-07T17:05:26Z</time></trkpt><trkpt lat="43.435584510192605" lon="3.1059313808341695"><ele>57.0</ele><time>2026-04-07T17:05:27Z</time></trkpt><trkpt lat="43.43559561352998" lon="3.105752016352621"><ele>56.25</ele><time>2026-04-07T17:05:28Z</time></trkpt><trkpt lat="43.43561210760957" lon="3.1055750603125882"><ele>55.5</ele><time>2026-04-07T17:05:29Z</time></trkpt><trkpt lat="43.435633189635894" lon="3.10539348734326"><ele>54.75</ele><time>2026-04-07T17:05:30Z</time></trkpt><trkpt lat="43.43566077636105" lon="3.105218668410453"><ele>54.0</ele><time>2026-04-07T17:05:31Z</time></trkpt><trkpt lat="43.43569319254342" lon="3.105046202976813"><ele>51.0</ele><time>2026-04-07T17:05:32Z</time></trkpt><trkpt lat="43.43573626591877" lon="3.1048771305114746"><ele>48.0</ele><time>2026-04-07T17:05:33Z</time></trkpt><trkpt lat="43.435779573427375" lon="3.104725988717451"><ele>45.0</ele><time>2026-04-07T17:05:34Z</time></trkpt><trkpt lat="43.43584260344592" lon="3.1045729523340007"><ele>42.0</ele><time>2026-04-07T17:05:35Z</time></trkpt><trkpt lat="43.43592197091286" lon="3.1044274441186888"><ele>42.0</ele><time>2026-04-07T17:05:36Z</time></trkpt><trkpt lat="43.436014198174206" lon="3.104288005948283"><ele>42.0</ele><time>2026-04-07T17:05:37Z</time></trkpt><trkpt lat="43.436106360298204" lon="3.104153341401368"><ele>42.0</ele><time>2026-04-07T17:05:38Z</time></trkpt><trkpt lat="43.43619553893037" lon="3.1040224553085327"><ele>42.0</ele><time>2026-04-07T17:05:39Z</time></trkpt><trkpt lat="43.436277405529395" lon="3.1038965917677976"><ele>42.400000000000006</ele><time>2026-04-07T17:05:40Z</time></trkpt><trkpt lat="43.43635983838035" lon="3.1037860029280693"><ele>42.800000000000004</ele><time>2026-04-07T17:05:41Z</time></trkpt><trkpt lat="43.436441989573495" lon="3.1036828224956405"><ele>43.2</ele><time>2026-04-07T17:05:42Z</time></trkpt><trkpt lat="43.43652959553066" lon="3.103600109021532"><ele>43.6</ele><time>2026-04-07T17:05:43Z</time></trkpt><trkpt lat="43.43661025120939" lon="3.1035263912293614"><ele>44.0</ele><time>2026-04-07T17:05:44Z</time></trkpt><trkpt lat="43.43668383797986" lon="3.1034489332579764"><ele>44.0</ele><time>2026-04-07T17:05:45Z</time></trkpt><trkpt lat="43.4367451252" lon="3.1033730942259123"><ele>44.0</ele><time>2026-04-07T17:05:46Z</time></trkpt><trkpt lat="43.43678345238147" lon="3.103276177219961"><ele>44.0</ele><time>2026-04-07T17:05:47Z</time></trkpt><trkpt lat="43.4368002097604" lon="3.1031653632749454"><ele>44.0</ele><time>2026-04-07T17:05:48Z</time></trkpt><trkpt lat="43.43680504830612" lon="3.1030366637842595"><ele>44.0</ele><time>2026-04-07T17:05:49Z</time></trkpt><trkpt lat="43.4368255858268" lon="3.1029168100636815"><ele>44.0</ele><time>2026-04-07T17:05:50Z</time></trkpt><trkpt lat="43.436829349739895" lon="3.1027943433991787"><ele>42.5</ele><time>2026-04-07T17:05:51Z</time></trkpt><trkpt lat="43.436816696972606" lon="3.1026689586608556"><ele>41.0</ele><time>2026-04-07T17:05:52Z</time></trkpt><trkpt lat="43.436821019863594" lon="3.102558853908108"><ele>39.5</ele><time>2026-04-07T17:05:53Z</time></trkpt><trkpt lat="43.43683129860395" lon="3.1024535001340605"><ele>38.0</ele><time>2026-04-07T17:05:54Z</time></trkpt><trkpt lat="43.43683653945186" lon="3.1023521367679656"><ele>36.5</ele><time>2026-04-07T17:05:54.999Z</time></trkpt><trkpt lat="43.43684109307903" lon="3.102251305074236"><ele>35.0</ele><time>2026-04-07T17:05:55.999Z</time></trkpt><trkpt lat="43.43684301156983" lon="3.102145256182311"><ele>35.0</ele><time>2026-04-07T17:05:56.999Z</time></trkpt><trkpt lat="43.43684908289997" lon="3.1020346613833922"><ele>35.0</ele><time>2026-04-07T17:05:57.999Z</time></trkpt><trkpt lat="43.436854260032014" lon="3.101923940152927"><ele>35.0</ele><time>2026-04-07T17:05:58.999Z</time></trkpt><trkpt lat="43.436855907785244" lon="3.1018151013366153"><ele>35.0</ele><time>2026-04-07T17:05:59.999Z</time></trkpt><trkpt lat="43.43685734520997" lon="3.1017010372903506"><ele>35.0</ele><time>2026-04-07T17:06:00.999Z</time></trkpt><trkpt lat="43.43686102922029" lon="3.101590473575729"><ele>35.0</ele><time>2026-04-07T17:06:01.999Z</time></trkpt><trkpt lat="43.436866740422836" lon="3.101473224790711"><ele>36.4</ele><time>2026-04-07T17:06:02.999Z</time></trkpt><trkpt lat="43.43687096847186" lon="3.1013550600069903"><ele>37.8</ele><time>2026-04-07T17:06:03.999Z</time></trkpt><trkpt lat="43.43687636221051" lon="3.1012357717219023"><ele>39.2</ele><time>2026-04-07T17:06:04.999Z</time></trkpt><trkpt lat="43.43688869650753" lon="3.101114467354506"><ele>40.6</ele><time>2026-04-07T17:06:05.999Z</time></trkpt><trkpt lat="43.43689328006257" lon="3.1009817307086727"><ele>42.0</ele><time>2026-04-07T17:06:06.999Z</time></trkpt><trkpt lat="43.4369020017353" lon="3.1008421950698013"><ele>43.0</ele><time>2026-04-07T17:06:07.999Z</time></trkpt><trkpt lat="43.436909925840496" lon="3.1006976931875054"><ele>44.0</ele><time>2026-04-07T17:06:08.999Z</time></trkpt><trkpt lat="43.436920808569475" lon="3.1005559687589876"><ele>45.0</ele><time>2026-04-07T17:06:09.999Z</time></trkpt><trkpt lat="43.43694771329735" lon="3.1004118383148063"><ele>46.0</ele><time>2026-04-07T17:06:10.999Z</time></trkpt><trkpt lat="43.43698070902567" lon="3.100267229075366"><ele>47.0</ele><time>2026-04-07T17:06:11.999Z</time></trkpt><trkpt lat="43.437022069498184" lon="3.1001227518163663"><ele>47.0</ele><time>2026-04-07T17:06:12.999Z</time></trkpt><trkpt lat="43.43708219552789" lon="3.099982662396824"><ele>47.0</ele><time>2026-04-07T17:06:13.999Z</time></trkpt><trkpt lat="43.437157216990634" lon="3.0998436152334095"><ele>47.0</ele><time>2026-04-07T17:06:14.999Z</time></trkpt><trkpt lat="43.4372327951324" lon="3.0997014248370105"><ele>47.0</ele><time>2026-04-07T17:06:15.999Z</time></trkpt><trkpt lat="43.43730485457764" lon="3.09954545520829"><ele>46.5</ele><time>2026-04-07T17:06:16.999Z</time></trkpt><trkpt lat="43.43736564490837" lon="3.0993865453141662"><ele>46.0</ele><time>2026-04-07T17:06:17.999Z</time></trkpt><trkpt lat="43.43741552218587" lon="3.0992050753887272"><ele>45.5</ele><time>2026-04-07T17:06:18.999Z</time></trkpt><trkpt lat="43.43745776889539" lon="3.0990193926659457"><ele>45.0</ele><time>2026-04-07T17:06:19.999Z</time></trkpt><trkpt lat="43.43749559242767" lon="3.098845831562986"><ele>45.0</ele><time>2026-04-07T17:06:20.999Z</time></trkpt><trkpt lat="43.4375363871745" lon="3.0986793016672083"><ele>45.0</ele><time>2026-04-07T17:06:21.999Z</time></trkpt><trkpt lat="43.437583606501164" lon="3.098523008232392"><ele>45.0</ele><time>2026-04-07T17:06:22.999Z</time></trkpt><trkpt lat="43.437620971118854" lon="3.0983438331757855"><ele>45.0</ele><time>2026-04-07T17:06:23.999Z</time></trkpt><trkpt lat="43.43765892644509" lon="3.0981617085961197"><ele>45.5</ele><time>2026-04-07T17:06:24.999Z</time></trkpt><trkpt lat="43.43769390332258" lon="3.0979775912257694"><ele>46.0</ele><time>2026-04-07T17:06:25.999Z</time></trkpt><trkpt lat="43.43772776757056" lon="3.0977890477051244"><ele>46.5</ele><time>2026-04-07T17:06:26.999Z</time></trkpt><trkpt lat="43.437760428921585" lon="3.0976043673972895"><ele>47.0</ele><time>2026-04-07T17:06:27.999Z</time></trkpt><trkpt lat="43.437748708263875" lon="3.0974124761063293"><ele>47.0</ele><time>2026-04-07T17:06:28.999Z</time></trkpt><trkpt lat="43.43775127863901" lon="3.0972159788066715"><ele>47.0</ele><time>2026-04-07T17:06:29.999Z</time></trkpt><trkpt lat="43.43775439520351" lon="3.0970168877154696"><ele>47.0</ele><time>2026-04-07T17:06:30.999Z</time></trkpt><trkpt lat="43.43775742016641" lon="3.0968202453610516"><ele>47.0</ele><time>2026-04-07T17:06:31.999Z</time></trkpt><trkpt lat="43.43775622355591" lon="3.096623932246871"><ele>47.25</ele><time>2026-04-07T17:06:32.999Z</time></trkpt><trkpt lat="43.43775540992432" lon="3.0964149168708808"><ele>47.5</ele><time>2026-04-07T17:06:33.999Z</time></trkpt><trkpt lat="43.43775298725673" lon="3.096233624130794"><ele>47.75</ele><time>2026-04-07T17:06:34.999Z</time></trkpt><trkpt lat="43.437755827980546" lon="3.096020837049176"><ele>48.0</ele><time>2026-04-07T17:06:35.999Z</time></trkpt><trkpt lat="43.4377560335995" lon="3.095818077004252"><ele>48.66666666666667</ele><time>2026-04-07T17:06:36.999Z</time></trkpt><trkpt lat="43.43775626419678" lon="3.095604810211816"><ele>49.333333333333336</ele><time>2026-04-07T17:06:37.999Z</time></trkpt><trkpt lat="43.43775359967042" lon="3.095396243689468"><ele>50.0</ele><time>2026-04-07T17:06:38.999Z</time></trkpt><trkpt lat="43.4377535023132" lon="3.095188055585592"><ele>50.0</ele><time>2026-04-07T17:06:39.998Z</time></trkpt><trkpt lat="43.4377525162706" lon="3.094976016740132"><ele>50.0</ele><time>2026-04-07T17:06:40.998Z</time></trkpt><trkpt lat="43.437754096872645" lon="3.0947617279307624"><ele>50.0</ele><time>2026-04-07T17:06:41.998Z</time></trkpt><trkpt lat="43.437752536031184" lon="3.09454961199069"><ele>50.66666666666667</ele><time>2026-04-07T17:06:42.998Z</time></trkpt><trkpt lat="43.43775287588024" lon="3.0943404006756072"><ele>51.33333333333333</ele><time>2026-04-07T17:06:43.998Z</time></trkpt><trkpt lat="43.43774404791674" lon="3.09412796198547"><ele>52.0</ele><time>2026-04-07T17:06:44.998Z</time></trkpt><trkpt lat="43.437739972416885" lon="3.0939213288273795"><ele>52.0</ele><time>2026-04-07T17:06:45.998Z</time></trkpt><trkpt lat="43.43772065310032" lon="3.0937005918706904"><ele>52.0</ele><time>2026-04-07T17:06:46.998Z</time></trkpt><trkpt lat="43.43769587334532" lon="3.093474280904573"><ele>52.0</ele><time>2026-04-07T17:06:47.998Z</time></trkpt><trkpt lat="43.43766581746191" lon="3.0932510947459004"><ele>52.0</ele><time>2026-04-07T17:06:48.998Z</time></trkpt><trkpt lat="43.437638019403366" lon="3.0930066232909144"><ele>52.0</ele><time>2026-04-07T17:06:49.998Z</time></trkpt><trkpt lat="43.43761276995498" lon="3.092769624013639"><ele>52.0</ele><time>2026-04-07T17:06:50.998Z</time></trkpt><trkpt lat="43.43759040384865" lon="3.09253528356037"><ele>48.666666666666664</ele><time>2026-04-07T17:06:51.998Z</time></trkpt><trkpt lat="43.43756861192687" lon="3.0923048040042045"><ele>45.33333333333333</ele><time>2026-04-07T17:06:52.998Z</time></trkpt><trkpt lat="43.43754395095196" lon="3.092088570170507"><ele>42.0</ele><time>2026-04-07T17:06:53.998Z</time></trkpt><trkpt lat="43.437511251303654" lon="3.0918671016488237"><ele>42.0</ele><time>2026-04-07T17:06:54.998Z</time></trkpt><trkpt lat="43.43742378319475" lon="3.091662957132777"><ele>42.0</ele><time>2026-04-07T17:06:55.998Z</time></trkpt><trkpt lat="43.43730010884225" lon="3.091471151839841"><ele>42.0</ele><time>2026-04-07T17:06:56.998Z</time></trkpt><trkpt lat="43.437180563273834" lon="3.091300052535913"><ele>43.0</ele><time>2026-04-07T17:06:57.998Z</time></trkpt><trkpt lat="43.43706223279161" lon="3.091117371511349"><ele>44.0</ele><time>2026-04-07T17:06:58.998Z</time></trkpt><trkpt lat="43.43696222881067" lon="3.0909309776994665"><ele>45.0</ele><time>2026-04-07T17:06:59.998Z</time></trkpt><trkpt lat="43.436873309975155" lon="3.0907332320016585"><ele>45.0</ele><time>2026-04-07T17:07:00.998Z</time></trkpt><trkpt lat="43.43679576180597" lon="3.090537294828247"><ele>45.0</ele><time>2026-04-07T17:07:01.998Z</time></trkpt><trkpt lat="43.43671390584637" lon="3.0903516616598474"><ele>45.0</ele><time>2026-04-07T17:07:02.998Z</time></trkpt><trkpt lat="43.4366327031715" lon="3.090162905396165"><ele>45.0</ele><time>2026-04-07T17:07:03.998Z</time></trkpt><trkpt lat="43.43655967395738" lon="3.0899580093612298"><ele>45.0</ele><time>2026-04-07T17:07:04.998Z</time></trkpt><trkpt lat="43.436505775428515" lon="3.0897396161044646"><ele>45.0</ele><time>2026-04-07T17:07:05.998Z</time></trkpt><trkpt lat="43.43648333918435" lon="3.0895147418441136"><ele>44.75</ele><time>2026-04-07T17:07:06.998Z</time></trkpt><trkpt lat="43.4364649178399" lon="3.0893087094373715"><ele>44.5</ele><time>2026-04-07T17:07:07.998Z</time></trkpt><trkpt lat="43.43644856343523" lon="3.089116310659444"><ele>44.25</ele><time>2026-04-07T17:07:08.998Z</time></trkpt><trkpt lat="43.436423080097356" lon="3.0889163029733266"><ele>44.0</ele><time>2026-04-07T17:07:09.998Z</time></trkpt><trkpt lat="43.43639794587605" lon="3.0887126066453177"><ele>44.0</ele><time>2026-04-07T17:07:10.998Z</time></trkpt><trkpt lat="43.43637163060597" lon="3.08851665358708"><ele>44.0</ele><time>2026-04-07T17:07:11.998Z</time></trkpt><trkpt lat="43.43635036098678" lon="3.0883324229969262"><ele>44.0</ele><time>2026-04-07T17:07:12.998Z</time></trkpt><trkpt lat="43.43632936661319" lon="3.0881501674555265"><ele>44.0</ele><time>2026-04-07T17:07:13.998Z</time></trkpt><trkpt lat="43.43631091012036" lon="3.087969145621285"><ele>44.5</ele><time>2026-04-07T17:07:14.998Z</time></trkpt><trkpt lat="43.436293953226645" lon="3.087785971683965"><ele>45.0</ele><time>2026-04-07T17:07:15.998Z</time></trkpt><trkpt lat="43.4362868555494" lon="3.087600757186856"><ele>45.5</ele><time>2026-04-07T17:07:16.998Z</time></trkpt><trkpt lat="43.436292115688744" lon="3.0874176147459687"><ele>46.0</ele><time>2026-04-07T17:07:17.998Z</time></trkpt><trkpt lat="43.436312293217284" lon="3.087243405047896"><ele>46.0</ele><time>2026-04-07T17:07:18.998Z</time></trkpt><trkpt lat="43.43634871205571" lon="3.087050572339837"><ele>46.0</ele><time>2026-04-07T17:07:19.998Z</time></trkpt><trkpt lat="43.436403255398254" lon="3.0868572348702537"><ele>46.0</ele><time>2026-04-07T17:07:20.998Z</time></trkpt><trkpt lat="43.43646710280461" lon="3.086673651791373"><ele>46.0</ele><time>2026-04-07T17:07:21.998Z</time></trkpt><trkpt lat="43.43652879921292" lon="3.0864877552278087"><ele>47.0</ele><time>2026-04-07T17:07:22.998Z</time></trkpt><trkpt lat="43.43658522427379" lon="3.086301949523631"><ele>48.0</ele><time>2026-04-07T17:07:23.998Z</time></trkpt><trkpt lat="43.43663905653485" lon="3.086117570021756"><ele>49.0</ele><time>2026-04-07T17:07:25Z</time></trkpt><trkpt lat="43.436686426941996" lon="3.0859362620600135"><ele>50.0</ele><time>2026-04-07T17:07:26Z</time></trkpt><trkpt lat="43.43673490977832" lon="3.0857600185548315"><ele>50.5</ele><time>2026-04-07T17:07:27Z</time></trkpt><trkpt lat="43.436781230532915" lon="3.085592665153266"><ele>51.0</ele><time>2026-04-07T17:07:28Z</time></trkpt><trkpt lat="43.43682858061161" lon="3.085432385652449"><ele>51.5</ele><time>2026-04-07T17:07:29Z</time></trkpt><trkpt lat="43.436871443009935" lon="3.085257742817231"><ele>52.0</ele><time>2026-04-07T17:07:30Z</time></trkpt><trkpt lat="43.436910054284404" lon="3.085086803813057"><ele>51.5</ele><time>2026-04-07T17:07:31Z</time></trkpt><trkpt lat="43.43694314130861" lon="3.0849084640700024"><ele>51.0</ele><time>2026-04-07T17:07:32Z</time></trkpt><trkpt lat="43.43697483988658" lon="3.0847302503240868"><ele>50.5</ele><time>2026-04-07T17:07:33Z</time></trkpt><trkpt lat="43.43700606280693" lon="3.084548066092033"><ele>50.0</ele><time>2026-04-07T17:07:34Z</time></trkpt><trkpt lat="43.43703575703112" lon="3.084359720062464"><ele>50.0</ele><time>2026-04-07T17:07:35Z</time></trkpt><trkpt lat="43.43705996984787" lon="3.0841535112683944"><ele>50.0</ele><time>2026-04-07T17:07:36Z</time></trkpt><trkpt lat="43.43707859968736" lon="3.0839347630076794"><ele>50.0</ele><time>2026-04-07T17:07:37Z</time></trkpt><trkpt lat="43.43708787822989" lon="3.083740518529744"><ele>50.5</ele><time>2026-04-07T17:07:38Z</time></trkpt><trkpt lat="43.437095581546444" lon="3.0835399626676696"><ele>51.0</ele><time>2026-04-07T17:07:39Z</time></trkpt><trkpt lat="43.437093507169" lon="3.083334161063321"><ele>51.5</ele><time>2026-04-07T17:07:40Z</time></trkpt><trkpt lat="43.4370928641511" lon="3.0831394667215806"><ele>52.0</ele><time>2026-04-07T17:07:41Z</time></trkpt><trkpt lat="43.43709023564219" lon="3.0829365571407874"><ele>52.75</ele><time>2026-04-07T17:07:42Z</time></trkpt><trkpt lat="43.43708818196783" lon="3.0827345329467004"><ele>53.5</ele><time>2026-04-07T17:07:43Z</time></trkpt><trkpt lat="43.437086644830664" lon="3.0825347107897976"><ele>54.25</ele><time>2026-04-07T17:07:44Z</time></trkpt><trkpt lat="43.43708849708201" lon="3.082339026029415"><ele>55.0</ele><time>2026-04-07T17:07:45Z</time></trkpt><trkpt lat="43.437090923333734" lon="3.082138977336652"><ele>55.5</ele><time>2026-04-07T17:07:46Z</time></trkpt><trkpt lat="43.437091402011816" lon="3.081940659356383"><ele>56.0</ele><time>2026-04-07T17:07:47Z</time></trkpt><trkpt lat="43.437096345227104" lon="3.0817487000061825"><ele>56.5</ele><time>2026-04-07T17:07:48Z</time></trkpt><trkpt lat="43.43710481050226" lon="3.0815495519753147"><ele>57.0</ele><time>2026-04-07T17:07:49Z</time></trkpt><trkpt lat="43.437119117155966" lon="3.081346652615286"><ele>57.33333333333333</ele><time>2026-04-07T17:07:50Z</time></trkpt><trkpt lat="43.43713076338982" lon="3.0811398889684694"><ele>57.666666666666664</ele><time>2026-04-07T17:07:51Z</time></trkpt><trkpt lat="43.43714403005119" lon="3.080926436591338"><ele>58.0</ele><time>2026-04-07T17:07:52Z</time></trkpt><trkpt lat="43.43716075127991" lon="3.080709865794038"><ele>55.33333333333333</ele><time>2026-04-07T17:07:53Z</time></trkpt><trkpt lat="43.43718004285709" lon="3.080495700358888"><ele>52.66666666666667</ele><time>2026-04-07T17:07:54Z</time></trkpt><trkpt lat="43.43720244592925" lon="3.0802688360777855"><ele>50.0</ele><time>2026-04-07T17:07:55Z</time></trkpt><trkpt lat="43.43722863108426" lon="3.0800427211607926"><ele>50.66666666666667</ele><time>2026-04-07T17:07:56Z</time></trkpt><trkpt lat="43.437253484090675" lon="3.0798120007142518"><ele>51.33333333333333</ele><time>2026-04-07T17:07:57Z</time></trkpt><trkpt lat="43.437279314045206" lon="3.0795827163734235"><ele>52.0</ele><time>2026-04-07T17:07:58Z</time></trkpt><trkpt lat="43.43730685409917" lon="3.079347928984192"><ele>52.0</ele><time>2026-04-07T17:07:59Z</time></trkpt><trkpt lat="43.43734199022061" lon="3.0791118566475477"><ele>52.0</ele><time>2026-04-07T17:07:59.999Z</time></trkpt><trkpt lat="43.43738810317223" lon="3.078877311582268"><ele>52.0</ele><time>2026-04-07T17:08:00.999Z</time></trkpt><trkpt lat="43.43743847597185" lon="3.078638523243345"><ele>54.0</ele><time>2026-04-07T17:08:01.999Z</time></trkpt><trkpt lat="43.437489364734716" lon="3.0783931281891874"><ele>56.0</ele><time>2026-04-07T17:08:02.999Z</time></trkpt><trkpt lat="43.43754163960653" lon="3.078140579989268"><ele>58.0</ele><time>2026-04-07T17:08:03.999Z</time></trkpt><trkpt lat="43.43759159821357" lon="3.077903356259801"><ele>59.33333333333333</ele><time>2026-04-07T17:08:04.999Z</time></trkpt><trkpt lat="43.437639209142645" lon="3.0776808841834256"><ele>60.66666666666667</ele><time>2026-04-07T17:08:05.999Z</time></trkpt><trkpt lat="43.43768612132041" lon="3.0774613945268148"><ele>62.0</ele><time>2026-04-07T17:08:06.999Z</time></trkpt><trkpt lat="43.437749712510325" lon="3.077248650781168"><ele>63.66666666666667</ele><time>2026-04-07T17:08:07.999Z</time></trkpt><trkpt lat="43.4377946759078" lon="3.0770336818914705"><ele>65.33333333333333</ele><time>2026-04-07T17:08:08.999Z</time></trkpt><trkpt lat="43.43783623615523" lon="3.0768242902613827"><ele>67.0</ele><time>2026-04-07T17:08:09.999Z</time></trkpt><trkpt lat="43.43786160773022" lon="3.0766032095041025"><ele>67.33333333333333</ele><time>2026-04-07T17:08:10.999Z</time></trkpt><trkpt lat="43.43790268921752" lon="3.0763851989949145"><ele>67.66666666666667</ele><time>2026-04-07T17:08:11.999Z</time></trkpt><trkpt lat="43.437933288355744" lon="3.0761581917823526"><ele>68.0</ele><time>2026-04-07T17:08:12.999Z</time></trkpt><trkpt lat="43.437962098818936" lon="3.0759300298167123"><ele>63.333333333333336</ele><time>2026-04-07T17:08:13.999Z</time></trkpt><trkpt lat="43.43798963902132" lon="3.0757032938338"><ele>58.66666666666667</ele><time>2026-04-07T17:08:14.999Z</time></trkpt><trkpt lat="43.438013432954435" lon="3.075476885791897"><ele>54.0</ele><time>2026-04-07T17:08:15.999Z</time></trkpt><trkpt lat="43.43802995149055" lon="3.075250670373156"><ele>54.0</ele><time>2026-04-07T17:08:16.999Z</time></trkpt><trkpt lat="43.43804342834078" lon="3.07503410138572"><ele>54.0</ele><time>2026-04-07T17:08:17.999Z</time></trkpt><trkpt lat="43.43804935524453" lon="3.074834916067803"><ele>54.0</ele><time>2026-04-07T17:08:18.999Z</time></trkpt><trkpt lat="43.43804463782043" lon="3.07465168223057"><ele>54.0</ele><time>2026-04-07T17:08:19.999Z</time></trkpt><trkpt lat="43.438024022519116" lon="3.07448456142404"><ele>53.800000000000004</ele><time>2026-04-07T17:08:20.999Z</time></trkpt><trkpt lat="43.43797558004828" lon="3.0743330605138746"><ele>53.60000000000001</ele><time>2026-04-07T17:08:21.999Z</time></trkpt><trkpt lat="43.437903597597945" lon="3.074228165929546"><ele>53.4</ele><time>2026-04-07T17:08:22.999Z</time></trkpt><trkpt lat="43.437843766761" lon="3.0741717545952554"><ele>53.2</ele><time>2026-04-07T17:08:23.999Z</time></trkpt><trkpt lat="43.43777934664953" lon="3.0741600359197254"><ele>53.0</ele><time>2026-04-07T17:08:25.999Z</time></trkpt><trkpt lat="43.43771532572944" lon="3.0743316345565916"><ele>55.833333333333336</ele><time>2026-04-07T17:08:46.998Z</time></trkpt><trkpt lat="43.43772913513542" lon="3.074423620524659"><ele>58.66666666666667</ele><time>2026-04-07T17:08:47.998Z</time></trkpt><trkpt lat="43.43775555100774" lon="3.07454047766158"><ele>61.5</ele><time>2026-04-07T17:14:05Z</time></trkpt><trkpt lat="43.43775277127979" lon="3.074658374282991"><ele>64.33333333333333</ele><time>2026-04-07T17:14:06Z</time></trkpt><trkpt lat="43.43776404141503" lon="3.074794363887108"><ele>67.16666666666666</ele><time>2026-04-07T17:14:07Z</time></trkpt><trkpt lat="43.437774098193046" lon="3.074928556778842"><ele>70.0</ele><time>2026-04-07T17:14:08Z</time></trkpt><trkpt lat="43.437776391425004" lon="3.0750608547846365"><ele>70.2</ele><time>2026-04-07T17:14:09Z</time></trkpt><trkpt lat="43.437765818268076" lon="3.075201634901181"><ele>70.4</ele><time>2026-04-07T17:14:10Z</time></trkpt><trkpt lat="43.43775352362263" lon="3.0753450413000976"><ele>70.6</ele><time>2026-04-07T17:14:11Z</time></trkpt><trkpt lat="43.43772708098069" lon="3.0754570915825656"><ele>70.8</ele><time>2026-04-07T17:14:12Z</time></trkpt><trkpt lat="43.43769925412192" lon="3.0756068310295372"><ele>71.0</ele><time>2026-04-07T17:14:13Z</time></trkpt><trkpt lat="43.437657031106966" lon="3.0757510623216886"><ele>70.25</ele><time>2026-04-07T17:14:14Z</time></trkpt><trkpt lat="43.43760541762334" lon="3.07588728601179"><ele>69.5</ele><time>2026-04-07T17:14:15Z</time></trkpt><trkpt lat="43.43754583996579" lon="3.0760208988209787"><ele>68.75</ele><time>2026-04-07T17:14:16Z</time></trkpt><trkpt lat="43.43747993688916" lon="3.0761505956264714"><ele>68.0</ele><time>2026-04-07T17:14:16.999Z</time></trkpt><trkpt lat="43.43740829720735" lon="3.076273894694296"><ele>68.0</ele><time>2026-04-07T17:14:17.999Z</time></trkpt><trkpt lat="43.4373427063726" lon="3.0764056810251903"><ele>68.0</ele><time>2026-04-07T17:14:18.999Z</time></trkpt><trkpt lat="43.43726889427139" lon="3.0765326529714625"><ele>68.0</ele><time>2026-04-07T17:14:19.999Z</time></trkpt><trkpt lat="43.43718106922987" lon="3.076670898815138"><ele>68.0</ele><time>2026-04-07T17:14:20.999Z</time></trkpt><trkpt lat="43.43711628232742" lon="3.0767978986007365"><ele>71.0</ele><time>2026-04-07T17:14:21.999Z</time></trkpt><trkpt lat="43.437049056906766" lon="3.076931205287622"><ele>74.0</ele><time>2026-04-07T17:14:22.999Z</time></trkpt><trkpt lat="43.436980301761096" lon="3.077071250352262"><ele>77.0</ele><time>2026-04-07T17:14:23.999Z</time></trkpt><trkpt lat="43.43690903271248" lon="3.0772097308920787"><ele>80.0</ele><time>2026-04-07T17:14:24.999Z</time></trkpt><trkpt lat="43.43684268836809" lon="3.0773499954575323"><ele>79.5</ele><time>2026-04-07T17:14:25.999Z</time></trkpt><trkpt lat="43.43677340502034" lon="3.0774877492032315"><ele>79.0</ele><time>2026-04-07T17:14:26.999Z</time></trkpt><trkpt lat="43.43669354967492" lon="3.0776133141291027"><ele>78.5</ele><time>2026-04-07T17:14:27.999Z</time></trkpt><trkpt lat="43.436620829615286" lon="3.077750208516066"><ele>78.0</ele><time>2026-04-07T17:14:28.999Z</time></trkpt><trkpt lat="43.4365499366073" lon="3.0778822293331505"><ele>78.0</ele><time>2026-04-07T17:14:29.999Z</time></trkpt><trkpt lat="43.43647558639717" lon="3.0780152728479337"><ele>78.0</ele><time>2026-04-07T17:14:30.999Z</time></trkpt><trkpt lat="43.43640680868764" lon="3.078151064465103"><ele>78.0</ele><time>2026-04-07T17:14:31.999Z</time></trkpt><trkpt lat="43.436336660564066" lon="3.078283604820462"><ele>78.0</ele><time>2026-04-07T17:14:32.999Z</time></trkpt><trkpt lat="43.43626404574193" lon="3.0784243673408596"><ele>81.25</ele><time>2026-04-07T17:14:33.999Z</time></trkpt><trkpt lat="43.436205072040146" lon="3.0785569903435865"><ele>84.5</ele><time>2026-04-07T17:14:34.999Z</time></trkpt><trkpt lat="43.43612961607621" lon="3.0787012158917966"><ele>87.75</ele><time>2026-04-07T17:14:35.999Z</time></trkpt><trkpt lat="43.4360557661593" lon="3.0788192857995984"><ele>91.0</ele><time>2026-04-07T17:14:36.999Z</time></trkpt><trkpt lat="43.435978489998845" lon="3.0789496484654895"><ele>91.0</ele><time>2026-04-07T17:14:37.999Z</time></trkpt><trkpt lat="43.435904981743704" lon="3.0790784377705993"><ele>91.0</ele><time>2026-04-07T17:14:38.999Z</time></trkpt><trkpt lat="43.43582676292904" lon="3.0792033540612915"><ele>91.0</ele><time>2026-04-07T17:14:39.999Z</time></trkpt><trkpt lat="43.43573735893752" lon="3.0793241237108298"><ele>91.0</ele><time>2026-04-07T17:14:40.999Z</time></trkpt><trkpt lat="43.435645725212474" lon="3.079431398356457"><ele>89.5</ele><time>2026-04-07T17:14:41.999Z</time></trkpt><trkpt lat="43.43553690018597" lon="3.07953425590376"><ele>88.0</ele><time>2026-04-07T17:14:42.999Z</time></trkpt><trkpt lat="43.43543306814979" lon="3.0796011121979094"><ele>86.5</ele><time>2026-04-07T17:14:43.999Z</time></trkpt><trkpt lat="43.43531280821509" lon="3.0796661949597675"><ele>85.0</ele><time>2026-04-07T17:14:44.999Z</time></trkpt><trkpt lat="43.435183860428324" lon="3.0797120876645345"><ele>89.75</ele><time>2026-04-07T17:14:45.999Z</time></trkpt><trkpt lat="43.435061014913764" lon="3.0797454949073386"><ele>94.5</ele><time>2026-04-07T17:14:46.999Z</time></trkpt><trkpt lat="43.43494370574103" lon="3.0797478461291554"><ele>99.25</ele><time>2026-04-07T17:14:47.999Z</time></trkpt><trkpt lat="43.43482312795136" lon="3.0797318969203866"><ele>104.0</ele><time>2026-04-07T17:14:48.999Z</time></trkpt><trkpt lat="43.43470375514311" lon="3.0797116427688596"><ele>107.25</ele><time>2026-04-07T17:14:49.999Z</time></trkpt><trkpt lat="43.43458885540199" lon="3.0797065610211067"><ele>110.5</ele><time>2026-04-07T17:14:50.999Z</time></trkpt><trkpt lat="43.434474072927" lon="3.0796969581852007"><ele>113.75</ele><time>2026-04-07T17:14:51.999Z</time></trkpt><trkpt lat="43.43435634428211" lon="3.079696274082463"><ele>117.0</ele><time>2026-04-07T17:14:52.999Z</time></trkpt><trkpt lat="43.434238739502106" lon="3.0796979948284666"><ele>117.0</ele><time>2026-04-07T17:14:53.999Z</time></trkpt><trkpt lat="43.4341215636598" lon="3.079705342489672"><ele>117.0</ele><time>2026-04-07T17:14:54.999Z</time></trkpt><trkpt lat="43.434002913896336" lon="3.079722070720143"><ele>117.0</ele><time>2026-04-07T17:14:55.999Z</time></trkpt><trkpt lat="43.43388938455255" lon="3.079753661747176"><ele>117.0</ele><time>2026-04-07T17:14:56.999Z</time></trkpt><trkpt lat="43.43377411150852" lon="3.0797920057002286"><ele>117.0</ele><time>2026-04-07T17:14:57.999Z</time></trkpt><trkpt lat="43.433654034725244" lon="3.0798500349777123"><ele>117.0</ele><time>2026-04-07T17:14:58.999Z</time></trkpt><trkpt lat="43.433549029631735" lon="3.07993667358289"><ele>117.0</ele><time>2026-04-07T17:14:59.999Z</time></trkpt><trkpt lat="43.433443565080225" lon="3.080021624235677"><ele>117.0</ele><time>2026-04-07T17:15:00.999Z</time></trkpt><trkpt lat="43.433341564906144" lon="3.080114905908223"><ele>114.25</ele><time>2026-04-07T17:15:01.999Z</time></trkpt><trkpt lat="43.4332423306685" lon="3.080227266324038"><ele>111.5</ele><time>2026-04-07T17:15:02.998Z</time></trkpt><trkpt lat="43.433159910927955" lon="3.0803556319452046"><ele>108.75</ele><time>2026-04-07T17:15:03.998Z</time></trkpt><trkpt lat="43.43308070283707" lon="3.0804944400439247"><ele>106.0</ele><time>2026-04-07T17:15:04.998Z</time></trkpt><trkpt lat="43.43301170613488" lon="3.080635322331316"><ele>108.75</ele><time>2026-04-07T17:15:05.998Z</time></trkpt><trkpt lat="43.432943075214574" lon="3.0807868037582344"><ele>111.5</ele><time>2026-04-07T17:15:06.998Z</time></trkpt><trkpt lat="43.43289391544043" lon="3.0809585542691047"><ele>114.25</ele><time>2026-04-07T17:15:07.998Z</time></trkpt><trkpt lat="43.43285046488392" lon="3.0811362568337555"><ele>117.0</ele><time>2026-04-07T17:15:08.998Z</time></trkpt><trkpt lat="43.43281055452247" lon="3.0813149944139333"><ele>117.0</ele><time>2026-04-07T17:15:09.998Z</time></trkpt><trkpt lat="43.43275996608923" lon="3.081494056453433"><ele>117.0</ele><time>2026-04-07T17:15:10.998Z</time></trkpt><trkpt lat="43.432715239419565" lon="3.0816646982757177"><ele>117.0</ele><time>2026-04-07T17:15:11.998Z</time></trkpt><trkpt lat="43.432670170097644" lon="3.08183988154668"><ele>117.0</ele><time>2026-04-07T17:15:12.998Z</time></trkpt><trkpt lat="43.43261924584716" lon="3.082015028581199"><ele>116.75</ele><time>2026-04-07T17:15:13.998Z</time></trkpt><trkpt lat="43.432560402651575" lon="3.0821802670919274"><ele>116.5</ele><time>2026-04-07T17:15:14.998Z</time></trkpt><trkpt lat="43.43248446678939" lon="3.0823475799238045"><ele>116.25</ele><time>2026-04-07T17:15:15.998Z</time></trkpt><trkpt lat="43.43240183714061" lon="3.0825019363505226"><ele>116.0</ele><time>2026-04-07T17:15:16.998Z</time></trkpt><trkpt lat="43.432310803483475" lon="3.082645998813879"><ele>114.5</ele><time>2026-04-07T17:15:17.998Z</time></trkpt><trkpt lat="43.43220919777547" lon="3.0827907739230875"><ele>113.0</ele><time>2026-04-07T17:15:18.998Z</time></trkpt><trkpt lat="43.432099041349225" lon="3.0829142096207676"><ele>111.5</ele><time>2026-04-07T17:15:19.998Z</time></trkpt><trkpt lat="43.43197592454896" lon="3.082993305477867"><ele>110.0</ele><time>2026-04-07T17:15:20.998Z</time></trkpt><trkpt lat="43.431850372279044" lon="3.083071705351808"><ele>116.0</ele><time>2026-04-07T17:15:21.998Z</time></trkpt><trkpt lat="43.43170783097824" lon="3.0831547994455213"><ele>122.0</ele><time>2026-04-07T17:15:22.998Z</time></trkpt><trkpt lat="43.431560990547325" lon="3.0832023762577268"><ele>128.0</ele><time>2026-04-07T17:15:23.998Z</time></trkpt><trkpt lat="43.431412382429706" lon="3.0832300588342565"><ele>126.0</ele><time>2026-04-07T17:15:24.998Z</time></trkpt><trkpt lat="43.431271859568284" lon="3.0832707409805025"><ele>124.0</ele><time>2026-04-07T17:15:25.998Z</time></trkpt><trkpt lat="43.43111751718665" lon="3.0833220150984877"><ele>122.0</ele><time>2026-04-07T17:15:26.998Z</time></trkpt><trkpt lat="43.43096076678491" lon="3.0833638642305043"><ele>122.0</ele><time>2026-04-07T17:15:27.998Z</time></trkpt><trkpt lat="43.430811855583244" lon="3.0834081346472706"><ele>122.0</ele><time>2026-04-07T17:15:28.998Z</time></trkpt><trkpt lat="43.43065920980665" lon="3.083444239238416"><ele>122.0</ele><time>2026-04-07T17:15:29.998Z</time></trkpt><trkpt lat="43.43050434451335" lon="3.083470542166684"><ele>120.0</ele><time>2026-04-07T17:15:30.998Z</time></trkpt><trkpt lat="43.4303439519447" lon="3.0834750057215556"><ele>118.0</ele><time>2026-04-07T17:15:31.998Z</time></trkpt><trkpt lat="43.43020450164904" lon="3.083443670780439"><ele>116.0</ele><time>2026-04-07T17:15:32.998Z</time></trkpt><trkpt lat="43.4300351742845" lon="3.083401059124488"><ele>116.0</ele><time>2026-04-07T17:15:33.998Z</time></trkpt><trkpt lat="43.42985675639897" lon="3.0833010686470126"><ele>116.0</ele><time>2026-04-07T17:15:34.998Z</time></trkpt><trkpt lat="43.429704835849144" lon="3.083183524808321"><ele>116.0</ele><time>2026-04-07T17:15:35.998Z</time></trkpt><trkpt lat="43.429560584478374" lon="3.0830521338388417"><ele>115.66666666666666</ele><time>2026-04-07T17:15:36.998Z</time></trkpt><trkpt lat="43.4294165922065" lon="3.082921462509938"><ele>115.33333333333334</ele><time>2026-04-07T17:15:37.998Z</time></trkpt><trkpt lat="43.42926966127905" lon="3.0828011444756815"><ele>115.0</ele><time>2026-04-07T17:15:38.998Z</time></trkpt><trkpt lat="43.4290959105748" lon="3.0827264615632077"><ele>115.0</ele><time>2026-04-07T17:15:39.998Z</time></trkpt><trkpt lat="43.42892510384324" lon="3.0826813422316945"><ele>115.0</ele><time>2026-04-07T17:15:40.998Z</time></trkpt><trkpt lat="43.42875039421463" lon="3.082663530476225"><ele>115.0</ele><time>2026-04-07T17:15:41.998Z</time></trkpt><trkpt lat="43.42858174513539" lon="3.0826461502801576"><ele>115.0</ele><time>2026-04-07T17:15:42.998Z</time></trkpt><trkpt lat="43.42841167412297" lon="3.08261181596772"><ele>115.0</ele><time>2026-04-07T17:15:43.998Z</time></trkpt><trkpt lat="43.428241404265954" lon="3.082568512649647"><ele>115.0</ele><time>2026-04-07T17:15:44.998Z</time></trkpt><trkpt lat="43.428073957505056" lon="3.0825239955580996"><ele>115.66666666666667</ele><time>2026-04-07T17:15:45.998Z</time></trkpt><trkpt lat="43.427904198488676" lon="3.082486197964813"><ele>116.33333333333334</ele><time>2026-04-07T17:15:46.998Z</time></trkpt><trkpt lat="43.427731844722445" lon="3.0824428895439158"><ele>117.0</ele><time>2026-04-07T17:15:47.997Z</time></trkpt><trkpt lat="43.42756341837553" lon="3.082397987402516"><ele>117.0</ele><time>2026-04-07T17:15:49Z</time></trkpt><trkpt lat="43.42739399456015" lon="3.082354234660207"><ele>117.0</ele><time>2026-04-07T17:15:50Z</time></trkpt><trkpt lat="43.42722764352058" lon="3.082317532490969"><ele>117.0</ele><time>2026-04-07T17:15:51Z</time></trkpt><trkpt lat="43.42706272036118" lon="3.082273283525709"><ele>118.0</ele><time>2026-04-07T17:15:52Z</time></trkpt><trkpt lat="43.42689798586693" lon="3.0822325043261323"><ele>119.0</ele><time>2026-04-07T17:15:53Z</time></trkpt><trkpt lat="43.42673341901689" lon="3.082193866378877"><ele>120.0</ele><time>2026-04-07T17:15:54Z</time></trkpt><trkpt lat="43.42656878152034" lon="3.0821494857754055"><ele>120.0</ele><time>2026-04-07T17:15:55Z</time></trkpt><trkpt lat="43.42640609660717" lon="3.0821071846835526"><ele>120.0</ele><time>2026-04-07T17:15:56Z</time></trkpt><trkpt lat="43.426246199740135" lon="3.0820645893701792"><ele>120.0</ele><time>2026-04-07T17:15:57Z</time></trkpt><trkpt lat="43.42608768609248" lon="3.0820266753029246"><ele>121.33333333333334</ele><time>2026-04-07T17:15:58Z</time></trkpt><trkpt lat="43.42592356017274" lon="3.081989904567972"><ele>122.66666666666667</ele><time>2026-04-07T17:15:59Z</time></trkpt><trkpt lat="43.42576740533733" lon="3.0819521677020756"><ele>124.0</ele><time>2026-04-07T17:16:00Z</time></trkpt><trkpt lat="43.425606812230725" lon="3.0819186562550835"><ele>126.33333333333334</ele><time>2026-04-07T17:16:01Z</time></trkpt><trkpt lat="43.425449758237576" lon="3.0818758385006793"><ele>128.66666666666666</ele><time>2026-04-07T17:16:02Z</time></trkpt><trkpt lat="43.42529658455451" lon="3.0818371006973098"><ele>131.0</ele><time>2026-04-07T17:16:03Z</time></trkpt><trkpt lat="43.42514529646935" lon="3.081796961889182"><ele>131.0</ele><time>2026-04-07T17:16:04Z</time></trkpt><trkpt lat="43.424991554158915" lon="3.081760127662218"><ele>131.0</ele><time>2026-04-07T17:16:05Z</time></trkpt><trkpt lat="43.4248427383182" lon="3.0817209567930974"><ele>131.0</ele><time>2026-04-07T17:16:06Z</time></trkpt><trkpt lat="43.42469692756283" lon="3.0816810562555794"><ele>131.75</ele><time>2026-04-07T17:16:07Z</time></trkpt><trkpt lat="43.424549364962445" lon="3.081654067852701"><ele>132.5</ele><time>2026-04-07T17:16:08Z</time></trkpt><trkpt lat="43.42440122306171" lon="3.08162315007817"><ele>133.25</ele><time>2026-04-07T17:16:09Z</time></trkpt><trkpt lat="43.4242560700217" lon="3.0815900434801704"><ele>134.0</ele><time>2026-04-07T17:16:10Z</time></trkpt><trkpt lat="43.424107649244384" lon="3.0815654729464588"><ele>134.0</ele><time>2026-04-07T17:16:11Z</time></trkpt><trkpt lat="43.42396047172538" lon="3.081547608609173"><ele>134.0</ele><time>2026-04-07T17:16:12Z</time></trkpt><trkpt lat="43.42380698117014" lon="3.0815274147893077"><ele>134.0</ele><time>2026-04-07T17:16:13Z</time></trkpt><trkpt lat="43.423660997536594" lon="3.081513881215029"><ele>134.0</ele><time>2026-04-07T17:16:14Z</time></trkpt><trkpt lat="43.423515194340595" lon="3.0814999203305717"><ele>134.5</ele><time>2026-04-07T17:16:15Z</time></trkpt><trkpt lat="43.42336121725668" lon="3.081488837689064"><ele>135.0</ele><time>2026-04-07T17:16:16Z</time></trkpt><trkpt lat="43.42321496760316" lon="3.0814846081339025"><ele>135.5</ele><time>2026-04-07T17:16:17Z</time></trkpt><trkpt lat="43.42306760423517" lon="3.0814694030730587"><ele>136.0</ele><time>2026-04-07T17:16:18Z</time></trkpt><trkpt lat="43.422908011837585" lon="3.081468707858532"><ele>136.75</ele><time>2026-04-07T17:16:19Z</time></trkpt><trkpt lat="43.42275839218026" lon="3.0814608694492063"><ele>137.5</ele><time>2026-04-07T17:16:19.999Z</time></trkpt><trkpt lat="43.42260559660101" lon="3.081462189546848"><ele>138.25</ele><time>2026-04-07T17:16:20.999Z</time></trkpt><trkpt lat="43.4224603140908" lon="3.0814434756341105"><ele>139.0</ele><time>2026-04-07T17:16:21.999Z</time></trkpt><trkpt lat="43.42229089715857" lon="3.0814482350235863"><ele>140.66666666666669</ele><time>2026-04-07T17:16:22.999Z</time></trkpt><trkpt lat="43.42212993741744" lon="3.0814442573571843"><ele>142.33333333333334</ele><time>2026-04-07T17:16:23.999Z</time></trkpt><trkpt lat="43.42196752908403" lon="3.081441388214126"><ele>144.0</ele><time>2026-04-07T17:16:24.999Z</time></trkpt><trkpt lat="43.42181697391852" lon="3.0814322504553204"><ele>144.0</ele><time>2026-04-07T17:16:25.999Z</time></trkpt><trkpt lat="43.4216620754744" lon="3.081429022692849"><ele>144.0</ele><time>2026-04-07T17:16:26.999Z</time></trkpt><trkpt lat="43.42150248470874" lon="3.0814205545450344"><ele>144.0</ele><time>2026-04-07T17:16:27.999Z</time></trkpt><trkpt lat="43.42134250134418" lon="3.081416481493922"><ele>145.0</ele><time>2026-04-07T17:16:28.999Z</time></trkpt><trkpt lat="43.42118450980144" lon="3.081412264574929"><ele>146.0</ele><time>2026-04-07T17:16:29.999Z</time></trkpt><trkpt lat="43.42102458505593" lon="3.0814076046073744"><ele>147.0</ele><time>2026-04-07T17:16:30.999Z</time></trkpt><trkpt lat="43.420872565112624" lon="3.0814023744869163"><ele>147.0</ele><time>2026-04-07T17:16:31.999Z</time></trkpt><trkpt lat="43.42071591091579" lon="3.0813980719929637"><ele>147.0</ele><time>2026-04-07T17:16:32.999Z</time></trkpt><trkpt lat="43.42055753658812" lon="3.081398420051163"><ele>147.0</ele><time>2026-04-07T17:16:33.999Z</time></trkpt><trkpt lat="43.42040993484752" lon="3.0813904215682903"><ele>147.66666666666666</ele><time>2026-04-07T17:16:34.999Z</time></trkpt><trkpt lat="43.42025657862214" lon="3.0813772582259387"><ele>148.33333333333331</ele><time>2026-04-07T17:16:35.999Z</time></trkpt><trkpt lat="43.420092621696725" lon="3.081352384237596"><ele>149.0</ele><time>2026-04-07T17:16:36.999Z</time></trkpt><trkpt lat="43.41993719308685" lon="3.081325042337425"><ele>149.0</ele><time>2026-04-07T17:16:37.999Z</time></trkpt><trkpt lat="43.41978155702249" lon="3.0812938264944907"><ele>149.0</ele><time>2026-04-07T17:16:38.999Z</time></trkpt><trkpt lat="43.41962302128767" lon="3.0812526070945925"><ele>149.0</ele><time>2026-04-07T17:16:39.999Z</time></trkpt><trkpt lat="43.41946439815013" lon="3.0812008104841375"><ele>148.0</ele><time>2026-04-07T17:16:40.999Z</time></trkpt><trkpt lat="43.41929594601257" lon="3.0811555042103502"><ele>147.0</ele><time>2026-04-07T17:16:41.999Z</time></trkpt><trkpt lat="43.419120917374265" lon="3.0811147020983016"><ele>146.0</ele><time>2026-04-07T17:16:42.999Z</time></trkpt><trkpt lat="43.41894303794586" lon="3.0810698627673516"><ele>144.66666666666666</ele><time>2026-04-07T17:16:43.999Z</time></trkpt><trkpt lat="43.418767878248794" lon="3.0810201742653684"><ele>143.33333333333334</ele><time>2026-04-07T17:16:44.999Z</time></trkpt><trkpt lat="43.41859312956356" lon="3.0809732426613143"><ele>142.0</ele><time>2026-04-07T17:16:45.999Z</time></trkpt><trkpt lat="43.418421326593524" lon="3.0809371707106985"><ele>142.0</ele><time>2026-04-07T17:16:46.999Z</time></trkpt><trkpt lat="43.418249594407605" lon="3.080892812269811"><ele>142.0</ele><time>2026-04-07T17:16:47.999Z</time></trkpt><trkpt lat="43.41807369310227" lon="3.0808621721631373"><ele>142.0</ele><time>2026-04-07T17:16:48.999Z</time></trkpt><trkpt lat="43.417897475352056" lon="3.080873345701118"><ele>142.66666666666669</ele><time>2026-04-07T17:16:49.999Z</time></trkpt><trkpt lat="43.41771135877595" lon="3.080903019842696"><ele>143.33333333333334</ele><time>2026-04-07T17:16:50.999Z</time></trkpt><trkpt lat="43.41753525648189" lon="3.0809505785547477"><ele>144.0</ele><time>2026-04-07T17:16:51.999Z</time></trkpt><trkpt lat="43.41736441245876" lon="3.081030804534632"><ele>144.0</ele><time>2026-04-07T17:16:52.999Z</time></trkpt><trkpt lat="43.41720265498147" lon="3.081150111222698"><ele>144.0</ele><time>2026-04-07T17:16:53.999Z</time></trkpt><trkpt lat="43.41705193219967" lon="3.0812893656888756"><ele>144.0</ele><time>2026-04-07T17:16:54.999Z</time></trkpt><trkpt lat="43.41691554837291" lon="3.081438393936499"><ele>145.33333333333334</ele><time>2026-04-07T17:16:55.999Z</time></trkpt><trkpt lat="43.41676683875271" lon="3.0815850024158093"><ele>146.66666666666669</ele><time>2026-04-07T17:16:56.999Z</time></trkpt><trkpt lat="43.416599698311906" lon="3.081701378186261"><ele>148.0</ele><time>2026-04-07T17:16:57.999Z</time></trkpt><trkpt lat="43.41642503638729" lon="3.0817888934946858"><ele>146.66666666666669</ele><time>2026-04-07T17:16:58.999Z</time></trkpt><trkpt lat="43.41624465124985" lon="3.081866218220537"><ele>145.33333333333334</ele><time>2026-04-07T17:16:59.999Z</time></trkpt><trkpt lat="43.41606365819548" lon="3.0819553968112716"><ele>144.0</ele><time>2026-04-07T17:17:00.999Z</time></trkpt><trkpt lat="43.415882541605804" lon="3.082037674380225"><ele>144.0</ele><time>2026-04-07T17:17:01.999Z</time></trkpt><trkpt lat="43.41570378231283" lon="3.082114531472837"><ele>144.0</ele><time>2026-04-07T17:17:02.999Z</time></trkpt><trkpt lat="43.41552338580948" lon="3.0821964899589718"><ele>144.0</ele><time>2026-04-07T17:17:03.999Z</time></trkpt><trkpt lat="43.4153502728655" lon="3.0822770905577257"><ele>142.66666666666666</ele><time>2026-04-07T17:17:04.999Z</time></trkpt><trkpt lat="43.415177540103485" lon="3.0823567997748396"><ele>141.33333333333331</ele><time>2026-04-07T17:17:05.999Z</time></trkpt><trkpt lat="43.41500423711733" lon="3.082432726456868"><ele>140.0</ele><time>2026-04-07T17:17:06.999Z</time></trkpt><trkpt lat="43.41481935991192" lon="3.082484343692577"><ele>138.33333333333331</ele><time>2026-04-07T17:17:07.998Z</time></trkpt><trkpt lat="43.41463418020937" lon="3.0825469724534424"><ele>136.66666666666666</ele><time>2026-04-07T17:17:08.998Z</time></trkpt><trkpt lat="43.414445327843836" lon="3.0825300888522693"><ele>135.0</ele><time>2026-04-07T17:17:09.998Z</time></trkpt><trkpt lat="43.41426524853501" lon="3.0824932560171496"><ele>135.0</ele><time>2026-04-07T17:17:10.998Z</time></trkpt><trkpt lat="43.414082614544334" lon="3.0824440365930634"><ele>135.0</ele><time>2026-04-07T17:17:11.998Z</time></trkpt><trkpt lat="43.41391180524385" lon="3.0823545069290677"><ele>135.0</ele><time>2026-04-07T17:17:12.998Z</time></trkpt><trkpt lat="43.413741069112035" lon="3.0822658677513464"><ele>135.0</ele><time>2026-04-07T17:17:13.998Z</time></trkpt><trkpt lat="43.41357336813717" lon="3.0821886609904565"><ele>135.0</ele><time>2026-04-07T17:17:14.998Z</time></trkpt><trkpt lat="43.413389079794065" lon="3.082128839724844"><ele>135.0</ele><time>2026-04-07T17:17:15.998Z</time></trkpt><trkpt lat="43.4132031833266" lon="3.0821018006155554"><ele>135.0</ele><time>2026-04-07T17:17:16.998Z</time></trkpt><trkpt lat="43.413019505573274" lon="3.082130373549336"><ele>135.0</ele><time>2026-04-07T17:17:17.998Z</time></trkpt><trkpt lat="43.412834125335905" lon="3.082162809495783"><ele>135.0</ele><time>2026-04-07T17:17:18.998Z</time></trkpt><trkpt lat="43.412651983677364" lon="3.0821897956156574"><ele>136.0</ele><time>2026-04-07T17:17:19.998Z</time></trkpt><trkpt lat="43.41247263051285" lon="3.082208218644512"><ele>137.0</ele><time>2026-04-07T17:17:20.998Z</time></trkpt><trkpt lat="43.41230205392327" lon="3.0822198992711107"><ele>138.0</ele><time>2026-04-07T17:17:21.998Z</time></trkpt><trkpt lat="43.41213516168165" lon="3.08223430515157"><ele>138.66666666666666</ele><time>2026-04-07T17:17:22.998Z</time></trkpt><trkpt lat="43.41197137232623" lon="3.0822511239720205"><ele>139.33333333333331</ele><time>2026-04-07T17:17:23.998Z</time></trkpt><trkpt lat="43.41180845839062" lon="3.082272882991534"><ele>140.0</ele><time>2026-04-07T17:17:24.998Z</time></trkpt><trkpt lat="43.41164961491721" lon="3.082340107036276"><ele>140.0</ele><time>2026-04-07T17:17:25.998Z</time></trkpt><trkpt lat="43.4115011355587" lon="3.0824249754218376"><ele>140.0</ele><time>2026-04-07T17:17:26.998Z</time></trkpt><trkpt lat="43.41136197159351" lon="3.0825402006423115"><ele>140.0</ele><time>2026-04-07T17:17:27.998Z</time></trkpt><trkpt lat="43.41123976066156" lon="3.082684372799145"><ele>141.0</ele><time>2026-04-07T17:17:28.998Z</time></trkpt><trkpt lat="43.41113374355035" lon="3.0828461471419546"><ele>142.0</ele><time>2026-04-07T17:17:29.998Z</time></trkpt><trkpt lat="43.411044190156765" lon="3.0830313234430116"><ele>143.0</ele><time>2026-04-07T17:17:30.998Z</time></trkpt><trkpt lat="43.41096616915035" lon="3.083227133852155"><ele>143.33333333333331</ele><time>2026-04-07T17:17:31.998Z</time></trkpt><trkpt lat="43.41090397224114" lon="3.08343066695608"><ele>143.66666666666666</ele><time>2026-04-07T17:17:32.998Z</time></trkpt><trkpt lat="43.41084537361255" lon="3.0836347311305565"><ele>144.0</ele><time>2026-04-07T17:17:33.998Z</time></trkpt><trkpt lat="43.41078646601711" lon="3.0838350698038774"><ele>144.0</ele><time>2026-04-07T17:17:34.998Z</time></trkpt><trkpt lat="43.410726370305795" lon="3.0840182509060123"><ele>144.0</ele><time>2026-04-07T17:17:35.998Z</time></trkpt><trkpt lat="43.41066036113328" lon="3.0841898648503516"><ele>144.0</ele><time>2026-04-07T17:17:36.998Z</time></trkpt><trkpt lat="43.410573450811206" lon="3.084351103944371"><ele>144.0</ele><time>2026-04-07T17:17:37.998Z</time></trkpt><trkpt lat="43.41047100564123" lon="3.0845058643102914"><ele>145.33333333333334</ele><time>2026-04-07T17:17:38.998Z</time></trkpt><trkpt lat="43.4103607702935" lon="3.0846400972284154"><ele>146.66666666666669</ele><time>2026-04-07T17:17:39.998Z</time></trkpt><trkpt lat="43.410233431094504" lon="3.0847643304624137"><ele>148.0</ele><time>2026-04-07T17:17:40.998Z</time></trkpt><trkpt lat="43.41011093380122" lon="3.0849080996005416"><ele>147.33333333333334</ele><time>2026-04-07T17:17:41.998Z</time></trkpt><trkpt lat="43.410001132884545" lon="3.085061217558143"><ele>146.66666666666666</ele><time>2026-04-07T17:17:42.998Z</time></trkpt><trkpt lat="43.40988193764916" lon="3.0851951978988215"><ele>146.0</ele><time>2026-04-07T17:17:43.998Z</time></trkpt><trkpt lat="43.40976579503703" lon="3.085329539926179"><ele>148.0</ele><time>2026-04-07T17:17:44.998Z</time></trkpt><trkpt lat="43.40964557924031" lon="3.085464461199742"><ele>150.0</ele><time>2026-04-07T17:17:45.998Z</time></trkpt><trkpt lat="43.409528690146466" lon="3.0855984200094193"><ele>152.0</ele><time>2026-04-07T17:17:46.998Z</time></trkpt><trkpt lat="43.40941457281405" lon="3.0857346216504813"><ele>151.66666666666666</ele><time>2026-04-07T17:17:47.998Z</time></trkpt><trkpt lat="43.409299399165135" lon="3.085874992267772"><ele>151.33333333333334</ele><time>2026-04-07T17:17:48.998Z</time></trkpt><trkpt lat="43.40918262945913" lon="3.086007318100115"><ele>151.0</ele><time>2026-04-07T17:17:49.998Z</time></trkpt><trkpt lat="43.409068590390056" lon="3.0861464522018798"><ele>151.0</ele><time>2026-04-07T17:17:50.998Z</time></trkpt><trkpt lat="43.40895871149706" lon="3.086293508817633"><ele>151.0</ele><time>2026-04-07T17:17:51.998Z</time></trkpt><trkpt lat="43.40884721500591" lon="3.086437952840921"><ele>151.0</ele><time>2026-04-07T17:17:52.998Z</time></trkpt><trkpt lat="43.40874588103112" lon="3.0865953057929025"><ele>151.33333333333334</ele><time>2026-04-07T17:17:53.998Z</time></trkpt><trkpt lat="43.40864456728286" lon="3.086759239064113"><ele>151.66666666666666</ele><time>2026-04-07T17:17:55Z</time></trkpt><trkpt lat="43.408544960504464" lon="3.0869220335523164"><ele>152.0</ele><time>2026-04-07T17:17:56Z</time></trkpt><trkpt lat="43.40844203982944" lon="3.0870919805724846"><ele>152.0</ele><time>2026-04-07T17:17:57Z</time></trkpt><trkpt lat="43.4083361784233" lon="3.087268355995238"><ele>152.0</ele><time>2026-04-07T17:17:58Z</time></trkpt><trkpt lat="43.408229095394454" lon="3.0874485336721005"><ele>152.0</ele><time>2026-04-07T17:17:59Z</time></trkpt><trkpt lat="43.4081160812818" lon="3.0876208416235738"><ele>151.33333333333331</ele><time>2026-04-07T17:18:00Z</time></trkpt><trkpt lat="43.40800218190278" lon="3.0877947002125747"><ele>150.66666666666666</ele><time>2026-04-07T17:18:01Z</time></trkpt><trkpt lat="43.40789141289294" lon="3.0879802254006314"><ele>150.0</ele><time>2026-04-07T17:18:02Z</time></trkpt><trkpt lat="43.40778213109671" lon="3.0881714593359577"><ele>148.66666666666666</ele><time>2026-04-07T17:18:03Z</time></trkpt><trkpt lat="43.407716257311286" lon="3.088403650336514"><ele>147.33333333333331</ele><time>2026-04-07T17:18:04Z</time></trkpt><trkpt lat="43.40767317425102" lon="3.0886561769640757"><ele>146.0</ele><time>2026-04-07T17:18:05Z</time></trkpt><trkpt lat="43.40764693612415" lon="3.088901092578081"><ele>144.66666666666666</ele><time>2026-04-07T17:18:06Z</time></trkpt><trkpt lat="43.40766768643948" lon="3.0891643120322096"><ele>143.33333333333334</ele><time>2026-04-07T17:18:07Z</time></trkpt><trkpt lat="43.407661044896955" lon="3.0894156801492754"><ele>142.0</ele><time>2026-04-07T17:18:08Z</time></trkpt><trkpt lat="43.40761114713607" lon="3.089663239269449"><ele>142.0</ele><time>2026-04-07T17:18:09Z</time></trkpt><trkpt lat="43.407543452310264" lon="3.0899058770734187"><ele>142.0</ele><time>2026-04-07T17:18:10Z</time></trkpt><trkpt lat="43.407440606895335" lon="3.090131440381696"><ele>142.0</ele><time>2026-04-07T17:18:11Z</time></trkpt><trkpt lat="43.40734079041012" lon="3.09035975419453"><ele>140.33333333333334</ele><time>2026-04-07T17:18:12Z</time></trkpt><trkpt lat="43.40724672966931" lon="3.0905830844749054"><ele>138.66666666666666</ele><time>2026-04-07T17:18:13Z</time></trkpt><trkpt lat="43.40714721570219" lon="3.090796500824142"><ele>137.0</ele><time>2026-04-07T17:18:14Z</time></trkpt><trkpt lat="43.40704965556324" lon="3.0910107080102542"><ele>134.33333333333331</ele><time>2026-04-07T17:18:15Z</time></trkpt><trkpt lat="43.40693743142438" lon="3.091215125958168"><ele>131.66666666666666</ele><time>2026-04-07T17:18:16Z</time></trkpt><trkpt lat="43.40680690512101" lon="3.0913960398910487"><ele>129.0</ele><time>2026-04-07T17:18:17Z</time></trkpt><trkpt lat="43.406660822981856" lon="3.0915685580158088"><ele>130.0</ele><time>2026-04-07T17:18:18Z</time></trkpt><trkpt lat="43.40649568123438" lon="3.091703965982832"><ele>131.0</ele><time>2026-04-07T17:18:19Z</time></trkpt><trkpt lat="43.40631723105121" lon="3.091828918526784"><ele>132.0</ele><time>2026-04-07T17:18:20Z</time></trkpt><trkpt lat="43.40613576286712" lon="3.09194039698646"><ele>130.0</ele><time>2026-04-07T17:18:21Z</time></trkpt><trkpt lat="43.4059588004992" lon="3.0920547914215635"><ele>128.0</ele><time>2026-04-07T17:18:22Z</time></trkpt><trkpt lat="43.40577937888836" lon="3.0921736628107013"><ele>126.0</ele><time>2026-04-07T17:18:23Z</time></trkpt><trkpt lat="43.405594957034786" lon="3.092287763639829"><ele>124.0</ele><time>2026-04-07T17:18:24Z</time></trkpt><trkpt lat="43.40541212745723" lon="3.0923912055567615"><ele>122.0</ele><time>2026-04-07T17:18:25Z</time></trkpt><trkpt lat="43.40522132621813" lon="3.092469548048948"><ele>120.0</ele><time>2026-04-07T17:18:26Z</time></trkpt><trkpt lat="43.4050207969654" lon="3.0924988308783"><ele>120.0</ele><time>2026-04-07T17:18:27Z</time></trkpt><trkpt lat="43.40480424932363" lon="3.092454340738936"><ele>120.0</ele><time>2026-04-07T17:18:28Z</time></trkpt><trkpt lat="43.40459233758516" lon="3.0923929320621686"><ele>120.0</ele><time>2026-04-07T17:18:29Z</time></trkpt><trkpt lat="43.40439573691506" lon="3.0923200772196258"><ele>117.33333333333334</ele><time>2026-04-07T17:18:30Z</time></trkpt><trkpt lat="43.404234976599085" lon="3.0922681763971993"><ele>114.66666666666667</ele><time>2026-04-07T17:18:30.999Z</time></trkpt><trkpt lat="43.40404702819319" lon="3.0921973296851983"><ele>112.0</ele><time>2026-04-07T17:18:31.999Z</time></trkpt><trkpt lat="43.40385630383346" lon="3.092131006420051"><ele>109.33333333333334</ele><time>2026-04-07T17:18:32.999Z</time></trkpt><trkpt lat="43.403651750826235" lon="3.0921188630990897"><ele>106.66666666666666</ele><time>2026-04-07T17:18:33.999Z</time></trkpt><trkpt lat="43.403450493191315" lon="3.0921714063065844"><ele>104.0</ele><time>2026-04-07T17:18:34.999Z</time></trkpt><trkpt lat="43.40325344228682" lon="3.092265337464403"><ele>104.0</ele><time>2026-04-07T17:18:35.999Z</time></trkpt><trkpt lat="43.40306753359123" lon="3.092413476498956"><ele>104.0</ele><time>2026-04-07T17:18:36.999Z</time></trkpt><trkpt lat="43.40289820834506" lon="3.0925678752124814"><ele>104.0</ele><time>2026-04-07T17:18:37.999Z</time></trkpt><trkpt lat="43.40273157562426" lon="3.0927164370021147"><ele>103.0</ele><time>2026-04-07T17:18:38.999Z</time></trkpt><trkpt lat="43.40255933526114" lon="3.092884081501896"><ele>102.0</ele><time>2026-04-07T17:18:39.999Z</time></trkpt><trkpt lat="43.402378346645044" lon="3.0930582450256696"><ele>101.0</ele><time>2026-04-07T17:18:40.999Z</time></trkpt><trkpt lat="43.402189744326954" lon="3.0932197876528713"><ele>98.5</ele><time>2026-04-07T17:18:41.999Z</time></trkpt><trkpt lat="43.401990459080324" lon="3.0933868001743217"><ele>96.0</ele><time>2026-04-07T17:18:42.999Z</time></trkpt><trkpt lat="43.40179015567609" lon="3.093556504560731"><ele>96.0</ele><time>2026-04-07T17:18:43.999Z</time></trkpt><trkpt lat="43.40158736457783" lon="3.093732164293383"><ele>96.0</ele><time>2026-04-07T17:18:44.999Z</time></trkpt><trkpt lat="43.40137842531377" lon="3.0939098120349517"><ele>94.0</ele><time>2026-04-07T17:18:45.999Z</time></trkpt><trkpt lat="43.40116841389836" lon="3.0940918719534287"><ele>92.0</ele><time>2026-04-07T17:18:46.999Z</time></trkpt><trkpt lat="43.40095441164193" lon="3.0942788660356855"><ele>92.0</ele><time>2026-04-07T17:18:47.999Z</time></trkpt><trkpt lat="43.40073715311578" lon="3.094463776531757"><ele>92.0</ele><time>2026-04-07T17:18:48.999Z</time></trkpt><trkpt lat="43.40054282153065" lon="3.0946299903869448"><ele>89.66666666666667</ele><time>2026-04-07T17:18:49.999Z</time></trkpt><trkpt lat="43.40037961394028" lon="3.0947732601541107"><ele>87.33333333333333</ele><time>2026-04-07T17:18:50.999Z</time></trkpt><trkpt lat="43.40022449009328" lon="3.0948977722476236"><ele>85.0</ele><time>2026-04-07T17:18:51.999Z</time></trkpt><trkpt lat="43.40005920029772" lon="3.0949829035912724"><ele>85.0</ele><time>2026-04-07T17:18:52.999Z</time></trkpt><trkpt lat="43.39988013902532" lon="3.095002874596411"><ele>85.0</ele><time>2026-04-07T17:18:53.999Z</time></trkpt><trkpt lat="43.39971195916213" lon="3.0950103932193684"><ele>85.0</ele><time>2026-04-07T17:18:54.999Z</time></trkpt><trkpt lat="43.3995504869207" lon="3.094977955796313"><ele>82.66666666666666</ele><time>2026-04-07T17:18:55.999Z</time></trkpt><trkpt lat="43.399391629348735" lon="3.0949451580067526"><ele>80.33333333333333</ele><time>2026-04-07T17:18:56.999Z</time></trkpt><trkpt lat="43.39924256617781" lon="3.0948757149817094"><ele>78.0</ele><time>2026-04-07T17:18:57.999Z</time></trkpt><trkpt lat="43.39909914272573" lon="3.094795095581615"><ele>78.0</ele><time>2026-04-07T17:18:58.999Z</time></trkpt><trkpt lat="43.39896373292074" lon="3.0947165064778623"><ele>78.0</ele><time>2026-04-07T17:18:59.999Z</time></trkpt><trkpt lat="43.39882616827044" lon="3.094666850818138"><ele>78.0</ele><time>2026-04-07T17:19:00.999Z</time></trkpt><trkpt lat="43.398683032533754" lon="3.09468032342855"><ele>78.0</ele><time>2026-04-07T17:19:01.999Z</time></trkpt><trkpt lat="43.398559909555935" lon="3.094747568139106"><ele>80.25</ele><time>2026-04-07T17:19:02.999Z</time></trkpt><trkpt lat="43.3984551823968" lon="3.0948121370652633"><ele>82.5</ele><time>2026-04-07T17:19:03.999Z</time></trkpt><trkpt lat="43.398350051140234" lon="3.094778403508665"><ele>84.75</ele><time>2026-04-07T17:19:04.999Z</time></trkpt><trkpt lat="43.398227268384154" lon="3.0947798323980535"><ele>87.0</ele><time>2026-04-07T17:19:05.999Z</time></trkpt><trkpt lat="43.39810947214853" lon="3.094765103575301"><ele>88.8</ele><time>2026-04-07T17:19:06.999Z</time></trkpt><trkpt lat="43.39799843221656" lon="3.094752137305355"><ele>90.6</ele><time>2026-04-07T17:19:07.999Z</time></trkpt><trkpt lat="43.39790358818898" lon="3.0947217846331454"><ele>92.39999999999999</ele><time>2026-04-07T17:19:08.999Z</time></trkpt><trkpt lat="43.39780706483861" lon="3.0947287882805665"><ele>94.19999999999999</ele><time>2026-04-07T17:19:09.999Z</time></trkpt><trkpt lat="43.39770182284243" lon="3.0947300030521996"><ele>96.0</ele><time>2026-04-07T17:19:10.999Z</time></trkpt><trkpt lat="43.39759359782515" lon="3.0947260153438725"><ele>96.0</ele><time>2026-04-07T17:19:11.999Z</time></trkpt><trkpt lat="43.397484160359916" lon="3.0947488181787626"><ele>96.0</ele><time>2026-04-07T17:19:12.999Z</time></trkpt><trkpt lat="43.39737018779351" lon="3.0947681995400718"><ele>96.0</ele><time>2026-04-07T17:19:13.999Z</time></trkpt><trkpt lat="43.39725253651403" lon="3.0947843181237724"><ele>96.0</ele><time>2026-04-07T17:19:14.999Z</time></trkpt><trkpt lat="43.397138594092915" lon="3.094802335103261"><ele>97.0</ele><time>2026-04-07T17:19:15.999Z</time></trkpt><trkpt lat="43.39701862403472" lon="3.094821214946335"><ele>98.0</ele><time>2026-04-07T17:19:16.999Z</time></trkpt><trkpt lat="43.39689708310166" lon="3.0948386963511476"><ele>99.0</ele><time>2026-04-07T17:19:17.998Z</time></trkpt><trkpt lat="43.39677556248123" lon="3.094856061720164"><ele>100.0</ele><time>2026-04-07T17:19:18.998Z</time></trkpt><trkpt lat="43.39665781828832" lon="3.094869737270981"><ele>100.0</ele><time>2026-04-07T17:19:19.998Z</time></trkpt><trkpt lat="43.39654455239138" lon="3.094865376722844"><ele>100.0</ele><time>2026-04-07T17:19:20.998Z</time></trkpt><trkpt lat="43.39643702893771" lon="3.0948216066508425"><ele>100.0</ele><time>2026-04-07T17:19:21.998Z</time></trkpt><trkpt lat="43.39633149987518" lon="3.094781850619475"><ele>100.0</ele><time>2026-04-07T17:19:22.998Z</time></trkpt><trkpt lat="43.396226171921825" lon="3.0947394822090146"><ele>100.0</ele><time>2026-04-07T17:19:23.998Z</time></trkpt><trkpt lat="43.39612354881395" lon="3.0947012058570347"><ele>99.6</ele><time>2026-04-07T17:19:24.998Z</time></trkpt><trkpt lat="43.39601686242721" lon="3.094664421351756"><ele>99.2</ele><time>2026-04-07T17:19:25.998Z</time></trkpt><trkpt lat="43.39590511017622" lon="3.0946365370581415"><ele>98.80000000000001</ele><time>2026-04-07T17:19:26.998Z</time></trkpt><trkpt lat="43.395796925416015" lon="3.0946249851712615"><ele>98.4</ele><time>2026-04-07T17:19:27.998Z</time></trkpt><trkpt lat="43.39568716994123" lon="3.094629756776586"><ele>98.0</ele><time>2026-04-07T17:19:28.998Z</time></trkpt><trkpt lat="43.39558253382765" lon="3.0946392231661184"><ele>97.80000000000001</ele><time>2026-04-07T17:19:29.998Z</time></trkpt><trkpt lat="43.395477930487154" lon="3.0946560439851556"><ele>97.6</ele><time>2026-04-07T17:19:30.998Z</time></trkpt><trkpt lat="43.39538479805376" lon="3.094697338621594"><ele>97.4</ele><time>2026-04-07T17:19:31.998Z</time></trkpt><trkpt lat="43.39529692217894" lon="3.0947862355815805"><ele>97.19999999999999</ele><time>2026-04-07T17:19:32.998Z</time></trkpt><trkpt lat="43.39522237565588" lon="3.09488169542079"><ele>97.0</ele><time>2026-04-07T17:19:33.998Z</time></trkpt><trkpt lat="43.395144458919155" lon="3.094977164919761"><ele>97.0</ele><time>2026-04-07T17:19:34.998Z</time></trkpt><trkpt lat="43.39506588757081" lon="3.095074430020057"><ele>97.0</ele><time>2026-04-07T17:19:35.998Z</time></trkpt><trkpt lat="43.394992360456925" lon="3.095169874663598"><ele>97.0</ele><time>2026-04-07T17:19:36.998Z</time></trkpt><trkpt lat="43.39492529007801" lon="3.0952804413521093"><ele>97.0</ele><time>2026-04-07T17:19:37.998Z</time></trkpt><trkpt lat="43.394855535384515" lon="3.095396444955232"><ele>97.0</ele><time>2026-04-07T17:19:38.998Z</time></trkpt><trkpt lat="43.394795897304" lon="3.095515783594991"><ele>97.0</ele><time>2026-04-07T17:19:39.998Z</time></trkpt><trkpt lat="43.39473747308464" lon="3.095639494077673"><ele>97.0</ele><time>2026-04-07T17:19:40.998Z</time></trkpt><trkpt lat="43.39466393117373" lon="3.095743824288455"><ele>97.0</ele><time>2026-04-07T17:19:41.998Z</time></trkpt><trkpt lat="43.394604334671044" lon="3.0958545292432627"><ele>97.0</ele><time>2026-04-07T17:19:42.998Z</time></trkpt><trkpt lat="43.39454878319687" lon="3.095961637802279"><ele>97.0</ele><time>2026-04-07T17:19:43.998Z</time></trkpt><trkpt lat="43.39449686894394" lon="3.0960699581822735"><ele>97.19999999999999</ele><time>2026-04-07T17:19:44.998Z</time></trkpt><trkpt lat="43.3944440497079" lon="3.0961786243757383"><ele>97.4</ele><time>2026-04-07T17:19:45.998Z</time></trkpt><trkpt lat="43.394406411659055" lon="3.096295963772886"><ele>97.6</ele><time>2026-04-07T17:19:46.998Z</time></trkpt><trkpt lat="43.394350592113774" lon="3.096409503954077"><ele>97.80000000000001</ele><time>2026-04-07T17:19:47.998Z</time></trkpt><trkpt lat="43.39428615049425" lon="3.0965165085796804"><ele>98.0</ele><time>2026-04-07T17:19:48.998Z</time></trkpt><trkpt lat="43.394232952266556" lon="3.0966295396735912"><ele>97.60000000000001</ele><time>2026-04-07T17:19:49.998Z</time></trkpt><trkpt lat="43.39417478201805" lon="3.0967436536437516"><ele>97.2</ele><time>2026-04-07T17:19:50.998Z</time></trkpt><trkpt lat="43.39412258811148" lon="3.0968549260421043"><ele>96.8</ele><time>2026-04-07T17:19:51.998Z</time></trkpt><trkpt lat="43.39407119909345" lon="3.096967693649146"><ele>96.4</ele><time>2026-04-07T17:19:52.998Z</time></trkpt><trkpt lat="43.394012845378484" lon="3.0970751318300183"><ele>96.0</ele><time>2026-04-07T17:19:53.998Z</time></trkpt><trkpt lat="43.39395676528039" lon="3.0971880969056365"><ele>96.0</ele><time>2026-04-07T17:19:54.998Z</time></trkpt><trkpt lat="43.393903645147574" lon="3.097295954611452"><ele>96.0</ele><time>2026-04-07T17:19:55.998Z</time></trkpt><trkpt lat="43.39384645259306" lon="3.097401243942878"><ele>96.0</ele><time>2026-04-07T17:19:56.998Z</time></trkpt><trkpt lat="43.393790486381185" lon="3.0975120228997572"><ele>96.0</ele><time>2026-04-07T17:19:57.998Z</time></trkpt><trkpt lat="43.39372676794273" lon="3.0976245621640865"><ele>96.0</ele><time>2026-04-07T17:19:58.998Z</time></trkpt><trkpt lat="43.393666009572186" lon="3.0977389814682783"><ele>96.16666666666667</ele><time>2026-04-07T17:19:59.998Z</time></trkpt><trkpt lat="43.393606240357066" lon="3.097848463084782"><ele>96.33333333333334</ele><time>2026-04-07T17:20:01Z</time></trkpt><trkpt lat="43.39355673311468" lon="3.0979548282759675"><ele>96.5</ele><time>2026-04-07T17:20:02Z</time></trkpt><trkpt lat="43.39351264858438" lon="3.0980594130728494"><ele>96.66666666666667</ele><time>2026-04-07T17:20:03Z</time></trkpt><trkpt lat="43.39347278348095" lon="3.098159982202221"><ele>96.83333333333334</ele><time>2026-04-07T17:20:04Z</time></trkpt><trkpt lat="43.39343628246063" lon="3.0982560046413044"><ele>97.0</ele><time>2026-04-07T17:20:05Z</time></trkpt><trkpt lat="43.393401903528" lon="3.09834337061167"><ele>96.6</ele><time>2026-04-07T17:20:06Z</time></trkpt><trkpt lat="43.393353615317835" lon="3.098412748406368"><ele>96.19999999999999</ele><time>2026-04-07T17:20:07Z</time></trkpt><trkpt lat="43.39327950907016" lon="3.098545831237023"><ele>95.8</ele><time>2026-04-07T17:20:09Z</time></trkpt><trkpt lat="43.39323546987549" lon="3.0986323114262135"><ele>95.4</ele><time>2026-04-07T17:20:11Z</time></trkpt><trkpt lat="43.39313933710731" lon="3.0986753687731476"><ele>95.0</ele><time>2026-04-07T17:20:15Z</time></trkpt><trkpt lat="43.3930461788903" lon="3.0986617314634914"><ele>94.4</ele><time>2026-04-07T17:20:16Z</time></trkpt><trkpt lat="43.39294605913803" lon="3.09861923420899"><ele>93.8</ele><time>2026-04-07T17:20:17Z</time></trkpt><trkpt lat="43.3928439954013" lon="3.0986047640989067"><ele>93.19999999999999</ele><time>2026-04-07T17:20:18Z</time></trkpt><trkpt lat="43.3927676466324" lon="3.098610362581913"><ele>92.6</ele><time>2026-04-07T17:20:19Z</time></trkpt><trkpt lat="43.39267082557622" lon="3.0987051857795973"><ele>92.0</ele><time>2026-04-07T17:20:21Z</time></trkpt><trkpt lat="43.392604919033" lon="3.0987007072230712"><ele>92.0</ele><time>2026-04-07T17:20:22Z</time></trkpt><trkpt lat="43.39253820745495" lon="3.098662989195622"><ele>92.0</ele><time>2026-04-07T17:20:23Z</time></trkpt><trkpt lat="43.392496387385854" lon="3.098556975999877"><ele>92.0</ele><time>2026-04-07T17:20:24Z</time></trkpt><trkpt lat="43.392418208324436" lon="3.098475763260612"><ele>92.0</ele><time>2026-04-07T17:20:26Z</time></trkpt><trkpt lat="43.39240162568353" lon="3.0983875197547883"><ele>92.0</ele><time>2026-04-07T17:20:28Z</time></trkpt><trkpt lat="43.392313813649416" lon="3.0984782197748437"><ele>92.0</ele><time>2026-04-07T17:20:32Z</time></trkpt><trkpt lat="43.39225977005772" lon="3.0985462339762497"><ele>92.0</ele><time>2026-04-07T17:20:33Z</time></trkpt><trkpt lat="43.392214973674506" lon="3.0986151059475193"><ele>92.0</ele><time>2026-04-07T17:20:34Z</time></trkpt><trkpt lat="43.3921418516709" lon="3.098726872630483"><ele>92.0</ele><time>2026-04-07T17:20:36Z</time></trkpt><trkpt lat="43.39217591589927" lon="3.098884252749373"><ele>92.0</ele><time>2026-04-07T17:20:38.999Z</time></trkpt><trkpt lat="43.392240703955245" lon="3.0990008158589295"><ele>92.0</ele><time>2026-04-07T17:20:40.999Z</time></trkpt><trkpt lat="43.39228451601926" lon="3.0990851490395555"><ele>92.0</ele><time>2026-04-07T17:20:42.999Z</time></trkpt></trkseg></trk></gpx>